<?xml version="1.0" encoding="utf-8"?>
<gpx xmlns:xsi="http://www.w3.org/2001/XMLSchema-instance" xmlns:xsd="http://www.w3.org/2001/XMLSchema" version="1.1" creator="Shapelink.com" xmlns="http://www.topografix.com/GPX/1/1" xmlns:gpxtpx="http://www.garmin.com/xmlschemas/TrackPointExtension/v1">
  <metadata>
    <name>Löpning 12.44 km, 2018-04-03</name>
    <desc></desc>
    <author><name>Bengt-Åke Forslund</name></author> 
    <time>2018-04-03T10:59:44Z</time>
  </metadata>
  <trk>
    <name>Löpning 12.44 km, 2018-04-03</name>
    <trkseg>
      <trkpt lat="62.636054784156" lon="17.968374499841">
        <ele>74.2</ele>
        <time>2018-04-03T10:59:44Z</time>
      </trkpt>
      <trkpt lat="62.636066686454" lon="17.968406183423">
        <ele>74.2</ele>
        <time>2018-04-03T10:59:45Z</time>
      </trkpt>
      <trkpt lat="62.636079343123" lon="17.968408195079">
        <ele>74.2</ele>
        <time>2018-04-03T10:59:46Z</time>
      </trkpt>
      <trkpt lat="62.636101555158" lon="17.968448260561">
        <ele>74.2</ele>
        <time>2018-04-03T10:59:47Z</time>
      </trkpt>
      <trkpt lat="62.636129299247" lon="17.968486230568">
        <ele>74.2</ele>
        <time>2018-04-03T10:59:48Z</time>
      </trkpt>
      <trkpt lat="62.636157378612" lon="17.968513555562">
        <ele>74.6</ele>
        <time>2018-04-03T10:59:49Z</time>
      </trkpt>
      <trkpt lat="62.636185122701" lon="17.968538449805">
        <ele>74.6</ele>
        <time>2018-04-03T10:59:50Z</time>
      </trkpt>
      <trkpt lat="62.636213621161" lon="17.968559739831">
        <ele>74.6</ele>
        <time>2018-04-03T10:59:51Z</time>
      </trkpt>
      <trkpt lat="62.636239940327" lon="17.968563846962">
        <ele>74.8</ele>
        <time>2018-04-03T10:59:52Z</time>
      </trkpt>
      <trkpt lat="62.636273132651" lon="17.968590333766">
        <ele>74.6</ele>
        <time>2018-04-03T10:59:53Z</time>
      </trkpt>
      <trkpt lat="62.636311354115" lon="17.968624112823">
        <ele>74.6</ele>
        <time>2018-04-03T10:59:54Z</time>
      </trkpt>
      <trkpt lat="62.636348988846" lon="17.968659735898">
        <ele>74.4</ele>
        <time>2018-04-03T10:59:55Z</time>
      </trkpt>
      <trkpt lat="62.636383773731" lon="17.968695945706">
        <ele>74.4</ele>
        <time>2018-04-03T10:59:56Z</time>
      </trkpt>
      <trkpt lat="62.636404560843" lon="17.968733580437">
        <ele>74.4</ele>
        <time>2018-04-03T10:59:57Z</time>
      </trkpt>
      <trkpt lat="62.636430377095" lon="17.968780099982">
        <ele>74.4</ele>
        <time>2018-04-03T10:59:58Z</time>
      </trkpt>
      <trkpt lat="62.636451415664" lon="17.968828547364">
        <ele>74.2</ele>
        <time>2018-04-03T10:59:59Z</time>
      </trkpt>
      <trkpt lat="62.636474633527" lon="17.968870121588">
        <ele>74.4</ele>
        <time>2018-04-03T11:00:00Z</time>
      </trkpt>
      <trkpt lat="62.636500868874" lon="17.968908091595">
        <ele>74.6</ele>
        <time>2018-04-03T11:00:01Z</time>
      </trkpt>
      <trkpt lat="62.636524170556" lon="17.968971961673">
        <ele>74.6</ele>
        <time>2018-04-03T11:00:02Z</time>
      </trkpt>
      <trkpt lat="62.636553255749" lon="17.969017056295">
        <ele>74.6</ele>
        <time>2018-04-03T11:00:03Z</time>
      </trkpt>
      <trkpt lat="62.636565158047" lon="17.969065503677">
        <ele>74.8</ele>
        <time>2018-04-03T11:00:04Z</time>
      </trkpt>
      <trkpt lat="62.63659005229" lon="17.969115292163">
        <ele>75</ele>
        <time>2018-04-03T11:00:05Z</time>
      </trkpt>
      <trkpt lat="62.636618299293" lon="17.969159716233">
        <ele>75</ele>
        <time>2018-04-03T11:00:06Z</time>
      </trkpt>
      <trkpt lat="62.636630788324" lon="17.969247055631">
        <ele>75</ele>
        <time>2018-04-03T11:00:07Z</time>
      </trkpt>
      <trkpt lat="62.636650066694" lon="17.96930665094">
        <ele>74.8</ele>
        <time>2018-04-03T11:00:08Z</time>
      </trkpt>
      <trkpt lat="62.636673200738" lon="17.969361552385">
        <ele>74.8</ele>
        <time>2018-04-03T11:00:09Z</time>
      </trkpt>
      <trkpt lat="62.636690718909" lon="17.969451825448">
        <ele>74.8</ele>
        <time>2018-04-03T11:00:10Z</time>
      </trkpt>
      <trkpt lat="62.636706644519" lon="17.969518377734">
        <ele>74.8</ele>
        <time>2018-04-03T11:00:11Z</time>
      </trkpt>
      <trkpt lat="62.636730700572" lon="17.969558024121">
        <ele>74.8</ele>
        <time>2018-04-03T11:00:12Z</time>
      </trkpt>
      <trkpt lat="62.636742183775" lon="17.969627090977">
        <ele>74.6</ele>
        <time>2018-04-03T11:00:13Z</time>
      </trkpt>
      <trkpt lat="62.636753080245" lon="17.969675538359">
        <ele>74.6</ele>
        <time>2018-04-03T11:00:14Z</time>
      </trkpt>
      <trkpt lat="62.636765988371" lon="17.969719291877">
        <ele>74.6</ele>
        <time>2018-04-03T11:00:15Z</time>
      </trkpt>
      <trkpt lat="62.63677780685" lon="17.969784083964">
        <ele>74.6</ele>
        <time>2018-04-03T11:00:16Z</time>
      </trkpt>
      <trkpt lat="62.63678954151" lon="17.969827753663">
        <ele>74.8</ele>
        <time>2018-04-03T11:00:17Z</time>
      </trkpt>
      <trkpt lat="62.636802281998" lon="17.969878547977">
        <ele>75</ele>
        <time>2018-04-03T11:00:18Z</time>
      </trkpt>
      <trkpt lat="62.636816112133" lon="17.969925654255">
        <ele>75</ele>
        <time>2018-04-03T11:00:19Z</time>
      </trkpt>
      <trkpt lat="62.636831534829" lon="17.969972257619">
        <ele>75</ele>
        <time>2018-04-03T11:00:20Z</time>
      </trkpt>
      <trkpt lat="62.636848969181" lon="17.970024476856">
        <ele>75.2</ele>
        <time>2018-04-03T11:00:21Z</time>
      </trkpt>
      <trkpt lat="62.636875539804" lon="17.970056663352">
        <ele>75.2</ele>
        <time>2018-04-03T11:00:22Z</time>
      </trkpt>
      <trkpt lat="62.636896326916" lon="17.970094465721">
        <ele>75.2</ele>
        <time>2018-04-03T11:00:23Z</time>
      </trkpt>
      <trkpt lat="62.636919293322" lon="17.970132435728">
        <ele>75.2</ele>
        <time>2018-04-03T11:00:24Z</time>
      </trkpt>
      <trkpt lat="62.636938571692" lon="17.970163784034">
        <ele>75.4</ele>
        <time>2018-04-03T11:00:25Z</time>
      </trkpt>
      <trkpt lat="62.636958772071" lon="17.970192533951">
        <ele>75.4</ele>
        <time>2018-04-03T11:00:26Z</time>
      </trkpt>
      <trkpt lat="62.636981906115" lon="17.970224636628">
        <ele>75.6</ele>
        <time>2018-04-03T11:00:27Z</time>
      </trkpt>
      <trkpt lat="62.637010153118" lon="17.970242825351">
        <ele>75.6</ele>
        <time>2018-04-03T11:00:28Z</time>
      </trkpt>
      <trkpt lat="62.637039405949" lon="17.970259170056">
        <ele>75.8</ele>
        <time>2018-04-03T11:00:29Z</time>
      </trkpt>
      <trkpt lat="62.637072179178" lon="17.970267803413">
        <ele>75.8</ele>
        <time>2018-04-03T11:00:30Z</time>
      </trkpt>
      <trkpt lat="62.637107466977" lon="17.970275263304">
        <ele>76</ele>
        <time>2018-04-03T11:00:31Z</time>
      </trkpt>
      <trkpt lat="62.637142587138" lon="17.970257577495">
        <ele>75.8</ele>
        <time>2018-04-03T11:00:32Z</time>
      </trkpt>
      <trkpt lat="62.637183323172" lon="17.970246010473">
        <ele>75.6</ele>
        <time>2018-04-03T11:00:33Z</time>
      </trkpt>
      <trkpt lat="62.637225065034" lon="17.970216841461">
        <ele>75.6</ele>
        <time>2018-04-03T11:00:34Z</time>
      </trkpt>
      <trkpt lat="62.637266387801" lon="17.970194461788">
        <ele>75.4</ele>
        <time>2018-04-03T11:00:35Z</time>
      </trkpt>
      <trkpt lat="62.63731173388" lon="17.970170657192">
        <ele>75.2</ele>
        <time>2018-04-03T11:00:36Z</time>
      </trkpt>
      <trkpt lat="62.637355822674" lon="17.970145008578">
        <ele>74.8</ele>
        <time>2018-04-03T11:00:37Z</time>
      </trkpt>
      <trkpt lat="62.63739974383" lon="17.970125227294">
        <ele>74.6</ele>
        <time>2018-04-03T11:00:38Z</time>
      </trkpt>
      <trkpt lat="62.637443581167" lon="17.970109217865">
        <ele>74.2</ele>
        <time>2018-04-03T11:00:39Z</time>
      </trkpt>
      <trkpt lat="62.637487837599" lon="17.970103099078">
        <ele>74</ele>
        <time>2018-04-03T11:00:40Z</time>
      </trkpt>
      <trkpt lat="62.637532764583" lon="17.970096812653">
        <ele>74</ele>
        <time>2018-04-03T11:00:41Z</time>
      </trkpt>
      <trkpt lat="62.637567633287" lon="17.970103266716">
        <ele>73.8</ele>
        <time>2018-04-03T11:00:42Z</time>
      </trkpt>
      <trkpt lat="62.637602166715" lon="17.970138554515">
        <ele>73.6</ele>
        <time>2018-04-03T11:00:43Z</time>
      </trkpt>
      <trkpt lat="62.637632257736" lon="17.970173674676">
        <ele>73.4</ele>
        <time>2018-04-03T11:00:44Z</time>
      </trkpt>
      <trkpt lat="62.637659834187" lon="17.970209213932">
        <ele>73.2</ele>
        <time>2018-04-03T11:00:45Z</time>
      </trkpt>
      <trkpt lat="62.637684393154" lon="17.970259170056">
        <ele>73.2</ele>
        <time>2018-04-03T11:00:46Z</time>
      </trkpt>
      <trkpt lat="62.637706689008" lon="17.97033846283">
        <ele>73</ele>
        <time>2018-04-03T11:00:47Z</time>
      </trkpt>
      <trkpt lat="62.637729487776" lon="17.97039797432">
        <ele>72.8</ele>
        <time>2018-04-03T11:00:48Z</time>
      </trkpt>
      <trkpt lat="62.637751196897" lon="17.970459748923">
        <ele>72.8</ele>
        <time>2018-04-03T11:00:49Z</time>
      </trkpt>
      <trkpt lat="62.637771732552" lon="17.970526720304">
        <ele>72.6</ele>
        <time>2018-04-03T11:00:50Z</time>
      </trkpt>
      <trkpt lat="62.637791597655" lon="17.9705924344">
        <ele>72.4</ele>
        <time>2018-04-03T11:00:51Z</time>
      </trkpt>
      <trkpt lat="62.637799225184" lon="17.970662423265">
        <ele>72.4</ele>
        <time>2018-04-03T11:00:52Z</time>
      </trkpt>
      <trkpt lat="62.637809702559" lon="17.970722018574">
        <ele>72.4</ele>
        <time>2018-04-03T11:00:53Z</time>
      </trkpt>
      <trkpt lat="62.637818587373" lon="17.970783709358">
        <ele>72.4</ele>
        <time>2018-04-03T11:00:54Z</time>
      </trkpt>
      <trkpt lat="62.637829064748" lon="17.970844478133">
        <ele>72.6</ele>
        <time>2018-04-03T11:00:55Z</time>
      </trkpt>
      <trkpt lat="62.637842559607" lon="17.970902145605">
        <ele>72.8</ele>
        <time>2018-04-03T11:00:56Z</time>
      </trkpt>
      <trkpt lat="62.637850773869" lon="17.970952772281">
        <ele>72.8</ele>
        <time>2018-04-03T11:00:57Z</time>
      </trkpt>
      <trkpt lat="62.637853372258" lon="17.971039105851">
        <ele>73.2</ele>
        <time>2018-04-03T11:00:58Z</time>
      </trkpt>
      <trkpt lat="62.637856808837" lon="17.971098365884">
        <ele>73.2</ele>
        <time>2018-04-03T11:00:59Z</time>
      </trkpt>
      <trkpt lat="62.637862089434" lon="17.971161481591">
        <ele>73.4</ele>
        <time>2018-04-03T11:01:00Z</time>
      </trkpt>
      <trkpt lat="62.637871560981" lon="17.971228536791">
        <ele>73.2</ele>
        <time>2018-04-03T11:01:01Z</time>
      </trkpt>
      <trkpt lat="62.637882205994" lon="17.971276145983">
        <ele>73.4</ele>
        <time>2018-04-03T11:01:02Z</time>
      </trkpt>
      <trkpt lat="62.637892515731" lon="17.971320318596">
        <ele>73.4</ele>
        <time>2018-04-03T11:01:03Z</time>
      </trkpt>
      <trkpt lat="62.637895449396" lon="17.971389804547">
        <ele>73.4</ele>
        <time>2018-04-03T11:01:04Z</time>
      </trkpt>
      <trkpt lat="62.637900478536" lon="17.971435485902">
        <ele>73.4</ele>
        <time>2018-04-03T11:01:05Z</time>
      </trkpt>
      <trkpt lat="62.637910452997" lon="17.971475216108">
        <ele>73.4</ele>
        <time>2018-04-03T11:01:06Z</time>
      </trkpt>
      <trkpt lat="62.637915398318" lon="17.971545372611">
        <ele>73.6</ele>
        <time>2018-04-03T11:01:07Z</time>
      </trkpt>
      <trkpt lat="62.637925121322" lon="17.971593065622">
        <ele>73.4</ele>
        <time>2018-04-03T11:01:08Z</time>
      </trkpt>
      <trkpt lat="62.637937610353" lon="17.971635394217">
        <ele>73.6</ele>
        <time>2018-04-03T11:01:09Z</time>
      </trkpt>
      <trkpt lat="62.637941466027" lon="17.971715609">
        <ele>73.6</ele>
        <time>2018-04-03T11:01:10Z</time>
      </trkpt>
      <trkpt lat="62.637949847927" lon="17.971775455766">
        <ele>73.8</ele>
        <time>2018-04-03T11:01:11Z</time>
      </trkpt>
      <trkpt lat="62.637951859583" lon="17.971831027763">
        <ele>73.6</ele>
        <time>2018-04-03T11:01:12Z</time>
      </trkpt>
      <trkpt lat="62.637955379981" lon="17.971909733804">
        <ele>73.8</ele>
        <time>2018-04-03T11:01:13Z</time>
      </trkpt>
      <trkpt lat="62.637955715257" lon="17.971972178959">
        <ele>73.6</ele>
        <time>2018-04-03T11:01:14Z</time>
      </trkpt>
      <trkpt lat="62.637956469628" lon="17.972036887227">
        <ele>73.6</ele>
        <time>2018-04-03T11:01:15Z</time>
      </trkpt>
      <trkpt lat="62.637957307818" lon="17.972092123948">
        <ele>73.8</ele>
        <time>2018-04-03T11:01:16Z</time>
      </trkpt>
      <trkpt lat="62.637960828216" lon="17.972154401465">
        <ele>73.8</ele>
        <time>2018-04-03T11:01:17Z</time>
      </trkpt>
      <trkpt lat="62.637963426605" lon="17.97221768481">
        <ele>74</ele>
        <time>2018-04-03T11:01:18Z</time>
      </trkpt>
      <trkpt lat="62.637964600071" lon="17.972271245151">
        <ele>74</ele>
        <time>2018-04-03T11:01:19Z</time>
      </trkpt>
      <trkpt lat="62.637967533736" lon="17.972322710017">
        <ele>74</ele>
        <time>2018-04-03T11:01:20Z</time>
      </trkpt>
      <trkpt lat="62.637971640867" lon="17.972374593978">
        <ele>74</ele>
        <time>2018-04-03T11:01:21Z</time>
      </trkpt>
      <trkpt lat="62.637977759654" lon="17.972424131007">
        <ele>74</ele>
        <time>2018-04-03T11:01:22Z</time>
      </trkpt>
      <trkpt lat="62.637982704975" lon="17.972476014968">
        <ele>74</ele>
        <time>2018-04-03T11:01:23Z</time>
      </trkpt>
      <trkpt lat="62.637990416323" lon="17.97252362416">
        <ele>74</ele>
        <time>2018-04-03T11:01:24Z</time>
      </trkpt>
      <trkpt lat="62.637996032196" lon="17.972576849225">
        <ele>74.2</ele>
        <time>2018-04-03T11:01:25Z</time>
      </trkpt>
      <trkpt lat="62.637999468775" lon="17.972634097602">
        <ele>74.4</ele>
        <time>2018-04-03T11:01:26Z</time>
      </trkpt>
      <trkpt lat="62.638009694693" lon="17.972680700966">
        <ele>74.6</ele>
        <time>2018-04-03T11:01:27Z</time>
      </trkpt>
      <trkpt lat="62.638009191779" lon="17.972736356782">
        <ele>74.8</ele>
        <time>2018-04-03T11:01:28Z</time>
      </trkpt>
      <trkpt lat="62.638013466548" lon="17.972786732001">
        <ele>75</ele>
        <time>2018-04-03T11:01:29Z</time>
      </trkpt>
      <trkpt lat="62.638016316394" lon="17.972838951238">
        <ele>75.2</ele>
        <time>2018-04-03T11:01:30Z</time>
      </trkpt>
      <trkpt lat="62.638022016086" lon="17.972888320629">
        <ele>75.2</ele>
        <time>2018-04-03T11:01:31Z</time>
      </trkpt>
      <trkpt lat="62.638022435181" lon="17.97294271916">
        <ele>75.4</ele>
        <time>2018-04-03T11:01:32Z</time>
      </trkpt>
      <trkpt lat="62.638023189552" lon="17.973001895374">
        <ele>75.4</ele>
        <time>2018-04-03T11:01:33Z</time>
      </trkpt>
      <trkpt lat="62.638025620303" lon="17.973061993597">
        <ele>75.6</ele>
        <time>2018-04-03T11:01:34Z</time>
      </trkpt>
      <trkpt lat="62.638026961407" lon="17.973115805395">
        <ele>75.8</ele>
        <time>2018-04-03T11:01:35Z</time>
      </trkpt>
      <trkpt lat="62.638028553968" lon="17.973167689356">
        <ele>75.8</ele>
        <time>2018-04-03T11:01:36Z</time>
      </trkpt>
      <trkpt lat="62.638033666927" lon="17.973217729299">
        <ele>76</ele>
        <time>2018-04-03T11:01:37Z</time>
      </trkpt>
      <trkpt lat="62.638034337479" lon="17.973268523613">
        <ele>76</ele>
        <time>2018-04-03T11:01:38Z</time>
      </trkpt>
      <trkpt lat="62.638034924212" lon="17.973316048986">
        <ele>76</ele>
        <time>2018-04-03T11:01:39Z</time>
      </trkpt>
      <trkpt lat="62.638028553968" lon="17.973376398666">
        <ele>76.2</ele>
        <time>2018-04-03T11:01:40Z</time>
      </trkpt>
      <trkpt lat="62.638022770457" lon="17.973424762229">
        <ele>76.2</ele>
        <time>2018-04-03T11:01:41Z</time>
      </trkpt>
      <trkpt lat="62.638022435181" lon="17.973474383077">
        <ele>76.6</ele>
        <time>2018-04-03T11:01:42Z</time>
      </trkpt>
      <trkpt lat="62.638022016086" lon="17.973538420793">
        <ele>76.6</ele>
        <time>2018-04-03T11:01:43Z</time>
      </trkpt>
      <trkpt lat="62.638022267543" lon="17.973593322238">
        <ele>76.8</ele>
        <time>2018-04-03T11:01:44Z</time>
      </trkpt>
      <trkpt lat="62.638023189552" lon="17.97364763695">
        <ele>77</ele>
        <time>2018-04-03T11:01:45Z</time>
      </trkpt>
      <trkpt lat="62.638033583108" lon="17.973691809563">
        <ele>77.2</ele>
        <time>2018-04-03T11:01:46Z</time>
      </trkpt>
      <trkpt lat="62.638036684411" lon="17.973767665758">
        <ele>77</ele>
        <time>2018-04-03T11:01:47Z</time>
      </trkpt>
      <trkpt lat="62.638041881189" lon="17.973829607999">
        <ele>77</ele>
        <time>2018-04-03T11:01:48Z</time>
      </trkpt>
      <trkpt lat="62.638044144302" lon="17.973895657371">
        <ele>77</ele>
        <time>2018-04-03T11:01:49Z</time>
      </trkpt>
      <trkpt lat="62.638046239777" lon="17.97395525268">
        <ele>77</ele>
        <time>2018-04-03T11:01:50Z</time>
      </trkpt>
      <trkpt lat="62.638052526202" lon="17.974009567392">
        <ele>77</ele>
        <time>2018-04-03T11:01:51Z</time>
      </trkpt>
      <trkpt lat="62.638053783487" lon="17.974077879877">
        <ele>77</ele>
        <time>2018-04-03T11:01:52Z</time>
      </trkpt>
      <trkpt lat="62.638056717152" lon="17.97414468362">
        <ele>76.8</ele>
        <time>2018-04-03T11:01:53Z</time>
      </trkpt>
      <trkpt lat="62.638065853423" lon="17.974210732992">
        <ele>76.8</ele>
        <time>2018-04-03T11:01:54Z</time>
      </trkpt>
      <trkpt lat="62.638070714925" lon="17.974269993025">
        <ele>76.8</ele>
        <time>2018-04-03T11:01:55Z</time>
      </trkpt>
      <trkpt lat="62.638074151504" lon="17.974332102904">
        <ele>76.8</ele>
        <time>2018-04-03T11:01:56Z</time>
      </trkpt>
      <trkpt lat="62.638070463468" lon="17.974406617995">
        <ele>76.8</ele>
        <time>2018-04-03T11:01:57Z</time>
      </trkpt>
      <trkpt lat="62.638069290002" lon="17.974467638227">
        <ele>76.8</ele>
        <time>2018-04-03T11:01:58Z</time>
      </trkpt>
      <trkpt lat="62.638063003577" lon="17.974537375635">
        <ele>77</ele>
        <time>2018-04-03T11:01:59Z</time>
      </trkpt>
      <trkpt lat="62.638055627505" lon="17.974597892953">
        <ele>77</ele>
        <time>2018-04-03T11:02:00Z</time>
      </trkpt>
      <trkpt lat="62.638050682184" lon="17.974653632588">
        <ele>77</ele>
        <time>2018-04-03T11:02:01Z</time>
      </trkpt>
      <trkpt lat="62.638034756574" lon="17.974712222069">
        <ele>76.8</ele>
        <time>2018-04-03T11:02:02Z</time>
      </trkpt>
      <trkpt lat="62.63802754814" lon="17.974763686935">
        <ele>76.8</ele>
        <time>2018-04-03T11:02:03Z</time>
      </trkpt>
      <trkpt lat="62.638004749372" lon="17.974810625575">
        <ele>76.8</ele>
        <time>2018-04-03T11:02:04Z</time>
      </trkpt>
      <trkpt lat="62.637991673608" lon="17.974859408233">
        <ele>77</ele>
        <time>2018-04-03T11:02:05Z</time>
      </trkpt>
      <trkpt lat="62.637983375527" lon="17.974907017425">
        <ele>77</ele>
        <time>2018-04-03T11:02:06Z</time>
      </trkpt>
      <trkpt lat="62.637959068017" lon="17.974952614961">
        <ele>77.2</ele>
        <time>2018-04-03T11:02:07Z</time>
      </trkpt>
      <trkpt lat="62.637943058588" lon="17.974994692099">
        <ele>77.4</ele>
        <time>2018-04-03T11:02:08Z</time>
      </trkpt>
      <trkpt lat="62.637933167946" lon="17.975033584115">
        <ele>77.4</ele>
        <time>2018-04-03T11:02:09Z</time>
      </trkpt>
      <trkpt lat="62.637912045558" lon="17.97507423633">
        <ele>77.8</ele>
        <time>2018-04-03T11:02:10Z</time>
      </trkpt>
      <trkpt lat="62.637903998934" lon="17.975119163314">
        <ele>77.6</ele>
        <time>2018-04-03T11:02:11Z</time>
      </trkpt>
      <trkpt lat="62.637880361976" lon="17.975157133321">
        <ele>78</ele>
        <time>2018-04-03T11:02:12Z</time>
      </trkpt>
      <trkpt lat="62.637856641199" lon="17.975199881011">
        <ele>78.2</ele>
        <time>2018-04-03T11:02:13Z</time>
      </trkpt>
      <trkpt lat="62.637836859915" lon="17.975239443579">
        <ele>78.4</ele>
        <time>2018-04-03T11:02:14Z</time>
      </trkpt>
      <trkpt lat="62.637815234613" lon="17.975276072482">
        <ele>78.4</ele>
        <time>2018-04-03T11:02:15Z</time>
      </trkpt>
      <trkpt lat="62.637801320659" lon="17.975322843484">
        <ele>78.6</ele>
        <time>2018-04-03T11:02:16Z</time>
      </trkpt>
      <trkpt lat="62.637774163303" lon="17.97534664808">
        <ele>78.6</ele>
        <time>2018-04-03T11:02:17Z</time>
      </trkpt>
      <trkpt lat="62.637757148046" lon="17.97537598473">
        <ele>78.8</ele>
        <time>2018-04-03T11:02:18Z</time>
      </trkpt>
      <trkpt lat="62.637742228264" lon="17.975400543697">
        <ele>78.8</ele>
        <time>2018-04-03T11:02:19Z</time>
      </trkpt>
      <trkpt lat="62.637723368989" lon="17.97542208518">
        <ele>79</ele>
        <time>2018-04-03T11:02:20Z</time>
      </trkpt>
      <trkpt lat="62.637706102275" lon="17.975443375206">
        <ele>79</ele>
        <time>2018-04-03T11:02:21Z</time>
      </trkpt>
      <trkpt lat="62.637684141697" lon="17.975458211169">
        <ele>79.4</ele>
        <time>2018-04-03T11:02:22Z</time>
      </trkpt>
      <trkpt lat="62.637664192775" lon="17.975479165919">
        <ele>79.6</ele>
        <time>2018-04-03T11:02:23Z</time>
      </trkpt>
      <trkpt lat="62.637638795618" lon="17.975496516452">
        <ele>80</ele>
        <time>2018-04-03T11:02:24Z</time>
      </trkpt>
      <trkpt lat="62.637612476452" lon="17.97551680065">
        <ele>80.2</ele>
        <time>2018-04-03T11:02:25Z</time>
      </trkpt>
      <trkpt lat="62.637589426227" lon="17.975539515599">
        <ele>80.4</ele>
        <time>2018-04-03T11:02:26Z</time>
      </trkpt>
      <trkpt lat="62.637565621631" lon="17.975552675182">
        <ele>80.6</ele>
        <time>2018-04-03T11:02:27Z</time>
      </trkpt>
      <trkpt lat="62.637556988274" lon="17.975562314367">
        <ele>80.6</ele>
        <time>2018-04-03T11:02:28Z</time>
      </trkpt>
      <trkpt lat="62.637521365199" lon="17.975591064284">
        <ele>80.8</ele>
        <time>2018-04-03T11:02:29Z</time>
      </trkpt>
      <trkpt lat="62.637501081001" lon="17.975605984066">
        <ele>80.8</ele>
        <time>2018-04-03T11:02:30Z</time>
      </trkpt>
      <trkpt lat="62.637479288061" lon="17.975619395106">
        <ele>81</ele>
        <time>2018-04-03T11:02:31Z</time>
      </trkpt>
      <trkpt lat="62.637462272804" lon="17.975634398707">
        <ele>81.2</ele>
        <time>2018-04-03T11:02:32Z</time>
      </trkpt>
      <trkpt lat="62.637446347194" lon="17.97564252915">
        <ele>81.2</ele>
        <time>2018-04-03T11:02:33Z</time>
      </trkpt>
      <trkpt lat="62.637420028028" lon="17.975655521095">
        <ele>81.6</ele>
        <time>2018-04-03T11:02:34Z</time>
      </trkpt>
      <trkpt lat="62.637400917296" lon="17.975672033438">
        <ele>81.8</ele>
        <time>2018-04-03T11:02:35Z</time>
      </trkpt>
      <trkpt lat="62.637384069677" lon="17.975693323464">
        <ele>82</ele>
        <time>2018-04-03T11:02:36Z</time>
      </trkpt>
      <trkpt lat="62.6373603489" lon="17.975718385345">
        <ele>82.2</ele>
        <time>2018-04-03T11:02:37Z</time>
      </trkpt>
      <trkpt lat="62.637340735254" lon="17.975746297072">
        <ele>82.2</ele>
        <time>2018-04-03T11:02:38Z</time>
      </trkpt>
      <trkpt lat="62.637319529047" lon="17.975769179659">
        <ele>82.4</ele>
        <time>2018-04-03T11:02:39Z</time>
      </trkpt>
      <trkpt lat="62.637302346152" lon="17.97579424154">
        <ele>82.6</ele>
        <time>2018-04-03T11:02:40Z</time>
      </trkpt>
      <trkpt lat="62.637287510189" lon="17.97581603448">
        <ele>82.6</ele>
        <time>2018-04-03T11:02:41Z</time>
      </trkpt>
      <trkpt lat="62.637272506588" lon="17.975844952035">
        <ele>82.8</ele>
        <time>2018-04-03T11:02:42Z</time>
      </trkpt>
      <trkpt lat="62.637255239874" lon="17.975877976721">
        <ele>83</ele>
        <time>2018-04-03T11:02:43Z</time>
      </trkpt>
      <trkpt lat="62.637238643712" lon="17.975908989751">
        <ele>83.2</ele>
        <time>2018-04-03T11:02:44Z</time>
      </trkpt>
      <trkpt lat="62.637219868256" lon="17.975938829315">
        <ele>83.4</ele>
        <time>2018-04-03T11:02:45Z</time>
      </trkpt>
      <trkpt lat="62.63720779832" lon="17.975972608372">
        <ele>83.6</ele>
        <time>2018-04-03T11:02:46Z</time>
      </trkpt>
      <trkpt lat="62.637199332601" lon="17.976017451537">
        <ele>84</ele>
        <time>2018-04-03T11:02:47Z</time>
      </trkpt>
      <trkpt lat="62.637188687588" lon="17.976058103752">
        <ele>84</ele>
        <time>2018-04-03T11:02:48Z</time>
      </trkpt>
      <trkpt lat="62.637183826086" lon="17.976097917777">
        <ele>84.2</ele>
        <time>2018-04-03T11:02:49Z</time>
      </trkpt>
      <trkpt lat="62.637167816657" lon="17.976146113702">
        <ele>84.4</ele>
        <time>2018-04-03T11:02:50Z</time>
      </trkpt>
      <trkpt lat="62.637158848024" lon="17.976191878876">
        <ele>84.6</ele>
        <time>2018-04-03T11:02:51Z</time>
      </trkpt>
      <trkpt lat="62.637149627934" lon="17.976235045661">
        <ele>84.6</ele>
        <time>2018-04-03T11:02:52Z</time>
      </trkpt>
      <trkpt lat="62.637143592966" lon="17.976277206618">
        <ele>85</ele>
        <time>2018-04-03T11:02:53Z</time>
      </trkpt>
      <trkpt lat="62.637136635989" lon="17.976319451394">
        <ele>85</ele>
        <time>2018-04-03T11:02:54Z</time>
      </trkpt>
      <trkpt lat="62.637128673184" lon="17.976365635663">
        <ele>85.2</ele>
        <time>2018-04-03T11:02:55Z</time>
      </trkpt>
      <trkpt lat="62.637125907157" lon="17.976411233199">
        <ele>85.2</ele>
        <time>2018-04-03T11:02:56Z</time>
      </trkpt>
      <trkpt lat="62.637115010687" lon="17.976459932038">
        <ele>85.2</ele>
        <time>2018-04-03T11:02:57Z</time>
      </trkpt>
      <trkpt lat="62.637109813909" lon="17.97650921761">
        <ele>85.2</ele>
        <time>2018-04-03T11:02:58Z</time>
      </trkpt>
      <trkpt lat="62.637101264371" lon="17.976557748811">
        <ele>85.4</ele>
        <time>2018-04-03T11:02:59Z</time>
      </trkpt>
      <trkpt lat="62.63709128991" lon="17.976607537297">
        <ele>85.6</ele>
        <time>2018-04-03T11:03:00Z</time>
      </trkpt>
      <trkpt lat="62.637085087304" lon="17.97665087172">
        <ele>85.8</ele>
        <time>2018-04-03T11:03:01Z</time>
      </trkpt>
      <trkpt lat="62.637075867214" lon="17.976715579988">
        <ele>86</ele>
        <time>2018-04-03T11:03:02Z</time>
      </trkpt>
      <trkpt lat="62.637067904409" lon="17.976770397614">
        <ele>86</ele>
        <time>2018-04-03T11:03:03Z</time>
      </trkpt>
      <trkpt lat="62.637069245513" lon="17.976805853051">
        <ele>86</ele>
        <time>2018-04-03T11:03:04Z</time>
      </trkpt>
      <trkpt lat="62.637069832246" lon="17.976874081717">
        <ele>86</ele>
        <time>2018-04-03T11:03:05Z</time>
      </trkpt>
      <trkpt lat="62.637073101187" lon="17.976920182167">
        <ele>86</ele>
        <time>2018-04-03T11:03:06Z</time>
      </trkpt>
      <trkpt lat="62.637072933549" lon="17.97699452962">
        <ele>85.8</ele>
        <time>2018-04-03T11:03:07Z</time>
      </trkpt>
      <trkpt lat="62.637081315449" lon="17.977059489345">
        <ele>85.8</ele>
        <time>2018-04-03T11:03:08Z</time>
      </trkpt>
      <trkpt lat="62.637096151412" lon="17.977116318627">
        <ele>85.8</ele>
        <time>2018-04-03T11:03:09Z</time>
      </trkpt>
      <trkpt lat="62.637083159467" lon="17.977192258641">
        <ele>85.8</ele>
        <time>2018-04-03T11:03:10Z</time>
      </trkpt>
      <trkpt lat="62.63707787887" lon="17.977258140375">
        <ele>85.8</ele>
        <time>2018-04-03T11:03:11Z</time>
      </trkpt>
      <trkpt lat="62.637075531938" lon="17.977317065132">
        <ele>86</ele>
        <time>2018-04-03T11:03:12Z</time>
      </trkpt>
      <trkpt lat="62.637068323504" lon="17.977382024857">
        <ele>86</ele>
        <time>2018-04-03T11:03:13Z</time>
      </trkpt>
      <trkpt lat="62.637055666835" lon="17.977439692329">
        <ele>86</ele>
        <time>2018-04-03T11:03:14Z</time>
      </trkpt>
      <trkpt lat="62.637044518908" lon="17.977492079204">
        <ele>86</ele>
        <time>2018-04-03T11:03:15Z</time>
      </trkpt>
      <trkpt lat="62.637029096212" lon="17.977554105264">
        <ele>86.2</ele>
        <time>2018-04-03T11:03:16Z</time>
      </trkpt>
      <trkpt lat="62.637017696828" lon="17.97761479022">
        <ele>86.2</ele>
        <time>2018-04-03T11:03:17Z</time>
      </trkpt>
      <trkpt lat="62.637005207797" lon="17.977673882615">
        <ele>86.2</ele>
        <time>2018-04-03T11:03:18Z</time>
      </trkpt>
      <trkpt lat="62.636996993535" lon="17.977730125164">
        <ele>86.2</ele>
        <time>2018-04-03T11:03:19Z</time>
      </trkpt>
      <trkpt lat="62.636982911943" lon="17.977786032437">
        <ele>86.2</ele>
        <time>2018-04-03T11:03:20Z</time>
      </trkpt>
      <trkpt lat="62.636974530043" lon="17.977842442624">
        <ele>86.2</ele>
        <time>2018-04-03T11:03:21Z</time>
      </trkpt>
      <trkpt lat="62.636972602206" lon="17.977901702657">
        <ele>86.2</ele>
        <time>2018-04-03T11:03:22Z</time>
      </trkpt>
      <trkpt lat="62.636973775672" lon="17.977965237459">
        <ele>86.2</ele>
        <time>2018-04-03T11:03:23Z</time>
      </trkpt>
      <trkpt lat="62.636971261102" lon="17.978024162216">
        <ele>86.2</ele>
        <time>2018-04-03T11:03:24Z</time>
      </trkpt>
      <trkpt lat="62.636964555582" lon="17.978085685362">
        <ele>86.4</ele>
        <time>2018-04-03T11:03:25Z</time>
      </trkpt>
      <trkpt lat="62.636962627745" lon="17.978145532128">
        <ele>86.4</ele>
        <time>2018-04-03T11:03:26Z</time>
      </trkpt>
      <trkpt lat="62.63695466494" lon="17.978190123836">
        <ele>86.4</ele>
        <time>2018-04-03T11:03:27Z</time>
      </trkpt>
      <trkpt lat="62.636936140941" lon="17.9782702548">
        <ele>86.6</ele>
        <time>2018-04-03T11:03:28Z</time>
      </trkpt>
      <trkpt lat="62.636927675222" lon="17.978326664987">
        <ele>86.6</ele>
        <time>2018-04-03T11:03:29Z</time>
      </trkpt>
      <trkpt lat="62.63691107906" lon="17.978391205617">
        <ele>86.6</ele>
        <time>2018-04-03T11:03:30Z</time>
      </trkpt>
      <trkpt lat="62.636892219785" lon="17.978459853378">
        <ele>86.8</ele>
        <time>2018-04-03T11:03:31Z</time>
      </trkpt>
      <trkpt lat="62.636876461813" lon="17.978506708199">
        <ele>86.8</ele>
        <time>2018-04-03T11:03:32Z</time>
      </trkpt>
      <trkpt lat="62.636857351081" lon="17.978553814477">
        <ele>86.8</ele>
        <time>2018-04-03T11:03:33Z</time>
      </trkpt>
      <trkpt lat="62.636835055227" lon="17.97860050166">
        <ele>86.8</ele>
        <time>2018-04-03T11:03:34Z</time>
      </trkpt>
      <trkpt lat="62.636809238975" lon="17.978635370364">
        <ele>87</ele>
        <time>2018-04-03T11:03:35Z</time>
      </trkpt>
      <trkpt lat="62.636788619501" lon="17.978667221584">
        <ele>87</ele>
        <time>2018-04-03T11:03:36Z</time>
      </trkpt>
      <trkpt lat="62.636757187376" lon="17.978690523266">
        <ele>87</ele>
        <time>2018-04-03T11:03:37Z</time>
      </trkpt>
      <trkpt lat="62.636733298961" lon="17.978716590975">
        <ele>87.2</ele>
        <time>2018-04-03T11:03:38Z</time>
      </trkpt>
      <trkpt lat="62.636715529333" lon="17.978745424711">
        <ele>87.2</ele>
        <time>2018-04-03T11:03:39Z</time>
      </trkpt>
      <trkpt lat="62.636672446367" lon="17.978757662285">
        <ele>87.4</ele>
        <time>2018-04-03T11:03:40Z</time>
      </trkpt>
      <trkpt lat="62.636641852432" lon="17.978772917343">
        <ele>87.4</ele>
        <time>2018-04-03T11:03:41Z</time>
      </trkpt>
      <trkpt lat="62.636609498298" lon="17.978774761361">
        <ele>87.4</ele>
        <time>2018-04-03T11:03:42Z</time>
      </trkpt>
      <trkpt lat="62.636579491096" lon="17.978782053614">
        <ele>87.8</ele>
        <time>2018-04-03T11:03:43Z</time>
      </trkpt>
      <trkpt lat="62.636553004292" lon="17.97878406527">
        <ele>88</ele>
        <time>2018-04-03T11:03:44Z</time>
      </trkpt>
      <trkpt lat="62.636529032058" lon="17.978780125777">
        <ele>88</ele>
        <time>2018-04-03T11:03:45Z</time>
      </trkpt>
      <trkpt lat="62.636504137815" lon="17.978782807985">
        <ele>88.2</ele>
        <time>2018-04-03T11:03:46Z</time>
      </trkpt>
      <trkpt lat="62.636475890812" lon="17.978784400546">
        <ele>88.6</ele>
        <time>2018-04-03T11:03:47Z</time>
      </trkpt>
      <trkpt lat="62.636452924406" lon="17.978793117722">
        <ele>88.8</ele>
        <time>2018-04-03T11:03:48Z</time>
      </trkpt>
      <trkpt lat="62.636435909149" lon="17.978805103839">
        <ele>88.8</ele>
        <time>2018-04-03T11:03:49Z</time>
      </trkpt>
      <trkpt lat="62.636415122037" lon="17.978825723313">
        <ele>89</ele>
        <time>2018-04-03T11:03:50Z</time>
      </trkpt>
      <trkpt lat="62.636399447884" lon="17.978840894552">
        <ele>89.2</ele>
        <time>2018-04-03T11:03:51Z</time>
      </trkpt>
      <trkpt lat="62.636370697967" lon="17.978852545393">
        <ele>89.2</ele>
        <time>2018-04-03T11:03:52Z</time>
      </trkpt>
      <trkpt lat="62.636349072665" lon="17.978870231202">
        <ele>89.4</ele>
        <time>2018-04-03T11:03:53Z</time>
      </trkpt>
      <trkpt lat="62.636326776811" lon="17.978887917011">
        <ele>89.8</ele>
        <time>2018-04-03T11:03:54Z</time>
      </trkpt>
      <trkpt lat="62.636305738242" lon="17.978911805426">
        <ele>90</ele>
        <time>2018-04-03T11:03:55Z</time>
      </trkpt>
      <trkpt lat="62.636287968614" lon="17.978941728809">
        <ele>90.2</ele>
        <time>2018-04-03T11:03:56Z</time>
      </trkpt>
      <trkpt lat="62.636267516778" lon="17.978970394907">
        <ele>90.4</ele>
        <time>2018-04-03T11:03:57Z</time>
      </trkpt>
      <trkpt lat="62.636238263947" lon="17.979000988842">
        <ele>90.6</ele>
        <time>2018-04-03T11:03:58Z</time>
      </trkpt>
      <trkpt lat="62.636219404672" lon="17.979023536153">
        <ele>90.8</ele>
        <time>2018-04-03T11:03:59Z</time>
      </trkpt>
      <trkpt lat="62.636202976148" lon="17.979045999645">
        <ele>91</ele>
        <time>2018-04-03T11:04:00Z</time>
      </trkpt>
      <trkpt lat="62.636188894556" lon="17.979069552784">
        <ele>91.2</ele>
        <time>2018-04-03T11:04:01Z</time>
      </trkpt>
      <trkpt lat="62.636176740801" lon="17.979085897489">
        <ele>91.4</ele>
        <time>2018-04-03T11:04:02Z</time>
      </trkpt>
      <trkpt lat="62.636165173779" lon="17.979107187515">
        <ele>91.6</ele>
        <time>2018-04-03T11:04:03Z</time>
      </trkpt>
      <trkpt lat="62.63614832616" lon="17.979137194717">
        <ele>92</ele>
        <time>2018-04-03T11:04:04Z</time>
      </trkpt>
      <trkpt lat="62.636129802161" lon="17.979165106444">
        <ele>93</ele>
        <time>2018-04-03T11:04:05Z</time>
      </trkpt>
      <trkpt lat="62.63611647494" lon="17.979197209121">
        <ele>93.4</ele>
        <time>2018-04-03T11:04:06Z</time>
      </trkpt>
      <trkpt lat="62.63609971114" lon="17.979226378133">
        <ele>94.2</ele>
        <time>2018-04-03T11:04:07Z</time>
      </trkpt>
      <trkpt lat="62.63608462372" lon="17.979265102511">
        <ele>94.6</ele>
        <time>2018-04-03T11:04:08Z</time>
      </trkpt>
      <trkpt lat="62.636071967051" lon="17.979307431106">
        <ele>94.6</ele>
        <time>2018-04-03T11:04:09Z</time>
      </trkpt>
      <trkpt lat="62.636062160228" lon="17.979351352262">
        <ele>94.6</ele>
        <time>2018-04-03T11:04:10Z</time>
      </trkpt>
      <trkpt lat="62.636047240446" lon="17.97939426759">
        <ele>94.8</ele>
        <time>2018-04-03T11:04:11Z</time>
      </trkpt>
      <trkpt lat="62.636038774727" lon="17.979441625325">
        <ele>95</ele>
        <time>2018-04-03T11:04:12Z</time>
      </trkpt>
      <trkpt lat="62.636030476646" lon="17.979501891186">
        <ele>95.2</ele>
        <time>2018-04-03T11:04:13Z</time>
      </trkpt>
      <trkpt lat="62.636022010927" lon="17.979574143164">
        <ele>95.4</ele>
        <time>2018-04-03T11:04:14Z</time>
      </trkpt>
      <trkpt lat="62.636014131941" lon="17.979646478961">
        <ele>95.4</ele>
        <time>2018-04-03T11:04:15Z</time>
      </trkpt>
      <trkpt lat="62.636012204104" lon="17.979755611299">
        <ele>95.4</ele>
        <time>2018-04-03T11:04:16Z</time>
      </trkpt>
      <trkpt lat="62.636009773353" lon="17.979907994241">
        <ele>94.8</ele>
        <time>2018-04-03T11:04:17Z</time>
      </trkpt>
      <trkpt lat="62.636007594059" lon="17.980047133781">
        <ele>94.4</ele>
        <time>2018-04-03T11:04:18Z</time>
      </trkpt>
      <trkpt lat="62.63600583386" lon="17.980187782063">
        <ele>94</ele>
        <time>2018-04-03T11:04:19Z</time>
      </trkpt>
      <trkpt lat="62.636023100574" lon="17.980326167232">
        <ele>94.4</ele>
        <time>2018-04-03T11:04:20Z</time>
      </trkpt>
      <trkpt lat="62.636039696736" lon="17.98045709251">
        <ele>94.4</ele>
        <time>2018-04-03T11:04:21Z</time>
      </trkpt>
      <trkpt lat="62.636056376717" lon="17.980591622005">
        <ele>94.4</ele>
        <time>2018-04-03T11:04:22Z</time>
      </trkpt>
      <trkpt lat="62.63607708001" lon="17.980717601962">
        <ele>94.4</ele>
        <time>2018-04-03T11:04:23Z</time>
      </trkpt>
      <trkpt lat="62.636098537674" lon="17.980843833376">
        <ele>94.4</ele>
        <time>2018-04-03T11:04:24Z</time>
      </trkpt>
      <trkpt lat="62.636120330614" lon="17.980971322075">
        <ele>94.4</ele>
        <time>2018-04-03T11:04:25Z</time>
      </trkpt>
      <trkpt lat="62.636142626468" lon="17.981098056403">
        <ele>94.4</ele>
        <time>2018-04-03T11:04:26Z</time>
      </trkpt>
      <trkpt lat="62.636158468259" lon="17.981219426315">
        <ele>94</ele>
        <time>2018-04-03T11:04:27Z</time>
      </trkpt>
      <trkpt lat="62.636172382213" lon="17.98134557391">
        <ele>94</ele>
        <time>2018-04-03T11:04:28Z</time>
      </trkpt>
      <trkpt lat="62.636179171552" lon="17.981458310465">
        <ele>94</ele>
        <time>2018-04-03T11:04:29Z</time>
      </trkpt>
      <trkpt lat="62.636183949235" lon="17.981569538278">
        <ele>93.8</ele>
        <time>2018-04-03T11:04:30Z</time>
      </trkpt>
      <trkpt lat="62.636188140185" lon="17.981667941784">
        <ele>93.8</ele>
        <time>2018-04-03T11:04:31Z</time>
      </trkpt>
      <trkpt lat="62.636195767714" lon="17.98177472719">
        <ele>93.8</ele>
        <time>2018-04-03T11:04:32Z</time>
      </trkpt>
      <trkpt lat="62.636204736347" lon="17.981877405465">
        <ele>93.8</ele>
        <time>2018-04-03T11:04:33Z</time>
      </trkpt>
      <trkpt lat="62.636210771315" lon="17.981954686583">
        <ele>93.8</ele>
        <time>2018-04-03T11:04:34Z</time>
      </trkpt>
      <trkpt lat="62.636224266174" lon="17.982048982958">
        <ele>94</ele>
        <time>2018-04-03T11:04:35Z</time>
      </trkpt>
      <trkpt lat="62.636235833196" lon="17.982132885777">
        <ele>94.2</ele>
        <time>2018-04-03T11:04:36Z</time>
      </trkpt>
      <trkpt lat="62.63625729086" lon="17.982213435836">
        <ele>94.2</ele>
        <time>2018-04-03T11:04:37Z</time>
      </trkpt>
      <trkpt lat="62.636265840398" lon="17.982305217641">
        <ele>94</ele>
        <time>2018-04-03T11:04:38Z</time>
      </trkpt>
      <trkpt lat="62.636272126823" lon="17.982395406885">
        <ele>94</ele>
        <time>2018-04-03T11:04:39Z</time>
      </trkpt>
      <trkpt lat="62.636287968614" lon="17.982465563388">
        <ele>94</ele>
        <time>2018-04-03T11:04:40Z</time>
      </trkpt>
      <trkpt lat="62.636294925591" lon="17.982531696579">
        <ele>93.8</ele>
        <time>2018-04-03T11:04:41Z</time>
      </trkpt>
      <trkpt lat="62.636289812632" lon="17.982620628538">
        <ele>94.2</ele>
        <time>2018-04-03T11:04:42Z</time>
      </trkpt>
      <trkpt lat="62.636289812632" lon="17.982693551068">
        <ele>94.2</ele>
        <time>2018-04-03T11:04:43Z</time>
      </trkpt>
      <trkpt lat="62.636287046605" lon="17.98277217329">
        <ele>94.6</ele>
        <time>2018-04-03T11:04:44Z</time>
      </trkpt>
      <trkpt lat="62.636284615854" lon="17.982853142444">
        <ele>94.8</ele>
        <time>2018-04-03T11:04:45Z</time>
      </trkpt>
      <trkpt lat="62.63628159837" lon="17.982909552631">
        <ele>95</ele>
        <time>2018-04-03T11:04:46Z</time>
      </trkpt>
      <trkpt lat="62.636277575058" lon="17.982979038582">
        <ele>95</ele>
        <time>2018-04-03T11:04:47Z</time>
      </trkpt>
      <trkpt lat="62.636273551746" lon="17.983046596696">
        <ele>95.2</ele>
        <time>2018-04-03T11:04:48Z</time>
      </trkpt>
      <trkpt lat="62.636273384108" lon="17.98310912567">
        <ele>95.6</ele>
        <time>2018-04-03T11:04:49Z</time>
      </trkpt>
      <trkpt lat="62.636275228126" lon="17.983168469522">
        <ele>96.2</ele>
        <time>2018-04-03T11:04:50Z</time>
      </trkpt>
      <trkpt lat="62.636281179275" lon="17.98325580892">
        <ele>96.2</ele>
        <time>2018-04-03T11:04:51Z</time>
      </trkpt>
      <trkpt lat="62.636276485411" lon="17.983332754762">
        <ele>96.4</ele>
        <time>2018-04-03T11:04:52Z</time>
      </trkpt>
      <trkpt lat="62.636275060488" lon="17.983403162722">
        <ele>96.6</ele>
        <time>2018-04-03T11:04:53Z</time>
      </trkpt>
      <trkpt lat="62.636282520379" lon="17.983472481035">
        <ele>96.8</ele>
        <time>2018-04-03T11:04:54Z</time>
      </trkpt>
      <trkpt lat="62.636282520379" lon="17.98353576438">
        <ele>97</ele>
        <time>2018-04-03T11:04:55Z</time>
      </trkpt>
      <trkpt lat="62.636281095456" lon="17.983592258386">
        <ele>97.4</ele>
        <time>2018-04-03T11:04:56Z</time>
      </trkpt>
      <trkpt lat="62.636265588941" lon="17.983655877007">
        <ele>97.8</ele>
        <time>2018-04-03T11:04:57Z</time>
      </trkpt>
      <trkpt lat="62.636260224525" lon="17.983711113728">
        <ele>98.2</ele>
        <time>2018-04-03T11:04:58Z</time>
      </trkpt>
      <trkpt lat="62.636249244236" lon="17.983761908042">
        <ele>98.4</ele>
        <time>2018-04-03T11:04:59Z</time>
      </trkpt>
      <trkpt lat="62.636246729666" lon="17.983814630193">
        <ele>98.8</ele>
        <time>2018-04-03T11:05:00Z</time>
      </trkpt>
      <trkpt lat="62.636246142933" lon="17.983862742299">
        <ele>99.2</ele>
        <time>2018-04-03T11:05:01Z</time>
      </trkpt>
      <trkpt lat="62.636238515404" lon="17.983924768359">
        <ele>99.4</ele>
        <time>2018-04-03T11:05:02Z</time>
      </trkpt>
      <trkpt lat="62.636232396617" lon="17.98398587241">
        <ele>99.4</ele>
        <time>2018-04-03T11:05:03Z</time>
      </trkpt>
      <trkpt lat="62.636229127676" lon="17.984036499086">
        <ele>99.8</ele>
        <time>2018-04-03T11:05:04Z</time>
      </trkpt>
      <trkpt lat="62.636229546771" lon="17.984096597309">
        <ele>100</ele>
        <time>2018-04-03T11:05:05Z</time>
      </trkpt>
      <trkpt lat="62.636230049685" lon="17.98415853955">
        <ele>100</ele>
        <time>2018-04-03T11:05:06Z</time>
      </trkpt>
      <trkpt lat="62.636228373305" lon="17.984214027728">
        <ele>101</ele>
        <time>2018-04-03T11:05:07Z</time>
      </trkpt>
      <trkpt lat="62.636225774916" lon="17.9842716952">
        <ele>101.4</ele>
        <time>2018-04-03T11:05:08Z</time>
      </trkpt>
      <trkpt lat="62.636225355821" lon="17.984330787595">
        <ele>101.8</ele>
        <time>2018-04-03T11:05:09Z</time>
      </trkpt>
      <trkpt lat="62.636219991405" lon="17.984392562198">
        <ele>102.4</ele>
        <time>2018-04-03T11:05:10Z</time>
      </trkpt>
      <trkpt lat="62.636214626989" lon="17.984452073688">
        <ele>102.6</ele>
        <time>2018-04-03T11:05:11Z</time>
      </trkpt>
      <trkpt lat="62.636208005288" lon="17.984523068381">
        <ele>102.6</ele>
        <time>2018-04-03T11:05:12Z</time>
      </trkpt>
      <trkpt lat="62.636197695551" lon="17.984584759165">
        <ele>102.6</ele>
        <time>2018-04-03T11:05:13Z</time>
      </trkpt>
      <trkpt lat="62.636188391642" lon="17.984645863216">
        <ele>103.2</ele>
        <time>2018-04-03T11:05:14Z</time>
      </trkpt>
      <trkpt lat="62.636185709434" lon="17.984702441041">
        <ele>103.2</ele>
        <time>2018-04-03T11:05:15Z</time>
      </trkpt>
      <trkpt lat="62.636176740801" lon="17.984755749925">
        <ele>103.4</ele>
        <time>2018-04-03T11:05:16Z</time>
      </trkpt>
      <trkpt lat="62.636169113272" lon="17.984824397686">
        <ele>103.6</ele>
        <time>2018-04-03T11:05:17Z</time>
      </trkpt>
      <trkpt lat="62.636170035281" lon="17.984881226968">
        <ele>103.4</ele>
        <time>2018-04-03T11:05:18Z</time>
      </trkpt>
      <trkpt lat="62.63616928091" lon="17.984931015454">
        <ele>103.6</ele>
        <time>2018-04-03T11:05:19Z</time>
      </trkpt>
      <trkpt lat="62.636163581218" lon="17.98498750946">
        <ele>103.6</ele>
        <time>2018-04-03T11:05:20Z</time>
      </trkpt>
      <trkpt lat="62.636160731372" lon="17.985039896335">
        <ele>103.6</ele>
        <time>2018-04-03T11:05:21Z</time>
      </trkpt>
      <trkpt lat="62.636162994485" lon="17.985085661509">
        <ele>103.4</ele>
        <time>2018-04-03T11:05:22Z</time>
      </trkpt>
      <trkpt lat="62.63616006082" lon="17.985145340637">
        <ele>103.4</ele>
        <time>2018-04-03T11:05:23Z</time>
      </trkpt>
      <trkpt lat="62.63616006082" lon="17.985209378353">
        <ele>103.2</ele>
        <time>2018-04-03T11:05:24Z</time>
      </trkpt>
      <trkpt lat="62.636161988657" lon="17.985262938694">
        <ele>103.4</ele>
        <time>2018-04-03T11:05:25Z</time>
      </trkpt>
      <trkpt lat="62.636167855987" lon="17.985311218438">
        <ele>103.2</ele>
        <time>2018-04-03T11:05:26Z</time>
      </trkpt>
      <trkpt lat="62.636157043336" lon="17.985364862598">
        <ele>103.4</ele>
        <time>2018-04-03T11:05:27Z</time>
      </trkpt>
      <trkpt lat="62.636157043336" lon="17.985424122631">
        <ele>103.4</ele>
        <time>2018-04-03T11:05:28Z</time>
      </trkpt>
      <trkpt lat="62.636152433291" lon="17.985477682972">
        <ele>103.4</ele>
        <time>2018-04-03T11:05:29Z</time>
      </trkpt>
      <trkpt lat="62.636144051391" lon="17.98553568572">
        <ele>103.4</ele>
        <time>2018-04-03T11:05:30Z</time>
      </trkpt>
      <trkpt lat="62.636136675319" lon="17.985594191382">
        <ele>103.4</ele>
        <time>2018-04-03T11:05:31Z</time>
      </trkpt>
      <trkpt lat="62.636116810216" lon="17.985653283777">
        <ele>103.2</ele>
        <time>2018-04-03T11:05:32Z</time>
      </trkpt>
      <trkpt lat="62.636102309529" lon="17.985721177167">
        <ele>103.2</ele>
        <time>2018-04-03T11:05:33Z</time>
      </trkpt>
      <trkpt lat="62.636105327013" lon="17.985759230993">
        <ele>103</ele>
        <time>2018-04-03T11:05:34Z</time>
      </trkpt>
      <trkpt lat="62.63607372725" lon="17.985813210429">
        <ele>103</ele>
        <time>2018-04-03T11:05:35Z</time>
      </trkpt>
      <trkpt lat="62.636057214907" lon="17.98586006525">
        <ele>102.8</ele>
        <time>2018-04-03T11:05:36Z</time>
      </trkpt>
      <trkpt lat="62.636032907397" lon="17.985880600905">
        <ele>102.8</ele>
        <time>2018-04-03T11:05:37Z</time>
      </trkpt>
      <trkpt lat="62.636011533552" lon="17.985909434641">
        <ele>102.8</ele>
        <time>2018-04-03T11:05:38Z</time>
      </trkpt>
      <trkpt lat="62.635997871055" lon="17.985937597825">
        <ele>102.8</ele>
        <time>2018-04-03T11:05:39Z</time>
      </trkpt>
      <trkpt lat="62.635971132794" lon="17.98596819176">
        <ele>102.6</ele>
        <time>2018-04-03T11:05:40Z</time>
      </trkpt>
      <trkpt lat="62.635959649591" lon="17.985995349116">
        <ele>102.6</ele>
        <time>2018-04-03T11:05:41Z</time>
      </trkpt>
      <trkpt lat="62.635929726208" lon="17.986024685766">
        <ele>102.4</ele>
        <time>2018-04-03T11:05:42Z</time>
      </trkpt>
      <trkpt lat="62.635904915784" lon="17.986047484534">
        <ele>102.4</ele>
        <time>2018-04-03T11:05:43Z</time>
      </trkpt>
      <trkpt lat="62.635880859731" lon="17.98606709818">
        <ele>102.4</ele>
        <time>2018-04-03T11:05:44Z</time>
      </trkpt>
      <trkpt lat="62.635862335732" lon="17.986090483681">
        <ele>102.6</ele>
        <time>2018-04-03T11:05:45Z</time>
      </trkpt>
      <trkpt lat="62.635840542792" lon="17.986099452314">
        <ele>102.6</ele>
        <time>2018-04-03T11:05:46Z</time>
      </trkpt>
      <trkpt lat="62.635802237509" lon="17.98614840261">
        <ele>102.4</ele>
        <time>2018-04-03T11:05:47Z</time>
      </trkpt>
      <trkpt lat="62.635778935827" lon="17.986187462264">
        <ele>102.4</ele>
        <time>2018-04-03T11:05:48Z</time>
      </trkpt>
      <trkpt lat="62.635756304697" lon="17.986234819999">
        <ele>102.4</ele>
        <time>2018-04-03T11:05:49Z</time>
      </trkpt>
      <trkpt lat="62.63573593668" lon="17.986256696758">
        <ele>102.4</ele>
        <time>2018-04-03T11:05:50Z</time>
      </trkpt>
      <trkpt lat="62.635715568663" lon="17.986288128883">
        <ele>102.6</ele>
        <time>2018-04-03T11:05:51Z</time>
      </trkpt>
      <trkpt lat="62.635707522039" lon="17.986324087234">
        <ele>102.4</ele>
        <time>2018-04-03T11:05:52Z</time>
      </trkpt>
      <trkpt lat="62.635693440447" lon="17.986358369205">
        <ele>102.6</ele>
        <time>2018-04-03T11:05:53Z</time>
      </trkpt>
      <trkpt lat="62.635676676647" lon="17.986392483538">
        <ele>102.6</ele>
        <time>2018-04-03T11:05:54Z</time>
      </trkpt>
      <trkpt lat="62.635659829028" lon="17.986438919264">
        <ele>102.6</ele>
        <time>2018-04-03T11:05:55Z</time>
      </trkpt>
      <trkpt lat="62.635644993065" lon="17.986481666954">
        <ele>102.4</ele>
        <time>2018-04-03T11:05:56Z</time>
      </trkpt>
      <trkpt lat="62.635631917301" lon="17.986516200382">
        <ele>102.6</ele>
        <time>2018-04-03T11:05:57Z</time>
      </trkpt>
      <trkpt lat="62.635611465465" lon="17.986570431275">
        <ele>102.4</ele>
        <time>2018-04-03T11:05:58Z</time>
      </trkpt>
      <trkpt lat="62.635595875131" lon="17.986618711019">
        <ele>102.2</ele>
        <time>2018-04-03T11:05:59Z</time>
      </trkpt>
      <trkpt lat="62.635578524598" lon="17.986655591379">
        <ele>102.4</ele>
        <time>2018-04-03T11:06:00Z</time>
      </trkpt>
      <trkpt lat="62.635564359187" lon="17.986678222509">
        <ele>102.2</ele>
        <time>2018-04-03T11:06:01Z</time>
      </trkpt>
      <trkpt lat="62.635546673378" lon="17.986716443973">
        <ele>102.2</ele>
        <time>2018-04-03T11:06:02Z</time>
      </trkpt>
      <trkpt lat="62.635536866555" lon="17.986751396496">
        <ele>102.2</ele>
        <time>2018-04-03T11:06:03Z</time>
      </trkpt>
      <trkpt lat="62.635517504366" lon="17.986791545797">
        <ele>102</ele>
        <time>2018-04-03T11:06:04Z</time>
      </trkpt>
      <trkpt lat="62.635502584584" lon="17.986835634591">
        <ele>102</ele>
        <time>2018-04-03T11:06:05Z</time>
      </trkpt>
      <trkpt lat="62.635487497164" lon="17.986871928218">
        <ele>102</ele>
        <time>2018-04-03T11:06:06Z</time>
      </trkpt>
      <trkpt lat="62.635466710052" lon="17.986915514098">
        <ele>101.8</ele>
        <time>2018-04-03T11:06:07Z</time>
      </trkpt>
      <trkpt lat="62.635445000931" lon="17.986964129118">
        <ele>101.8</ele>
        <time>2018-04-03T11:06:08Z</time>
      </trkpt>
      <trkpt lat="62.635425638742" lon="17.987019533477">
        <ele>102</ele>
        <time>2018-04-03T11:06:09Z</time>
      </trkpt>
      <trkpt lat="62.635409126399" lon="17.987047612842">
        <ele>102</ele>
        <time>2018-04-03T11:06:10Z</time>
      </trkpt>
      <trkpt lat="62.635392530237" lon="17.987083990288">
        <ele>101.8</ele>
        <time>2018-04-03T11:06:11Z</time>
      </trkpt>
      <trkpt lat="62.635383980699" lon="17.9871299231">
        <ele>101.8</ele>
        <time>2018-04-03T11:06:12Z</time>
      </trkpt>
      <trkpt lat="62.635368641822" lon="17.987173592799">
        <ele>101.8</ele>
        <time>2018-04-03T11:06:13Z</time>
      </trkpt>
      <trkpt lat="62.635354057316" lon="17.987210305521">
        <ele>101.8</ele>
        <time>2018-04-03T11:06:14Z</time>
      </trkpt>
      <trkpt lat="62.635341400647" lon="17.987240312723">
        <ele>101.8</ele>
        <time>2018-04-03T11:06:15Z</time>
      </trkpt>
      <trkpt lat="62.63530510702" lon="17.987302757878">
        <ele>101.6</ele>
        <time>2018-04-03T11:06:16Z</time>
      </trkpt>
      <trkpt lat="62.635286583021" lon="17.987334106184">
        <ele>101.6</ele>
        <time>2018-04-03T11:06:17Z</time>
      </trkpt>
      <trkpt lat="62.635268394298" lon="17.987373920209">
        <ele>101.6</ele>
        <time>2018-04-03T11:06:18Z</time>
      </trkpt>
      <trkpt lat="62.63525733019" lon="17.987412896044">
        <ele>101.6</ele>
        <time>2018-04-03T11:06:19Z</time>
      </trkpt>
      <trkpt lat="62.635237297449" lon="17.987445836911">
        <ele>101.4</ele>
        <time>2018-04-03T11:06:20Z</time>
      </trkpt>
      <trkpt lat="62.63522464078" lon="17.987484393651">
        <ele>101.4</ele>
        <time>2018-04-03T11:06:21Z</time>
      </trkpt>
      <trkpt lat="62.635205781505" lon="17.987532924852">
        <ele>101.6</ele>
        <time>2018-04-03T11:06:22Z</time>
      </trkpt>
      <trkpt lat="62.635194549759" lon="17.987581875148">
        <ele>101.6</ele>
        <time>2018-04-03T11:06:23Z</time>
      </trkpt>
      <trkpt lat="62.63518440766" lon="17.987634094385">
        <ele>101.6</ele>
        <time>2018-04-03T11:06:24Z</time>
      </trkpt>
      <trkpt lat="62.635173595009" lon="17.987688744373">
        <ele>101.6</ele>
        <time>2018-04-03T11:06:25Z</time>
      </trkpt>
      <trkpt lat="62.635163201453" lon="17.987740209239">
        <ele>101.6</ele>
        <time>2018-04-03T11:06:26Z</time>
      </trkpt>
      <trkpt lat="62.635155406286" lon="17.987785890594">
        <ele>101.6</ele>
        <time>2018-04-03T11:06:27Z</time>
      </trkpt>
      <trkpt lat="62.63515004187" lon="17.987840205306">
        <ele>101.4</ele>
        <time>2018-04-03T11:06:28Z</time>
      </trkpt>
      <trkpt lat="62.63514668911" lon="17.98788932324">
        <ele>101.4</ele>
        <time>2018-04-03T11:06:29Z</time>
      </trkpt>
      <trkpt lat="62.635138055753" lon="17.98794632016">
        <ele>101.4</ele>
        <time>2018-04-03T11:06:30Z</time>
      </trkpt>
      <trkpt lat="62.635124225618" lon="17.988006083107">
        <ele>101.4</ele>
        <time>2018-04-03T11:06:31Z</time>
      </trkpt>
      <trkpt lat="62.635117855374" lon="17.988052435014">
        <ele>101.4</ele>
        <time>2018-04-03T11:06:32Z</time>
      </trkpt>
      <trkpt lat="62.635100085746" lon="17.988106833545">
        <ele>101.2</ele>
        <time>2018-04-03T11:06:33Z</time>
      </trkpt>
      <trkpt lat="62.635107042723" lon="17.988154861832">
        <ele>101.2</ele>
        <time>2018-04-03T11:06:34Z</time>
      </trkpt>
      <trkpt lat="62.635083573403" lon="17.988208170716">
        <ele>101.2</ele>
        <time>2018-04-03T11:06:35Z</time>
      </trkpt>
      <trkpt lat="62.6350720902" lon="17.988256282822">
        <ele>101.2</ele>
        <time>2018-04-03T11:06:36Z</time>
      </trkpt>
      <trkpt lat="62.635045771034" lon="17.988282601988">
        <ele>101.2</ele>
        <time>2018-04-03T11:06:37Z</time>
      </trkpt>
      <trkpt lat="62.635026576483" lon="17.988323421841">
        <ele>101.2</ele>
        <time>2018-04-03T11:06:38Z</time>
      </trkpt>
      <trkpt lat="62.635012913986" lon="17.988369019377">
        <ele>101.2</ele>
        <time>2018-04-03T11:06:39Z</time>
      </trkpt>
      <trkpt lat="62.634970836848" lon="17.988384190616">
        <ele>101.4</ele>
        <time>2018-04-03T11:06:40Z</time>
      </trkpt>
      <trkpt lat="62.634949965917" lon="17.988406151194">
        <ele>101.4</ele>
        <time>2018-04-03T11:06:41Z</time>
      </trkpt>
      <trkpt lat="62.634919791077" lon="17.988417466759">
        <ele>101.2</ele>
        <time>2018-04-03T11:06:42Z</time>
      </trkpt>
      <trkpt lat="62.634899925974" lon="17.988428614686">
        <ele>101.2</ele>
        <time>2018-04-03T11:06:43Z</time>
      </trkpt>
      <trkpt lat="62.63487343917" lon="17.988445294667">
        <ele>101</ele>
        <time>2018-04-03T11:06:44Z</time>
      </trkpt>
      <trkpt lat="62.634854747533" lon="17.988460717363">
        <ele>101</ele>
        <time>2018-04-03T11:06:45Z</time>
      </trkpt>
      <trkpt lat="62.634831697308" lon="17.988482845579">
        <ele>100.8</ele>
        <time>2018-04-03T11:06:46Z</time>
      </trkpt>
      <trkpt lat="62.634796660966" lon="17.98850036375">
        <ele>100.8</ele>
        <time>2018-04-03T11:06:47Z</time>
      </trkpt>
      <trkpt lat="62.634772688732" lon="17.988511092582">
        <ele>100.8</ele>
        <time>2018-04-03T11:06:48Z</time>
      </trkpt>
      <trkpt lat="62.634750728154" lon="17.988519390663">
        <ele>100.8</ele>
        <time>2018-04-03T11:06:49Z</time>
      </trkpt>
      <trkpt lat="62.634728516119" lon="17.988535148635">
        <ele>100.6</ele>
        <time>2018-04-03T11:06:50Z</time>
      </trkpt>
      <trkpt lat="62.634714434527" lon="17.988548308218">
        <ele>100.6</ele>
        <time>2018-04-03T11:06:51Z</time>
      </trkpt>
      <trkpt lat="62.634677051253" lon="17.988572196633">
        <ele>100.6</ele>
        <time>2018-04-03T11:06:52Z</time>
      </trkpt>
      <trkpt lat="62.634656431779" lon="17.988593319021">
        <ele>100.6</ele>
        <time>2018-04-03T11:06:53Z</time>
      </trkpt>
      <trkpt lat="62.634636147581" lon="17.988609831364">
        <ele>100.6</ele>
        <time>2018-04-03T11:06:54Z</time>
      </trkpt>
      <trkpt lat="62.63461779122" lon="17.988632294856">
        <ele>100.6</ele>
        <time>2018-04-03T11:06:55Z</time>
      </trkpt>
      <trkpt lat="62.634603206714" lon="17.988656853823">
        <ele>100.8</ele>
        <time>2018-04-03T11:06:56Z</time>
      </trkpt>
      <trkpt lat="62.634585437086" lon="17.988675796917">
        <ele>101</ele>
        <time>2018-04-03T11:06:57Z</time>
      </trkpt>
      <trkpt lat="62.63455744154" lon="17.988727345602">
        <ele>101</ele>
        <time>2018-04-03T11:06:58Z</time>
      </trkpt>
      <trkpt lat="62.634536319152" lon="17.988765064152">
        <ele>101.4</ele>
        <time>2018-04-03T11:06:59Z</time>
      </trkpt>
      <trkpt lat="62.634517711334" lon="17.988819462683">
        <ele>101.6</ele>
        <time>2018-04-03T11:07:00Z</time>
      </trkpt>
      <trkpt lat="62.634502456276" lon="17.988879812363">
        <ele>101.6</ele>
        <time>2018-04-03T11:07:01Z</time>
      </trkpt>
      <trkpt lat="62.634479322232" lon="17.98889682762">
        <ele>101.8</ele>
        <time>2018-04-03T11:07:02Z</time>
      </trkpt>
      <trkpt lat="62.634463731898" lon="17.988931528686">
        <ele>102</ele>
        <time>2018-04-03T11:07:03Z</time>
      </trkpt>
      <trkpt lat="62.63445602055" lon="17.988971091254">
        <ele>102</ele>
        <time>2018-04-03T11:07:04Z</time>
      </trkpt>
      <trkpt lat="62.634436155447" lon="17.98902087974">
        <ele>102.2</ele>
        <time>2018-04-03T11:07:05Z</time>
      </trkpt>
      <trkpt lat="62.634426432443" lon="17.989073601891">
        <ele>102.4</ele>
        <time>2018-04-03T11:07:06Z</time>
      </trkpt>
      <trkpt lat="62.634397011974" lon="17.989096233021">
        <ele>102.4</ele>
        <time>2018-04-03T11:07:07Z</time>
      </trkpt>
      <trkpt lat="62.634376057224" lon="17.989130514992">
        <ele>102.6</ele>
        <time>2018-04-03T11:07:08Z</time>
      </trkpt>
      <trkpt lat="62.63435543775" lon="17.989160606013">
        <ele>102.6</ele>
        <time>2018-04-03T11:07:09Z</time>
      </trkpt>
      <trkpt lat="62.63432442472" lon="17.98921450163">
        <ele>102.6</ele>
        <time>2018-04-03T11:07:10Z</time>
      </trkpt>
      <trkpt lat="62.634294836613" lon="17.989240066425">
        <ele>102.6</ele>
        <time>2018-04-03T11:07:11Z</time>
      </trkpt>
      <trkpt lat="62.634272959854" lon="17.989260937356">
        <ele>102.8</ele>
        <time>2018-04-03T11:07:12Z</time>
      </trkpt>
      <trkpt lat="62.634248652344" lon="17.989287005065">
        <ele>102.8</ele>
        <time>2018-04-03T11:07:13Z</time>
      </trkpt>
      <trkpt lat="62.634221578807" lon="17.989314078602">
        <ele>103</ele>
        <time>2018-04-03T11:07:14Z</time>
      </trkpt>
      <trkpt lat="62.634194840546" lon="17.989330088031">
        <ele>103</ele>
        <time>2018-04-03T11:07:15Z</time>
      </trkpt>
      <trkpt lat="62.634168102285" lon="17.98934609746">
        <ele>103</ele>
        <time>2018-04-03T11:07:16Z</time>
      </trkpt>
      <trkpt lat="62.634151589942" lon="17.98937878687">
        <ele>103</ele>
        <time>2018-04-03T11:07:17Z</time>
      </trkpt>
      <trkpt lat="62.634124181129" lon="17.989399909258">
        <ele>103.2</ele>
        <time>2018-04-03T11:07:18Z</time>
      </trkpt>
      <trkpt lat="62.634095431212" lon="17.989413655574">
        <ele>103.2</ele>
        <time>2018-04-03T11:07:19Z</time>
      </trkpt>
      <trkpt lat="62.63406458582" lon="17.989463946974">
        <ele>103.2</ele>
        <time>2018-04-03T11:07:20Z</time>
      </trkpt>
      <trkpt lat="62.63403692555" lon="17.989492110158">
        <ele>103.2</ele>
        <time>2018-04-03T11:07:21Z</time>
      </trkpt>
      <trkpt lat="62.634018904465" lon="17.989523123188">
        <ele>103.4</ele>
        <time>2018-04-03T11:07:22Z</time>
      </trkpt>
      <trkpt lat="62.63399417786" lon="17.989552208381">
        <ele>103.4</ele>
        <time>2018-04-03T11:07:23Z</time>
      </trkpt>
      <trkpt lat="62.63396819397" lon="17.989579784832">
        <ele>103.6</ele>
        <time>2018-04-03T11:07:24Z</time>
      </trkpt>
      <trkpt lat="62.633942126261" lon="17.989604427618">
        <ele>104</ele>
        <time>2018-04-03T11:07:25Z</time>
      </trkpt>
      <trkpt lat="62.633922764072" lon="17.989627142567">
        <ele>104</ele>
        <time>2018-04-03T11:07:26Z</time>
      </trkpt>
      <trkpt lat="62.633909185394" lon="17.98964197853">
        <ele>104.2</ele>
        <time>2018-04-03T11:07:27Z</time>
      </trkpt>
      <trkpt lat="62.633873143224" lon="17.989683552754">
        <ele>104.4</ele>
        <time>2018-04-03T11:07:28Z</time>
      </trkpt>
      <trkpt lat="62.633844225669" lon="17.989722696227">
        <ele>104.6</ele>
        <time>2018-04-03T11:07:29Z</time>
      </trkpt>
      <trkpt lat="62.633818912331" lon="17.989765946831">
        <ele>104.6</ele>
        <time>2018-04-03T11:07:30Z</time>
      </trkpt>
      <trkpt lat="62.633800472151" lon="17.989804671209">
        <ele>104.6</ele>
        <time>2018-04-03T11:07:31Z</time>
      </trkpt>
      <trkpt lat="62.633779182125" lon="17.989860997577">
        <ele>104.6</ele>
        <time>2018-04-03T11:07:32Z</time>
      </trkpt>
      <trkpt lat="62.633763340334" lon="17.98990265562">
        <ele>104.6</ele>
        <time>2018-04-03T11:07:33Z</time>
      </trkpt>
      <trkpt lat="62.633748336733" lon="17.989946912052">
        <ele>104.8</ele>
        <time>2018-04-03T11:07:34Z</time>
      </trkpt>
      <trkpt lat="62.633730567105" lon="17.990006507361">
        <ele>104.6</ele>
        <time>2018-04-03T11:07:35Z</time>
      </trkpt>
      <trkpt lat="62.633711791649" lon="17.990054703286">
        <ele>104.6</ele>
        <time>2018-04-03T11:07:36Z</time>
      </trkpt>
      <trkpt lat="62.633700224627" lon="17.990090074904">
        <ele>104.6</ele>
        <time>2018-04-03T11:07:37Z</time>
      </trkpt>
      <trkpt lat="62.633683963741" lon="17.990132235861">
        <ele>104.8</ele>
        <time>2018-04-03T11:07:38Z</time>
      </trkpt>
      <trkpt lat="62.633669379235" lon="17.990168194212">
        <ele>104.8</ele>
        <time>2018-04-03T11:07:39Z</time>
      </trkpt>
      <trkpt lat="62.633638282386" lon="17.990221922191">
        <ele>104.8</ele>
        <time>2018-04-03T11:07:40Z</time>
      </trkpt>
      <trkpt lat="62.633619674568" lon="17.990254863058">
        <ele>104.8</ele>
        <time>2018-04-03T11:07:41Z</time>
      </trkpt>
      <trkpt lat="62.633590505556" lon="17.990284618803">
        <ele>104.8</ele>
        <time>2018-04-03T11:07:42Z</time>
      </trkpt>
      <trkpt lat="62.633568544978" lon="17.990311273245">
        <ele>104.8</ele>
        <time>2018-04-03T11:07:43Z</time>
      </trkpt>
      <trkpt lat="62.633546752038" lon="17.990330635434">
        <ele>105</ele>
        <time>2018-04-03T11:07:44Z</time>
      </trkpt>
      <trkpt lat="62.633529150048" lon="17.99034689632">
        <ele>105.2</ele>
        <time>2018-04-03T11:07:45Z</time>
      </trkpt>
      <trkpt lat="62.633497634104" lon="17.990365001224">
        <ele>105.4</ele>
        <time>2018-04-03T11:07:46Z</time>
      </trkpt>
      <trkpt lat="62.63347198549" lon="17.990390985114">
        <ele>105.6</ele>
        <time>2018-04-03T11:07:47Z</time>
      </trkpt>
      <trkpt lat="62.633445833962" lon="17.990405485801">
        <ele>105.6</ele>
        <time>2018-04-03T11:07:48Z</time>
      </trkpt>
      <trkpt lat="62.633426136497" lon="17.990416801366">
        <ele>105.6</ele>
        <time>2018-04-03T11:07:49Z</time>
      </trkpt>
      <trkpt lat="62.633389926689" lon="17.990444629274">
        <ele>105.8</ele>
        <time>2018-04-03T11:07:50Z</time>
      </trkpt>
      <trkpt lat="62.633360170944" lon="17.990463572368">
        <ele>105.8</ele>
        <time>2018-04-03T11:07:51Z</time>
      </trkpt>
      <trkpt lat="62.633323709679" lon="17.990484610937">
        <ele>105.8</ele>
        <time>2018-04-03T11:07:52Z</time>
      </trkpt>
      <trkpt lat="62.633290433536" lon="17.990518809089">
        <ele>105.8</ele>
        <time>2018-04-03T11:07:53Z</time>
      </trkpt>
      <trkpt lat="62.633262521809" lon="17.990555940906">
        <ele>105.8</ele>
        <time>2018-04-03T11:07:54Z</time>
      </trkpt>
      <trkpt lat="62.633234945358" lon="17.990597850406">
        <ele>106</ele>
        <time>2018-04-03T11:07:55Z</time>
      </trkpt>
      <trkpt lat="62.633212817142" lon="17.990634730766">
        <ele>105.6</ele>
        <time>2018-04-03T11:07:56Z</time>
      </trkpt>
      <trkpt lat="62.633211392219" lon="17.990657194258">
        <ele>105.6</ele>
        <time>2018-04-03T11:07:57Z</time>
      </trkpt>
      <trkpt lat="62.633183983406" lon="17.990715532282">
        <ele>105.6</ele>
        <time>2018-04-03T11:07:58Z</time>
      </trkpt>
      <trkpt lat="62.633170740004" lon="17.990761884189">
        <ele>105.6</ele>
        <time>2018-04-03T11:07:59Z</time>
      </trkpt>
      <trkpt lat="62.633151964548" lon="17.990825167534">
        <ele>105.6</ele>
        <time>2018-04-03T11:08:00Z</time>
      </trkpt>
      <trkpt lat="62.633135200748" lon="17.990890294897">
        <ele>105.4</ele>
        <time>2018-04-03T11:08:01Z</time>
      </trkpt>
      <trkpt lat="62.633118017853" lon="17.990950644577">
        <ele>105.4</ele>
        <time>2018-04-03T11:08:02Z</time>
      </trkpt>
      <trkpt lat="62.633105780279" lon="17.991008814963">
        <ele>105.4</ele>
        <time>2018-04-03T11:08:03Z</time>
      </trkpt>
      <trkpt lat="62.633086082814" lon="17.991068745548">
        <ele>105.4</ele>
        <time>2018-04-03T11:08:04Z</time>
      </trkpt>
      <trkpt lat="62.633054902146" lon="17.991125407192">
        <ele>105.2</ele>
        <time>2018-04-03T11:08:05Z</time>
      </trkpt>
      <trkpt lat="62.633031768102" lon="17.991187097976">
        <ele>105.2</ele>
        <time>2018-04-03T11:08:06Z</time>
      </trkpt>
      <trkpt lat="62.633007544411" lon="17.99124124505">
        <ele>105.4</ele>
        <time>2018-04-03T11:08:07Z</time>
      </trkpt>
      <trkpt lat="62.632981811978" lon="17.991298744884">
        <ele>105.4</ele>
        <time>2018-04-03T11:08:08Z</time>
      </trkpt>
      <trkpt lat="62.632958761753" lon="17.99135691527">
        <ele>105.4</ele>
        <time>2018-04-03T11:08:09Z</time>
      </trkpt>
      <trkpt lat="62.632938309917" lon="17.991421539719">
        <ele>105.2</ele>
        <time>2018-04-03T11:08:10Z</time>
      </trkpt>
      <trkpt lat="62.632923976868" lon="17.991480380657">
        <ele>105.2</ele>
        <time>2018-04-03T11:08:11Z</time>
      </trkpt>
      <trkpt lat="62.632891455096" lon="17.991545759477">
        <ele>105.2</ele>
        <time>2018-04-03T11:08:12Z</time>
      </trkpt>
      <trkpt lat="62.632874858934" lon="17.991598146352">
        <ele>105.2</ele>
        <time>2018-04-03T11:08:13Z</time>
      </trkpt>
      <trkpt lat="62.632857256944" lon="17.991652041969">
        <ele>105.2</ele>
        <time>2018-04-03T11:08:14Z</time>
      </trkpt>
      <trkpt lat="62.632843762085" lon="17.991704261206">
        <ele>105.4</ele>
        <time>2018-04-03T11:08:15Z</time>
      </trkpt>
      <trkpt lat="62.632838649126" lon="17.991716414961">
        <ele>105.4</ele>
        <time>2018-04-03T11:08:16Z</time>
      </trkpt>
      <trkpt lat="62.632804031879" lon="17.991798138486">
        <ele>105.2</ele>
        <time>2018-04-03T11:08:17Z</time>
      </trkpt>
      <trkpt lat="62.632790034106" lon="17.991872150663">
        <ele>105.2</ele>
        <time>2018-04-03T11:08:18Z</time>
      </trkpt>
      <trkpt lat="62.632790285563" lon="17.991937864759">
        <ele>105.4</ele>
        <time>2018-04-03T11:08:19Z</time>
      </trkpt>
      <trkpt lat="62.632806211173" lon="17.991991006005">
        <ele>105.4</ele>
        <time>2018-04-03T11:08:20Z</time>
      </trkpt>
      <trkpt lat="62.632821047136" lon="17.99203920193">
        <ele>105.4</ele>
        <time>2018-04-03T11:08:21Z</time>
      </trkpt>
      <trkpt lat="62.632841918067" lon="17.992046661821">
        <ele>105.6</ele>
        <time>2018-04-03T11:08:22Z</time>
      </trkpt>
      <trkpt lat="62.632867063767" lon="17.992055546635">
        <ele>105.8</ele>
        <time>2018-04-03T11:08:23Z</time>
      </trkpt>
      <trkpt lat="62.63288944344" lon="17.992060659594">
        <ele>106</ele>
        <time>2018-04-03T11:08:24Z</time>
      </trkpt>
      <trkpt lat="62.632911571656" lon="17.992070717874">
        <ele>106</ele>
        <time>2018-04-03T11:08:25Z</time>
      </trkpt>
      <trkpt lat="62.632939231926" lon="17.992085721475">
        <ele>106</ele>
        <time>2018-04-03T11:08:26Z</time>
      </trkpt>
      <trkpt lat="62.632967227472" lon="17.992086056751">
        <ele>106</ele>
        <time>2018-04-03T11:08:27Z</time>
      </trkpt>
      <trkpt lat="62.632991870258" lon="17.992099467791">
        <ele>106</ele>
        <time>2018-04-03T11:08:28Z</time>
      </trkpt>
      <trkpt lat="62.633030343179" lon="17.99210290437">
        <ele>105.8</ele>
        <time>2018-04-03T11:08:29Z</time>
      </trkpt>
      <trkpt lat="62.633066972082" lon="17.992109106976">
        <ele>105.8</ele>
        <time>2018-04-03T11:08:30Z</time>
      </trkpt>
      <trkpt lat="62.63310066732" lon="17.992119249075">
        <ele>105.8</ele>
        <time>2018-04-03T11:08:31Z</time>
      </trkpt>
      <trkpt lat="62.633119442776" lon="17.992132911572">
        <ele>105.8</ele>
        <time>2018-04-03T11:08:32Z</time>
      </trkpt>
      <trkpt lat="62.633142409182" lon="17.992135258504">
        <ele>105.8</ele>
        <time>2018-04-03T11:08:33Z</time>
      </trkpt>
      <trkpt lat="62.633168057796" lon="17.992165936258">
        <ele>105.8</ele>
        <time>2018-04-03T11:08:34Z</time>
      </trkpt>
      <trkpt lat="62.63319538279" lon="17.992168953742">
        <ele>105.8</ele>
        <time>2018-04-03T11:08:35Z</time>
      </trkpt>
      <trkpt lat="62.633230502951" lon="17.992177670918">
        <ele>105.8</ele>
        <time>2018-04-03T11:08:36Z</time>
      </trkpt>
      <trkpt lat="62.633262773266" lon="17.992201643152">
        <ele>105.8</ele>
        <time>2018-04-03T11:08:37Z</time>
      </trkpt>
      <trkpt lat="62.633288002785" lon="17.992214216002">
        <ele>105.8</ele>
        <time>2018-04-03T11:08:38Z</time>
      </trkpt>
      <trkpt lat="62.633314657227" lon="17.992223100816">
        <ele>105.6</ele>
        <time>2018-04-03T11:08:39Z</time>
      </trkpt>
      <trkpt lat="62.633353381605" lon="17.992230812164">
        <ele>105.6</ele>
        <time>2018-04-03T11:08:40Z</time>
      </trkpt>
      <trkpt lat="62.63338984287" lon="17.992242379186">
        <ele>105.6</ele>
        <time>2018-04-03T11:08:41Z</time>
      </trkpt>
      <trkpt lat="62.63342588504" lon="17.992274481863">
        <ele>105.4</ele>
        <time>2018-04-03T11:08:42Z</time>
      </trkpt>
      <trkpt lat="62.633460586106" lon="17.992302477409">
        <ele>105.2</ele>
        <time>2018-04-03T11:08:43Z</time>
      </trkpt>
      <trkpt lat="62.633495873905" lon="17.992337513751">
        <ele>104.8</ele>
        <time>2018-04-03T11:08:44Z</time>
      </trkpt>
      <trkpt lat="62.633531832256" lon="17.992375148482">
        <ele>104.4</ele>
        <time>2018-04-03T11:08:45Z</time>
      </trkpt>
      <trkpt lat="62.633562342372" lon="17.992428876461">
        <ele>103.8</ele>
        <time>2018-04-03T11:08:46Z</time>
      </trkpt>
      <trkpt lat="62.63359184666" lon="17.992496099299">
        <ele>103.4</ele>
        <time>2018-04-03T11:08:47Z</time>
      </trkpt>
      <trkpt lat="62.633621099491" lon="17.992554856418">
        <ele>103</ele>
        <time>2018-04-03T11:08:48Z</time>
      </trkpt>
      <trkpt lat="62.633648173028" lon="17.99261336208">
        <ele>103</ele>
        <time>2018-04-03T11:08:49Z</time>
      </trkpt>
      <trkpt lat="62.633684382836" lon="17.992664575489">
        <ele>102.6</ele>
        <time>2018-04-03T11:08:50Z</time>
      </trkpt>
      <trkpt lat="62.63371254602" lon="17.992719309296">
        <ele>102.6</ele>
        <time>2018-04-03T11:08:51Z</time>
      </trkpt>
      <trkpt lat="62.633746744172" lon="17.992787873238">
        <ele>102.4</ele>
        <time>2018-04-03T11:08:52Z</time>
      </trkpt>
      <trkpt lat="62.633779936496" lon="17.992853754972">
        <ele>102.2</ele>
        <time>2018-04-03T11:08:53Z</time>
      </trkpt>
      <trkpt lat="62.633817152132" lon="17.992919385249">
        <ele>102</ele>
        <time>2018-04-03T11:08:54Z</time>
      </trkpt>
      <trkpt lat="62.63385503832" lon="17.992983171508">
        <ele>102</ele>
        <time>2018-04-03T11:08:55Z</time>
      </trkpt>
      <trkpt lat="62.633891583404" lon="17.993043772645">
        <ele>102</ele>
        <time>2018-04-03T11:08:56Z</time>
      </trkpt>
      <trkpt lat="62.63392125533" lon="17.993094566959">
        <ele>102</ele>
        <time>2018-04-03T11:08:57Z</time>
      </trkpt>
      <trkpt lat="62.633959979708" lon="17.993164388186">
        <ele>102</ele>
        <time>2018-04-03T11:08:58Z</time>
      </trkpt>
      <trkpt lat="62.633998787905" lon="17.993225743694">
        <ele>102</ele>
        <time>2018-04-03T11:08:59Z</time>
      </trkpt>
      <trkpt lat="62.634039356301" lon="17.993286093374">
        <ele>102</ele>
        <time>2018-04-03T11:09:00Z</time>
      </trkpt>
      <trkpt lat="62.634083026" lon="17.993345353407">
        <ele>102</ele>
        <time>2018-04-03T11:09:01Z</time>
      </trkpt>
      <trkpt lat="62.634131305744" lon="17.9933995843">
        <ele>101.6</ele>
        <time>2018-04-03T11:09:02Z</time>
      </trkpt>
      <trkpt lat="62.634181010411" lon="17.993446103845">
        <ele>101.4</ele>
        <time>2018-04-03T11:09:03Z</time>
      </trkpt>
      <trkpt lat="62.634232559096" lon="17.993481643101">
        <ele>101</ele>
        <time>2018-04-03T11:09:04Z</time>
      </trkpt>
      <trkpt lat="62.634293579328" lon="17.993519277832">
        <ele>100.4</ele>
        <time>2018-04-03T11:09:05Z</time>
      </trkpt>
      <trkpt lat="62.634352504085" lon="17.993553056889">
        <ele>100</ele>
        <time>2018-04-03T11:09:06Z</time>
      </trkpt>
      <trkpt lat="62.634416206525" lon="17.993583399367">
        <ele>99.2</ele>
        <time>2018-04-03T11:09:07Z</time>
      </trkpt>
      <trkpt lat="62.634477226757" lon="17.993614077121">
        <ele>98.8</ele>
        <time>2018-04-03T11:09:08Z</time>
      </trkpt>
      <trkpt lat="62.634539420455" lon="17.993648694368">
        <ele>98.2</ele>
        <time>2018-04-03T11:09:09Z</time>
      </trkpt>
      <trkpt lat="62.634606475655" lon="17.993671325498">
        <ele>97.4</ele>
        <time>2018-04-03T11:09:10Z</time>
      </trkpt>
      <trkpt lat="62.634673782312" lon="17.993692196429">
        <ele>96.8</ele>
        <time>2018-04-03T11:09:11Z</time>
      </trkpt>
      <trkpt lat="62.634729186671" lon="17.993714157007">
        <ele>96</ele>
        <time>2018-04-03T11:09:12Z</time>
      </trkpt>
      <trkpt lat="62.634801438649" lon="17.993721030165">
        <ele>95</ele>
        <time>2018-04-03T11:09:13Z</time>
      </trkpt>
      <trkpt lat="62.634866063098" lon="17.993730166436">
        <ele>94</ele>
        <time>2018-04-03T11:09:14Z</time>
      </trkpt>
      <trkpt lat="62.634929178805" lon="17.993739973259">
        <ele>93.6</ele>
        <time>2018-04-03T11:09:15Z</time>
      </trkpt>
      <trkpt lat="62.634977710006" lon="17.993766292425">
        <ele>93</ele>
        <time>2018-04-03T11:09:16Z</time>
      </trkpt>
      <trkpt lat="62.635028252863" lon="17.993787750089">
        <ele>92.6</ele>
        <time>2018-04-03T11:09:17Z</time>
      </trkpt>
      <trkpt lat="62.635095140425" lon="17.993808285744">
        <ele>92.2</ele>
        <time>2018-04-03T11:09:18Z</time>
      </trkpt>
      <trkpt lat="62.635151131517" lon="17.993822954069">
        <ele>92.2</ele>
        <time>2018-04-03T11:09:19Z</time>
      </trkpt>
      <trkpt lat="62.635215588328" lon="17.993835610738">
        <ele>91.8</ele>
        <time>2018-04-03T11:09:20Z</time>
      </trkpt>
      <trkpt lat="62.635273842533" lon="17.993850279063">
        <ele>91.6</ele>
        <time>2018-04-03T11:09:21Z</time>
      </trkpt>
      <trkpt lat="62.635337964068" lon="17.99385639785">
        <ele>91.2</ele>
        <time>2018-04-03T11:09:22Z</time>
      </trkpt>
      <trkpt lat="62.6353989843" lon="17.99386142699">
        <ele>91</ele>
        <time>2018-04-03T11:09:23Z</time>
      </trkpt>
      <trkpt lat="62.63546101036" lon="17.993867629596">
        <ele>90.6</ele>
        <time>2018-04-03T11:09:24Z</time>
      </trkpt>
      <trkpt lat="62.635524293705" lon="17.993875843858">
        <ele>90.2</ele>
        <time>2018-04-03T11:09:25Z</time>
      </trkpt>
      <trkpt lat="62.635585230118" lon="17.993886907966">
        <ele>90</ele>
        <time>2018-04-03T11:09:26Z</time>
      </trkpt>
      <trkpt lat="62.635639209554" lon="17.993898139712">
        <ele>89.8</ele>
        <time>2018-04-03T11:09:27Z</time>
      </trkpt>
      <trkpt lat="62.635705929478" lon="17.993927727819">
        <ele>89.4</ele>
        <time>2018-04-03T11:09:28Z</time>
      </trkpt>
      <trkpt lat="62.635762255846" lon="17.993951197139">
        <ele>89</ele>
        <time>2018-04-03T11:09:29Z</time>
      </trkpt>
      <trkpt lat="62.635814139807" lon="17.993959159944">
        <ele>88.6</ele>
        <time>2018-04-03T11:09:30Z</time>
      </trkpt>
      <trkpt lat="62.635864682664" lon="17.9939611716">
        <ele>88.4</ele>
        <time>2018-04-03T11:09:31Z</time>
      </trkpt>
      <trkpt lat="62.635918829738" lon="17.993938624289">
        <ele>88</ele>
        <time>2018-04-03T11:09:32Z</time>
      </trkpt>
      <trkpt lat="62.635969624052" lon="17.993923369231">
        <ele>87.8</ele>
        <time>2018-04-03T11:09:33Z</time>
      </trkpt>
      <trkpt lat="62.636030057551" lon="17.993883555206">
        <ele>87.6</ele>
        <time>2018-04-03T11:09:34Z</time>
      </trkpt>
      <trkpt lat="62.636097950941" lon="17.993831922702">
        <ele>87.4</ele>
        <time>2018-04-03T11:09:35Z</time>
      </trkpt>
      <trkpt lat="62.636152768567" lon="17.993790348478">
        <ele>87.2</ele>
        <time>2018-04-03T11:09:36Z</time>
      </trkpt>
      <trkpt lat="62.636207753831" lon="17.993727651866">
        <ele>86.4</ele>
        <time>2018-04-03T11:09:37Z</time>
      </trkpt>
      <trkpt lat="62.636260308344" lon="17.993658082096">
        <ele>86.2</ele>
        <time>2018-04-03T11:09:38Z</time>
      </trkpt>
      <trkpt lat="62.636310432106" lon="17.993589601973">
        <ele>85.6</ele>
        <time>2018-04-03T11:09:39Z</time>
      </trkpt>
      <trkpt lat="62.63636374099" lon="17.993517601452">
        <ele>84.6</ele>
        <time>2018-04-03T11:09:40Z</time>
      </trkpt>
      <trkpt lat="62.636411601639" lon="17.993456162125">
        <ele>84.4</ele>
        <time>2018-04-03T11:09:41Z</time>
      </trkpt>
      <trkpt lat="62.636476477545" lon="17.993364547958">
        <ele>83.4</ele>
        <time>2018-04-03T11:09:42Z</time>
      </trkpt>
      <trkpt lat="62.636539844709" lon="17.993289362315">
        <ele>82.8</ele>
        <time>2018-04-03T11:09:43Z</time>
      </trkpt>
      <trkpt lat="62.63661016885" lon="17.993205040401">
        <ele>82</ele>
        <time>2018-04-03T11:09:44Z</time>
      </trkpt>
      <trkpt lat="62.636669931797" lon="17.993116024623">
        <ele>81.6</ele>
        <time>2018-04-03T11:09:45Z</time>
      </trkpt>
      <trkpt lat="62.636717121894" lon="17.993013765443">
        <ele>80.6</ele>
        <time>2018-04-03T11:09:46Z</time>
      </trkpt>
      <trkpt lat="62.636756768281" lon="17.992888120762">
        <ele>79.8</ele>
        <time>2018-04-03T11:09:47Z</time>
      </trkpt>
      <trkpt lat="62.636787781311" lon="17.992774378379">
        <ele>79.2</ele>
        <time>2018-04-03T11:09:48Z</time>
      </trkpt>
      <trkpt lat="62.63681468721" lon="17.9926619771">
        <ele>79.2</ele>
        <time>2018-04-03T11:09:49Z</time>
      </trkpt>
      <trkpt lat="62.636823320567" lon="17.992570530571">
        <ele>79.4</ele>
        <time>2018-04-03T11:09:50Z</time>
      </trkpt>
      <trkpt lat="62.636837402159" lon="17.992474557816">
        <ele>79.8</ele>
        <time>2018-04-03T11:09:51Z</time>
      </trkpt>
      <trkpt lat="62.636839581453" lon="17.992381602545">
        <ele>80.2</ele>
        <time>2018-04-03T11:09:52Z</time>
      </trkpt>
      <trkpt lat="62.636838407987" lon="17.992290323654">
        <ele>80.6</ele>
        <time>2018-04-03T11:09:53Z</time>
      </trkpt>
      <trkpt lat="62.636841760747" lon="17.99220264898">
        <ele>80.8</ele>
        <time>2018-04-03T11:09:54Z</time>
      </trkpt>
      <trkpt lat="62.63685072938" lon="17.992117069781">
        <ele>81</ele>
        <time>2018-04-03T11:09:55Z</time>
      </trkpt>
      <trkpt lat="62.636861793488" lon="17.992036016808">
        <ele>81.2</ele>
        <time>2018-04-03T11:09:56Z</time>
      </trkpt>
      <trkpt lat="62.636872606139" lon="17.991966530857">
        <ele>81</ele>
        <time>2018-04-03T11:09:57Z</time>
      </trkpt>
      <trkpt lat="62.636896159278" lon="17.99189503325">
        <ele>81.2</ele>
        <time>2018-04-03T11:09:58Z</time>
      </trkpt>
      <trkpt lat="62.636926837032" lon="17.991821775444">
        <ele>81.4</ele>
        <time>2018-04-03T11:09:59Z</time>
      </trkpt>
      <trkpt lat="62.636950976904" lon="17.99175086457">
        <ele>81.6</ele>
        <time>2018-04-03T11:10:00Z</time>
      </trkpt>
      <trkpt lat="62.636969165627" lon="17.991681881533">
        <ele>81.6</ele>
        <time>2018-04-03T11:10:01Z</time>
      </trkpt>
      <trkpt lat="62.636994646603" lon="17.991629997572">
        <ele>81.6</ele>
        <time>2018-04-03T11:10:02Z</time>
      </trkpt>
      <trkpt lat="62.637016858638" lon="17.991575179946">
        <ele>81.6</ele>
        <time>2018-04-03T11:10:03Z</time>
      </trkpt>
      <trkpt lat="62.63704854222" lon="17.991519859406">
        <ele>81.6</ele>
        <time>2018-04-03T11:10:04Z</time>
      </trkpt>
      <trkpt lat="62.637082321277" lon="17.99145330712">
        <ele>81.8</ele>
        <time>2018-04-03T11:10:05Z</time>
      </trkpt>
      <trkpt lat="62.637109897728" lon="17.991389185585">
        <ele>81.8</ele>
        <time>2018-04-03T11:10:06Z</time>
      </trkpt>
      <trkpt lat="62.637138815283" lon="17.991332440122">
        <ele>81.8</ele>
        <time>2018-04-03T11:10:07Z</time>
      </trkpt>
      <trkpt lat="62.637164128621" lon="17.991267899492">
        <ele>81.6</ele>
        <time>2018-04-03T11:10:08Z</time>
      </trkpt>
      <trkpt lat="62.637190447787" lon="17.99120185012">
        <ele>81.6</ele>
        <time>2018-04-03T11:10:09Z</time>
      </trkpt>
      <trkpt lat="62.637226322319" lon="17.991134292006">
        <ele>81.8</ele>
        <time>2018-04-03T11:10:10Z</time>
      </trkpt>
      <trkpt lat="62.637261945394" lon="17.991051562653">
        <ele>81.8</ele>
        <time>2018-04-03T11:10:11Z</time>
      </trkpt>
      <trkpt lat="62.637280217936" lon="17.990988446946">
        <ele>81.6</ele>
        <time>2018-04-03T11:10:12Z</time>
      </trkpt>
      <trkpt lat="62.637300585953" lon="17.990922984307">
        <ele>81.8</ele>
        <time>2018-04-03T11:10:13Z</time>
      </trkpt>
      <trkpt lat="62.637316260106" lon="17.990853498356">
        <ele>81.6</ele>
        <time>2018-04-03T11:10:14Z</time>
      </trkpt>
      <trkpt lat="62.637330509336" lon="17.990788119536">
        <ele>81.6</ele>
        <time>2018-04-03T11:10:15Z</time>
      </trkpt>
      <trkpt lat="62.637330425517" lon="17.990722153983">
        <ele>81.6</ele>
        <time>2018-04-03T11:10:16Z</time>
      </trkpt>
      <trkpt lat="62.637341321987" lon="17.990617799328">
        <ele>81.6</ele>
        <time>2018-04-03T11:10:17Z</time>
      </trkpt>
      <trkpt lat="62.637348027507" lon="17.990521994211">
        <ele>81.4</ele>
        <time>2018-04-03T11:10:18Z</time>
      </trkpt>
      <trkpt lat="62.63735699614" lon="17.990427530198">
        <ele>81.6</ele>
        <time>2018-04-03T11:10:19Z</time>
      </trkpt>
      <trkpt lat="62.637371999741" lon="17.990349578528">
        <ele>81.4</ele>
        <time>2018-04-03T11:10:20Z</time>
      </trkpt>
      <trkpt lat="62.637392116301" lon="17.990286881916">
        <ele>81.4</ele>
        <time>2018-04-03T11:10:21Z</time>
      </trkpt>
      <trkpt lat="62.637403850961" lon="17.990198452871">
        <ele>81.4</ele>
        <time>2018-04-03T11:10:22Z</time>
      </trkpt>
      <trkpt lat="62.637419357476" lon="17.99011052674">
        <ele>81.2</ele>
        <time>2018-04-03T11:10:23Z</time>
      </trkpt>
      <trkpt lat="62.637432097964" lon="17.990024863722">
        <ele>81</ele>
        <time>2018-04-03T11:10:24Z</time>
      </trkpt>
      <trkpt lat="62.63745338799" lon="17.989945235672">
        <ele>81</ele>
        <time>2018-04-03T11:10:25Z</time>
      </trkpt>
      <trkpt lat="62.637476605853" lon="17.989869211839">
        <ele>81</ele>
        <time>2018-04-03T11:10:26Z</time>
      </trkpt>
      <trkpt lat="62.637493369653" lon="17.989825458321">
        <ele>81</ele>
        <time>2018-04-03T11:10:27Z</time>
      </trkpt>
      <trkpt lat="62.637511893652" lon="17.989763264623">
        <ele>81</ele>
        <time>2018-04-03T11:10:28Z</time>
      </trkpt>
      <trkpt lat="62.637533267497" lon="17.989695035957">
        <ele>81</ele>
        <time>2018-04-03T11:10:29Z</time>
      </trkpt>
      <trkpt lat="62.637556904455" lon="17.989633009897">
        <ele>81.2</ele>
        <time>2018-04-03T11:10:30Z</time>
      </trkpt>
      <trkpt lat="62.637582888345" lon="17.989577773176">
        <ele>81.2</ele>
        <time>2018-04-03T11:10:31Z</time>
      </trkpt>
      <trkpt lat="62.637614991022" lon="17.989465539535">
        <ele>81.2</ele>
        <time>2018-04-03T11:10:32Z</time>
      </trkpt>
      <trkpt lat="62.637640471998" lon="17.989378535413">
        <ele>81.2</ele>
        <time>2018-04-03T11:10:33Z</time>
      </trkpt>
      <trkpt lat="62.637668635182" lon="17.989305948159">
        <ele>81.2</ele>
        <time>2018-04-03T11:10:34Z</time>
      </trkpt>
      <trkpt lat="62.637708365388" lon="17.989195977631">
        <ele>81</ele>
        <time>2018-04-03T11:10:35Z</time>
      </trkpt>
      <trkpt lat="62.637748011775" lon="17.98909380227">
        <ele>80.8</ele>
        <time>2018-04-03T11:10:36Z</time>
      </trkpt>
      <trkpt lat="62.637777013149" lon="17.988994309117">
        <ele>80</ele>
        <time>2018-04-03T11:10:37Z</time>
      </trkpt>
      <trkpt lat="62.637802577944" lon="17.988900515656">
        <ele>79.2</ele>
        <time>2018-04-03T11:10:38Z</time>
      </trkpt>
      <trkpt lat="62.637825460531" lon="17.988808147118">
        <ele>78.6</ele>
        <time>2018-04-03T11:10:39Z</time>
      </trkpt>
      <trkpt lat="62.637842894883" lon="17.988713599286">
        <ele>78</ele>
        <time>2018-04-03T11:10:40Z</time>
      </trkpt>
      <trkpt lat="62.637855886828" lon="17.988625756974">
        <ele>78</ele>
        <time>2018-04-03T11:10:41Z</time>
      </trkpt>
      <trkpt lat="62.637871141886" lon="17.988533220798">
        <ele>78</ele>
        <time>2018-04-03T11:10:42Z</time>
      </trkpt>
      <trkpt lat="62.637889498247" lon="17.988438924423">
        <ele>78.4</ele>
        <time>2018-04-03T11:10:43Z</time>
      </trkpt>
      <trkpt lat="62.6379051724" lon="17.98834026946">
        <ele>78.6</ele>
        <time>2018-04-03T11:10:44Z</time>
      </trkpt>
      <trkpt lat="62.637919924544" lon="17.988245805447">
        <ele>78.8</ele>
        <time>2018-04-03T11:10:45Z</time>
      </trkpt>
      <trkpt lat="62.637931072471" lon="17.988161902628">
        <ele>78.8</ele>
        <time>2018-04-03T11:10:46Z</time>
      </trkpt>
      <trkpt lat="62.637950769936" lon="17.9880519321">
        <ele>78.4</ele>
        <time>2018-04-03T11:10:47Z</time>
      </trkpt>
      <trkpt lat="62.637975077446" lon="17.987945817246">
        <ele>78</ele>
        <time>2018-04-03T11:10:48Z</time>
      </trkpt>
      <trkpt lat="62.638003072992" lon="17.987837523098">
        <ele>78</ele>
        <time>2018-04-03T11:10:49Z</time>
      </trkpt>
      <trkpt lat="62.638027380502" lon="17.987705340535">
        <ele>77</ele>
        <time>2018-04-03T11:10:50Z</time>
      </trkpt>
      <trkpt lat="62.638048167614" lon="17.987596375835">
        <ele>76.4</ele>
        <time>2018-04-03T11:10:51Z</time>
      </trkpt>
      <trkpt lat="62.638064679957" lon="17.987472826629">
        <ele>75.6</ele>
        <time>2018-04-03T11:10:52Z</time>
      </trkpt>
      <trkpt lat="62.638090244752" lon="17.987372662924">
        <ele>75.2</ele>
        <time>2018-04-03T11:10:53Z</time>
      </trkpt>
      <trkpt lat="62.638117653565" lon="17.987274762332">
        <ele>74.6</ele>
        <time>2018-04-03T11:10:54Z</time>
      </trkpt>
      <trkpt lat="62.638145481473" lon="17.987171748781">
        <ele>74.2</ele>
        <time>2018-04-03T11:10:55Z</time>
      </trkpt>
      <trkpt lat="62.638172638829" lon="17.987076195121">
        <ele>74.2</ele>
        <time>2018-04-03T11:10:56Z</time>
      </trkpt>
      <trkpt lat="62.63819686252" lon="17.986981731108">
        <ele>74</ele>
        <time>2018-04-03T11:10:57Z</time>
      </trkpt>
      <trkpt lat="62.638208345723" lon="17.986879220471">
        <ele>73.6</ele>
        <time>2018-04-03T11:10:58Z</time>
      </trkpt>
      <trkpt lat="62.638205747334" lon="17.986773357074">
        <ele>73.2</ele>
        <time>2018-04-03T11:10:59Z</time>
      </trkpt>
      <trkpt lat="62.638205914972" lon="17.986670930256">
        <ele>73.4</ele>
        <time>2018-04-03T11:11:00Z</time>
      </trkpt>
      <trkpt lat="62.638211279388" lon="17.986582668849">
        <ele>73.6</ele>
        <time>2018-04-03T11:11:01Z</time>
      </trkpt>
      <trkpt lat="62.638195772873" lon="17.986500190953">
        <ele>73.6</ele>
        <time>2018-04-03T11:11:02Z</time>
      </trkpt>
      <trkpt lat="62.638188229163" lon="17.986415114668">
        <ele>73.8</ele>
        <time>2018-04-03T11:11:03Z</time>
      </trkpt>
      <trkpt lat="62.638189737905" lon="17.986329535469">
        <ele>74</ele>
        <time>2018-04-03T11:11:04Z</time>
      </trkpt>
      <trkpt lat="62.638193845036" lon="17.986237418388">
        <ele>74.4</ele>
        <time>2018-04-03T11:11:05Z</time>
      </trkpt>
      <trkpt lat="62.638198203624" lon="17.986153180293">
        <ele>74.4</ele>
        <time>2018-04-03T11:11:06Z</time>
      </trkpt>
      <trkpt lat="62.638206250248" lon="17.986071037673">
        <ele>74.4</ele>
        <time>2018-04-03T11:11:07Z</time>
      </trkpt>
      <trkpt lat="62.638219242193" lon="17.985996438763">
        <ele>74.4</ele>
        <time>2018-04-03T11:11:08Z</time>
      </trkpt>
      <trkpt lat="62.638234245794" lon="17.985932065771">
        <ele>74.6</ele>
        <time>2018-04-03T11:11:09Z</time>
      </trkpt>
      <trkpt lat="62.638248662662" lon="17.985871129358">
        <ele>74.4</ele>
        <time>2018-04-03T11:11:10Z</time>
      </trkpt>
      <trkpt lat="62.638265007367" lon="17.985827878754">
        <ele>74.4</ele>
        <time>2018-04-03T11:11:11Z</time>
      </trkpt>
      <trkpt lat="62.638272886353" lon="17.985783957598">
        <ele>74.2</ele>
        <time>2018-04-03T11:11:12Z</time>
      </trkpt>
      <trkpt lat="62.638284537194" lon="17.985749088894">
        <ele>74.2</ele>
        <time>2018-04-03T11:11:13Z</time>
      </trkpt>
      <trkpt lat="62.638297110044" lon="17.985696115286">
        <ele>74</ele>
        <time>2018-04-03T11:11:14Z</time>
      </trkpt>
      <trkpt lat="62.638308509428" lon="17.985650350112">
        <ele>74</ele>
        <time>2018-04-03T11:11:15Z</time>
      </trkpt>
      <trkpt lat="62.638317478061" lon="17.985621097281">
        <ele>74</ele>
        <time>2018-04-03T11:11:16Z</time>
      </trkpt>
      <trkpt lat="62.638329464178" lon="17.985585558025">
        <ele>74</ele>
        <time>2018-04-03T11:11:17Z</time>
      </trkpt>
      <trkpt lat="62.638342372304" lon="17.985549767312">
        <ele>74</ele>
        <time>2018-04-03T11:11:18Z</time>
      </trkpt>
      <trkpt lat="62.638346982349" lon="17.985529986028">
        <ele>74</ele>
        <time>2018-04-03T11:11:19Z</time>
      </trkpt>
      <trkpt lat="62.638370200212" lon="17.985462847009">
        <ele>74</ele>
        <time>2018-04-03T11:11:20Z</time>
      </trkpt>
      <trkpt lat="62.638385119994" lon="17.985426637201">
        <ele>74</ele>
        <time>2018-04-03T11:11:21Z</time>
      </trkpt>
      <trkpt lat="62.638407583486" lon="17.985403084062">
        <ele>74</ele>
        <time>2018-04-03T11:11:22Z</time>
      </trkpt>
      <trkpt lat="62.638428789693" lon="17.985365030236">
        <ele>74.2</ele>
        <time>2018-04-03T11:11:23Z</time>
      </trkpt>
      <trkpt lat="62.638449912081" lon="17.9853110508">
        <ele>74.2</ele>
        <time>2018-04-03T11:11:24Z</time>
      </trkpt>
      <trkpt lat="62.63847178884" lon="17.985253802423">
        <ele>74.2</ele>
        <time>2018-04-03T11:11:25Z</time>
      </trkpt>
      <trkpt lat="62.638494755246" lon="17.985202253738">
        <ele>74.2</ele>
        <time>2018-04-03T11:11:26Z</time>
      </trkpt>
      <trkpt lat="62.638517470195" lon="17.985151543243">
        <ele>74.2</ele>
        <time>2018-04-03T11:11:27Z</time>
      </trkpt>
      <trkpt lat="62.638549405234" lon="17.985079961817">
        <ele>74.2</ele>
        <time>2018-04-03T11:11:28Z</time>
      </trkpt>
      <trkpt lat="62.638581088816" lon="17.985020534146">
        <ele>74.2</ele>
        <time>2018-04-03T11:11:29Z</time>
      </trkpt>
      <trkpt lat="62.638613023855" lon="17.984957586077">
        <ele>74</ele>
        <time>2018-04-03T11:11:30Z</time>
      </trkpt>
      <trkpt lat="62.638644707437" lon="17.984894386551">
        <ele>74</ele>
        <time>2018-04-03T11:11:31Z</time>
      </trkpt>
      <trkpt lat="62.638671948612" lon="17.984822972763">
        <ele>73.6</ele>
        <time>2018-04-03T11:11:32Z</time>
      </trkpt>
      <trkpt lat="62.638698770692" lon="17.984766897852">
        <ele>73.4</ele>
        <time>2018-04-03T11:11:33Z</time>
      </trkpt>
      <trkpt lat="62.638731208645" lon="17.984700345566">
        <ele>73</ele>
        <time>2018-04-03T11:11:34Z</time>
      </trkpt>
      <trkpt lat="62.638758198363" lon="17.98462708776">
        <ele>72.8</ele>
        <time>2018-04-03T11:11:35Z</time>
      </trkpt>
      <trkpt lat="62.638786696823" lon="17.984555171058">
        <ele>72.6</ele>
        <time>2018-04-03T11:11:36Z</time>
      </trkpt>
      <trkpt lat="62.638803376804" lon="17.984444194702">
        <ele>72.4</ele>
        <time>2018-04-03T11:11:37Z</time>
      </trkpt>
      <trkpt lat="62.638816704025" lon="17.984340845875">
        <ele>72.2</ele>
        <time>2018-04-03T11:11:38Z</time>
      </trkpt>
      <trkpt lat="62.638828187228" lon="17.984238586695">
        <ele>72.2</ele>
        <time>2018-04-03T11:11:39Z</time>
      </trkpt>
      <trkpt lat="62.638834222196" lon="17.984133896764">
        <ele>71.8</ele>
        <time>2018-04-03T11:11:40Z</time>
      </trkpt>
      <trkpt lat="62.638842939372" lon="17.984039432751">
        <ele>71.6</ele>
        <time>2018-04-03T11:11:41Z</time>
      </trkpt>
      <trkpt lat="62.638829109237" lon="17.983942370349">
        <ele>71.4</ele>
        <time>2018-04-03T11:11:42Z</time>
      </trkpt>
      <trkpt lat="62.638823912459" lon="17.983850672363">
        <ele>71.2</ele>
        <time>2018-04-03T11:11:43Z</time>
      </trkpt>
      <trkpt lat="62.638820894975" lon="17.983755873074">
        <ele>71</ele>
        <time>2018-04-03T11:11:44Z</time>
      </trkpt>
      <trkpt lat="62.638821062613" lon="17.983657553387">
        <ele>70.8</ele>
        <time>2018-04-03T11:11:45Z</time>
      </trkpt>
      <trkpt lat="62.638826175572" lon="17.983612207308">
        <ele>70.8</ele>
        <time>2018-04-03T11:11:46Z</time>
      </trkpt>
      <trkpt lat="62.638815111464" lon="17.98351061868">
        <ele>70.4</ele>
        <time>2018-04-03T11:11:47Z</time>
      </trkpt>
      <trkpt lat="62.638805556098" lon="17.983439288711">
        <ele>70.4</ele>
        <time>2018-04-03T11:11:48Z</time>
      </trkpt>
      <trkpt lat="62.638799102035" lon="17.983372233511">
        <ele>70.2</ele>
        <time>2018-04-03T11:11:49Z</time>
      </trkpt>
      <trkpt lat="62.638796503646" lon="17.983299227162">
        <ele>70.2</ele>
        <time>2018-04-03T11:11:50Z</time>
      </trkpt>
      <trkpt lat="62.638794324352" lon="17.98322731046">
        <ele>70</ele>
        <time>2018-04-03T11:11:51Z</time>
      </trkpt>
      <trkpt lat="62.638795916913" lon="17.983145670754">
        <ele>70.2</ele>
        <time>2018-04-03T11:11:52Z</time>
      </trkpt>
      <trkpt lat="62.638797928569" lon="17.983074508423">
        <ele>70.2</ele>
        <time>2018-04-03T11:11:53Z</time>
      </trkpt>
      <trkpt lat="62.638802790071" lon="17.982994712735">
        <ele>70.2</ele>
        <time>2018-04-03T11:11:54Z</time>
      </trkpt>
      <trkpt lat="62.63880371208" lon="17.982927992811">
        <ele>70.4</ele>
        <time>2018-04-03T11:11:55Z</time>
      </trkpt>
      <trkpt lat="62.638803292985" lon="17.982867810769">
        <ele>70.4</ele>
        <time>2018-04-03T11:11:56Z</time>
      </trkpt>
      <trkpt lat="62.638801784243" lon="17.982810143297">
        <ele>70.4</ele>
        <time>2018-04-03T11:11:57Z</time>
      </trkpt>
      <trkpt lat="62.63880706484" lon="17.982707381203">
        <ele>70.4</ele>
        <time>2018-04-03T11:11:58Z</time>
      </trkpt>
      <trkpt lat="62.638812848351" lon="17.982629261895">
        <ele>70.6</ele>
        <time>2018-04-03T11:11:59Z</time>
      </trkpt>
      <trkpt lat="62.638817458396" lon="17.982562290514">
        <ele>70.6</ele>
        <time>2018-04-03T11:12:00Z</time>
      </trkpt>
      <trkpt lat="62.638819134776" lon="17.982502024653">
        <ele>70.8</ele>
        <time>2018-04-03T11:12:01Z</time>
      </trkpt>
      <trkpt lat="62.638829528332" lon="17.982427509562">
        <ele>70.8</ele>
        <time>2018-04-03T11:12:02Z</time>
      </trkpt>
      <trkpt lat="62.638852410919" lon="17.982347965331">
        <ele>70.8</ele>
        <time>2018-04-03T11:12:03Z</time>
      </trkpt>
      <trkpt lat="62.638868420348" lon="17.98228183214">
        <ele>71</ele>
        <time>2018-04-03T11:12:04Z</time>
      </trkpt>
      <trkpt lat="62.638886776709" lon="17.982215279854">
        <ele>71</ele>
        <time>2018-04-03T11:12:05Z</time>
      </trkpt>
      <trkpt lat="62.638908569649" lon="17.982152583242">
        <ele>71</ele>
        <time>2018-04-03T11:12:06Z</time>
      </trkpt>
      <trkpt lat="62.638929189123" lon="17.982082426739">
        <ele>71</ele>
        <time>2018-04-03T11:12:07Z</time>
      </trkpt>
      <trkpt lat="62.638951736434" lon="17.982014784806">
        <ele>71</ele>
        <time>2018-04-03T11:12:08Z</time>
      </trkpt>
      <trkpt lat="62.638974786659" lon="17.981950579452">
        <ele>71</ele>
        <time>2018-04-03T11:12:09Z</time>
      </trkpt>
      <trkpt lat="62.638996160504" lon="17.981881093501">
        <ele>70.8</ele>
        <time>2018-04-03T11:12:10Z</time>
      </trkpt>
      <trkpt lat="62.639007224612" lon="17.981815882319">
        <ele>70.8</ele>
        <time>2018-04-03T11:12:11Z</time>
      </trkpt>
      <trkpt lat="62.639034968701" lon="17.98174287597">
        <ele>70.6</ele>
        <time>2018-04-03T11:12:12Z</time>
      </trkpt>
      <trkpt lat="62.639056174908" lon="17.981676239865">
        <ele>70.4</ele>
        <time>2018-04-03T11:12:13Z</time>
      </trkpt>
      <trkpt lat="62.639074028355" lon="17.98160206005">
        <ele>70.2</ele>
        <time>2018-04-03T11:12:14Z</time>
      </trkpt>
      <trkpt lat="62.639088193766" lon="17.981526790588">
        <ele>70</ele>
        <time>2018-04-03T11:12:15Z</time>
      </trkpt>
      <trkpt lat="62.639114512932" lon="17.981459232474">
        <ele>69.8</ele>
        <time>2018-04-03T11:12:16Z</time>
      </trkpt>
      <trkpt lat="62.639142508478" lon="17.981372647447">
        <ele>69.6</ele>
        <time>2018-04-03T11:12:17Z</time>
      </trkpt>
      <trkpt lat="62.639169079101" lon="17.981296288338">
        <ele>69.4</ele>
        <time>2018-04-03T11:12:18Z</time>
      </trkpt>
      <trkpt lat="62.639199673036" lon="17.981226467111">
        <ele>69.2</ele>
        <time>2018-04-03T11:12:19Z</time>
      </trkpt>
      <trkpt lat="62.639229596419" lon="17.981158741359">
        <ele>69.2</ele>
        <time>2018-04-03T11:12:20Z</time>
      </trkpt>
      <trkpt lat="62.639259435983" lon="17.981095122738">
        <ele>69.2</ele>
        <time>2018-04-03T11:12:21Z</time>
      </trkpt>
      <trkpt lat="62.639291622479" lon="17.981019350362">
        <ele>69.2</ele>
        <time>2018-04-03T11:12:22Z</time>
      </trkpt>
      <trkpt lat="62.639323892794" lon="17.980961766709">
        <ele>69</ele>
        <time>2018-04-03T11:12:23Z</time>
      </trkpt>
      <trkpt lat="62.639354319091" lon="17.980898231907">
        <ele>69</ele>
        <time>2018-04-03T11:12:24Z</time>
      </trkpt>
      <trkpt lat="62.639384242474" lon="17.980830338517">
        <ele>68.8</ele>
        <time>2018-04-03T11:12:25Z</time>
      </trkpt>
      <trkpt lat="62.639415171685" lon="17.980763450955">
        <ele>68.8</ele>
        <time>2018-04-03T11:12:26Z</time>
      </trkpt>
      <trkpt lat="62.639431348752" lon="17.980687008027">
        <ele>68.6</ele>
        <time>2018-04-03T11:12:27Z</time>
      </trkpt>
      <trkpt lat="62.639453225511" lon="17.980585838494">
        <ele>68.4</ele>
        <time>2018-04-03T11:12:28Z</time>
      </trkpt>
      <trkpt lat="62.639470995139" lon="17.980486932074">
        <ele>68.4</ele>
        <time>2018-04-03T11:12:29Z</time>
      </trkpt>
      <trkpt lat="62.639489016224" lon="17.980400849961">
        <ele>68.2</ele>
        <time>2018-04-03T11:12:30Z</time>
      </trkpt>
      <trkpt lat="62.639510473888" lon="17.980300183342">
        <ele>68</ele>
        <time>2018-04-03T11:12:31Z</time>
      </trkpt>
      <trkpt lat="62.639527405326" lon="17.980190045176">
        <ele>67.8</ele>
        <time>2018-04-03T11:12:32Z</time>
      </trkpt>
      <trkpt lat="62.639545594049" lon="17.980099939751">
        <ele>67.6</ele>
        <time>2018-04-03T11:12:33Z</time>
      </trkpt>
      <trkpt lat="62.639555400872" lon="17.98000866086">
        <ele>66.8</ele>
        <time>2018-04-03T11:12:34Z</time>
      </trkpt>
      <trkpt lat="62.639562441668" lon="17.97991729815">
        <ele>66.6</ele>
        <time>2018-04-03T11:12:35Z</time>
      </trkpt>
      <trkpt lat="62.639572080853" lon="17.979835574625">
        <ele>66.4</ele>
        <time>2018-04-03T11:12:36Z</time>
      </trkpt>
      <trkpt lat="62.639590604852" lon="17.979757371498">
        <ele>66.4</ele>
        <time>2018-04-03T11:12:37Z</time>
      </trkpt>
      <trkpt lat="62.639598651476" lon="17.979694171972">
        <ele>66.4</ele>
        <time>2018-04-03T11:12:38Z</time>
      </trkpt>
      <trkpt lat="62.639604267349" lon="17.979633822292">
        <ele>66.4</ele>
        <time>2018-04-03T11:12:39Z</time>
      </trkpt>
      <trkpt lat="62.639624719185" lon="17.979571377137">
        <ele>66.6</ele>
        <time>2018-04-03T11:12:40Z</time>
      </trkpt>
      <trkpt lat="62.639639974243" lon="17.979536256976">
        <ele>66.6</ele>
        <time>2018-04-03T11:12:41Z</time>
      </trkpt>
      <trkpt lat="62.639660426079" lon="17.979474063278">
        <ele>66.6</ele>
        <time>2018-04-03T11:12:42Z</time>
      </trkpt>
      <trkpt lat="62.639689846548" lon="17.97938672388">
        <ele>66.6</ele>
        <time>2018-04-03T11:12:43Z</time>
      </trkpt>
      <trkpt lat="62.639713399687" lon="17.979308101658">
        <ele>66.6</ele>
        <time>2018-04-03T11:12:44Z</time>
      </trkpt>
      <trkpt lat="62.639755225368" lon="17.979263258493">
        <ele>66.6</ele>
        <time>2018-04-03T11:12:45Z</time>
      </trkpt>
      <trkpt lat="62.639784226742" lon="17.979190755058">
        <ele>66.4</ele>
        <time>2018-04-03T11:12:46Z</time>
      </trkpt>
      <trkpt lat="62.639806857872" lon="17.979113976854">
        <ele>66.2</ele>
        <time>2018-04-03T11:12:47Z</time>
      </trkpt>
      <trkpt lat="62.639843738232" lon="17.979029235845">
        <ele>66.4</ele>
        <time>2018-04-03T11:12:48Z</time>
      </trkpt>
      <trkpt lat="62.639871901416" lon="17.978981123739">
        <ele>66.2</ele>
        <time>2018-04-03T11:12:49Z</time>
      </trkpt>
      <trkpt lat="62.639899394048" lon="17.978936699669">
        <ele>66</ele>
        <time>2018-04-03T11:12:50Z</time>
      </trkpt>
      <trkpt lat="62.639920851712" lon="17.978881965862">
        <ele>65.8</ele>
        <time>2018-04-03T11:12:51Z</time>
      </trkpt>
      <trkpt lat="62.639956558606" lon="17.97882597477">
        <ele>65.6</ele>
        <time>2018-04-03T11:12:52Z</time>
      </trkpt>
      <trkpt lat="62.639991511129" lon="17.978780461053">
        <ele>65.2</ele>
        <time>2018-04-03T11:12:53Z</time>
      </trkpt>
      <trkpt lat="62.640028475308" lon="17.978737629544">
        <ele>65</ele>
        <time>2018-04-03T11:12:54Z</time>
      </trkpt>
      <trkpt lat="62.640065020392" lon="17.978691612913">
        <ele>64.6</ele>
        <time>2018-04-03T11:12:55Z</time>
      </trkpt>
      <trkpt lat="62.640098967087" lon="17.978649787232">
        <ele>64.6</ele>
        <time>2018-04-03T11:12:56Z</time>
      </trkpt>
      <trkpt lat="62.640133668153" lon="17.978609805569">
        <ele>64.4</ele>
        <time>2018-04-03T11:12:57Z</time>
      </trkpt>
      <trkpt lat="62.640184127191" lon="17.978543085645">
        <ele>64.2</ele>
        <time>2018-04-03T11:12:58Z</time>
      </trkpt>
      <trkpt lat="62.640226036691" lon="17.978488854752">
        <ele>63.8</ele>
        <time>2018-04-03T11:12:59Z</time>
      </trkpt>
      <trkpt lat="62.640267527096" lon="17.978436803153">
        <ele>63.6</ele>
        <time>2018-04-03T11:13:00Z</time>
      </trkpt>
      <trkpt lat="62.640307760216" lon="17.978387098486">
        <ele>63.6</ele>
        <time>2018-04-03T11:13:01Z</time>
      </trkpt>
      <trkpt lat="62.640349753535" lon="17.978331694127">
        <ele>63</ele>
        <time>2018-04-03T11:13:02Z</time>
      </trkpt>
      <trkpt lat="62.640388142637" lon="17.978285928953">
        <ele>63</ele>
        <time>2018-04-03T11:13:03Z</time>
      </trkpt>
      <trkpt lat="62.64042560973" lon="17.978239744684">
        <ele>62.8</ele>
        <time>2018-04-03T11:13:04Z</time>
      </trkpt>
      <trkpt lat="62.640464669384" lon="17.978190375293">
        <ele>62.4</ele>
        <time>2018-04-03T11:13:05Z</time>
      </trkpt>
      <trkpt lat="62.64050020864" lon="17.978149136345">
        <ele>62.2</ele>
        <time>2018-04-03T11:13:06Z</time>
      </trkpt>
      <trkpt lat="62.640542201959" lon="17.978078141652">
        <ele>62</ele>
        <time>2018-04-03T11:13:07Z</time>
      </trkpt>
      <trkpt lat="62.640579585233" lon="17.978019300714">
        <ele>61.8</ele>
        <time>2018-04-03T11:13:08Z</time>
      </trkpt>
      <trkpt lat="62.640615627403" lon="17.977965740373">
        <ele>61.6</ele>
        <time>2018-04-03T11:13:09Z</time>
      </trkpt>
      <trkpt lat="62.640652256306" lon="17.97788971654">
        <ele>61.6</ele>
        <time>2018-04-03T11:13:10Z</time>
      </trkpt>
      <trkpt lat="62.640690729227" lon="17.977830121231">
        <ele>61.4</ele>
        <time>2018-04-03T11:13:11Z</time>
      </trkpt>
      <trkpt lat="62.640731465261" lon="17.977757114882">
        <ele>61</ele>
        <time>2018-04-03T11:13:12Z</time>
      </trkpt>
      <trkpt lat="62.640771446924" lon="17.977686539284">
        <ele>61</ele>
        <time>2018-04-03T11:13:13Z</time>
      </trkpt>
      <trkpt lat="62.64081117713" lon="17.977619986998">
        <ele>60.8</ele>
        <time>2018-04-03T11:13:14Z</time>
      </trkpt>
      <trkpt lat="62.640850823517" lon="17.977564415001">
        <ele>60.6</ele>
        <time>2018-04-03T11:13:15Z</time>
      </trkpt>
      <trkpt lat="62.64088493785" lon="17.977481182734">
        <ele>60.2</ele>
        <time>2018-04-03T11:13:16Z</time>
      </trkpt>
      <trkpt lat="62.640933971965" lon="17.977406583824">
        <ele>59.8</ele>
        <time>2018-04-03T11:13:17Z</time>
      </trkpt>
      <trkpt lat="62.640973115438" lon="17.977335589131">
        <ele>59.4</ele>
        <time>2018-04-03T11:13:18Z</time>
      </trkpt>
      <trkpt lat="62.64100731359" lon="17.977248249733">
        <ele>58.8</ele>
        <time>2018-04-03T11:13:19Z</time>
      </trkpt>
      <trkpt lat="62.641037572249" lon="17.977171220072">
        <ele>58.4</ele>
        <time>2018-04-03T11:13:20Z</time>
      </trkpt>
      <trkpt lat="62.641064561967" lon="17.977095280058">
        <ele>58</ele>
        <time>2018-04-03T11:13:21Z</time>
      </trkpt>
      <trkpt lat="62.641104878906" lon="17.977036187663">
        <ele>57.6</ele>
        <time>2018-04-03T11:13:22Z</time>
      </trkpt>
      <trkpt lat="62.641144944388" lon="17.976980867123">
        <ele>57.2</ele>
        <time>2018-04-03T11:13:23Z</time>
      </trkpt>
      <trkpt lat="62.641186350974" lon="17.976929402257">
        <ele>56.8</ele>
        <time>2018-04-03T11:13:24Z</time>
      </trkpt>
      <trkpt lat="62.641231613234" lon="17.976891935164">
        <ele>56.4</ele>
        <time>2018-04-03T11:13:25Z</time>
      </trkpt>
      <trkpt lat="62.641277629865" lon="17.976866202731">
        <ele>56</ele>
        <time>2018-04-03T11:13:26Z</time>
      </trkpt>
      <trkpt lat="62.641319371727" lon="17.976849606569">
        <ele>55.8</ele>
        <time>2018-04-03T11:13:27Z</time>
      </trkpt>
      <trkpt lat="62.641380559597" lon="17.976822616851">
        <ele>55.2</ele>
        <time>2018-04-03T11:13:28Z</time>
      </trkpt>
      <trkpt lat="62.641433784662" lon="17.976805517775">
        <ele>55</ele>
        <time>2018-04-03T11:13:29Z</time>
      </trkpt>
      <trkpt lat="62.64148927284" lon="17.976780707351">
        <ele>54.4</ele>
        <time>2018-04-03T11:13:30Z</time>
      </trkpt>
      <trkpt lat="62.641540234792" lon="17.976747682665">
        <ele>54</ele>
        <time>2018-04-03T11:13:31Z</time>
      </trkpt>
      <trkpt lat="62.641590107097" lon="17.97670116312">
        <ele>53.2</ele>
        <time>2018-04-03T11:13:32Z</time>
      </trkpt>
      <trkpt lat="62.641638303022" lon="17.976657996335">
        <ele>53</ele>
        <time>2018-04-03T11:13:33Z</time>
      </trkpt>
      <trkpt lat="62.641691863363" lon="17.976593120429">
        <ele>52.4</ele>
        <time>2018-04-03T11:13:34Z</time>
      </trkpt>
      <trkpt lat="62.641743076772" lon="17.97653603969">
        <ele>52.2</ele>
        <time>2018-04-03T11:13:35Z</time>
      </trkpt>
      <trkpt lat="62.641793200534" lon="17.976471918155">
        <ele>51.8</ele>
        <time>2018-04-03T11:13:36Z</time>
      </trkpt>
      <trkpt lat="62.641844581581" lon="17.97640444386">
        <ele>51</ele>
        <time>2018-04-03T11:13:37Z</time>
      </trkpt>
      <trkpt lat="62.641890346755" lon="17.976338478307">
        <ele>50.6</ele>
        <time>2018-04-03T11:13:38Z</time>
      </trkpt>
      <trkpt lat="62.641934267911" lon="17.976274272953">
        <ele>50</ele>
        <time>2018-04-03T11:13:39Z</time>
      </trkpt>
      <trkpt lat="62.641977015601" lon="17.97620327826">
        <ele>49.4</ele>
        <time>2018-04-03T11:13:40Z</time>
      </trkpt>
      <trkpt lat="62.64201817073" lon="17.976129266083">
        <ele>48.6</ele>
        <time>2018-04-03T11:13:41Z</time>
      </trkpt>
      <trkpt lat="62.642060415506" lon="17.976051901146">
        <ele>48</ele>
        <time>2018-04-03T11:13:42Z</time>
      </trkpt>
      <trkpt lat="62.642103498472" lon="17.975981577005">
        <ele>47.6</ele>
        <time>2018-04-03T11:13:43Z</time>
      </trkpt>
      <trkpt lat="62.64214473742" lon="17.975920640592">
        <ele>47.4</ele>
        <time>2018-04-03T11:13:44Z</time>
      </trkpt>
      <trkpt lat="62.642185892549" lon="17.975866996432">
        <ele>47</ele>
        <time>2018-04-03T11:13:45Z</time>
      </trkpt>
      <trkpt lat="62.642233166465" lon="17.975814861014">
        <ele>46.6</ele>
        <time>2018-04-03T11:13:46Z</time>
      </trkpt>
      <trkpt lat="62.642279937467" lon="17.975748811642">
        <ele>46.2</ele>
        <time>2018-04-03T11:13:47Z</time>
      </trkpt>
      <trkpt lat="62.642324780632" lon="17.975676308207">
        <ele>45.6</ele>
        <time>2018-04-03T11:13:48Z</time>
      </trkpt>
      <trkpt lat="62.642371803091" lon="17.975599110908">
        <ele>45.4</ele>
        <time>2018-04-03T11:13:49Z</time>
      </trkpt>
      <trkpt lat="62.64241295822" lon="17.975510514225">
        <ele>45.4</ele>
        <time>2018-04-03T11:13:50Z</time>
      </trkpt>
      <trkpt lat="62.642451766417" lon="17.975425857035">
        <ele>45.2</ele>
        <time>2018-04-03T11:13:51Z</time>
      </trkpt>
      <trkpt lat="62.64248504256" lon="17.975316221783">
        <ele>45</ele>
        <time>2018-04-03T11:13:52Z</time>
      </trkpt>
      <trkpt lat="62.642520665635" lon="17.975221254856">
        <ele>45</ele>
        <time>2018-04-03T11:13:53Z</time>
      </trkpt>
      <trkpt lat="62.642556456348" lon="17.975124695368">
        <ele>45</ele>
        <time>2018-04-03T11:13:54Z</time>
      </trkpt>
      <trkpt lat="62.642588810482" lon="17.975023777292">
        <ele>44.6</ele>
        <time>2018-04-03T11:13:55Z</time>
      </trkpt>
      <trkpt lat="62.642619655874" lon="17.974925289967">
        <ele>44.4</ele>
        <time>2018-04-03T11:13:56Z</time>
      </trkpt>
      <trkpt lat="62.642659637537" lon="17.974849098496">
        <ele>43.8</ele>
        <time>2018-04-03T11:13:57Z</time>
      </trkpt>
      <trkpt lat="62.642698445734" lon="17.974739211787">
        <ele>43.4</ele>
        <time>2018-04-03T11:13:58Z</time>
      </trkpt>
      <trkpt lat="62.642735745189" lon="17.974643741946">
        <ele>42.8</ele>
        <time>2018-04-03T11:13:59Z</time>
      </trkpt>
      <trkpt lat="62.642770697712" lon="17.974538716739">
        <ele>42.6</ele>
        <time>2018-04-03T11:14:00Z</time>
      </trkpt>
      <trkpt lat="62.642808500081" lon="17.974438385396">
        <ele>42.2</ele>
        <time>2018-04-03T11:14:01Z</time>
      </trkpt>
      <trkpt lat="62.642830544478" lon="17.974338556967">
        <ele>41.8</ele>
        <time>2018-04-03T11:14:02Z</time>
      </trkpt>
      <trkpt lat="62.642863569164" lon="17.974246607524">
        <ele>41.6</ele>
        <time>2018-04-03T11:14:03Z</time>
      </trkpt>
      <trkpt lat="62.642874549453" lon="17.974133200417">
        <ele>41.4</ele>
        <time>2018-04-03T11:14:04Z</time>
      </trkpt>
      <trkpt lat="62.642888882502" lon="17.974035383644">
        <ele>41.2</ele>
        <time>2018-04-03T11:14:05Z</time>
      </trkpt>
      <trkpt lat="62.642911094537" lon="17.973948463341">
        <ele>41.2</ele>
        <time>2018-04-03T11:14:06Z</time>
      </trkpt>
      <trkpt lat="62.642905646302" lon="17.973807228326">
        <ele>41.2</ele>
        <time>2018-04-03T11:14:07Z</time>
      </trkpt>
      <trkpt lat="62.642916794229" lon="17.973699688549">
        <ele>41</ele>
        <time>2018-04-03T11:14:08Z</time>
      </trkpt>
      <trkpt lat="62.642934144762" lon="17.973612181513">
        <ele>40.8</ele>
        <time>2018-04-03T11:14:09Z</time>
      </trkpt>
      <trkpt lat="62.642931378735" lon="17.973504725555">
        <ele>40.6</ele>
        <time>2018-04-03T11:14:10Z</time>
      </trkpt>
      <trkpt lat="62.642940515006" lon="17.973405316221">
        <ele>40.2</ele>
        <time>2018-04-03T11:14:11Z</time>
      </trkpt>
      <trkpt lat="62.642921152817" lon="17.973283359576">
        <ele>40</ele>
        <time>2018-04-03T11:14:12Z</time>
      </trkpt>
      <trkpt lat="62.642914866392" lon="17.973191829228">
        <ele>39.8</ele>
        <time>2018-04-03T11:14:13Z</time>
      </trkpt>
      <trkpt lat="62.64290413756" lon="17.973100466518">
        <ele>39.8</ele>
        <time>2018-04-03T11:14:14Z</time>
      </trkpt>
      <trkpt lat="62.642898856963" lon="17.973018407717">
        <ele>39.6</ele>
        <time>2018-04-03T11:14:15Z</time>
      </trkpt>
      <trkpt lat="62.642873040711" lon="17.972942551522">
        <ele>39.8</ele>
        <time>2018-04-03T11:14:16Z</time>
      </trkpt>
      <trkpt lat="62.642849319934" lon="17.9728555474">
        <ele>39.8</ele>
        <time>2018-04-03T11:14:17Z</time>
      </trkpt>
      <trkpt lat="62.64284378788" lon="17.972798885756">
        <ele>39.8</ele>
        <time>2018-04-03T11:14:18Z</time>
      </trkpt>
      <trkpt lat="62.64281193666" lon="17.972717413688">
        <ele>39.8</ele>
        <time>2018-04-03T11:14:19Z</time>
      </trkpt>
      <trkpt lat="62.642791401005" lon="17.972641892769">
        <ele>39.8</ele>
        <time>2018-04-03T11:14:20Z</time>
      </trkpt>
      <trkpt lat="62.642781678001" lon="17.972573580284">
        <ele>40</ele>
        <time>2018-04-03T11:14:21Z</time>
      </trkpt>
      <trkpt lat="62.642766758219" lon="17.972502334134">
        <ele>40.2</ele>
        <time>2018-04-03T11:14:22Z</time>
      </trkpt>
      <trkpt lat="62.64275074879" lon="17.972432596726">
        <ele>40.2</ele>
        <time>2018-04-03T11:14:23Z</time>
      </trkpt>
      <trkpt lat="62.642735074637" lon="17.972367301725">
        <ele>40.4</ele>
        <time>2018-04-03T11:14:24Z</time>
      </trkpt>
      <trkpt lat="62.642719149027" lon="17.972305275665">
        <ele>40.6</ele>
        <time>2018-04-03T11:14:25Z</time>
      </trkpt>
      <trkpt lat="62.64270883929" lon="17.972247105279">
        <ele>40.6</ele>
        <time>2018-04-03T11:14:26Z</time>
      </trkpt>
      <trkpt lat="62.642692326947" lon="17.972183989572">
        <ele>40.8</ele>
        <time>2018-04-03T11:14:27Z</time>
      </trkpt>
      <trkpt lat="62.642667097428" lon="17.972108301015">
        <ele>41</ele>
        <time>2018-04-03T11:14:28Z</time>
      </trkpt>
      <trkpt lat="62.642651171818" lon="17.972032780096">
        <ele>41</ele>
        <time>2018-04-03T11:14:29Z</time>
      </trkpt>
      <trkpt lat="62.64263675495" lon="17.971957594453">
        <ele>41.2</ele>
        <time>2018-04-03T11:14:30Z</time>
      </trkpt>
      <trkpt lat="62.64262585848" lon="17.971889198149">
        <ele>41.2</ele>
        <time>2018-04-03T11:14:31Z</time>
      </trkpt>
      <trkpt lat="62.642619404417" lon="17.971829099926">
        <ele>41.2</ele>
        <time>2018-04-03T11:14:32Z</time>
      </trkpt>
      <trkpt lat="62.642627031946" lon="17.97177931144">
        <ele>41.2</ele>
        <time>2018-04-03T11:14:33Z</time>
      </trkpt>
      <trkpt lat="62.642648657248" lon="17.971770761902">
        <ele>41</ele>
        <time>2018-04-03T11:14:34Z</time>
      </trkpt>
      <trkpt lat="62.642670450188" lon="17.971772186825">
        <ele>41.2</ele>
        <time>2018-04-03T11:14:35Z</time>
      </trkpt>
      <trkpt lat="62.642700541209" lon="17.971812252307">
        <ele>41.2</ele>
        <time>2018-04-03T11:14:36Z</time>
      </trkpt>
      <trkpt lat="62.642715628629" lon="17.971872769625">
        <ele>41.2</ele>
        <time>2018-04-03T11:14:37Z</time>
      </trkpt>
      <trkpt lat="62.642733565895" lon="17.971928006346">
        <ele>41.2</ele>
        <time>2018-04-03T11:14:38Z</time>
      </trkpt>
      <trkpt lat="62.642755275016" lon="17.971980141764">
        <ele>41</ele>
        <time>2018-04-03T11:14:39Z</time>
      </trkpt>
      <trkpt lat="62.642768015504" lon="17.972053651027">
        <ele>41</ele>
        <time>2018-04-03T11:14:40Z</time>
      </trkpt>
      <trkpt lat="62.642776062128" lon="17.972120873865">
        <ele>41</ele>
        <time>2018-04-03T11:14:41Z</time>
      </trkpt>
      <trkpt lat="62.642800537276" lon="17.972176110586">
        <ele>40.6</ele>
        <time>2018-04-03T11:14:42Z</time>
      </trkpt>
      <trkpt lat="62.642827526994" lon="17.972260348681">
        <ele>40.4</ele>
        <time>2018-04-03T11:14:43Z</time>
      </trkpt>
      <trkpt lat="62.64285384616" lon="17.972324554035">
        <ele>40.2</ele>
        <time>2018-04-03T11:14:44Z</time>
      </trkpt>
      <trkpt lat="62.642883434267" lon="17.972381048041">
        <ele>40.2</ele>
        <time>2018-04-03T11:14:45Z</time>
      </trkpt>
      <trkpt lat="62.642895085108" lon="17.972441146264">
        <ele>40</ele>
        <time>2018-04-03T11:14:46Z</time>
      </trkpt>
      <trkpt lat="62.642933390391" lon="17.97255128443">
        <ele>40</ele>
        <time>2018-04-03T11:14:47Z</time>
      </trkpt>
      <trkpt lat="62.642956272978" lon="17.972633259412">
        <ele>40</ele>
        <time>2018-04-03T11:14:48Z</time>
      </trkpt>
      <trkpt lat="62.642974461701" lon="17.972732249651">
        <ele>39.8</ele>
        <time>2018-04-03T11:14:49Z</time>
      </trkpt>
      <trkpt lat="62.642999439763" lon="17.972830904614">
        <ele>39.8</ele>
        <time>2018-04-03T11:14:50Z</time>
      </trkpt>
      <trkpt lat="62.643031626259" lon="17.972921848229">
        <ele>39.6</ele>
        <time>2018-04-03T11:14:51Z</time>
      </trkpt>
      <trkpt lat="62.643037661227" lon="17.97302905273">
        <ele>39.6</ele>
        <time>2018-04-03T11:14:52Z</time>
      </trkpt>
      <trkpt lat="62.643053922113" lon="17.9731237682">
        <ele>39.4</ele>
        <time>2018-04-03T11:14:53Z</time>
      </trkpt>
      <trkpt lat="62.643056939597" lon="17.973202138965">
        <ele>39.2</ele>
        <time>2018-04-03T11:14:54Z</time>
      </trkpt>
      <trkpt lat="62.643065405316" lon="17.973291657657">
        <ele>39</ele>
        <time>2018-04-03T11:14:55Z</time>
      </trkpt>
      <trkpt lat="62.643077391433" lon="17.973391234629">
        <ele>39</ele>
        <time>2018-04-03T11:14:56Z</time>
      </trkpt>
      <trkpt lat="62.643093903776" lon="17.973448818282">
        <ele>39</ele>
        <time>2018-04-03T11:14:57Z</time>
      </trkpt>
      <trkpt lat="62.643090467197" lon="17.973568092719">
        <ele>38.6</ele>
        <time>2018-04-03T11:14:58Z</time>
      </trkpt>
      <trkpt lat="62.643101531305" lon="17.973660377438">
        <ele>38.6</ele>
        <time>2018-04-03T11:14:59Z</time>
      </trkpt>
      <trkpt lat="62.64310781773" lon="17.973751237234">
        <ele>38.6</ele>
        <time>2018-04-03T11:15:00Z</time>
      </trkpt>
      <trkpt lat="62.64310446497" lon="17.973829188904">
        <ele>38.6</ele>
        <time>2018-04-03T11:15:01Z</time>
      </trkpt>
      <trkpt lat="62.643103542961" lon="17.973910409515">
        <ele>38.6</ele>
        <time>2018-04-03T11:15:02Z</time>
      </trkpt>
      <trkpt lat="62.643104716427" lon="17.974007555736">
        <ele>38.6</ele>
        <time>2018-04-03T11:15:03Z</time>
      </trkpt>
      <trkpt lat="62.643107063359" lon="17.974067234864">
        <ele>38.4</ele>
        <time>2018-04-03T11:15:04Z</time>
      </trkpt>
      <trkpt lat="62.643090634835" lon="17.974177121573">
        <ele>38.6</ele>
        <time>2018-04-03T11:15:05Z</time>
      </trkpt>
      <trkpt lat="62.643074876863" lon="17.974271417948">
        <ele>38.4</ele>
        <time>2018-04-03T11:15:06Z</time>
      </trkpt>
      <trkpt lat="62.643074373949" lon="17.974359427898">
        <ele>38.4</ele>
        <time>2018-04-03T11:15:07Z</time>
      </trkpt>
      <trkpt lat="62.643072110836" lon="17.974444420364">
        <ele>38.4</ele>
        <time>2018-04-03T11:15:08Z</time>
      </trkpt>
      <trkpt lat="62.643073787216" lon="17.974525640975">
        <ele>38.4</ele>
        <time>2018-04-03T11:15:09Z</time>
      </trkpt>
      <trkpt lat="62.643065992049" lon="17.974571657606">
        <ele>38.4</ele>
        <time>2018-04-03T11:15:10Z</time>
      </trkpt>
      <trkpt lat="62.643053251561" lon="17.974672910958">
        <ele>38.4</ele>
        <time>2018-04-03T11:15:11Z</time>
      </trkpt>
      <trkpt lat="62.64304746805" lon="17.974750192076">
        <ele>38.4</ele>
        <time>2018-04-03T11:15:12Z</time>
      </trkpt>
      <trkpt lat="62.643045288756" lon="17.974828227565">
        <ele>38.4</ele>
        <time>2018-04-03T11:15:13Z</time>
      </trkpt>
      <trkpt lat="62.64304579167" lon="17.974906849787">
        <ele>38.4</ele>
        <time>2018-04-03T11:15:14Z</time>
      </trkpt>
      <trkpt lat="62.643049060611" lon="17.974976000462">
        <ele>38.4</ele>
        <time>2018-04-03T11:15:15Z</time>
      </trkpt>
      <trkpt lat="62.643052581009" lon="17.975042720386">
        <ele>38.4</ele>
        <time>2018-04-03T11:15:16Z</time>
      </trkpt>
      <trkpt lat="62.643052581009" lon="17.975136765304">
        <ele>38.2</ele>
        <time>2018-04-03T11:15:17Z</time>
      </trkpt>
      <trkpt lat="62.643054341208" lon="17.975243215434">
        <ele>38.2</ele>
        <time>2018-04-03T11:15:18Z</time>
      </trkpt>
      <trkpt lat="62.643063896574" lon="17.97530138582">
        <ele>38.2</ele>
        <time>2018-04-03T11:15:19Z</time>
      </trkpt>
      <trkpt lat="62.643047048955" lon="17.975381181508">
        <ele>38</ele>
        <time>2018-04-03T11:15:20Z</time>
      </trkpt>
      <trkpt lat="62.643031458621" lon="17.975426779044">
        <ele>38</ele>
        <time>2018-04-03T11:15:21Z</time>
      </trkpt>
      <trkpt lat="62.643029949879" lon="17.975458462626">
        <ele>38.2</ele>
        <time>2018-04-03T11:15:22Z</time>
      </trkpt>
      <trkpt lat="62.642999607401" lon="17.975526523654">
        <ele>38</ele>
        <time>2018-04-03T11:15:23Z</time>
      </trkpt>
      <trkpt lat="62.642984855257" lon="17.975583352936">
        <ele>38</ele>
        <time>2018-04-03T11:15:24Z</time>
      </trkpt>
      <trkpt lat="62.642981670135" lon="17.975635572173">
        <ele>38.2</ele>
        <time>2018-04-03T11:15:25Z</time>
      </trkpt>
      <trkpt lat="62.642980077574" lon="17.975672284895">
        <ele>38.2</ele>
        <time>2018-04-03T11:15:26Z</time>
      </trkpt>
      <trkpt lat="62.642973539692" lon="17.975724755589">
        <ele>38.2</ele>
        <time>2018-04-03T11:15:27Z</time>
      </trkpt>
      <trkpt lat="62.642963313774" lon="17.975802874897">
        <ele>38.4</ele>
        <time>2018-04-03T11:15:28Z</time>
      </trkpt>
      <trkpt lat="62.642960463928" lon="17.975871438839">
        <ele>38.6</ele>
        <time>2018-04-03T11:15:29Z</time>
      </trkpt>
      <trkpt lat="62.642961302118" lon="17.975942349713">
        <ele>38.8</ele>
        <time>2018-04-03T11:15:30Z</time>
      </trkpt>
      <trkpt lat="62.642961302118" lon="17.976021055754">
        <ele>38.8</ele>
        <time>2018-04-03T11:15:31Z</time>
      </trkpt>
      <trkpt lat="62.642960128652" lon="17.97610018089">
        <ele>38.8</ele>
        <time>2018-04-03T11:15:32Z</time>
      </trkpt>
      <trkpt lat="62.642970438389" lon="17.976188945211">
        <ele>38.8</ele>
        <time>2018-04-03T11:15:33Z</time>
      </trkpt>
      <trkpt lat="62.642962307946" lon="17.97624937871">
        <ele>38.8</ele>
        <time>2018-04-03T11:15:34Z</time>
      </trkpt>
      <trkpt lat="62.642957194987" lon="17.976323307068">
        <ele>38.8</ele>
        <time>2018-04-03T11:15:35Z</time>
      </trkpt>
      <trkpt lat="62.642956272978" lon="17.976397822159">
        <ele>39</ele>
        <time>2018-04-03T11:15:36Z</time>
      </trkpt>
      <trkpt lat="62.642938168074" lon="17.976468230119">
        <ele>39</ele>
        <time>2018-04-03T11:15:37Z</time>
      </trkpt>
      <trkpt lat="62.642932133106" lon="17.97653603969">
        <ele>39</ele>
        <time>2018-04-03T11:15:38Z</time>
      </trkpt>
      <trkpt lat="62.642929869993" lon="17.976609297496">
        <ele>39</ele>
        <time>2018-04-03T11:15:39Z</time>
      </trkpt>
      <trkpt lat="62.642921320455" lon="17.976669647176">
        <ele>39</ele>
        <time>2018-04-03T11:15:40Z</time>
      </trkpt>
      <trkpt lat="62.642928109794" lon="17.97672379425">
        <ele>39</ele>
        <time>2018-04-03T11:15:41Z</time>
      </trkpt>
      <trkpt lat="62.642895671841" lon="17.976809541087">
        <ele>39</ele>
        <time>2018-04-03T11:15:42Z</time>
      </trkpt>
      <trkpt lat="62.642886200294" lon="17.976867460016">
        <ele>39.2</ele>
        <time>2018-04-03T11:15:43Z</time>
      </trkpt>
      <trkpt lat="62.642876644928" lon="17.976921355633">
        <ele>39.2</ele>
        <time>2018-04-03T11:15:44Z</time>
      </trkpt>
      <trkpt lat="62.64287144815" lon="17.976976340897">
        <ele>39</ele>
        <time>2018-04-03T11:15:45Z</time>
      </trkpt>
      <trkpt lat="62.642857701834" lon="17.977013640352">
        <ele>39.2</ele>
        <time>2018-04-03T11:15:46Z</time>
      </trkpt>
      <trkpt lat="62.642843620242" lon="17.977072648928">
        <ele>39.2</ele>
        <time>2018-04-03T11:15:47Z</time>
      </trkpt>
      <trkpt lat="62.642837585274" lon="17.977121599224">
        <ele>39.2</ele>
        <time>2018-04-03T11:15:48Z</time>
      </trkpt>
      <trkpt lat="62.642842446776" lon="17.977188570605">
        <ele>39.4</ele>
        <time>2018-04-03T11:15:49Z</time>
      </trkpt>
      <trkpt lat="62.642853343246" lon="17.977251686312">
        <ele>39.6</ele>
        <time>2018-04-03T11:15:50Z</time>
      </trkpt>
      <trkpt lat="62.642868514485" lon="17.977308599413">
        <ele>39.6</ele>
        <time>2018-04-03T11:15:51Z</time>
      </trkpt>
      <trkpt lat="62.642851750685" lon="17.977366602161">
        <ele>39.6</ele>
        <time>2018-04-03T11:15:52Z</time>
      </trkpt>
      <trkpt lat="62.642848649382" lon="17.977425191642">
        <ele>39.6</ele>
        <time>2018-04-03T11:15:53Z</time>
      </trkpt>
      <trkpt lat="62.642845967174" lon="17.977475399223">
        <ele>39.6</ele>
        <time>2018-04-03T11:15:54Z</time>
      </trkpt>
      <trkpt lat="62.642833310505" lon="17.977529211021">
        <ele>39.6</ele>
        <time>2018-04-03T11:15:55Z</time>
      </trkpt>
      <trkpt lat="62.642815624696" lon="17.977577406946">
        <ele>39.6</ele>
        <time>2018-04-03T11:15:56Z</time>
      </trkpt>
      <trkpt lat="62.642797603611" lon="17.977619316446">
        <ele>39.6</ele>
        <time>2018-04-03T11:15:57Z</time>
      </trkpt>
      <trkpt lat="62.642777487051" lon="17.977657370272">
        <ele>39.8</ele>
        <time>2018-04-03T11:15:58Z</time>
      </trkpt>
      <trkpt lat="62.642760890889" lon="17.97768687456">
        <ele>40</ele>
        <time>2018-04-03T11:15:59Z</time>
      </trkpt>
      <trkpt lat="62.642748150401" lon="17.977711014432">
        <ele>40.2</ele>
        <time>2018-04-03T11:16:00Z</time>
      </trkpt>
      <trkpt lat="62.642732392429" lon="17.977734148476">
        <ele>40.2</ele>
        <time>2018-04-03T11:16:01Z</time>
      </trkpt>
      <trkpt lat="62.642713616973" lon="17.977761976384">
        <ele>40.6</ele>
        <time>2018-04-03T11:16:02Z</time>
      </trkpt>
      <trkpt lat="62.642701630856" lon="17.977785613342">
        <ele>40.6</ele>
        <time>2018-04-03T11:16:03Z</time>
      </trkpt>
      <trkpt lat="62.642682184848" lon="17.977805394626">
        <ele>40.8</ele>
        <time>2018-04-03T11:16:04Z</time>
      </trkpt>
      <trkpt lat="62.642662571202" lon="17.977837916398">
        <ele>41</ele>
        <time>2018-04-03T11:16:05Z</time>
      </trkpt>
      <trkpt lat="62.642640191529" lon="17.977867504505">
        <ele>41.2</ele>
        <time>2018-04-03T11:16:06Z</time>
      </trkpt>
      <trkpt lat="62.64261328563" lon="17.97789558387">
        <ele>41.4</ele>
        <time>2018-04-03T11:16:07Z</time>
      </trkpt>
      <trkpt lat="62.642592749975" lon="17.977925339615">
        <ele>41.6</ele>
        <time>2018-04-03T11:16:08Z</time>
      </trkpt>
      <trkpt lat="62.642575399442" lon="17.977959453948">
        <ele>41.8</ele>
        <time>2018-04-03T11:16:09Z</time>
      </trkpt>
      <trkpt lat="62.642558216547" lon="17.977995663756">
        <ele>42</ele>
        <time>2018-04-03T11:16:10Z</time>
      </trkpt>
      <trkpt lat="62.642541452747" lon="17.978027850252">
        <ele>42</ele>
        <time>2018-04-03T11:16:11Z</time>
      </trkpt>
      <trkpt lat="62.642525191861" lon="17.978068334829">
        <ele>42.2</ele>
        <time>2018-04-03T11:16:12Z</time>
      </trkpt>
      <trkpt lat="62.642512199916" lon="17.978104963732">
        <ele>42.2</ele>
        <time>2018-04-03T11:16:13Z</time>
      </trkpt>
      <trkpt lat="62.642498705057" lon="17.978140251531">
        <ele>42.4</ele>
        <time>2018-04-03T11:16:14Z</time>
      </trkpt>
      <trkpt lat="62.642482108895" lon="17.978174868778">
        <ele>42.6</ele>
        <time>2018-04-03T11:16:15Z</time>
      </trkpt>
      <trkpt lat="62.642466518561" lon="17.97821493426">
        <ele>42.6</ele>
        <time>2018-04-03T11:16:16Z</time>
      </trkpt>
      <trkpt lat="62.64245151496" lon="17.97825768195">
        <ele>42.8</ele>
        <time>2018-04-03T11:16:17Z</time>
      </trkpt>
      <trkpt lat="62.642435756988" lon="17.978296154871">
        <ele>43</ele>
        <time>2018-04-03T11:16:18Z</time>
      </trkpt>
      <trkpt lat="62.642419244645" lon="17.978334543973">
        <ele>43.2</ele>
        <time>2018-04-03T11:16:19Z</time>
      </trkpt>
      <trkpt lat="62.642402564664" lon="17.978378800405">
        <ele>43.2</ele>
        <time>2018-04-03T11:16:20Z</time>
      </trkpt>
      <trkpt lat="62.64238529795" lon="17.978428085977">
        <ele>43.2</ele>
        <time>2018-04-03T11:16:21Z</time>
      </trkpt>
      <trkpt lat="62.642373647109" lon="17.978465804527">
        <ele>43.4</ele>
        <time>2018-04-03T11:16:22Z</time>
      </trkpt>
      <trkpt lat="62.642362583001" lon="17.978511988796">
        <ele>43.4</ele>
        <time>2018-04-03T11:16:23Z</time>
      </trkpt>
      <trkpt lat="62.642351518893" lon="17.978554652667">
        <ele>43.4</ele>
        <time>2018-04-03T11:16:24Z</time>
      </trkpt>
      <trkpt lat="62.642338778405" lon="17.978589018457">
        <ele>43.4</ele>
        <time>2018-04-03T11:16:25Z</time>
      </trkpt>
      <trkpt lat="62.642327714297" lon="17.978622378419">
        <ele>43.4</ele>
        <time>2018-04-03T11:16:26Z</time>
      </trkpt>
      <trkpt lat="62.64230734628" lon="17.978656492752">
        <ele>43.6</ele>
        <time>2018-04-03T11:16:27Z</time>
      </trkpt>
      <trkpt lat="62.642291504489" lon="17.978691696732">
        <ele>43.6</ele>
        <time>2018-04-03T11:16:28Z</time>
      </trkpt>
      <trkpt lat="62.642275411241" lon="17.978721536296">
        <ele>43.8</ele>
        <time>2018-04-03T11:16:29Z</time>
      </trkpt>
      <trkpt lat="62.642265939694" lon="17.978744335064">
        <ele>44</ele>
        <time>2018-04-03T11:16:30Z</time>
      </trkpt>
      <trkpt lat="62.642262670753" lon="17.978763781072">
        <ele>44.2</ele>
        <time>2018-04-03T11:16:31Z</time>
      </trkpt>
      <trkpt lat="62.642235094302" lon="17.978777946483">
        <ele>44.6</ele>
        <time>2018-04-03T11:16:32Z</time>
      </trkpt>
      <trkpt lat="62.642225119841" lon="17.978791860437">
        <ele>44.8</ele>
        <time>2018-04-03T11:16:33Z</time>
      </trkpt>
      <trkpt lat="62.642195615553" lon="17.978815497395">
        <ele>45</ele>
        <time>2018-04-03T11:16:34Z</time>
      </trkpt>
      <trkpt lat="62.642173654975" lon="17.97882597477">
        <ele>45.4</ele>
        <time>2018-04-03T11:16:35Z</time>
      </trkpt>
      <trkpt lat="62.642157980822" lon="17.978833686118">
        <ele>45.4</ele>
        <time>2018-04-03T11:16:36Z</time>
      </trkpt>
      <trkpt lat="62.642142390488" lon="17.978842487113">
        <ele>45.6</ele>
        <time>2018-04-03T11:16:37Z</time>
      </trkpt>
      <trkpt lat="62.642127219249" lon="17.97885112047">
        <ele>45.8</ele>
        <time>2018-04-03T11:16:38Z</time>
      </trkpt>
      <trkpt lat="62.642117831521" lon="17.97885782599">
        <ele>45.8</ele>
        <time>2018-04-03T11:16:39Z</time>
      </trkpt>
      <trkpt lat="62.642095535667" lon="17.978882468776">
        <ele>45.8</ele>
        <time>2018-04-03T11:16:40Z</time>
      </trkpt>
      <trkpt lat="62.64207768222" lon="17.978897472377">
        <ele>46</ele>
        <time>2018-04-03T11:16:41Z</time>
      </trkpt>
      <trkpt lat="62.642047423561" lon="17.978907111562">
        <ele>46.2</ele>
        <time>2018-04-03T11:16:42Z</time>
      </trkpt>
      <trkpt lat="62.642026971725" lon="17.978922282801">
        <ele>46.4</ele>
        <time>2018-04-03T11:16:43Z</time>
      </trkpt>
      <trkpt lat="62.642008699183" lon="17.97893410128">
        <ele>46.6</ele>
        <time>2018-04-03T11:16:44Z</time>
      </trkpt>
      <trkpt lat="62.641991935383" lon="17.978942986094">
        <ele>46.8</ele>
        <time>2018-04-03T11:16:45Z</time>
      </trkpt>
      <trkpt lat="62.641990007546" lon="17.978959414618">
        <ele>46.8</ele>
        <time>2018-04-03T11:16:46Z</time>
      </trkpt>
      <trkpt lat="62.641966286769" lon="17.978965784862">
        <ele>47</ele>
        <time>2018-04-03T11:16:47Z</time>
      </trkpt>
      <trkpt lat="62.641946002571" lon="17.978974082943">
        <ele>47.2</ele>
        <time>2018-04-03T11:16:48Z</time>
      </trkpt>
      <trkpt lat="62.641933010626" lon="17.97898523087">
        <ele>47.4</ele>
        <time>2018-04-03T11:16:49Z</time>
      </trkpt>
      <trkpt lat="62.641918174663" lon="17.97899361277">
        <ele>47.6</ele>
        <time>2018-04-03T11:16:50Z</time>
      </trkpt>
      <trkpt lat="62.641906523822" lon="17.979001575575">
        <ele>47.8</ele>
        <time>2018-04-03T11:16:51Z</time>
      </trkpt>
      <trkpt lat="62.64188154576" lon="17.979005263611">
        <ele>48.2</ele>
        <time>2018-04-03T11:16:52Z</time>
      </trkpt>
      <trkpt lat="62.641864279046" lon="17.979017333547">
        <ele>48.2</ele>
        <time>2018-04-03T11:16:53Z</time>
      </trkpt>
      <trkpt lat="62.641845168314" lon="17.979021608316">
        <ele>48.4</ele>
        <time>2018-04-03T11:16:54Z</time>
      </trkpt>
      <trkpt lat="62.641828488333" lon="17.979023117058">
        <ele>48.6</ele>
        <time>2018-04-03T11:16:55Z</time>
      </trkpt>
      <trkpt lat="62.641818765329" lon="17.979036192822">
        <ele>48.8</ele>
        <time>2018-04-03T11:16:56Z</time>
      </trkpt>
      <trkpt lat="62.641799319321" lon="17.97903636046">
        <ele>49</ele>
        <time>2018-04-03T11:16:57Z</time>
      </trkpt>
      <trkpt lat="62.641775430906" lon="17.979032588605">
        <ele>49.4</ele>
        <time>2018-04-03T11:16:58Z</time>
      </trkpt>
      <trkpt lat="62.641764869712" lon="17.979036947193">
        <ele>49.6</ele>
        <time>2018-04-03T11:16:59Z</time>
      </trkpt>
      <trkpt lat="62.641754559975" lon="17.979039377944">
        <ele>50.2</ele>
        <time>2018-04-03T11:17:00Z</time>
      </trkpt>
      <trkpt lat="62.641746680989" lon="17.979039210306">
        <ele>50.4</ele>
        <time>2018-04-03T11:17:01Z</time>
      </trkpt>
      <trkpt lat="62.641715667959" lon="17.979028649112">
        <ele>50.8</ele>
        <time>2018-04-03T11:17:02Z</time>
      </trkpt>
      <trkpt lat="62.641704268575" lon="17.979034600261">
        <ele>50.8</ele>
        <time>2018-04-03T11:17:03Z</time>
      </trkpt>
      <trkpt lat="62.641680044884" lon="17.979024877257">
        <ele>51</ele>
        <time>2018-04-03T11:17:04Z</time>
      </trkpt>
      <trkpt lat="62.641663783998" lon="17.979016579176">
        <ele>51</ele>
        <time>2018-04-03T11:17:05Z</time>
      </trkpt>
      <trkpt lat="62.64164936713" lon="17.979002246127">
        <ele>50.8</ele>
        <time>2018-04-03T11:17:06Z</time>
      </trkpt>
      <trkpt lat="62.641626233086" lon="17.978996881711">
        <ele>51</ele>
        <time>2018-04-03T11:17:07Z</time>
      </trkpt>
      <trkpt lat="62.641604188689" lon="17.978983303033">
        <ele>51</ele>
        <time>2018-04-03T11:17:08Z</time>
      </trkpt>
      <trkpt lat="62.641581725197" lon="17.978964946672">
        <ele>51.2</ele>
        <time>2018-04-03T11:17:09Z</time>
      </trkpt>
      <trkpt lat="62.641572505107" lon="17.978964024663">
        <ele>51.6</ele>
        <time>2018-04-03T11:17:10Z</time>
      </trkpt>
      <trkpt lat="62.641553310556" lon="17.978950445985">
        <ele>51.8</ele>
        <time>2018-04-03T11:17:11Z</time>
      </trkpt>
      <trkpt lat="62.641521543155" lon="17.978951200356">
        <ele>52.2</ele>
        <time>2018-04-03T11:17:12Z</time>
      </trkpt>
      <trkpt lat="62.641500839862" lon="17.978940052429">
        <ele>52.2</ele>
        <time>2018-04-03T11:17:13Z</time>
      </trkpt>
      <trkpt lat="62.641479633655" lon="17.978937118764">
        <ele>52.6</ele>
        <time>2018-04-03T11:17:14Z</time>
      </trkpt>
      <trkpt lat="62.641461864027" lon="17.978942818456">
        <ele>52.6</ele>
        <time>2018-04-03T11:17:15Z</time>
      </trkpt>
      <trkpt lat="62.641430515721" lon="17.97893661585">
        <ele>52.8</ele>
        <time>2018-04-03T11:17:16Z</time>
      </trkpt>
      <trkpt lat="62.641402771632" lon="17.978959079342">
        <ele>53</ele>
        <time>2018-04-03T11:17:17Z</time>
      </trkpt>
      <trkpt lat="62.641380643416" lon="17.978969137622">
        <ele>53.4</ele>
        <time>2018-04-03T11:17:18Z</time>
      </trkpt>
      <trkpt lat="62.64135683882" lon="17.978972071287">
        <ele>53.6</ele>
        <time>2018-04-03T11:17:19Z</time>
      </trkpt>
      <trkpt lat="62.641336470803" lon="17.978974502038">
        <ele>53.8</ele>
        <time>2018-04-03T11:17:20Z</time>
      </trkpt>
      <trkpt lat="62.64131912027" lon="17.978978692988">
        <ele>54</ele>
        <time>2018-04-03T11:17:21Z</time>
      </trkpt>
      <trkpt lat="62.641295399493" lon="17.97897517259">
        <ele>54</ele>
        <time>2018-04-03T11:17:22Z</time>
      </trkpt>
      <trkpt lat="62.641274947657" lon="17.978977770979">
        <ele>54.2</ele>
        <time>2018-04-03T11:17:23Z</time>
      </trkpt>
      <trkpt lat="62.641252400346" lon="17.978974837314">
        <ele>54.4</ele>
        <time>2018-04-03T11:17:24Z</time>
      </trkpt>
      <trkpt lat="62.64123530127" lon="17.97897014345">
        <ele>54.4</ele>
        <time>2018-04-03T11:17:25Z</time>
      </trkpt>
      <trkpt lat="62.641210658484" lon="17.978983889766">
        <ele>54.6</ele>
        <time>2018-04-03T11:17:26Z</time>
      </trkpt>
      <trkpt lat="62.641184004042" lon="17.978979698816">
        <ele>54.8</ele>
        <time>2018-04-03T11:17:27Z</time>
      </trkpt>
      <trkpt lat="62.641157181962" lon="17.979005515068">
        <ele>55.2</ele>
        <time>2018-04-03T11:17:28Z</time>
      </trkpt>
      <trkpt lat="62.641143351827" lon="17.979027559465">
        <ele>55.4</ele>
        <time>2018-04-03T11:17:29Z</time>
      </trkpt>
      <trkpt lat="62.64113052752" lon="17.979058572495">
        <ele>55.6</ele>
        <time>2018-04-03T11:17:30Z</time>
      </trkpt>
      <trkpt lat="62.641123235267" lon="17.979088160602">
        <ele>55.8</ele>
        <time>2018-04-03T11:17:31Z</time>
      </trkpt>
      <trkpt lat="62.641103118707" lon="17.979128477541">
        <ele>56</ele>
        <time>2018-04-03T11:17:32Z</time>
      </trkpt>
      <trkpt lat="62.641093228065" lon="17.979174158896">
        <ele>56.2</ele>
        <time>2018-04-03T11:17:33Z</time>
      </trkpt>
      <trkpt lat="62.641085768174" lon="17.979226713409">
        <ele>56.2</ele>
        <time>2018-04-03T11:17:34Z</time>
      </trkpt>
      <trkpt lat="62.641078475921" lon="17.979283207415">
        <ele>56.4</ele>
        <time>2018-04-03T11:17:35Z</time>
      </trkpt>
      <trkpt lat="62.641078811197" lon="17.979343808552">
        <ele>56.4</ele>
        <time>2018-04-03T11:17:36Z</time>
      </trkpt>
      <trkpt lat="62.641053078764" lon="17.979389489907">
        <ele>56.4</ele>
        <time>2018-04-03T11:17:37Z</time>
      </trkpt>
      <trkpt lat="62.641039751543" lon="17.979439781307">
        <ele>56.2</ele>
        <time>2018-04-03T11:17:38Z</time>
      </trkpt>
      <trkpt lat="62.641028855073" lon="17.97948982125">
        <ele>56.4</ele>
        <time>2018-04-03T11:17:39Z</time>
      </trkpt>
      <trkpt lat="62.641035895869" lon="17.979536843709">
        <ele>56.2</ele>
        <time>2018-04-03T11:17:40Z</time>
      </trkpt>
      <trkpt lat="62.64102910653" lon="17.979575400449">
        <ele>56.4</ele>
        <time>2018-04-03T11:17:41Z</time>
      </trkpt>
      <trkpt lat="62.641025921408" lon="17.979628541695">
        <ele>56.4</ele>
        <time>2018-04-03T11:17:42Z</time>
      </trkpt>
      <trkpt lat="62.641020305535" lon="17.97968009038">
        <ele>56.6</ele>
        <time>2018-04-03T11:17:43Z</time>
      </trkpt>
      <trkpt lat="62.641012594187" lon="17.979732728712">
        <ele>56.8</ele>
        <time>2018-04-03T11:17:44Z</time>
      </trkpt>
      <trkpt lat="62.641010247255" lon="17.979779751171">
        <ele>56.6</ele>
        <time>2018-04-03T11:17:45Z</time>
      </trkpt>
      <trkpt lat="62.640994824559" lon="17.979830210209">
        <ele>56.6</ele>
        <time>2018-04-03T11:17:46Z</time>
      </trkpt>
      <trkpt lat="62.640986945573" lon="17.979903216558">
        <ele>56.8</ele>
        <time>2018-04-03T11:17:47Z</time>
      </trkpt>
      <trkpt lat="62.64097630056" lon="17.97996256041">
        <ele>56.8</ele>
        <time>2018-04-03T11:17:48Z</time>
      </trkpt>
      <trkpt lat="62.64097378599" lon="17.98001871914">
        <ele>56.8</ele>
        <time>2018-04-03T11:17:49Z</time>
      </trkpt>
      <trkpt lat="62.64097378599" lon="17.98007906882">
        <ele>57</ele>
        <time>2018-04-03T11:17:50Z</time>
      </trkpt>
      <trkpt lat="62.640974288904" lon="17.980143777088">
        <ele>57</ele>
        <time>2018-04-03T11:17:51Z</time>
      </trkpt>
      <trkpt lat="62.640972444886" lon="17.980206641338">
        <ele>57.2</ele>
        <time>2018-04-03T11:17:52Z</time>
      </trkpt>
      <trkpt lat="62.640977557845" lon="17.980278641859">
        <ele>57.2</ele>
        <time>2018-04-03T11:17:53Z</time>
      </trkpt>
      <trkpt lat="62.64098300608" lon="17.980347708715">
        <ele>57.4</ele>
        <time>2018-04-03T11:17:54Z</time>
      </trkpt>
      <trkpt lat="62.640987532306" lon="17.980418032856">
        <ele>57.4</ele>
        <time>2018-04-03T11:17:55Z</time>
      </trkpt>
      <trkpt lat="62.641002200631" lon="17.980485674789">
        <ele>57.2</ele>
        <time>2018-04-03T11:17:56Z</time>
      </trkpt>
      <trkpt lat="62.641028938892" lon="17.980568236504">
        <ele>57.2</ele>
        <time>2018-04-03T11:17:57Z</time>
      </trkpt>
      <trkpt lat="62.641021646639" lon="17.980667226743">
        <ele>57</ele>
        <time>2018-04-03T11:17:58Z</time>
      </trkpt>
      <trkpt lat="62.641032124014" lon="17.980742747662">
        <ele>56.8</ele>
        <time>2018-04-03T11:17:59Z</time>
      </trkpt>
      <trkpt lat="62.64104587033" lon="17.980821872798">
        <ele>56.8</ele>
        <time>2018-04-03T11:18:00Z</time>
      </trkpt>
      <trkpt lat="62.641062550311" lon="17.980907703454">
        <ele>56.8</ele>
        <time>2018-04-03T11:18:01Z</time>
      </trkpt>
      <trkpt lat="62.641064813424" lon="17.980980290708">
        <ele>56.2</ele>
        <time>2018-04-03T11:18:02Z</time>
      </trkpt>
      <trkpt lat="62.641077302455" lon="17.98105220741">
        <ele>56</ele>
        <time>2018-04-03T11:18:03Z</time>
      </trkpt>
      <trkpt lat="62.641089540029" lon="17.981136110229">
        <ele>55.8</ele>
        <time>2018-04-03T11:18:04Z</time>
      </trkpt>
      <trkpt lat="62.641106555286" lon="17.981226634749">
        <ele>55.4</ele>
        <time>2018-04-03T11:18:05Z</time>
      </trkpt>
      <trkpt lat="62.641127426217" lon="17.981312130129">
        <ele>55.2</ele>
        <time>2018-04-03T11:18:06Z</time>
      </trkpt>
      <trkpt lat="62.641114434272" lon="17.981452610773">
        <ele>54.4</ele>
        <time>2018-04-03T11:18:07Z</time>
      </trkpt>
      <trkpt lat="62.641103286345" lon="17.981553109754">
        <ele>53.8</ele>
        <time>2018-04-03T11:18:08Z</time>
      </trkpt>
      <trkpt lat="62.641093563341" lon="17.981638437496">
        <ele>53.4</ele>
        <time>2018-04-03T11:18:09Z</time>
      </trkpt>
      <trkpt lat="62.641068166184" lon="17.981710354198">
        <ele>52.8</ele>
        <time>2018-04-03T11:18:10Z</time>
      </trkpt>
      <trkpt lat="62.641062382673" lon="17.98182250402">
        <ele>52.8</ele>
        <time>2018-04-03T11:18:11Z</time>
      </trkpt>
      <trkpt lat="62.641056012429" lon="17.981933564195">
        <ele>52.6</ele>
        <time>2018-04-03T11:18:12Z</time>
      </trkpt>
      <trkpt lat="62.641055593334" lon="17.982027190018">
        <ele>52.8</ele>
        <time>2018-04-03T11:18:13Z</time>
      </trkpt>
      <trkpt lat="62.641056180067" lon="17.982111428113">
        <ele>53.2</ele>
        <time>2018-04-03T11:18:14Z</time>
      </trkpt>
      <trkpt lat="62.641058694637" lon="17.982189966516">
        <ele>53.6</ele>
        <time>2018-04-03T11:18:15Z</time>
      </trkpt>
      <trkpt lat="62.641062550311" lon="17.982275629534">
        <ele>53.8</ele>
        <time>2018-04-03T11:18:16Z</time>
      </trkpt>
      <trkpt lat="62.641081577224" lon="17.982356095774">
        <ele>53.8</ele>
        <time>2018-04-03T11:18:17Z</time>
      </trkpt>
      <trkpt lat="62.641090210581" lon="17.982438238394">
        <ele>53.6</ele>
        <time>2018-04-03T11:18:18Z</time>
      </trkpt>
      <trkpt lat="62.641108566942" lon="17.982518536996">
        <ele>53.6</ele>
        <time>2018-04-03T11:18:19Z</time>
      </trkpt>
      <trkpt lat="62.641129018778" lon="17.982591459526">
        <ele>53.6</ele>
        <time>2018-04-03T11:18:20Z</time>
      </trkpt>
      <trkpt lat="62.6411489677" lon="17.982658263269">
        <ele>53.6</ele>
        <time>2018-04-03T11:18:21Z</time>
      </trkpt>
      <trkpt lat="62.641148548605" lon="17.982759684259">
        <ele>53.4</ele>
        <time>2018-04-03T11:18:22Z</time>
      </trkpt>
      <trkpt lat="62.641156427591" lon="17.982850544055">
        <ele>53.4</ele>
        <time>2018-04-03T11:18:23Z</time>
      </trkpt>
      <trkpt lat="62.64116656969" lon="17.982948109371">
        <ele>53.2</ele>
        <time>2018-04-03T11:18:24Z</time>
      </trkpt>
      <trkpt lat="62.641179813092" lon="17.983043243936">
        <ele>53.2</ele>
        <time>2018-04-03T11:18:25Z</time>
      </trkpt>
      <trkpt lat="62.641206383715" lon="17.98309487644">
        <ele>53</ele>
        <time>2018-04-03T11:18:26Z</time>
      </trkpt>
      <trkpt lat="62.641215017072" lon="17.983188669901">
        <ele>53</ele>
        <time>2018-04-03T11:18:27Z</time>
      </trkpt>
      <trkpt lat="62.641215939081" lon="17.983310458908">
        <ele>53</ele>
        <time>2018-04-03T11:18:28Z</time>
      </trkpt>
      <trkpt lat="62.641229014845" lon="17.983405761111">
        <ele>52.8</ele>
        <time>2018-04-03T11:18:29Z</time>
      </trkpt>
      <trkpt lat="62.641242761161" lon="17.983508355567">
        <ele>52.6</ele>
        <time>2018-04-03T11:18:30Z</time>
      </trkpt>
      <trkpt lat="62.641257597124" lon="17.983608770729">
        <ele>52.6</ele>
        <time>2018-04-03T11:18:31Z</time>
      </trkpt>
      <trkpt lat="62.641251478337" lon="17.983735337419">
        <ele>52.2</ele>
        <time>2018-04-03T11:18:32Z</time>
      </trkpt>
      <trkpt lat="62.641253322355" lon="17.983841284635">
        <ele>51.8</ele>
        <time>2018-04-03T11:18:33Z</time>
      </trkpt>
      <trkpt lat="62.641249047586" lon="17.983962906004">
        <ele>50.8</ele>
        <time>2018-04-03T11:18:34Z</time>
      </trkpt>
      <trkpt lat="62.641244269903" lon="17.984078743862">
        <ele>50</ele>
        <time>2018-04-03T11:18:35Z</time>
      </trkpt>
      <trkpt lat="62.641242761161" lon="17.98419039077">
        <ele>49.4</ele>
        <time>2018-04-03T11:18:36Z</time>
      </trkpt>
      <trkpt lat="62.641234211623" lon="17.98430187004">
        <ele>48.6</ele>
        <time>2018-04-03T11:18:37Z</time>
      </trkpt>
      <trkpt lat="62.64123194851" lon="17.984417624079">
        <ele>48.2</ele>
        <time>2018-04-03T11:18:38Z</time>
      </trkpt>
      <trkpt lat="62.641232199967" lon="17.984520721449">
        <ele>48</ele>
        <time>2018-04-03T11:18:39Z</time>
      </trkpt>
      <trkpt lat="62.641230858863" lon="17.984617616213">
        <ele>47.8</ele>
        <time>2018-04-03T11:18:40Z</time>
      </trkpt>
      <trkpt lat="62.641227673741" lon="17.984748122396">
        <ele>47.4</ele>
        <time>2018-04-03T11:18:41Z</time>
      </trkpt>
      <trkpt lat="62.641215771443" lon="17.984883322443">
        <ele>47.2</ele>
        <time>2018-04-03T11:18:42Z</time>
      </trkpt>
      <trkpt lat="62.641198672367" lon="17.985001507233">
        <ele>47</ele>
        <time>2018-04-03T11:18:43Z</time>
      </trkpt>
      <trkpt lat="62.641182662938" lon="17.985112148313">
        <ele>47</ele>
        <time>2018-04-03T11:18:44Z</time>
      </trkpt>
      <trkpt lat="62.641166150595" lon="17.98521130619">
        <ele>47.2</ele>
        <time>2018-04-03T11:18:45Z</time>
      </trkpt>
      <trkpt lat="62.64116908426" lon="17.985320354709">
        <ele>47.2</ele>
        <time>2018-04-03T11:18:46Z</time>
      </trkpt>
      <trkpt lat="62.641168078432" lon="17.985454297471">
        <ele>47.6</ele>
        <time>2018-04-03T11:18:47Z</time>
      </trkpt>
      <trkpt lat="62.641164641853" lon="17.985556556651">
        <ele>47.8</ele>
        <time>2018-04-03T11:18:48Z</time>
      </trkpt>
      <trkpt lat="62.64116405512" lon="17.985651439759">
        <ele>47.8</ele>
        <time>2018-04-03T11:18:49Z</time>
      </trkpt>
      <trkpt lat="62.641161624369" lon="17.985734085293">
        <ele>47.8</ele>
        <time>2018-04-03T11:18:50Z</time>
      </trkpt>
      <trkpt lat="62.641160199446" lon="17.985806756366">
        <ele>47.6</ele>
        <time>2018-04-03T11:18:51Z</time>
      </trkpt>
      <trkpt lat="62.641137400678" lon="17.985908931727">
        <ele>47.6</ele>
        <time>2018-04-03T11:18:52Z</time>
      </trkpt>
      <trkpt lat="62.64112466019" lon="17.985993924193">
        <ele>47.4</ele>
        <time>2018-04-03T11:18:53Z</time>
      </trkpt>
      <trkpt lat="62.641112506435" lon="17.986076150632">
        <ele>47.2</ele>
        <time>2018-04-03T11:18:54Z</time>
      </trkpt>
      <trkpt lat="62.641103286345" lon="17.986152509741">
        <ele>47.2</ele>
        <time>2018-04-03T11:18:55Z</time>
      </trkpt>
      <trkpt lat="62.641094736807" lon="17.986216296">
        <ele>47.4</ele>
        <time>2018-04-03T11:18:56Z</time>
      </trkpt>
      <trkpt lat="62.641089540029" lon="17.986283183562">
        <ele>47.4</ele>
        <time>2018-04-03T11:18:57Z</time>
      </trkpt>
      <trkpt lat="62.641085097622" lon="17.986379575412">
        <ele>47.6</ele>
        <time>2018-04-03T11:18:58Z</time>
      </trkpt>
      <trkpt lat="62.641073614419" lon="17.986470519027">
        <ele>47.4</ele>
        <time>2018-04-03T11:18:59Z</time>
      </trkpt>
      <trkpt lat="62.641063137044" lon="17.98656582123">
        <ele>47.6</ele>
        <time>2018-04-03T11:19:00Z</time>
      </trkpt>
      <trkpt lat="62.641058946094" lon="17.986651903343">
        <ele>47.4</ele>
        <time>2018-04-03T11:19:01Z</time>
      </trkpt>
      <trkpt lat="62.641054084592" lon="17.986742008768">
        <ele>47.2</ele>
        <time>2018-04-03T11:19:02Z</time>
      </trkpt>
      <trkpt lat="62.641050983289" lon="17.98682398375">
        <ele>47.2</ele>
        <time>2018-04-03T11:19:03Z</time>
      </trkpt>
      <trkpt lat="62.641039667724" lon="17.986901181049">
        <ele>47.2</ele>
        <time>2018-04-03T11:19:04Z</time>
      </trkpt>
      <trkpt lat="62.641023825933" lon="17.986980306185">
        <ele>47.2</ele>
        <time>2018-04-03T11:19:05Z</time>
      </trkpt>
      <trkpt lat="62.641013097101" lon="17.987058425493">
        <ele>47.2</ele>
        <time>2018-04-03T11:19:06Z</time>
      </trkpt>
      <trkpt lat="62.641006643038" lon="17.98715255423">
        <ele>47.2</ele>
        <time>2018-04-03T11:19:07Z</time>
      </trkpt>
      <trkpt lat="62.64100312264" lon="17.987228913339">
        <ele>47.2</ele>
        <time>2018-04-03T11:19:08Z</time>
      </trkpt>
      <trkpt lat="62.641004966658" lon="17.987300159489">
        <ele>47.2</ele>
        <time>2018-04-03T11:19:09Z</time>
      </trkpt>
      <trkpt lat="62.641000021337" lon="17.987379787539">
        <ele>47</ele>
        <time>2018-04-03T11:19:10Z</time>
      </trkpt>
      <trkpt lat="62.640990214514" lon="17.987452710069">
        <ele>47</ele>
        <time>2018-04-03T11:19:11Z</time>
      </trkpt>
      <trkpt lat="62.640965320271" lon="17.987567039185">
        <ele>47</ele>
        <time>2018-04-03T11:19:12Z</time>
      </trkpt>
      <trkpt lat="62.640953585611" lon="17.987656809334">
        <ele>47</ele>
        <time>2018-04-03T11:19:13Z</time>
      </trkpt>
      <trkpt lat="62.640942521503" lon="17.987745908931">
        <ele>47</ele>
        <time>2018-04-03T11:19:14Z</time>
      </trkpt>
      <trkpt lat="62.640941515675" lon="17.987831655768">
        <ele>47</ele>
        <time>2018-04-03T11:19:15Z</time>
      </trkpt>
      <trkpt lat="62.640924416599" lon="17.987905500307">
        <ele>46.8</ele>
        <time>2018-04-03T11:19:16Z</time>
      </trkpt>
      <trkpt lat="62.640896421053" lon="17.987991498601">
        <ele>46.8</ele>
        <time>2018-04-03T11:19:17Z</time>
      </trkpt>
      <trkpt lat="62.640880663081" lon="17.988067270977">
        <ele>46.6</ele>
        <time>2018-04-03T11:19:18Z</time>
      </trkpt>
      <trkpt lat="62.640867503498" lon="17.988132649797">
        <ele>46.6</ele>
        <time>2018-04-03T11:19:19Z</time>
      </trkpt>
      <trkpt lat="62.64085224844" lon="17.988200375549">
        <ele>46.6</ele>
        <time>2018-04-03T11:19:20Z</time>
      </trkpt>
      <trkpt lat="62.640840178504" lon="17.988266341102">
        <ele>46.6</ele>
        <time>2018-04-03T11:19:21Z</time>
      </trkpt>
      <trkpt lat="62.640832718613" lon="17.988355273061">
        <ele>46.8</ele>
        <time>2018-04-03T11:19:22Z</time>
      </trkpt>
      <trkpt lat="62.640817547374" lon="17.988420568062">
        <ele>46.8</ele>
        <time>2018-04-03T11:19:23Z</time>
      </trkpt>
      <trkpt lat="62.640795586796" lon="17.98847773262">
        <ele>46.8</ele>
        <time>2018-04-03T11:19:24Z</time>
      </trkpt>
      <trkpt lat="62.640779577367" lon="17.988521821414">
        <ele>46.6</ele>
        <time>2018-04-03T11:19:25Z</time>
      </trkpt>
      <trkpt lat="62.640756527142" lon="17.988570687891">
        <ele>46.8</ele>
        <time>2018-04-03T11:19:26Z</time>
      </trkpt>
      <trkpt lat="62.640741774998" lon="17.988599689265">
        <ele>46.8</ele>
        <time>2018-04-03T11:19:27Z</time>
      </trkpt>
      <trkpt lat="62.64070640338" lon="17.988659368393">
        <ele>46.8</ele>
        <time>2018-04-03T11:19:28Z</time>
      </trkpt>
      <trkpt lat="62.640686622096" lon="17.988695410563">
        <ele>47</ele>
        <time>2018-04-03T11:19:29Z</time>
      </trkpt>
      <trkpt lat="62.640671115581" lon="17.98873002781">
        <ele>47</ele>
        <time>2018-04-03T11:19:30Z</time>
      </trkpt>
      <trkpt lat="62.640661560215" lon="17.988762046668">
        <ele>47</ele>
        <time>2018-04-03T11:19:31Z</time>
      </trkpt>
      <trkpt lat="62.64063348085" lon="17.988814433543">
        <ele>47</ele>
        <time>2018-04-03T11:19:32Z</time>
      </trkpt>
      <trkpt lat="62.640625015131" lon="17.988851397722">
        <ele>47</ele>
        <time>2018-04-03T11:19:33Z</time>
      </trkpt>
      <trkpt lat="62.640590146427" lon="17.988907891728">
        <ele>47.2</ele>
        <time>2018-04-03T11:19:34Z</time>
      </trkpt>
      <trkpt lat="62.640571622428" lon="17.988955165644">
        <ele>47.6</ele>
        <time>2018-04-03T11:19:35Z</time>
      </trkpt>
      <trkpt lat="62.640558546664" lon="17.988993638565">
        <ele>47.6</ele>
        <time>2018-04-03T11:19:36Z</time>
      </trkpt>
      <trkpt lat="62.640523845598" lon="17.989057173367">
        <ele>47.8</ele>
        <time>2018-04-03T11:19:37Z</time>
      </trkpt>
      <trkpt lat="62.640499035174" lon="17.989109811699">
        <ele>48</ele>
        <time>2018-04-03T11:19:38Z</time>
      </trkpt>
      <trkpt lat="62.640482690469" lon="17.989160522194">
        <ele>48.2</ele>
        <time>2018-04-03T11:19:39Z</time>
      </trkpt>
      <trkpt lat="62.640475733492" lon="17.989188350102">
        <ele>48.2</ele>
        <time>2018-04-03T11:19:40Z</time>
      </trkpt>
      <trkpt lat="62.64045662276" lon="17.989248615963">
        <ele>48.2</ele>
        <time>2018-04-03T11:19:41Z</time>
      </trkpt>
      <trkpt lat="62.640425777368" lon="17.989295889879">
        <ele>48.2</ele>
        <time>2018-04-03T11:19:42Z</time>
      </trkpt>
      <trkpt lat="62.640404906437" lon="17.989330339488">
        <ele>48.4</ele>
        <time>2018-04-03T11:19:43Z</time>
      </trkpt>
      <trkpt lat="62.64037867109" lon="17.989378116318">
        <ele>48.4</ele>
        <time>2018-04-03T11:19:44Z</time>
      </trkpt>
      <trkpt lat="62.64036023091" lon="17.989421786017">
        <ele>48.6</ele>
        <time>2018-04-03T11:19:45Z</time>
      </trkpt>
      <trkpt lat="62.640339024703" lon="17.98946176768">
        <ele>48.8</ele>
        <time>2018-04-03T11:19:46Z</time>
      </trkpt>
      <trkpt lat="62.640312286442" lon="17.989519938066">
        <ele>49</ele>
        <time>2018-04-03T11:19:47Z</time>
      </trkpt>
      <trkpt lat="62.640295103547" lon="17.989569139819">
        <ele>49</ele>
        <time>2018-04-03T11:19:48Z</time>
      </trkpt>
      <trkpt lat="62.640277585376" lon="17.989618844486">
        <ele>49</ele>
        <time>2018-04-03T11:19:49Z</time>
      </trkpt>
      <trkpt lat="62.640260402481" lon="17.989669219705">
        <ele>49</ele>
        <time>2018-04-03T11:19:50Z</time>
      </trkpt>
      <trkpt lat="62.640249673649" lon="17.989715571612">
        <ele>49.2</ele>
        <time>2018-04-03T11:19:51Z</time>
      </trkpt>
      <trkpt lat="62.640229724727" lon="17.989769970143">
        <ele>49.2</ele>
        <time>2018-04-03T11:19:52Z</time>
      </trkpt>
      <trkpt lat="62.640218241524" lon="17.989822021742">
        <ele>49.2</ele>
        <time>2018-04-03T11:19:53Z</time>
      </trkpt>
      <trkpt lat="62.64020516576" lon="17.989872816056">
        <ele>49.2</ele>
        <time>2018-04-03T11:19:54Z</time>
      </trkpt>
      <trkpt lat="62.640198879335" lon="17.98992361037">
        <ele>49.4</ele>
        <time>2018-04-03T11:19:55Z</time>
      </trkpt>
      <trkpt lat="62.64017499092" lon="17.989971135743">
        <ele>49.6</ele>
        <time>2018-04-03T11:19:56Z</time>
      </trkpt>
      <trkpt lat="62.640170129418" lon="17.990037436572">
        <ele>49.8</ele>
        <time>2018-04-03T11:19:57Z</time>
      </trkpt>
      <trkpt lat="62.640154958179" lon="17.990091499827">
        <ele>50</ele>
        <time>2018-04-03T11:19:58Z</time>
      </trkpt>
      <trkpt lat="62.640144480804" lon="17.990141036856">
        <ele>50.2</ele>
        <time>2018-04-03T11:19:59Z</time>
      </trkpt>
      <trkpt lat="62.640130231574" lon="17.990190238609">
        <ele>50.6</ele>
        <time>2018-04-03T11:20:00Z</time>
      </trkpt>
      <trkpt lat="62.640118329276" lon="17.990237009611">
        <ele>50.6</ele>
        <time>2018-04-03T11:20:01Z</time>
      </trkpt>
      <trkpt lat="62.64009703925" lon="17.990290905228">
        <ele>50.8</ele>
        <time>2018-04-03T11:20:02Z</time>
      </trkpt>
      <trkpt lat="62.64008865735" lon="17.990339436429">
        <ele>50.8</ele>
        <time>2018-04-03T11:20:03Z</time>
      </trkpt>
      <trkpt lat="62.640065104211" lon="17.990390901295">
        <ele>51</ele>
        <time>2018-04-03T11:20:04Z</time>
      </trkpt>
      <trkpt lat="62.640044736194" lon="17.990440186867">
        <ele>51</ele>
        <time>2018-04-03T11:20:05Z</time>
      </trkpt>
      <trkpt lat="62.640027385661" lon="17.990485113851">
        <ele>51</ele>
        <time>2018-04-03T11:20:06Z</time>
      </trkpt>
      <trkpt lat="62.640006850006" lon="17.990537416907">
        <ele>51.4</ele>
        <time>2018-04-03T11:20:07Z</time>
      </trkpt>
      <trkpt lat="62.63998555998" lon="17.990590725791">
        <ele>51.2</ele>
        <time>2018-04-03T11:20:08Z</time>
      </trkpt>
      <trkpt lat="62.639964437592" lon="17.990638167345">
        <ele>51.4</ele>
        <time>2018-04-03T11:20:09Z</time>
      </trkpt>
      <trkpt lat="62.639944991584" lon="17.990688961659">
        <ele>51.6</ele>
        <time>2018-04-03T11:20:10Z</time>
      </trkpt>
      <trkpt lat="62.63993191582" lon="17.990740929439">
        <ele>51.6</ele>
        <time>2018-04-03T11:20:11Z</time>
      </trkpt>
      <trkpt lat="62.639908111224" lon="17.990784180043">
        <ele>51.6</ele>
        <time>2018-04-03T11:20:12Z</time>
      </trkpt>
      <trkpt lat="62.639891431243" lon="17.990822317688">
        <ele>51.8</ele>
        <time>2018-04-03T11:20:13Z</time>
      </trkpt>
      <trkpt lat="62.63988078623" lon="17.990859114229">
        <ele>51.8</ele>
        <time>2018-04-03T11:20:14Z</time>
      </trkpt>
      <trkpt lat="62.639876511461" lon="17.990899514987">
        <ele>51.8</ele>
        <time>2018-04-03T11:20:15Z</time>
      </trkpt>
      <trkpt lat="62.639853880331" lon="17.990930947112">
        <ele>51.6</ele>
        <time>2018-04-03T11:20:16Z</time>
      </trkpt>
      <trkpt lat="62.639828315536" lon="17.990981909064">
        <ele>51.8</ele>
        <time>2018-04-03T11:20:17Z</time>
      </trkpt>
      <trkpt lat="62.639811887012" lon="17.991029518256">
        <ele>52</ele>
        <time>2018-04-03T11:20:18Z</time>
      </trkpt>
      <trkpt lat="62.639800068533" lon="17.991079977294">
        <ele>52</ele>
        <time>2018-04-03T11:20:19Z</time>
      </trkpt>
      <trkpt lat="62.639786657493" lon="17.991126999753">
        <ele>52.2</ele>
        <time>2018-04-03T11:20:20Z</time>
      </trkpt>
      <trkpt lat="62.63977517429" lon="17.99117167528">
        <ele>52.2</ele>
        <time>2018-04-03T11:20:21Z</time>
      </trkpt>
      <trkpt lat="62.639764864553" lon="17.991229258933">
        <ele>52.4</ele>
        <time>2018-04-03T11:20:22Z</time>
      </trkpt>
      <trkpt lat="62.639757823757" lon="17.991284411835">
        <ele>52.6</ele>
        <time>2018-04-03T11:20:23Z</time>
      </trkpt>
      <trkpt lat="62.639754722454" lon="17.991340067651">
        <ele>52.8</ele>
        <time>2018-04-03T11:20:24Z</time>
      </trkpt>
      <trkpt lat="62.639747933115" lon="17.991388850309">
        <ele>52.8</ele>
        <time>2018-04-03T11:20:25Z</time>
      </trkpt>
      <trkpt lat="62.639743490708" lon="17.991439476985">
        <ele>52.8</ele>
        <time>2018-04-03T11:20:26Z</time>
      </trkpt>
      <trkpt lat="62.639745670002" lon="17.991492534412">
        <ele>53</ele>
        <time>2018-04-03T11:20:27Z</time>
      </trkpt>
      <trkpt lat="62.639724547614" lon="17.991546094753">
        <ele>53.4</ele>
        <time>2018-04-03T11:20:28Z</time>
      </trkpt>
      <trkpt lat="62.639714992248" lon="17.991597559619">
        <ele>53.6</ele>
        <time>2018-04-03T11:20:29Z</time>
      </trkpt>
      <trkpt lat="62.63970560452" lon="17.991651036141">
        <ele>53.6</ele>
        <time>2018-04-03T11:20:30Z</time>
      </trkpt>
      <trkpt lat="62.639701748846" lon="17.991701830455">
        <ele>53.8</ele>
        <time>2018-04-03T11:20:31Z</time>
      </trkpt>
      <trkpt lat="62.63969219348" lon="17.991758073004">
        <ele>53.6</ele>
        <time>2018-04-03T11:20:32Z</time>
      </trkpt>
      <trkpt lat="62.639680542639" lon="17.991815069924">
        <ele>54</ele>
        <time>2018-04-03T11:20:33Z</time>
      </trkpt>
      <trkpt lat="62.639666963961" lon="17.991878353269">
        <ele>54</ele>
        <time>2018-04-03T11:20:34Z</time>
      </trkpt>
      <trkpt lat="62.639660761355" lon="17.991939205863">
        <ele>54</ele>
        <time>2018-04-03T11:20:35Z</time>
      </trkpt>
      <trkpt lat="62.639660928993" lon="17.992000226095">
        <ele>54</ele>
        <time>2018-04-03T11:20:36Z</time>
      </trkpt>
      <trkpt lat="62.639645673935" lon="17.992059905223">
        <ele>54.2</ele>
        <time>2018-04-03T11:20:37Z</time>
      </trkpt>
      <trkpt lat="62.639643159365" lon="17.992113130288">
        <ele>54.2</ele>
        <time>2018-04-03T11:20:38Z</time>
      </trkpt>
      <trkpt lat="62.639617762208" lon="17.99218337061">
        <ele>54.2</ele>
        <time>2018-04-03T11:20:39Z</time>
      </trkpt>
      <trkpt lat="62.639615834371" lon="17.992231231259">
        <ele>54.2</ele>
        <time>2018-04-03T11:20:40Z</time>
      </trkpt>
      <trkpt lat="62.639603932073" lon="17.992295939527">
        <ele>54.2</ele>
        <time>2018-04-03T11:20:41Z</time>
      </trkpt>
      <trkpt lat="62.639590269576" lon="17.992357295035">
        <ele>54.2</ele>
        <time>2018-04-03T11:20:42Z</time>
      </trkpt>
      <trkpt lat="62.63958406697" lon="17.992407502616">
        <ele>54.2</ele>
        <time>2018-04-03T11:20:43Z</time>
      </trkpt>
      <trkpt lat="62.639581133305" lon="17.992470366866">
        <ele>54.2</ele>
        <time>2018-04-03T11:20:44Z</time>
      </trkpt>
      <trkpt lat="62.639567470808" lon="17.99250775014">
        <ele>54.4</ele>
        <time>2018-04-03T11:20:45Z</time>
      </trkpt>
      <trkpt lat="62.63958071421" lon="17.992587629647">
        <ele>54.4</ele>
        <time>2018-04-03T11:20:46Z</time>
      </trkpt>
      <trkpt lat="62.639578870192" lon="17.992640687074">
        <ele>54.6</ele>
        <time>2018-04-03T11:20:47Z</time>
      </trkpt>
      <trkpt lat="62.639578451097" lon="17.992704138057">
        <ele>54.8</ele>
        <time>2018-04-03T11:20:48Z</time>
      </trkpt>
      <trkpt lat="62.639578702554" lon="17.99277848551">
        <ele>54.8</ele>
        <time>2018-04-03T11:20:49Z</time>
      </trkpt>
      <trkpt lat="62.639571577939" lon="17.992867668926">
        <ele>54.8</ele>
        <time>2018-04-03T11:20:50Z</time>
      </trkpt>
      <trkpt lat="62.639577277631" lon="17.992929443529">
        <ele>54.8</ele>
        <time>2018-04-03T11:20:51Z</time>
      </trkpt>
      <trkpt lat="62.639571075025" lon="17.992994235616">
        <ele>54.8</ele>
        <time>2018-04-03T11:20:52Z</time>
      </trkpt>
      <trkpt lat="62.639565542971" lon="17.993059446798">
        <ele>54.8</ele>
        <time>2018-04-03T11:20:53Z</time>
      </trkpt>
      <trkpt lat="62.639548611533" lon="17.993127424007">
        <ele>54.8</ele>
        <time>2018-04-03T11:20:54Z</time>
      </trkpt>
      <trkpt lat="62.639554227406" lon="17.99317578757">
        <ele>54.8</ele>
        <time>2018-04-03T11:20:55Z</time>
      </trkpt>
      <trkpt lat="62.639551126103" lon="17.993221217468">
        <ele>54.8</ele>
        <time>2018-04-03T11:20:56Z</time>
      </trkpt>
      <trkpt lat="62.639549868818" lon="17.993276873284">
        <ele>55</ele>
        <time>2018-04-03T11:20:57Z</time>
      </trkpt>
      <trkpt lat="62.639542828022" lon="17.993347029787">
        <ele>55</ele>
        <time>2018-04-03T11:20:58Z</time>
      </trkpt>
      <trkpt lat="62.63953880471" lon="17.99340964258">
        <ele>55</ele>
        <time>2018-04-03T11:20:59Z</time>
      </trkpt>
      <trkpt lat="62.63955556851" lon="17.993463454378">
        <ele>55.2</ele>
        <time>2018-04-03T11:21:00Z</time>
      </trkpt>
      <trkpt lat="62.639533272656" lon="17.993536376908">
        <ele>55.4</ele>
        <time>2018-04-03T11:21:01Z</time>
      </trkpt>
      <trkpt lat="62.639525226032" lon="17.993595553122">
        <ele>55.4</ele>
        <time>2018-04-03T11:21:02Z</time>
      </trkpt>
      <trkpt lat="62.639507288766" lon="17.993667386005">
        <ele>55.4</ele>
        <time>2018-04-03T11:21:03Z</time>
      </trkpt>
      <trkpt lat="62.639501002341" lon="17.993730166436">
        <ele>55.6</ele>
        <time>2018-04-03T11:21:04Z</time>
      </trkpt>
      <trkpt lat="62.639480047591" lon="17.9937851517">
        <ele>55.4</ele>
        <time>2018-04-03T11:21:05Z</time>
      </trkpt>
      <trkpt lat="62.639459847212" lon="17.993834940186">
        <ele>55.6</ele>
        <time>2018-04-03T11:21:06Z</time>
      </trkpt>
      <trkpt lat="62.639426068155" lon="17.993875927677">
        <ele>55.4</ele>
        <time>2018-04-03T11:21:07Z</time>
      </trkpt>
      <trkpt lat="62.639405029586" lon="17.993918759186">
        <ele>55.6</ele>
        <time>2018-04-03T11:21:08Z</time>
      </trkpt>
      <trkpt lat="62.63937787223" lon="17.993971732794">
        <ele>55.8</ele>
        <time>2018-04-03T11:21:09Z</time>
      </trkpt>
      <trkpt lat="62.639355744014" lon="17.994012720285">
        <ele>56</ele>
        <time>2018-04-03T11:21:10Z</time>
      </trkpt>
      <trkpt lat="62.639339399309" lon="17.994068376101">
        <ele>56</ele>
        <time>2018-04-03T11:21:11Z</time>
      </trkpt>
      <trkpt lat="62.639316181446" lon="17.994113889818">
        <ele>56.4</ele>
        <time>2018-04-03T11:21:12Z</time>
      </trkpt>
      <trkpt lat="62.639305033519" lon="17.994161582829">
        <ele>56.6</ele>
        <time>2018-04-03T11:21:13Z</time>
      </trkpt>
      <trkpt lat="62.639283743493" lon="17.99420843765">
        <ele>56.6</ele>
        <time>2018-04-03T11:21:14Z</time>
      </trkpt>
      <trkpt lat="62.639277205611" lon="17.994263003819">
        <ele>56.8</ele>
        <time>2018-04-03T11:21:15Z</time>
      </trkpt>
      <trkpt lat="62.639258597793" lon="17.994301979654">
        <ele>56.8</ele>
        <time>2018-04-03T11:21:16Z</time>
      </trkpt>
      <trkpt lat="62.639253065739" lon="17.994355456176">
        <ele>56.8</ele>
        <time>2018-04-03T11:21:17Z</time>
      </trkpt>
      <trkpt lat="62.639243845649" lon="17.994416560227">
        <ele>57</ele>
        <time>2018-04-03T11:21:18Z</time>
      </trkpt>
      <trkpt lat="62.639226578935" lon="17.994480178848">
        <ele>57.2</ele>
        <time>2018-04-03T11:21:19Z</time>
      </trkpt>
      <trkpt lat="62.639195817362" lon="17.99452778804">
        <ele>57.2</ele>
        <time>2018-04-03T11:21:20Z</time>
      </trkpt>
      <trkpt lat="62.639190285308" lon="17.994579085268">
        <ele>57.6</ele>
        <time>2018-04-03T11:21:21Z</time>
      </trkpt>
      <trkpt lat="62.639165977798" lon="17.994629544306">
        <ele>57.8</ele>
        <time>2018-04-03T11:21:22Z</time>
      </trkpt>
      <trkpt lat="62.63914904636" lon="17.99468117681">
        <ele>57.8</ele>
        <time>2018-04-03T11:21:23Z</time>
      </trkpt>
      <trkpt lat="62.639125828497" lon="17.994725349423">
        <ele>58</ele>
        <time>2018-04-03T11:21:24Z</time>
      </trkpt>
      <trkpt lat="62.639110154344" lon="17.994760721041">
        <ele>58.2</ele>
        <time>2018-04-03T11:21:25Z</time>
      </trkpt>
      <trkpt lat="62.639079728047" lon="17.994824842576">
        <ele>58.2</ele>
        <time>2018-04-03T11:21:26Z</time>
      </trkpt>
      <trkpt lat="62.639066233188" lon="17.994895166717">
        <ele>58.4</ele>
        <time>2018-04-03T11:21:27Z</time>
      </trkpt>
      <trkpt lat="62.639044188791" lon="17.99492592829">
        <ele>58.4</ele>
        <time>2018-04-03T11:21:28Z</time>
      </trkpt>
      <trkpt lat="62.639022647308" lon="17.994981081192">
        <ele>58.6</ele>
        <time>2018-04-03T11:21:29Z</time>
      </trkpt>
      <trkpt lat="62.638991382821" lon="17.995017291">
        <ele>58.8</ele>
        <time>2018-04-03T11:21:30Z</time>
      </trkpt>
      <trkpt lat="62.638982498007" lon="17.995062050346">
        <ele>58.8</ele>
        <time>2018-04-03T11:21:31Z</time>
      </trkpt>
      <trkpt lat="62.638958944868" lon="17.995079149422">
        <ele>58.8</ele>
        <time>2018-04-03T11:21:32Z</time>
      </trkpt>
      <trkpt lat="62.638939582679" lon="17.99513966674">
        <ele>59</ele>
        <time>2018-04-03T11:21:33Z</time>
      </trkpt>
      <trkpt lat="62.638920388128" lon="17.995168332838">
        <ele>59</ele>
        <time>2018-04-03T11:21:34Z</time>
      </trkpt>
      <trkpt lat="62.638894488057" lon="17.995219378609">
        <ele>59.2</ele>
        <time>2018-04-03T11:21:35Z</time>
      </trkpt>
      <trkpt lat="62.63888669289" lon="17.995249553449">
        <ele>59.2</ele>
        <time>2018-04-03T11:21:36Z</time>
      </trkpt>
      <trkpt lat="62.638849644892" lon="17.995299258116">
        <ele>59</ele>
        <time>2018-04-03T11:21:37Z</time>
      </trkpt>
      <trkpt lat="62.638825002106" lon="17.995339742693">
        <ele>59.2</ele>
        <time>2018-04-03T11:21:38Z</time>
      </trkpt>
      <trkpt lat="62.63880035932" lon="17.995373018836">
        <ele>59.4</ele>
        <time>2018-04-03T11:21:39Z</time>
      </trkpt>
      <trkpt lat="62.638784182253" lon="17.99541794582">
        <ele>59.6</ele>
        <time>2018-04-03T11:21:40Z</time>
      </trkpt>
      <trkpt lat="62.638754510327" lon="17.99544979704">
        <ele>59.6</ele>
        <time>2018-04-03T11:21:41Z</time>
      </trkpt>
      <trkpt lat="62.638730035179" lon="17.995499166431">
        <ele>59.6</ele>
        <time>2018-04-03T11:21:42Z</time>
      </trkpt>
      <trkpt lat="62.638709499524" lon="17.995536465886">
        <ele>59.6</ele>
        <time>2018-04-03T11:21:43Z</time>
      </trkpt>
      <trkpt lat="62.638691478439" lon="17.995573765341">
        <ele>59.8</ele>
        <time>2018-04-03T11:21:44Z</time>
      </trkpt>
      <trkpt lat="62.638674044087" lon="17.995604024">
        <ele>59.8</ele>
        <time>2018-04-03T11:21:45Z</time>
      </trkpt>
      <trkpt lat="62.638657280287" lon="17.99567024101">
        <ele>59.8</ele>
        <time>2018-04-03T11:21:46Z</time>
      </trkpt>
      <trkpt lat="62.638641438496" lon="17.995715335632">
        <ele>60.2</ele>
        <time>2018-04-03T11:21:47Z</time>
      </trkpt>
      <trkpt lat="62.638616041339" lon="17.995754311467">
        <ele>60.4</ele>
        <time>2018-04-03T11:21:48Z</time>
      </trkpt>
      <trkpt lat="62.638600786281" lon="17.995800411917">
        <ele>60.4</ele>
        <time>2018-04-03T11:21:49Z</time>
      </trkpt>
      <trkpt lat="62.638573545106" lon="17.995838465743">
        <ele>60.8</ele>
        <time>2018-04-03T11:21:50Z</time>
      </trkpt>
      <trkpt lat="62.638567007224" lon="17.995881883985">
        <ele>61</ele>
        <time>2018-04-03T11:21:51Z</time>
      </trkpt>
      <trkpt lat="62.638550411062" lon="17.995918261431">
        <ele>61</ele>
        <time>2018-04-03T11:21:52Z</time>
      </trkpt>
      <trkpt lat="62.638529791588" lon="17.995968049917">
        <ele>61.2</ele>
        <time>2018-04-03T11:21:53Z</time>
      </trkpt>
      <trkpt lat="62.638509423571" lon="17.995996799834">
        <ele>61.2</ele>
        <time>2018-04-03T11:21:54Z</time>
      </trkpt>
      <trkpt lat="62.63849777273" lon="17.996021777896">
        <ele>61.2</ele>
        <time>2018-04-03T11:21:55Z</time>
      </trkpt>
      <trkpt lat="62.638479584007" lon="17.996042145913">
        <ele>61.4</ele>
        <time>2018-04-03T11:21:56Z</time>
      </trkpt>
      <trkpt lat="62.638461562922" lon="17.996076176427">
        <ele>61.2</ele>
        <time>2018-04-03T11:21:57Z</time>
      </trkpt>
      <trkpt lat="62.63844664314" lon="17.996107524733">
        <ele>61.2</ele>
        <time>2018-04-03T11:21:58Z</time>
      </trkpt>
      <trkpt lat="62.638419485784" lon="17.996169215517">
        <ele>61.4</ele>
        <time>2018-04-03T11:21:59Z</time>
      </trkpt>
      <trkpt lat="62.638400458871" lon="17.996205928239">
        <ele>61.4</ele>
        <time>2018-04-03T11:22:00Z</time>
      </trkpt>
      <trkpt lat="62.638385036175" lon="17.99624775392">
        <ele>61.6</ele>
        <time>2018-04-03T11:22:01Z</time>
      </trkpt>
      <trkpt lat="62.63836114776" lon="17.996290417791">
        <ele>61.6</ele>
        <time>2018-04-03T11:22:02Z</time>
      </trkpt>
      <trkpt lat="62.638351760032" lon="17.996323442477">
        <ele>61.6</ele>
        <time>2018-04-03T11:22:03Z</time>
      </trkpt>
      <trkpt lat="62.638337594621" lon="17.996367447452">
        <ele>61.8</ele>
        <time>2018-04-03T11:22:04Z</time>
      </trkpt>
      <trkpt lat="62.63831169455" lon="17.996416649205">
        <ele>62</ele>
        <time>2018-04-03T11:22:05Z</time>
      </trkpt>
      <trkpt lat="62.638297110044" lon="17.996444560932">
        <ele>62.2</ele>
        <time>2018-04-03T11:22:06Z</time>
      </trkpt>
      <trkpt lat="62.638279591873" lon="17.996496025798">
        <ele>62.2</ele>
        <time>2018-04-03T11:22:07Z</time>
      </trkpt>
      <trkpt lat="62.638253440345" lon="17.996543718809">
        <ele>62.4</ele>
        <time>2018-04-03T11:22:08Z</time>
      </trkpt>
      <trkpt lat="62.63823122831" lon="17.996587723784">
        <ele>62.6</ele>
        <time>2018-04-03T11:22:09Z</time>
      </trkpt>
      <trkpt lat="62.63823039012" lon="17.996630387655">
        <ele>62.6</ele>
        <time>2018-04-03T11:22:10Z</time>
      </trkpt>
      <trkpt lat="62.638194934683" lon="17.996673302983">
        <ele>62.8</ele>
        <time>2018-04-03T11:22:11Z</time>
      </trkpt>
      <trkpt lat="62.638202897488" lon="17.996716050673">
        <ele>62.8</ele>
        <time>2018-04-03T11:22:12Z</time>
      </trkpt>
      <trkpt lat="62.638164005472" lon="17.996756032336">
        <ele>63</ele>
        <time>2018-04-03T11:22:13Z</time>
      </trkpt>
      <trkpt lat="62.638143888912" lon="17.996790481945">
        <ele>62.8</ele>
        <time>2018-04-03T11:22:14Z</time>
      </trkpt>
      <trkpt lat="62.638127041293" lon="17.996810263229">
        <ele>63</ele>
        <time>2018-04-03T11:22:15Z</time>
      </trkpt>
      <trkpt lat="62.638100889765" lon="17.996832642902">
        <ele>63</ele>
        <time>2018-04-03T11:22:16Z</time>
      </trkpt>
      <trkpt lat="62.638077336626" lon="17.996867930701">
        <ele>63.2</ele>
        <time>2018-04-03T11:22:17Z</time>
      </trkpt>
      <trkpt lat="62.638049005804" lon="17.99687639642">
        <ele>63.2</ele>
        <time>2018-04-03T11:22:18Z</time>
      </trkpt>
      <trkpt lat="62.638030733262" lon="17.996918641196">
        <ele>63.4</ele>
        <time>2018-04-03T11:22:19Z</time>
      </trkpt>
      <trkpt lat="62.638006090476" lon="17.996939847403">
        <ele>63.4</ele>
        <time>2018-04-03T11:22:20Z</time>
      </trkpt>
      <trkpt lat="62.63799234416" lon="17.99697362646">
        <ele>63.6</ele>
        <time>2018-04-03T11:22:21Z</time>
      </trkpt>
      <trkpt lat="62.637975245084" lon="17.997020062186">
        <ele>63.8</ele>
        <time>2018-04-03T11:22:22Z</time>
      </trkpt>
      <trkpt lat="62.637945154063" lon="17.997064067161">
        <ele>64</ele>
        <time>2018-04-03T11:22:23Z</time>
      </trkpt>
      <trkpt lat="62.63793618543" lon="17.997123327194">
        <ele>64.2</ele>
        <time>2018-04-03T11:22:24Z</time>
      </trkpt>
      <trkpt lat="62.63790433421" lon="17.997148221437">
        <ele>64.4</ele>
        <time>2018-04-03T11:22:25Z</time>
      </trkpt>
      <trkpt lat="62.637897796328" lon="17.99718065939">
        <ele>64.4</ele>
        <time>2018-04-03T11:22:26Z</time>
      </trkpt>
      <trkpt lat="62.637876757759" lon="17.997218629397">
        <ele>64.4</ele>
        <time>2018-04-03T11:22:27Z</time>
      </trkpt>
      <trkpt lat="62.637859993959" lon="17.997281912742">
        <ele>64.6</ele>
        <time>2018-04-03T11:22:28Z</time>
      </trkpt>
      <trkpt lat="62.637831076404" lon="17.997327677916">
        <ele>64.6</ele>
        <time>2018-04-03T11:22:29Z</time>
      </trkpt>
      <trkpt lat="62.637806349799" lon="17.997395487487">
        <ele>64.6</ele>
        <time>2018-04-03T11:22:30Z</time>
      </trkpt>
      <trkpt lat="62.637788496352" lon="17.997439911557">
        <ele>64.6</ele>
        <time>2018-04-03T11:22:31Z</time>
      </trkpt>
      <trkpt lat="62.637770894362" lon="17.99750503892">
        <ele>64.6</ele>
        <time>2018-04-03T11:22:32Z</time>
      </trkpt>
      <trkpt lat="62.637758740607" lon="17.997551390827">
        <ele>64.8</ele>
        <time>2018-04-03T11:22:33Z</time>
      </trkpt>
      <trkpt lat="62.637737366762" lon="17.997618362208">
        <ele>64.8</ele>
        <time>2018-04-03T11:22:34Z</time>
      </trkpt>
      <trkpt lat="62.637726135016" lon="17.997668737427">
        <ele>64.8</ele>
        <time>2018-04-03T11:22:35Z</time>
      </trkpt>
      <trkpt lat="62.637715573822" lon="17.997741995233">
        <ele>65</ele>
        <time>2018-04-03T11:22:36Z</time>
      </trkpt>
      <trkpt lat="62.63770149223" lon="17.99780678732">
        <ele>65</ele>
        <time>2018-04-03T11:22:37Z</time>
      </trkpt>
      <trkpt lat="62.637689254656" lon="17.997871663226">
        <ele>64.8</ele>
        <time>2018-04-03T11:22:38Z</time>
      </trkpt>
      <trkpt lat="62.637656649065" lon="17.997936874408">
        <ele>64.8</ele>
        <time>2018-04-03T11:22:39Z</time>
      </trkpt>
      <trkpt lat="62.637625803673" lon="17.998004683979">
        <ele>64.8</ele>
        <time>2018-04-03T11:22:40Z</time>
      </trkpt>
      <trkpt lat="62.637602921086" lon="17.998052963723">
        <ele>64.8</ele>
        <time>2018-04-03T11:22:41Z</time>
      </trkpt>
      <trkpt lat="62.6375782783" lon="17.998101411105">
        <ele>65</ele>
        <time>2018-04-03T11:22:42Z</time>
      </trkpt>
      <trkpt lat="62.63754977984" lon="17.99814206332">
        <ele>65</ele>
        <time>2018-04-03T11:22:43Z</time>
      </trkpt>
      <trkpt lat="62.637516671335" lon="17.998203837923">
        <ele>65</ele>
        <time>2018-04-03T11:22:44Z</time>
      </trkpt>
      <trkpt lat="62.637478366052" lon="17.998256140979">
        <ele>65</ele>
        <time>2018-04-03T11:22:45Z</time>
      </trkpt>
      <trkpt lat="62.637446598651" lon="17.998285645267">
        <ele>65</ele>
        <time>2018-04-03T11:22:46Z</time>
      </trkpt>
      <trkpt lat="62.637429751032" lon="17.998332248631">
        <ele>65.2</ele>
        <time>2018-04-03T11:22:47Z</time>
      </trkpt>
      <trkpt lat="62.63739722926" lon="17.998371308285">
        <ele>65.4</ele>
        <time>2018-04-03T11:22:48Z</time>
      </trkpt>
      <trkpt lat="62.637376190691" lon="17.998423359884">
        <ele>65.6</ele>
        <time>2018-04-03T11:22:49Z</time>
      </trkpt>
      <trkpt lat="62.637355152122" lon="17.998472477818">
        <ele>65.8</ele>
        <time>2018-04-03T11:22:50Z</time>
      </trkpt>
      <trkpt lat="62.63733185044" lon="17.998533581869">
        <ele>66</ele>
        <time>2018-04-03T11:22:51Z</time>
      </trkpt>
      <trkpt lat="62.637327156576" lon="17.998579682319">
        <ele>66</ele>
        <time>2018-04-03T11:22:52Z</time>
      </trkpt>
      <trkpt lat="62.637293126062" lon="17.998645061139">
        <ele>66</ele>
        <time>2018-04-03T11:22:53Z</time>
      </trkpt>
      <trkpt lat="62.637277200452" lon="17.998704991724">
        <ele>66</ele>
        <time>2018-04-03T11:22:54Z</time>
      </trkpt>
      <trkpt lat="62.637248618173" lon="17.998743464645">
        <ele>66</ele>
        <time>2018-04-03T11:22:55Z</time>
      </trkpt>
      <trkpt lat="62.637226154681" lon="17.998792834036">
        <ele>66</ele>
        <time>2018-04-03T11:22:56Z</time>
      </trkpt>
      <trkpt lat="62.637201763352" lon="17.998817728279">
        <ele>66</ele>
        <time>2018-04-03T11:22:57Z</time>
      </trkpt>
      <trkpt lat="62.637178042575" lon="17.998870701887">
        <ele>66</ele>
        <time>2018-04-03T11:22:58Z</time>
      </trkpt>
      <trkpt lat="62.637147364821" lon="17.998907582247">
        <ele>66</ele>
        <time>2018-04-03T11:22:59Z</time>
      </trkpt>
      <trkpt lat="62.637121716207" lon="17.998943959693">
        <ele>66</ele>
        <time>2018-04-03T11:23:00Z</time>
      </trkpt>
      <trkpt lat="62.637106796425" lon="17.998990898333">
        <ele>66</ele>
        <time>2018-04-03T11:23:01Z</time>
      </trkpt>
      <trkpt lat="62.637082405096" lon="17.999027527236">
        <ele>66</ele>
        <time>2018-04-03T11:23:02Z</time>
      </trkpt>
      <trkpt lat="62.637055834473" lon="17.999066251614">
        <ele>66</ele>
        <time>2018-04-03T11:23:03Z</time>
      </trkpt>
      <trkpt lat="62.637041920519" lon="17.999095839721">
        <ele>66</ele>
        <time>2018-04-03T11:23:04Z</time>
      </trkpt>
      <trkpt lat="62.637011242765" lon="17.999122326525">
        <ele>66.2</ele>
        <time>2018-04-03T11:23:05Z</time>
      </trkpt>
      <trkpt lat="62.636989282187" lon="17.99914705313">
        <ele>66.4</ele>
        <time>2018-04-03T11:23:06Z</time>
      </trkpt>
      <trkpt lat="62.636976793156" lon="17.999187621526">
        <ele>66.6</ele>
        <time>2018-04-03T11:23:07Z</time>
      </trkpt>
      <trkpt lat="62.636954832578" lon="17.999228525198">
        <ele>67</ele>
        <time>2018-04-03T11:23:08Z</time>
      </trkpt>
      <trkpt lat="62.636926334118" lon="17.999260041142">
        <ele>67.2</ele>
        <time>2018-04-03T11:23:09Z</time>
      </trkpt>
      <trkpt lat="62.636904624997" lon="17.99928954543">
        <ele>67.4</ele>
        <time>2018-04-03T11:23:10Z</time>
      </trkpt>
      <trkpt lat="62.636872941415" lon="17.999314774949">
        <ele>67.8</ele>
        <time>2018-04-03T11:23:11Z</time>
      </trkpt>
      <trkpt lat="62.636850897018" lon="17.99934821873">
        <ele>68</ele>
        <time>2018-04-03T11:23:12Z</time>
      </trkpt>
      <trkpt lat="62.636819297255" lon="17.999381830149">
        <ele>68.2</ele>
        <time>2018-04-03T11:23:13Z</time>
      </trkpt>
      <trkpt lat="62.636792391356" lon="17.999432289187">
        <ele>68.2</ele>
        <time>2018-04-03T11:23:14Z</time>
      </trkpt>
      <trkpt lat="62.636782416895" lon="17.999473779592">
        <ele>68.6</ele>
        <time>2018-04-03T11:23:15Z</time>
      </trkpt>
      <trkpt lat="62.636754672806" lon="17.999522981345">
        <ele>68.6</ele>
        <time>2018-04-03T11:23:16Z</time>
      </trkpt>
      <trkpt lat="62.636724497966" lon="17.999573775659">
        <ele>68.4</ele>
        <time>2018-04-03T11:23:17Z</time>
      </trkpt>
      <trkpt lat="62.636698765533" lon="17.999626330172">
        <ele>68.4</ele>
        <time>2018-04-03T11:23:18Z</time>
      </trkpt>
      <trkpt lat="62.636689293986" lon="17.999680393427">
        <ele>68.6</ele>
        <time>2018-04-03T11:23:19Z</time>
      </trkpt>
      <trkpt lat="62.636667249589" lon="17.9997446826">
        <ele>68.6</ele>
        <time>2018-04-03T11:23:20Z</time>
      </trkpt>
      <trkpt lat="62.636648977047" lon="17.999809893782">
        <ele>68.6</ele>
        <time>2018-04-03T11:23:21Z</time>
      </trkpt>
      <trkpt lat="62.636646881572" lon="17.999831519084">
        <ele>68.6</ele>
        <time>2018-04-03T11:23:22Z</time>
      </trkpt>
      <trkpt lat="62.636632967618" lon="17.999885079425">
        <ele>68.6</ele>
        <time>2018-04-03T11:23:23Z</time>
      </trkpt>
      <trkpt lat="62.636613605429" lon="17.999953056634">
        <ele>68.6</ele>
        <time>2018-04-03T11:23:24Z</time>
      </trkpt>
      <trkpt lat="62.636606648452" lon="17.999989936994">
        <ele>68.4</ele>
        <time>2018-04-03T11:23:25Z</time>
      </trkpt>
      <trkpt lat="62.636581838028" lon="18.000052717425">
        <ele>68.4</ele>
        <time>2018-04-03T11:23:26Z</time>
      </trkpt>
      <trkpt lat="62.636578066173" lon="18.000090938889">
        <ele>68.4</ele>
        <time>2018-04-03T11:23:27Z</time>
      </trkpt>
      <trkpt lat="62.636579658734" lon="18.000157826451">
        <ele>68.4</ele>
        <time>2018-04-03T11:23:28Z</time>
      </trkpt>
      <trkpt lat="62.63655903926" lon="18.000218762864">
        <ele>68.4</ele>
        <time>2018-04-03T11:23:29Z</time>
      </trkpt>
      <trkpt lat="62.636542191641" lon="18.000289673738">
        <ele>68.4</ele>
        <time>2018-04-03T11:23:30Z</time>
      </trkpt>
      <trkpt lat="62.636523583823" lon="18.000345832468">
        <ele>68.4</ele>
        <time>2018-04-03T11:23:31Z</time>
      </trkpt>
      <trkpt lat="62.636500533598" lon="18.000410037822">
        <ele>68.4</ele>
        <time>2018-04-03T11:23:32Z</time>
      </trkpt>
      <trkpt lat="62.636483015427" lon="18.000480864877">
        <ele>68.6</ele>
        <time>2018-04-03T11:23:33Z</time>
      </trkpt>
      <trkpt lat="62.636464491428" lon="18.000529731354">
        <ele>68.4</ele>
        <time>2018-04-03T11:23:34Z</time>
      </trkpt>
      <trkpt lat="62.636451583302" lon="18.000576669994">
        <ele>68.6</ele>
        <time>2018-04-03T11:23:35Z</time>
      </trkpt>
      <trkpt lat="62.636432053475" lon="18.000618830951">
        <ele>68.6</ele>
        <time>2018-04-03T11:23:36Z</time>
      </trkpt>
      <trkpt lat="62.636404057929" lon="18.000681946658">
        <ele>68.6</ele>
        <time>2018-04-03T11:23:37Z</time>
      </trkpt>
      <trkpt lat="62.636385366292" lon="18.00076224526">
        <ele>68.6</ele>
        <time>2018-04-03T11:23:38Z</time>
      </trkpt>
      <trkpt lat="62.636369440682" lon="18.000814380678">
        <ele>68.6</ele>
        <time>2018-04-03T11:23:39Z</time>
      </trkpt>
      <trkpt lat="62.63634362443" lon="18.000876071462">
        <ele>68.6</ele>
        <time>2018-04-03T11:23:40Z</time>
      </trkpt>
      <trkpt lat="62.636328788467" lon="18.000931475821">
        <ele>68.6</ele>
        <time>2018-04-03T11:23:41Z</time>
      </trkpt>
      <trkpt lat="62.636300457645" lon="18.000974391149">
        <ele>68.6</ele>
        <time>2018-04-03T11:23:42Z</time>
      </trkpt>
      <trkpt lat="62.636279670533" lon="18.001025017825">
        <ele>68.4</ele>
        <time>2018-04-03T11:23:43Z</time>
      </trkpt>
      <trkpt lat="62.636267432959" lon="18.001097269803">
        <ele>68.4</ele>
        <time>2018-04-03T11:23:44Z</time>
      </trkpt>
      <trkpt lat="62.636245891476" lon="18.001153009438">
        <ele>68.2</ele>
        <time>2018-04-03T11:23:45Z</time>
      </trkpt>
      <trkpt lat="62.636218650301" lon="18.001219729362">
        <ele>68.2</ele>
        <time>2018-04-03T11:23:46Z</time>
      </trkpt>
      <trkpt lat="62.636215465179" lon="18.00127102659">
        <ele>68.2</ele>
        <time>2018-04-03T11:23:47Z</time>
      </trkpt>
      <trkpt lat="62.636198533741" lon="18.001318551963">
        <ele>68.2</ele>
        <time>2018-04-03T11:23:48Z</time>
      </trkpt>
      <trkpt lat="62.636189146013" lon="18.001367250802">
        <ele>68.4</ele>
        <time>2018-04-03T11:23:49Z</time>
      </trkpt>
      <trkpt lat="62.636160312277" lon="18.001437155848">
        <ele>68.4</ele>
        <time>2018-04-03T11:23:50Z</time>
      </trkpt>
      <trkpt lat="62.636142207373" lon="18.001491219103">
        <ele>68.6</ele>
        <time>2018-04-03T11:23:51Z</time>
      </trkpt>
      <trkpt lat="62.636139692803" lon="18.001531787499">
        <ele>68.6</ele>
        <time>2018-04-03T11:23:52Z</time>
      </trkpt>
      <trkpt lat="62.63611479856" lon="18.001597501595">
        <ele>68.6</ele>
        <time>2018-04-03T11:23:53Z</time>
      </trkpt>
      <trkpt lat="62.636091245421" lon="18.001657767456">
        <ele>68.6</ele>
        <time>2018-04-03T11:23:54Z</time>
      </trkpt>
      <trkpt lat="62.636076493277" lon="18.001703448811">
        <ele>68.8</ele>
        <time>2018-04-03T11:23:55Z</time>
      </trkpt>
      <trkpt lat="62.63605025793" lon="18.001747705243">
        <ele>68.8</ele>
        <time>2018-04-03T11:23:56Z</time>
      </trkpt>
      <trkpt lat="62.636032991216" lon="18.001785759069">
        <ele>68.8</ele>
        <time>2018-04-03T11:23:57Z</time>
      </trkpt>
      <trkpt lat="62.635996446132" lon="18.001849964423">
        <ele>68.8</ele>
        <time>2018-04-03T11:23:58Z</time>
      </trkpt>
      <trkpt lat="62.635977000124" lon="18.001906626067">
        <ele>68.8</ele>
        <time>2018-04-03T11:23:59Z</time>
      </trkpt>
      <trkpt lat="62.635967360939" lon="18.001958090933">
        <ele>68.6</ele>
        <time>2018-04-03T11:24:00Z</time>
      </trkpt>
      <trkpt lat="62.63594129323" lon="18.002000922442">
        <ele>68.8</ele>
        <time>2018-04-03T11:24:01Z</time>
      </trkpt>
      <trkpt lat="62.635919081195" lon="18.002047944901">
        <ele>68.8</ele>
        <time>2018-04-03T11:24:02Z</time>
      </trkpt>
      <trkpt lat="62.635903909956" lon="18.002093877713">
        <ele>68.8</ele>
        <time>2018-04-03T11:24:03Z</time>
      </trkpt>
      <trkpt lat="62.635878848075" lon="18.002150120262">
        <ele>69</ele>
        <time>2018-04-03T11:24:04Z</time>
      </trkpt>
      <trkpt lat="62.63585579785" lon="18.002208709743">
        <ele>69</ele>
        <time>2018-04-03T11:24:05Z</time>
      </trkpt>
      <trkpt lat="62.63583987224" lon="18.002263192093">
        <ele>69</ele>
        <time>2018-04-03T11:24:06Z</time>
      </trkpt>
      <trkpt lat="62.635827718485" lon="18.002324547601">
        <ele>68.8</ele>
        <time>2018-04-03T11:24:07Z</time>
      </trkpt>
      <trkpt lat="62.635817995481" lon="18.002406606402">
        <ele>68.8</ele>
        <time>2018-04-03T11:24:08Z</time>
      </trkpt>
      <trkpt lat="62.635795112894" lon="18.002502411519">
        <ele>68.8</ele>
        <time>2018-04-03T11:24:09Z</time>
      </trkpt>
      <trkpt lat="62.635769296642" lon="18.002583464492">
        <ele>68.6</ele>
        <time>2018-04-03T11:24:10Z</time>
      </trkpt>
      <trkpt lat="62.635753622489" lon="18.002659572144">
        <ele>68.6</ele>
        <time>2018-04-03T11:24:11Z</time>
      </trkpt>
      <trkpt lat="62.635722777097" lon="18.002763926799">
        <ele>68.2</ele>
        <time>2018-04-03T11:24:12Z</time>
      </trkpt>
      <trkpt lat="62.635703917822" lon="18.002846656152">
        <ele>68</ele>
        <time>2018-04-03T11:24:13Z</time>
      </trkpt>
      <trkpt lat="62.635672904792" lon="18.002927876763">
        <ele>67.2</ele>
        <time>2018-04-03T11:24:14Z</time>
      </trkpt>
      <trkpt lat="62.635648597282" lon="18.003000799293">
        <ele>66.8</ele>
        <time>2018-04-03T11:24:15Z</time>
      </trkpt>
      <trkpt lat="62.635625630876" lon="18.003055197824">
        <ele>66.4</ele>
        <time>2018-04-03T11:24:16Z</time>
      </trkpt>
      <trkpt lat="62.635592522371" lon="18.003145806163">
        <ele>66</ele>
        <time>2018-04-03T11:24:17Z</time>
      </trkpt>
      <trkpt lat="62.63556494592" lon="18.00322987662">
        <ele>65.8</ele>
        <time>2018-04-03T11:24:18Z</time>
      </trkpt>
      <trkpt lat="62.63553728565" lon="18.003319395312">
        <ele>65.6</ele>
        <time>2018-04-03T11:24:19Z</time>
      </trkpt>
      <trkpt lat="62.635510966484" lon="18.003417212085">
        <ele>65.6</ele>
        <time>2018-04-03T11:24:20Z</time>
      </trkpt>
      <trkpt lat="62.635489341182" lon="18.003506814596">
        <ele>65.4</ele>
        <time>2018-04-03T11:24:21Z</time>
      </trkpt>
      <trkpt lat="62.635466458595" lon="18.00362298773">
        <ele>65.4</ele>
        <time>2018-04-03T11:24:22Z</time>
      </trkpt>
      <trkpt lat="62.635448269872" lon="18.003730359869">
        <ele>65.2</ele>
        <time>2018-04-03T11:24:23Z</time>
      </trkpt>
      <trkpt lat="62.635439552696" lon="18.003819040371">
        <ele>65.2</ele>
        <time>2018-04-03T11:24:24Z</time>
      </trkpt>
      <trkpt lat="62.635409210218" lon="18.003930687279">
        <ele>65.2</ele>
        <time>2018-04-03T11:24:25Z</time>
      </trkpt>
      <trkpt lat="62.635397391739" lon="18.004027162948">
        <ele>65.2</ele>
        <time>2018-04-03T11:24:26Z</time>
      </trkpt>
      <trkpt lat="62.635371659306" lon="18.004118944753">
        <ele>65.2</ele>
        <time>2018-04-03T11:24:27Z</time>
      </trkpt>
      <trkpt lat="62.63536964765" lon="18.004219946648">
        <ele>65</ele>
        <time>2018-04-03T11:24:28Z</time>
      </trkpt>
      <trkpt lat="62.635345423959" lon="18.004313237195">
        <ele>65.2</ele>
        <time>2018-04-03T11:24:29Z</time>
      </trkpt>
      <trkpt lat="62.635314578567" lon="18.004394625444">
        <ele>65.2</ele>
        <time>2018-04-03T11:24:30Z</time>
      </trkpt>
      <trkpt lat="62.635296473663" lon="18.004466374508">
        <ele>65</ele>
        <time>2018-04-03T11:24:31Z</time>
      </trkpt>
      <trkpt lat="62.6352397282" lon="18.004540638142">
        <ele>65.2</ele>
        <time>2018-04-03T11:24:32Z</time>
      </trkpt>
      <trkpt lat="62.63521290612" lon="18.004604592039">
        <ele>65.2</ele>
        <time>2018-04-03T11:24:33Z</time>
      </trkpt>
      <trkpt lat="62.635168649688" lon="18.004651530679">
        <ele>65</ele>
        <time>2018-04-03T11:24:34Z</time>
      </trkpt>
      <trkpt lat="62.635135205907" lon="18.004709868703">
        <ele>65</ele>
        <time>2018-04-03T11:24:35Z</time>
      </trkpt>
      <trkpt lat="62.635111066035" lon="18.004770721297">
        <ele>65</ele>
        <time>2018-04-03T11:24:36Z</time>
      </trkpt>
      <trkpt lat="62.635083321946" lon="18.004811708788">
        <ele>64.8</ele>
        <time>2018-04-03T11:24:37Z</time>
      </trkpt>
      <trkpt lat="62.635045519577" lon="18.004875914142">
        <ele>64.8</ele>
        <time>2018-04-03T11:24:38Z</time>
      </trkpt>
      <trkpt lat="62.635024061913" lon="18.004936850555">
        <ele>65</ele>
        <time>2018-04-03T11:24:39Z</time>
      </trkpt>
      <trkpt lat="62.634993384159" lon="18.004987393412">
        <ele>65</ele>
        <time>2018-04-03T11:24:40Z</time>
      </trkpt>
      <trkpt lat="62.63497486016" lon="18.005043468323">
        <ele>65</ele>
        <time>2018-04-03T11:24:41Z</time>
      </trkpt>
      <trkpt lat="62.634958766912" lon="18.005088060031">
        <ele>64.8</ele>
        <time>2018-04-03T11:24:42Z</time>
      </trkpt>
      <trkpt lat="62.634923479113" lon="18.005170705565">
        <ele>64.8</ele>
        <time>2018-04-03T11:24:43Z</time>
      </trkpt>
      <trkpt lat="62.6349044522" lon="18.005241113525">
        <ele>65</ele>
        <time>2018-04-03T11:24:44Z</time>
      </trkpt>
      <trkpt lat="62.634888107495" lon="18.005286291966">
        <ele>64.8</ele>
        <time>2018-04-03T11:24:45Z</time>
      </trkpt>
      <trkpt lat="62.634857597379" lon="18.005340858135">
        <ele>65.2</ele>
        <time>2018-04-03T11:24:46Z</time>
      </trkpt>
      <trkpt lat="62.63481895682" lon="18.005397938874">
        <ele>65</ele>
        <time>2018-04-03T11:24:47Z</time>
      </trkpt>
      <trkpt lat="62.634798588803" lon="18.005445380428">
        <ele>65</ele>
        <time>2018-04-03T11:24:48Z</time>
      </trkpt>
      <trkpt lat="62.634760032063" lon="18.005473962707">
        <ele>65</ele>
        <time>2018-04-03T11:24:49Z</time>
      </trkpt>
      <trkpt lat="62.63472591773" lon="18.005502712624">
        <ele>65.2</ele>
        <time>2018-04-03T11:24:50Z</time>
      </trkpt>
      <trkpt lat="62.63470244841" lon="18.005525762849">
        <ele>65.2</ele>
        <time>2018-04-03T11:24:51Z</time>
      </trkpt>
      <trkpt lat="62.634668166439" lon="18.005546969056">
        <ele>65.2</ele>
        <time>2018-04-03T11:24:52Z</time>
      </trkpt>
      <trkpt lat="62.63464796606" lon="18.005577227715">
        <ele>65.4</ele>
        <time>2018-04-03T11:24:53Z</time>
      </trkpt>
      <trkpt lat="62.634633297735" lon="18.005613437523">
        <ele>65.4</ele>
        <time>2018-04-03T11:24:54Z</time>
      </trkpt>
      <trkpt lat="62.634611756252" lon="18.005647719494">
        <ele>65.6</ele>
        <time>2018-04-03T11:24:55Z</time>
      </trkpt>
      <trkpt lat="62.63459348371" lon="18.005683007293">
        <ele>65.8</ele>
        <time>2018-04-03T11:24:56Z</time>
      </trkpt>
      <trkpt lat="62.634580240308" lon="18.005731203218">
        <ele>65.8</ele>
        <time>2018-04-03T11:24:57Z</time>
      </trkpt>
      <trkpt lat="62.634560626662" lon="18.005772274528">
        <ele>66</ele>
        <time>2018-04-03T11:24:58Z</time>
      </trkpt>
      <trkpt lat="62.634539336636" lon="18.005826253964">
        <ele>66.2</ele>
        <time>2018-04-03T11:24:59Z</time>
      </trkpt>
      <trkpt lat="62.634529194537" lon="18.005894314992">
        <ele>66.2</ele>
        <time>2018-04-03T11:25:00Z</time>
      </trkpt>
      <trkpt lat="62.634499774068" lon="18.0059389067">
        <ele>66.4</ele>
        <time>2018-04-03T11:25:01Z</time>
      </trkpt>
      <trkpt lat="62.634479825146" lon="18.005996238896">
        <ele>66.4</ele>
        <time>2018-04-03T11:25:02Z</time>
      </trkpt>
      <trkpt lat="62.63446607883" lon="18.006045105373">
        <ele>66.4</ele>
        <time>2018-04-03T11:25:03Z</time>
      </trkpt>
      <trkpt lat="62.634445543175" lon="18.006086511959">
        <ele>66.4</ele>
        <time>2018-04-03T11:25:04Z</time>
      </trkpt>
      <trkpt lat="62.634423917873" lon="18.006141581042">
        <ele>66.4</ele>
        <time>2018-04-03T11:25:05Z</time>
      </trkpt>
      <trkpt lat="62.634401286743" lon="18.006195644297">
        <ele>66.4</ele>
        <time>2018-04-03T11:25:06Z</time>
      </trkpt>
      <trkpt lat="62.634378487975" lon="18.006249791371">
        <ele>66.4</ele>
        <time>2018-04-03T11:25:07Z</time>
      </trkpt>
      <trkpt lat="62.634357449406" lon="18.006310979241">
        <ele>66.4</ele>
        <time>2018-04-03T11:25:08Z</time>
      </trkpt>
      <trkpt lat="62.634324257082" lon="18.006359510442">
        <ele>66.4</ele>
        <time>2018-04-03T11:25:09Z</time>
      </trkpt>
      <trkpt lat="62.634298105554" lon="18.006405694711">
        <ele>66.2</ele>
        <time>2018-04-03T11:25:10Z</time>
      </trkpt>
      <trkpt lat="62.634279581555" lon="18.006465122382">
        <ele>66.2</ele>
        <time>2018-04-03T11:25:11Z</time>
      </trkpt>
      <trkpt lat="62.634255944597" lon="18.006524047139">
        <ele>66.2</ele>
        <time>2018-04-03T11:25:12Z</time>
      </trkpt>
      <trkpt lat="62.63422887106" lon="18.006584229181">
        <ele>66.2</ele>
        <time>2018-04-03T11:25:13Z</time>
      </trkpt>
      <trkpt lat="62.634204731188" lon="18.006634436762">
        <ele>66</ele>
        <time>2018-04-03T11:25:14Z</time>
      </trkpt>
      <trkpt lat="62.634179166393" lon="18.006711131147">
        <ele>66</ele>
        <time>2018-04-03T11:25:15Z</time>
      </trkpt>
      <trkpt lat="62.634160893851" lon="18.006765445859">
        <ele>66</ele>
        <time>2018-04-03T11:25:16Z</time>
      </trkpt>
      <trkpt lat="62.634129294088" lon="18.006822275141">
        <ele>66.2</ele>
        <time>2018-04-03T11:25:17Z</time>
      </trkpt>
      <trkpt lat="62.634104232207" lon="18.006884636477">
        <ele>66.2</ele>
        <time>2018-04-03T11:25:18Z</time>
      </trkpt>
      <trkpt lat="62.634090821167" lon="18.006952948962">
        <ele>66.2</ele>
        <time>2018-04-03T11:25:19Z</time>
      </trkpt>
      <trkpt lat="62.634069782598" lon="18.007010700253">
        <ele>66.2</ele>
        <time>2018-04-03T11:25:20Z</time>
      </trkpt>
      <trkpt lat="62.634047402925" lon="18.007079348014">
        <ele>66.2</ele>
        <time>2018-04-03T11:25:21Z</time>
      </trkpt>
      <trkpt lat="62.634033824247" lon="18.007117066564">
        <ele>66.4</ele>
        <time>2018-04-03T11:25:22Z</time>
      </trkpt>
      <trkpt lat="62.634004403778" lon="18.007194347682">
        <ele>66.2</ele>
        <time>2018-04-03T11:25:23Z</time>
      </trkpt>
      <trkpt lat="62.633983029933" lon="18.007248327118">
        <ele>66.4</ele>
        <time>2018-04-03T11:25:24Z</time>
      </trkpt>
      <trkpt lat="62.633955872577" lon="18.007292751188">
        <ele>66.6</ele>
        <time>2018-04-03T11:25:25Z</time>
      </trkpt>
      <trkpt lat="62.633926200651" lon="18.00735209504">
        <ele>66.4</ele>
        <time>2018-04-03T11:25:26Z</time>
      </trkpt>
      <trkpt lat="62.633908263385" lon="18.00739903368">
        <ele>66.4</ele>
        <time>2018-04-03T11:25:27Z</time>
      </trkpt>
      <trkpt lat="62.633886470445" lon="18.007445050311">
        <ele>66.2</ele>
        <time>2018-04-03T11:25:28Z</time>
      </trkpt>
      <trkpt lat="62.633849338628" lon="18.007469944554">
        <ele>66.4</ele>
        <time>2018-04-03T11:25:29Z</time>
      </trkpt>
      <trkpt lat="62.633818493236" lon="18.007485953983">
        <ele>66.2</ele>
        <time>2018-04-03T11:25:30Z</time>
      </trkpt>
      <trkpt lat="62.633787731663" lon="18.007512440787">
        <ele>66.2</ele>
        <time>2018-04-03T11:25:31Z</time>
      </trkpt>
      <trkpt lat="62.6337561319" lon="18.007489893476">
        <ele>66.2</ele>
        <time>2018-04-03T11:25:32Z</time>
      </trkpt>
      <trkpt lat="62.633726459974" lon="18.007486875992">
        <ele>66.2</ele>
        <time>2018-04-03T11:25:33Z</time>
      </trkpt>
      <trkpt lat="62.633683460827" lon="18.007468771088">
        <ele>66.4</ele>
        <time>2018-04-03T11:25:34Z</time>
      </trkpt>
      <trkpt lat="62.633645239363" lon="18.007431806909">
        <ele>66.6</ele>
        <time>2018-04-03T11:25:35Z</time>
      </trkpt>
      <trkpt lat="62.633624116975" lon="18.007417725317">
        <ele>66.8</ele>
        <time>2018-04-03T11:25:36Z</time>
      </trkpt>
      <trkpt lat="62.633592852488" lon="18.007393920721">
        <ele>67</ele>
        <time>2018-04-03T11:25:37Z</time>
      </trkpt>
      <trkpt lat="62.633565276037" lon="18.007368104469">
        <ele>67.2</ele>
        <time>2018-04-03T11:25:38Z</time>
      </trkpt>
      <trkpt lat="62.633545327115" lon="18.007353268506">
        <ele>67.4</ele>
        <time>2018-04-03T11:25:39Z</time>
      </trkpt>
      <trkpt lat="62.633526216383" lon="18.007328541901">
        <ele>67.6</ele>
        <time>2018-04-03T11:25:40Z</time>
      </trkpt>
      <trkpt lat="62.633499394303" lon="18.007294511387">
        <ele>67.8</ele>
        <time>2018-04-03T11:25:41Z</time>
      </trkpt>
      <trkpt lat="62.633479277743" lon="18.007288560238">
        <ele>67.8</ele>
        <time>2018-04-03T11:25:42Z</time>
      </trkpt>
      <trkpt lat="62.633450444007" lon="18.00724564491">
        <ele>68</ele>
        <time>2018-04-03T11:25:43Z</time>
      </trkpt>
      <trkpt lat="62.633422448461" lon="18.007211111482">
        <ele>68</ele>
        <time>2018-04-03T11:25:44Z</time>
      </trkpt>
      <trkpt lat="62.63340073934" lon="18.007195521148">
        <ele>68.2</ele>
        <time>2018-04-03T11:25:45Z</time>
      </trkpt>
      <trkpt lat="62.633380119866" lon="18.007146906128">
        <ele>68.4</ele>
        <time>2018-04-03T11:25:46Z</time>
      </trkpt>
      <trkpt lat="62.63335128613" lon="18.007101643868">
        <ele>68.2</ele>
        <time>2018-04-03T11:25:47Z</time>
      </trkpt>
      <trkpt lat="62.63333536052" lon="18.007048167346">
        <ele>68.2</ele>
        <time>2018-04-03T11:25:48Z</time>
      </trkpt>
      <trkpt lat="62.633319015815" lon="18.006981531241">
        <ele>68</ele>
        <time>2018-04-03T11:25:49Z</time>
      </trkpt>
      <trkpt lat="62.63332111129" lon="18.006925707787">
        <ele>68</ele>
        <time>2018-04-03T11:25:50Z</time>
      </trkpt>
      <trkpt lat="62.633309795725" lon="18.006882541002">
        <ele>68</ele>
        <time>2018-04-03T11:25:51Z</time>
      </trkpt>
      <trkpt lat="62.633300324178" lon="18.006817581277">
        <ele>68</ele>
        <time>2018-04-03T11:25:52Z</time>
      </trkpt>
      <trkpt lat="62.633300491816" lon="18.006747340955">
        <ele>68</ele>
        <time>2018-04-03T11:25:53Z</time>
      </trkpt>
      <trkpt lat="62.633293283382" lon="18.006710712052">
        <ele>68.4</ele>
        <time>2018-04-03T11:25:54Z</time>
      </trkpt>
      <trkpt lat="62.633284482387" lon="18.006644578861">
        <ele>68.4</ele>
        <time>2018-04-03T11:25:55Z</time>
      </trkpt>
      <trkpt lat="62.633281464903" lon="18.006607614682">
        <ele>68.6</ele>
        <time>2018-04-03T11:25:56Z</time>
      </trkpt>
      <trkpt lat="62.633277693048" lon="18.006560676042">
        <ele>68.8</ele>
        <time>2018-04-03T11:25:57Z</time>
      </trkpt>
      <trkpt lat="62.633271909537" lon="18.006506864244">
        <ele>69</ele>
        <time>2018-04-03T11:25:58Z</time>
      </trkpt>
      <trkpt lat="62.63326830532" lon="18.006466295848">
        <ele>69.4</ele>
        <time>2018-04-03T11:25:59Z</time>
      </trkpt>
      <trkpt lat="62.633269478786" lon="18.006400833209">
        <ele>69.6</ele>
        <time>2018-04-03T11:26:00Z</time>
      </trkpt>
      <trkpt lat="62.633270400795" lon="18.006345345031">
        <ele>69.6</ele>
        <time>2018-04-03T11:26:01Z</time>
      </trkpt>
      <trkpt lat="62.633262521809" lon="18.006298238753">
        <ele>69.8</ele>
        <time>2018-04-03T11:26:02Z</time>
      </trkpt>
      <trkpt lat="62.633256654479" lon="18.006240990376">
        <ele>70</ele>
        <time>2018-04-03T11:26:03Z</time>
      </trkpt>
      <trkpt lat="62.633253301719" lon="18.006194051736">
        <ele>70.2</ele>
        <time>2018-04-03T11:26:04Z</time>
      </trkpt>
      <trkpt lat="62.633246428561" lon="18.006155411177">
        <ele>70.4</ele>
        <time>2018-04-03T11:26:05Z</time>
      </trkpt>
      <trkpt lat="62.63324148324" lon="18.006104952139">
        <ele>70.4</ele>
        <time>2018-04-03T11:26:06Z</time>
      </trkpt>
      <trkpt lat="62.63323980686" lon="18.006064719019">
        <ele>70.6</ele>
        <time>2018-04-03T11:26:07Z</time>
      </trkpt>
      <trkpt lat="62.633239052489" lon="18.006007135366">
        <ele>70.8</ele>
        <time>2018-04-03T11:26:08Z</time>
      </trkpt>
      <trkpt lat="62.633231676417" lon="18.005955419043">
        <ele>70.8</ele>
        <time>2018-04-03T11:26:09Z</time>
      </trkpt>
      <trkpt lat="62.633238801032" lon="18.005935721578">
        <ele>71</ele>
        <time>2018-04-03T11:26:10Z</time>
      </trkpt>
      <trkpt lat="62.633248272579" lon="18.005922226719">
        <ele>71</ele>
        <time>2018-04-03T11:26:11Z</time>
      </trkpt>
      <trkpt lat="62.633246009466" lon="18.005897332476">
        <ele>71.4</ele>
        <time>2018-04-03T11:26:12Z</time>
      </trkpt>
      <trkpt lat="62.633242824344" lon="18.005878221744">
        <ele>71.4</ele>
        <time>2018-04-03T11:26:13Z</time>
      </trkpt>
      <trkpt lat="62.633237711385" lon="18.005859530107">
        <ele>71.6</ele>
        <time>2018-04-03T11:26:14Z</time>
      </trkpt>
      <trkpt lat="62.633244919819" lon="18.005871097129">
        <ele>71.8</ele>
        <time>2018-04-03T11:26:15Z</time>
      </trkpt>
      <trkpt lat="62.633240309774" lon="18.005844107411">
        <ele>72</ele>
        <time>2018-04-03T11:26:16Z</time>
      </trkpt>
      <trkpt lat="62.633243746353" lon="18.00581820734">
        <ele>72.2</ele>
        <time>2018-04-03T11:26:17Z</time>
      </trkpt>
      <trkpt lat="62.633236789376" lon="18.005799264246">
        <ele>72.4</ele>
        <time>2018-04-03T11:26:18Z</time>
      </trkpt>
      <trkpt lat="62.633247602027" lon="18.005808484336">
        <ele>72.6</ele>
        <time>2018-04-03T11:26:19Z</time>
      </trkpt>
      <trkpt lat="62.633246344742" lon="18.005782835722">
        <ele>72.8</ele>
        <time>2018-04-03T11:26:20Z</time>
      </trkpt>
      <trkpt lat="62.63324735057" lon="18.005759617859">
        <ele>73.2</ele>
        <time>2018-04-03T11:26:21Z</time>
      </trkpt>
      <trkpt lat="62.63324148324" lon="18.005742602602">
        <ele>73.6</ele>
        <time>2018-04-03T11:26:22Z</time>
      </trkpt>
      <trkpt lat="62.633247853484" lon="18.005727515182">
        <ele>73.8</ele>
        <time>2018-04-03T11:26:23Z</time>
      </trkpt>
      <trkpt lat="62.633254307547" lon="18.005715445246">
        <ele>74.2</ele>
        <time>2018-04-03T11:26:24Z</time>
      </trkpt>
      <trkpt lat="62.633252882624" lon="18.005695999238">
        <ele>74.2</ele>
        <time>2018-04-03T11:26:25Z</time>
      </trkpt>
      <trkpt lat="62.633255648651" lon="18.005671775547">
        <ele>74.6</ele>
        <time>2018-04-03T11:26:26Z</time>
      </trkpt>
      <trkpt lat="62.63325573247" lon="18.005654508833">
        <ele>74.6</ele>
        <time>2018-04-03T11:26:27Z</time>
      </trkpt>
      <trkpt lat="62.6332532179" lon="18.005638499404">
        <ele>74.8</ele>
        <time>2018-04-03T11:26:28Z</time>
      </trkpt>
      <trkpt lat="62.633253469357" lon="18.005630368961">
        <ele>75</ele>
        <time>2018-04-03T11:26:29Z</time>
      </trkpt>
      <trkpt lat="62.63325740885" lon="18.005611928781">
        <ele>75</ele>
        <time>2018-04-03T11:26:30Z</time>
      </trkpt>
      <trkpt lat="62.633262857085" lon="18.00558519052">
        <ele>75.2</ele>
        <time>2018-04-03T11:26:31Z</time>
      </trkpt>
      <trkpt lat="62.633262102714" lon="18.005573204403">
        <ele>75.4</ele>
        <time>2018-04-03T11:26:32Z</time>
      </trkpt>
      <trkpt lat="62.633264533465" lon="18.00556255939">
        <ele>75.6</ele>
        <time>2018-04-03T11:26:33Z</time>
      </trkpt>
      <trkpt lat="62.633263611456" lon="18.005556272965">
        <ele>75.8</ele>
        <time>2018-04-03T11:26:34Z</time>
      </trkpt>
      <trkpt lat="62.633266880397" lon="18.005525427573">
        <ele>76</ele>
        <time>2018-04-03T11:26:35Z</time>
      </trkpt>
      <trkpt lat="62.633271322804" lon="18.005507490307">
        <ele>76.2</ele>
        <time>2018-04-03T11:26:36Z</time>
      </trkpt>
      <trkpt lat="62.633268472958" lon="18.005491899973">
        <ele>76.4</ele>
        <time>2018-04-03T11:26:37Z</time>
      </trkpt>
      <trkpt lat="62.633269646424" lon="18.005476142001">
        <ele>76.6</ele>
        <time>2018-04-03T11:26:38Z</time>
      </trkpt>
      <trkpt lat="62.633272077175" lon="18.005463485332">
        <ele>76.8</ele>
        <time>2018-04-03T11:26:39Z</time>
      </trkpt>
      <trkpt lat="62.633272580089" lon="18.005441105659">
        <ele>77</ele>
        <time>2018-04-03T11:26:40Z</time>
      </trkpt>
      <trkpt lat="62.633272328632" lon="18.005417971615">
        <ele>77.2</ele>
        <time>2018-04-03T11:26:41Z</time>
      </trkpt>
      <trkpt lat="62.63327501084" lon="18.005402297462">
        <ele>77.4</ele>
        <time>2018-04-03T11:26:42Z</time>
      </trkpt>
      <trkpt lat="62.63327752541" lon="18.005387126223">
        <ele>77.8</ele>
        <time>2018-04-03T11:26:43Z</time>
      </trkpt>
      <trkpt lat="62.633281045808" lon="18.005371368251">
        <ele>78</ele>
        <time>2018-04-03T11:26:44Z</time>
      </trkpt>
      <trkpt lat="62.633282386912" lon="18.005358376306">
        <ele>78.2</ele>
        <time>2018-04-03T11:26:45Z</time>
      </trkpt>
      <trkpt lat="62.633287164595" lon="18.005341025773">
        <ele>78.4</ele>
        <time>2018-04-03T11:26:46Z</time>
      </trkpt>
      <trkpt lat="62.633289008613" lon="18.005318059367">
        <ele>78.4</ele>
        <time>2018-04-03T11:26:47Z</time>
      </trkpt>
      <trkpt lat="62.633290684993" lon="18.005294841504">
        <ele>78.6</ele>
        <time>2018-04-03T11:26:48Z</time>
      </trkpt>
      <trkpt lat="62.63328926007" lon="18.005274557306">
        <ele>78.6</ele>
        <time>2018-04-03T11:26:49Z</time>
      </trkpt>
      <trkpt lat="62.633291690821" lon="18.005258631696">
        <ele>78.8</ele>
        <time>2018-04-03T11:26:50Z</time>
      </trkpt>
      <trkpt lat="62.633295378857" lon="18.005244131009">
        <ele>79</ele>
        <time>2018-04-03T11:26:51Z</time>
      </trkpt>
      <trkpt lat="62.63329428921" lon="18.005223679173">
        <ele>79.2</ele>
        <time>2018-04-03T11:26:52Z</time>
      </trkpt>
      <trkpt lat="62.633294373029" lon="18.005200126034">
        <ele>79.2</ele>
        <time>2018-04-03T11:26:53Z</time>
      </trkpt>
      <trkpt lat="62.633301246187" lon="18.005172381945">
        <ele>79.4</ele>
        <time>2018-04-03T11:26:54Z</time>
      </trkpt>
      <trkpt lat="62.633307281155" lon="18.005156372516">
        <ele>79.6</ele>
        <time>2018-04-03T11:26:55Z</time>
      </trkpt>
      <trkpt lat="62.63331105301" lon="18.005136675051">
        <ele>79.6</ele>
        <time>2018-04-03T11:26:56Z</time>
      </trkpt>
      <trkpt lat="62.633303928395" lon="18.005121755269">
        <ele>79.8</ele>
        <time>2018-04-03T11:26:57Z</time>
      </trkpt>
      <trkpt lat="62.633311388286" lon="18.005106919306">
        <ele>80</ele>
        <time>2018-04-03T11:26:58Z</time>
      </trkpt>
      <trkpt lat="62.633315663055" lon="18.005091664248">
        <ele>80.2</ele>
        <time>2018-04-03T11:26:59Z</time>
      </trkpt>
      <trkpt lat="62.633322033299" lon="18.005071631507">
        <ele>80.4</ele>
        <time>2018-04-03T11:27:00Z</time>
      </trkpt>
      <trkpt lat="62.63331692034" lon="18.005047156359">
        <ele>80.6</ele>
        <time>2018-04-03T11:27:01Z</time>
      </trkpt>
      <trkpt lat="62.633312477933" lon="18.005032404215">
        <ele>81</ele>
        <time>2018-04-03T11:27:02Z</time>
      </trkpt>
      <trkpt lat="62.633310633915" lon="18.005018741718">
        <ele>81.2</ele>
        <time>2018-04-03T11:27:03Z</time>
      </trkpt>
      <trkpt lat="62.633304682766" lon="18.005008599619">
        <ele>81.4</ele>
        <time>2018-04-03T11:27:04Z</time>
      </trkpt>
      <trkpt lat="62.633297139056" lon="18.004992841647">
        <ele>81.4</ele>
        <time>2018-04-03T11:27:05Z</time>
      </trkpt>
      <trkpt lat="62.633296468504" lon="18.004974317648">
        <ele>81.6</ele>
        <time>2018-04-03T11:27:06Z</time>
      </trkpt>
      <trkpt lat="62.633283644197" lon="18.004959649323">
        <ele>81.8</ele>
        <time>2018-04-03T11:27:07Z</time>
      </trkpt>
      <trkpt lat="62.633282889826" lon="18.004945148636">
        <ele>82</ele>
        <time>2018-04-03T11:27:08Z</time>
      </trkpt>
      <trkpt lat="62.633278112143" lon="18.004932491967">
        <ele>82</ele>
        <time>2018-04-03T11:27:09Z</time>
      </trkpt>
      <trkpt lat="62.633270065519" lon="18.004919835298">
        <ele>82.2</ele>
        <time>2018-04-03T11:27:10Z</time>
      </trkpt>
      <trkpt lat="62.633249110769" lon="18.004914889977">
        <ele>82.4</ele>
        <time>2018-04-03T11:27:11Z</time>
      </trkpt>
      <trkpt lat="62.633236035005" lon="18.004917739823">
        <ele>82.6</ele>
        <time>2018-04-03T11:27:12Z</time>
      </trkpt>
      <trkpt lat="62.633218516834" lon="18.004916985452">
        <ele>82.8</ele>
        <time>2018-04-03T11:27:13Z</time>
      </trkpt>
      <trkpt lat="62.633204435242" lon="18.004918410375">
        <ele>83</ele>
        <time>2018-04-03T11:27:14Z</time>
      </trkpt>
      <trkpt lat="62.633184151044" lon="18.004916231081">
        <ele>83.2</ele>
        <time>2018-04-03T11:27:15Z</time>
      </trkpt>
      <trkpt lat="62.633164285941" lon="18.004917488366">
        <ele>83.4</ele>
        <time>2018-04-03T11:27:16Z</time>
      </trkpt>
      <trkpt lat="62.63313670949" lon="18.004932324329">
        <ele>83.6</ele>
        <time>2018-04-03T11:27:17Z</time>
      </trkpt>
      <trkpt lat="62.633118436948" lon="18.004961660979">
        <ele>83.8</ele>
        <time>2018-04-03T11:27:18Z</time>
      </trkpt>
      <trkpt lat="62.633093710343" lon="18.004978173322">
        <ele>83.8</ele>
        <time>2018-04-03T11:27:19Z</time>
      </trkpt>
      <trkpt lat="62.633070576299" lon="18.005019747546">
        <ele>84</ele>
        <time>2018-04-03T11:27:20Z</time>
      </trkpt>
      <trkpt lat="62.633055656517" lon="18.005059729209">
        <ele>84</ele>
        <time>2018-04-03T11:27:21Z</time>
      </trkpt>
      <trkpt lat="62.633032522473" lon="18.005088646764">
        <ele>84.4</ele>
        <time>2018-04-03T11:27:22Z</time>
      </trkpt>
      <trkpt lat="62.633013663198" lon="18.005128544608">
        <ele>84.6</ele>
        <time>2018-04-03T11:27:23Z</time>
      </trkpt>
      <trkpt lat="62.632999162511" lon="18.005168107176">
        <ele>84.6</ele>
        <time>2018-04-03T11:27:24Z</time>
      </trkpt>
      <trkpt lat="62.632968484757" lon="18.005217728024">
        <ele>84.8</ele>
        <time>2018-04-03T11:27:25Z</time>
      </trkpt>
      <trkpt lat="62.632957253011" lon="18.005294506228">
        <ele>85</ele>
        <time>2018-04-03T11:27:26Z</time>
      </trkpt>
      <trkpt lat="62.63293135294" lon="18.005332811511">
        <ele>85</ele>
        <time>2018-04-03T11:27:27Z</time>
      </trkpt>
      <trkpt lat="62.632898998806" lon="18.005380420703">
        <ele>85</ele>
        <time>2018-04-03T11:27:28Z</time>
      </trkpt>
      <trkpt lat="62.632864633016" lon="18.005425515325">
        <ele>85.2</ele>
        <time>2018-04-03T11:27:29Z</time>
      </trkpt>
      <trkpt lat="62.632827752656" lon="18.005443284953">
        <ele>85</ele>
        <time>2018-04-03T11:27:30Z</time>
      </trkpt>
      <trkpt lat="62.632792381038" lon="18.00545778564">
        <ele>85</ele>
        <time>2018-04-03T11:27:31Z</time>
      </trkpt>
      <trkpt lat="62.632776371609" lon="18.005460886943">
        <ele>85</ele>
        <time>2018-04-03T11:27:32Z</time>
      </trkpt>
      <trkpt lat="62.63276287675" lon="18.005464994074">
        <ele>85</ele>
        <time>2018-04-03T11:27:33Z</time>
      </trkpt>
      <trkpt lat="62.632740161801" lon="18.005462228047">
        <ele>85</ele>
        <time>2018-04-03T11:27:34Z</time>
      </trkpt>
      <trkpt lat="62.63272096725" lon="18.005460048753">
        <ele>85</ele>
        <time>2018-04-03T11:27:35Z</time>
      </trkpt>
      <trkpt lat="62.632700180138" lon="18.005467173368">
        <ele>85</ele>
        <time>2018-04-03T11:27:36Z</time>
      </trkpt>
      <trkpt lat="62.632681488501" lon="18.005463569151">
        <ele>85.2</ele>
        <time>2018-04-03T11:27:37Z</time>
      </trkpt>
      <trkpt lat="62.632657767724" lon="18.005461389857">
        <ele>85.4</ele>
        <time>2018-04-03T11:27:38Z</time>
      </trkpt>
      <trkpt lat="62.632640333372" lon="18.005475136173">
        <ele>85.6</ele>
        <time>2018-04-03T11:27:39Z</time>
      </trkpt>
      <trkpt lat="62.632622647563" lon="18.00547119668">
        <ele>85.8</ele>
        <time>2018-04-03T11:27:40Z</time>
      </trkpt>
      <trkpt lat="62.632594232922" lon="18.005473627431">
        <ele>86</ele>
        <time>2018-04-03T11:27:41Z</time>
      </trkpt>
      <trkpt lat="62.632563052254" lon="18.00546784392">
        <ele>86.4</ele>
        <time>2018-04-03T11:27:42Z</time>
      </trkpt>
      <trkpt lat="62.63253824183" lon="18.00547203487">
        <ele>86.4</ele>
        <time>2018-04-03T11:27:43Z</time>
      </trkpt>
      <trkpt lat="62.632511168293" lon="18.005472705422">
        <ele>86.6</ele>
        <time>2018-04-03T11:27:44Z</time>
      </trkpt>
      <trkpt lat="62.632489291534" lon="18.00548125496">
        <ele>86.8</ele>
        <time>2018-04-03T11:27:45Z</time>
      </trkpt>
      <trkpt lat="62.632464313472" lon="18.005500365692">
        <ele>87</ele>
        <time>2018-04-03T11:27:46Z</time>
      </trkpt>
      <trkpt lat="62.632438581039" lon="18.005533474197">
        <ele>87</ele>
        <time>2018-04-03T11:27:47Z</time>
      </trkpt>
      <trkpt lat="62.632413602977" lon="18.005554931861">
        <ele>87.2</ele>
        <time>2018-04-03T11:27:48Z</time>
      </trkpt>
      <trkpt lat="62.632389379286" lon="18.005567001797">
        <ele>87.2</ele>
        <time>2018-04-03T11:27:49Z</time>
      </trkpt>
      <trkpt lat="62.632366831975" lon="18.005581083389">
        <ele>87.2</ele>
        <time>2018-04-03T11:27:50Z</time>
      </trkpt>
      <trkpt lat="62.632349900537" lon="18.005607486374">
        <ele>87.2</ele>
        <time>2018-04-03T11:27:51Z</time>
      </trkpt>
      <trkpt lat="62.632323749009" lon="18.005609162754">
        <ele>87.4</ele>
        <time>2018-04-03T11:27:52Z</time>
      </trkpt>
      <trkpt lat="62.632290305228" lon="18.005617125559">
        <ele>87.4</ele>
        <time>2018-04-03T11:27:53Z</time>
      </trkpt>
      <trkpt lat="62.632265243347" lon="18.005622322337">
        <ele>87.4</ele>
        <time>2018-04-03T11:27:54Z</time>
      </trkpt>
      <trkpt lat="62.632239259457" lon="18.005633554083">
        <ele>87.4</ele>
        <time>2018-04-03T11:27:55Z</time>
      </trkpt>
      <trkpt lat="62.632218220888" lon="18.005668925701">
        <ele>87.4</ele>
        <time>2018-04-03T11:27:56Z</time>
      </trkpt>
      <trkpt lat="62.632191650265" lon="18.005646797485">
        <ele>87.4</ele>
        <time>2018-04-03T11:27:57Z</time>
      </trkpt>
      <trkpt lat="62.632160301959" lon="18.005665824398">
        <ele>87.6</ele>
        <time>2018-04-03T11:27:58Z</time>
      </trkpt>
      <trkpt lat="62.632140520675" lon="18.005672446099">
        <ele>87.6</ele>
        <time>2018-04-03T11:27:59Z</time>
      </trkpt>
      <trkpt lat="62.632102969763" lon="18.0056790678">
        <ele>87.8</ele>
        <time>2018-04-03T11:28:00Z</time>
      </trkpt>
      <trkpt lat="62.632084613402" lon="18.005701950387">
        <ele>87.8</ele>
        <time>2018-04-03T11:28:01Z</time>
      </trkpt>
      <trkpt lat="62.632054522381" lon="18.005710416106">
        <ele>87.8</ele>
        <time>2018-04-03T11:28:02Z</time>
      </trkpt>
      <trkpt lat="62.632030214871" lon="18.005735645625">
        <ele>88</ele>
        <time>2018-04-03T11:28:03Z</time>
      </trkpt>
      <trkpt lat="62.631990484665" lon="18.005728688648">
        <ele>88</ele>
        <time>2018-04-03T11:28:04Z</time>
      </trkpt>
      <trkpt lat="62.631960896558" lon="18.00572600644">
        <ele>88</ele>
        <time>2018-04-03T11:28:05Z</time>
      </trkpt>
      <trkpt lat="62.631935247944" lon="18.005719971472">
        <ele>88</ele>
        <time>2018-04-03T11:28:06Z</time>
      </trkpt>
      <trkpt lat="62.631901133611" lon="18.005699435817">
        <ele>88.2</ele>
        <time>2018-04-03T11:28:07Z</time>
      </trkpt>
      <trkpt lat="62.631880178861" lon="18.005687114424">
        <ele>88.2</ele>
        <time>2018-04-03T11:28:08Z</time>
      </trkpt>
      <trkpt lat="62.631848243822" lon="18.005668841882">
        <ele>88.2</ele>
        <time>2018-04-03T11:28:09Z</time>
      </trkpt>
      <trkpt lat="62.63182913309" lon="18.005640175784">
        <ele>88.2</ele>
        <time>2018-04-03T11:28:10Z</time>
      </trkpt>
      <trkpt lat="62.631808010702" lon="18.005611593505">
        <ele>88.2</ele>
        <time>2018-04-03T11:28:11Z</time>
      </trkpt>
      <trkpt lat="62.631787894142" lon="18.005561469743">
        <ele>88.2</ele>
        <time>2018-04-03T11:28:12Z</time>
      </trkpt>
      <trkpt lat="62.631767023211" lon="18.005506484479">
        <ele>88.2</ele>
        <time>2018-04-03T11:28:13Z</time>
      </trkpt>
      <trkpt lat="62.631747241927" lon="18.005454768156">
        <ele>88.2</ele>
        <time>2018-04-03T11:28:14Z</time>
      </trkpt>
      <trkpt lat="62.631730897222" lon="18.005408667706">
        <ele>88.2</ele>
        <time>2018-04-03T11:28:15Z</time>
      </trkpt>
      <trkpt lat="62.631709104282" lon="18.005343875619">
        <ele>88.6</ele>
        <time>2018-04-03T11:28:16Z</time>
      </trkpt>
      <trkpt lat="62.631699129821" lon="18.00529601497">
        <ele>88.6</ele>
        <time>2018-04-03T11:28:17Z</time>
      </trkpt>
      <trkpt lat="62.631676247234" lon="18.005222170431">
        <ele>88.6</ele>
        <time>2018-04-03T11:28:18Z</time>
      </trkpt>
      <trkpt lat="62.63165898052" lon="18.005169699737">
        <ele>88.8</ele>
        <time>2018-04-03T11:28:19Z</time>
      </trkpt>
      <trkpt lat="62.631643557824" lon="18.005124605115">
        <ele>89</ele>
        <time>2018-04-03T11:28:20Z</time>
      </trkpt>
      <trkpt lat="62.631612628613" lon="18.005094178818">
        <ele>89.2</ele>
        <time>2018-04-03T11:28:21Z</time>
      </trkpt>
      <trkpt lat="62.63157599971" lon="18.005052604594">
        <ele>89.2</ele>
        <time>2018-04-03T11:28:22Z</time>
      </trkpt>
      <trkpt lat="62.631551021648" lon="18.005017819709">
        <ele>89</ele>
        <time>2018-04-03T11:28:23Z</time>
      </trkpt>
      <trkpt lat="62.631534760762" lon="18.004988483059">
        <ele>89.4</ele>
        <time>2018-04-03T11:28:24Z</time>
      </trkpt>
      <trkpt lat="62.631507184311" lon="18.004965851929">
        <ele>89.6</ele>
        <time>2018-04-03T11:28:25Z</time>
      </trkpt>
      <trkpt lat="62.631475333091" lon="18.004925032076">
        <ele>89.6</ele>
        <time>2018-04-03T11:28:26Z</time>
      </trkpt>
      <trkpt lat="62.631448846287" lon="18.004928468655">
        <ele>89.8</ele>
        <time>2018-04-03T11:28:27Z</time>
      </trkpt>
      <trkpt lat="62.631416911248" lon="18.004889828096">
        <ele>90</ele>
        <time>2018-04-03T11:28:28Z</time>
      </trkpt>
      <trkpt lat="62.63139159791" lon="18.00487272902">
        <ele>90.2</ele>
        <time>2018-04-03T11:28:29Z</time>
      </trkpt>
      <trkpt lat="62.631362596536" lon="18.004861329636">
        <ele>90.4</ele>
        <time>2018-04-03T11:28:30Z</time>
      </trkpt>
      <trkpt lat="62.631336361189" lon="18.004856216677">
        <ele>90.4</ele>
        <time>2018-04-03T11:28:31Z</time>
      </trkpt>
      <trkpt lat="62.631321022312" lon="18.004832579719">
        <ele>90.4</ele>
        <time>2018-04-03T11:28:32Z</time>
      </trkpt>
      <trkpt lat="62.631291182748" lon="18.004804248897">
        <ele>90.4</ele>
        <time>2018-04-03T11:28:33Z</time>
      </trkpt>
      <trkpt lat="62.631271820559" lon="18.004780025206">
        <ele>90.6</ele>
        <time>2018-04-03T11:28:34Z</time>
      </trkpt>
      <trkpt lat="62.631244830841" lon="18.004755969153">
        <ele>90.8</ele>
        <time>2018-04-03T11:28:35Z</time>
      </trkpt>
      <trkpt lat="62.631219685141" lon="18.004737612792">
        <ele>90.8</ele>
        <time>2018-04-03T11:28:36Z</time>
      </trkpt>
      <trkpt lat="62.63120635792" lon="18.004697128215">
        <ele>90.8</ele>
        <time>2018-04-03T11:28:37Z</time>
      </trkpt>
      <trkpt lat="62.631183978247" lon="18.004673826533">
        <ele>91</ele>
        <time>2018-04-03T11:28:38Z</time>
      </trkpt>
      <trkpt lat="62.631162855859" lon="18.004653039421">
        <ele>91.2</ele>
        <time>2018-04-03T11:28:39Z</time>
      </trkpt>
      <trkpt lat="62.631128992983" lon="18.004619176545">
        <ele>91.2</ele>
        <time>2018-04-03T11:28:40Z</time>
      </trkpt>
      <trkpt lat="62.631107702957" lon="18.004601826012">
        <ele>91.4</ele>
        <time>2018-04-03T11:28:41Z</time>
      </trkpt>
      <trkpt lat="62.631078617764" lon="18.004570393887">
        <ele>91.2</ele>
        <time>2018-04-03T11:28:42Z</time>
      </trkpt>
      <trkpt lat="62.631053136788" lon="18.004556899028">
        <ele>91.4</ele>
        <time>2018-04-03T11:28:43Z</time>
      </trkpt>
      <trkpt lat="62.631031092391" lon="18.004531166595">
        <ele>91.4</ele>
        <time>2018-04-03T11:28:44Z</time>
      </trkpt>
      <trkpt lat="62.631010640555" lon="18.004499315375">
        <ele>91.6</ele>
        <time>2018-04-03T11:28:45Z</time>
      </trkpt>
      <trkpt lat="62.630991362185" lon="18.004460842454">
        <ele>91.6</ele>
        <time>2018-04-03T11:28:46Z</time>
      </trkpt>
      <trkpt lat="62.630969736883" lon="18.004418262402">
        <ele>91.8</ele>
        <time>2018-04-03T11:28:47Z</time>
      </trkpt>
      <trkpt lat="62.630951380522" lon="18.004372497228">
        <ele>92</ele>
        <time>2018-04-03T11:28:48Z</time>
      </trkpt>
      <trkpt lat="62.63093394617" lon="18.004321619095">
        <ele>92.2</ele>
        <time>2018-04-03T11:28:49Z</time>
      </trkpt>
      <trkpt lat="62.630931012505" lon="18.004271411514">
        <ele>92.6</ele>
        <time>2018-04-03T11:28:50Z</time>
      </trkpt>
      <trkpt lat="62.630941070785" lon="18.004231094575">
        <ele>92.6</ele>
        <time>2018-04-03T11:28:51Z</time>
      </trkpt>
      <trkpt lat="62.630922295329" lon="18.004181725184">
        <ele>92.8</ele>
        <time>2018-04-03T11:28:52Z</time>
      </trkpt>
      <trkpt lat="62.630909219565" lon="18.004137804028">
        <ele>93</ele>
        <time>2018-04-03T11:28:53Z</time>
      </trkpt>
      <trkpt lat="62.630894383602" lon="18.00409405051">
        <ele>93</ele>
        <time>2018-04-03T11:28:54Z</time>
      </trkpt>
      <trkpt lat="62.630885414969" lon="18.004052392467">
        <ele>93.4</ele>
        <time>2018-04-03T11:28:55Z</time>
      </trkpt>
      <trkpt lat="62.63088281658" lon="18.004014003365">
        <ele>93.4</ele>
        <time>2018-04-03T11:28:56Z</time>
      </trkpt>
      <trkpt lat="62.630881810752" lon="18.00397083658">
        <ele>93.6</ele>
        <time>2018-04-03T11:28:57Z</time>
      </trkpt>
      <trkpt lat="62.630875775784" lon="18.00392976527">
        <ele>93.6</ele>
        <time>2018-04-03T11:28:58Z</time>
      </trkpt>
      <trkpt lat="62.630864292581" lon="18.003856423645">
        <ele>93.8</ele>
        <time>2018-04-03T11:28:59Z</time>
      </trkpt>
      <trkpt lat="62.630861275097" lon="18.003805880788">
        <ele>93.8</ele>
        <time>2018-04-03T11:29:00Z</time>
      </trkpt>
      <trkpt lat="62.630866639513" lon="18.003765731487">
        <ele>94</ele>
        <time>2018-04-03T11:29:01Z</time>
      </trkpt>
      <trkpt lat="62.630873512671" lon="18.003697921916">
        <ele>94.2</ele>
        <time>2018-04-03T11:29:02Z</time>
      </trkpt>
      <trkpt lat="62.630883738589" lon="18.003652240561">
        <ele>94.2</ele>
        <time>2018-04-03T11:29:03Z</time>
      </trkpt>
      <trkpt lat="62.630889103005" lon="18.003590130682">
        <ele>94.4</ele>
        <time>2018-04-03T11:29:04Z</time>
      </trkpt>
      <trkpt lat="62.6308895221" lon="18.003534307228">
        <ele>94.4</ele>
        <time>2018-04-03T11:29:05Z</time>
      </trkpt>
      <trkpt lat="62.630889103005" lon="18.003480998344">
        <ele>94.6</ele>
        <time>2018-04-03T11:29:06Z</time>
      </trkpt>
      <trkpt lat="62.630891869032" lon="18.003440178491">
        <ele>94.6</ele>
        <time>2018-04-03T11:29:07Z</time>
      </trkpt>
      <trkpt lat="62.630904693339" lon="18.003379996449">
        <ele>94.8</ele>
        <time>2018-04-03T11:29:08Z</time>
      </trkpt>
      <trkpt lat="62.630920618949" lon="18.003335404741">
        <ele>95</ele>
        <time>2018-04-03T11:29:09Z</time>
      </trkpt>
      <trkpt lat="62.630922295329" lon="18.003271869939">
        <ele>95.2</ele>
        <time>2018-04-03T11:29:10Z</time>
      </trkpt>
      <trkpt lat="62.630930844867" lon="18.003217722865">
        <ele>95.4</ele>
        <time>2018-04-03T11:29:11Z</time>
      </trkpt>
      <trkpt lat="62.630930425772" lon="18.003163743429">
        <ele>95.6</ele>
        <time>2018-04-03T11:29:12Z</time>
      </trkpt>
      <trkpt lat="62.630940903147" lon="18.00311253002">
        <ele>95.6</ele>
        <time>2018-04-03T11:29:13Z</time>
      </trkpt>
      <trkpt lat="62.630926653917" lon="18.003065926656">
        <ele>95.6</ele>
        <time>2018-04-03T11:29:14Z</time>
      </trkpt>
      <trkpt lat="62.630923384976" lon="18.003011863401">
        <ele>95.8</ele>
        <time>2018-04-03T11:29:15Z</time>
      </trkpt>
      <trkpt lat="62.630910057755" lon="18.002958219241">
        <ele>96</ele>
        <time>2018-04-03T11:29:16Z</time>
      </trkpt>
      <trkpt lat="62.630901675855" lon="18.002915639189">
        <ele>96</ele>
        <time>2018-04-03T11:29:17Z</time>
      </trkpt>
      <trkpt lat="62.630908297556" lon="18.002852774939">
        <ele>96.2</ele>
        <time>2018-04-03T11:29:18Z</time>
      </trkpt>
      <trkpt lat="62.630907040271" lon="18.002792173802">
        <ele>96.4</ele>
        <time>2018-04-03T11:29:19Z</time>
      </trkpt>
      <trkpt lat="62.630896898172" lon="18.002734757787">
        <ele>96.6</ele>
        <time>2018-04-03T11:29:20Z</time>
      </trkpt>
      <trkpt lat="62.630896981991" lon="18.002684047292">
        <ele>96.6</ele>
        <time>2018-04-03T11:29:21Z</time>
      </trkpt>
      <trkpt lat="62.630890527928" lon="18.002623278517">
        <ele>96.8</ele>
        <time>2018-04-03T11:29:22Z</time>
      </trkpt>
      <trkpt lat="62.630880553467" lon="18.002566700692">
        <ele>96.8</ele>
        <time>2018-04-03T11:29:23Z</time>
      </trkpt>
      <trkpt lat="62.630875105232" lon="18.002508781763">
        <ele>97</ele>
        <time>2018-04-03T11:29:24Z</time>
      </trkpt>
      <trkpt lat="62.630870495187" lon="18.002456059612">
        <ele>97.2</ele>
        <time>2018-04-03T11:29:25Z</time>
      </trkpt>
      <trkpt lat="62.630878290354" lon="18.002393446819">
        <ele>97.2</ele>
        <time>2018-04-03T11:29:26Z</time>
      </trkpt>
      <trkpt lat="62.630875021413" lon="18.002348184559">
        <ele>97.4</ele>
        <time>2018-04-03T11:29:27Z</time>
      </trkpt>
      <trkpt lat="62.630868315893" lon="18.002305269231">
        <ele>97.4</ele>
        <time>2018-04-03T11:29:28Z</time>
      </trkpt>
      <trkpt lat="62.630868232074" lon="18.002251289795">
        <ele>97.6</ele>
        <time>2018-04-03T11:29:29Z</time>
      </trkpt>
      <trkpt lat="62.630866388056" lon="18.002191275391">
        <ele>98</ele>
        <time>2018-04-03T11:29:30Z</time>
      </trkpt>
      <trkpt lat="62.630868399712" lon="18.002142576552">
        <ele>98.2</ele>
        <time>2018-04-03T11:29:31Z</time>
      </trkpt>
      <trkpt lat="62.63085347993" lon="18.002078538836">
        <ele>98.2</ele>
        <time>2018-04-03T11:29:32Z</time>
      </trkpt>
      <trkpt lat="62.630847361143" lon="18.002003520831">
        <ele>98.4</ele>
        <time>2018-04-03T11:29:33Z</time>
      </trkpt>
      <trkpt lat="62.63084174527" lon="18.001942752056">
        <ele>98.6</ele>
        <time>2018-04-03T11:29:34Z</time>
      </trkpt>
      <trkpt lat="62.630832022266" lon="18.001864381291">
        <ele>98.4</ele>
        <time>2018-04-03T11:29:35Z</time>
      </trkpt>
      <trkpt lat="62.63082581966" lon="18.001790872028">
        <ele>98.4</ele>
        <time>2018-04-03T11:29:36Z</time>
      </trkpt>
      <trkpt lat="62.630800171046" lon="18.00174292756">
        <ele>98.6</ele>
        <time>2018-04-03T11:29:37Z</time>
      </trkpt>
      <trkpt lat="62.630804361996" lon="18.001682661699">
        <ele>98.8</ele>
        <time>2018-04-03T11:29:38Z</time>
      </trkpt>
      <trkpt lat="62.630803607625" lon="18.001620384182">
        <ele>98.8</ele>
        <time>2018-04-03T11:29:39Z</time>
      </trkpt>
      <trkpt lat="62.630809726412" lon="18.001565985651">
        <ele>98.8</ele>
        <time>2018-04-03T11:29:40Z</time>
      </trkpt>
      <trkpt lat="62.630814420276" lon="18.00151661626">
        <ele>98.8</ele>
        <time>2018-04-03T11:29:41Z</time>
      </trkpt>
      <trkpt lat="62.630808636765" lon="18.001461630996">
        <ele>98.8</ele>
        <time>2018-04-03T11:29:42Z</time>
      </trkpt>
      <trkpt lat="62.630800590141" lon="18.001405723723">
        <ele>98.8</ele>
        <time>2018-04-03T11:29:43Z</time>
      </trkpt>
      <trkpt lat="62.630797907933" lon="18.001350906097">
        <ele>98.8</ele>
        <time>2018-04-03T11:29:44Z</time>
      </trkpt>
      <trkpt lat="62.630797824114" lon="18.001298854498">
        <ele>98.8</ele>
        <time>2018-04-03T11:29:45Z</time>
      </trkpt>
      <trkpt lat="62.630802182702" lon="18.001245629433">
        <ele>98.8</ele>
        <time>2018-04-03T11:29:46Z</time>
      </trkpt>
      <trkpt lat="62.630785921816" lon="18.00119139854">
        <ele>99</ele>
        <time>2018-04-03T11:29:47Z</time>
      </trkpt>
      <trkpt lat="62.630778210468" lon="18.001135407448">
        <ele>99</ele>
        <time>2018-04-03T11:29:48Z</time>
      </trkpt>
      <trkpt lat="62.630777707554" lon="18.00108830117">
        <ele>99</ele>
        <time>2018-04-03T11:29:49Z</time>
      </trkpt>
      <trkpt lat="62.630789023119" lon="18.00103298063">
        <ele>99</ele>
        <time>2018-04-03T11:29:50Z</time>
      </trkpt>
      <trkpt lat="62.630761362849" lon="18.000974474968">
        <ele>99.2</ele>
        <time>2018-04-03T11:29:51Z</time>
      </trkpt>
      <trkpt lat="62.630768236007" lon="18.000926614319">
        <ele>99.2</ele>
        <time>2018-04-03T11:29:52Z</time>
      </trkpt>
      <trkpt lat="62.630755327881" lon="18.000855871083">
        <ele>99.4</ele>
        <time>2018-04-03T11:29:53Z</time>
      </trkpt>
      <trkpt lat="62.630737558253" lon="18.000797616878">
        <ele>99.6</ele>
        <time>2018-04-03T11:29:54Z</time>
      </trkpt>
      <trkpt lat="62.630708808336" lon="18.000752103161">
        <ele>99.8</ele>
        <time>2018-04-03T11:29:55Z</time>
      </trkpt>
      <trkpt lat="62.63069841478" lon="18.000705835073">
        <ele>100</ele>
        <time>2018-04-03T11:29:56Z</time>
      </trkpt>
      <trkpt lat="62.630698917694" lon="18.000659734623">
        <ele>100</ele>
        <time>2018-04-03T11:29:57Z</time>
      </trkpt>
      <trkpt lat="62.630660612411" lon="18.000587315007">
        <ele>100.2</ele>
        <time>2018-04-03T11:29:58Z</time>
      </trkpt>
      <trkpt lat="62.630639490023" lon="18.000528474069">
        <ele>100.2</ele>
        <time>2018-04-03T11:29:59Z</time>
      </trkpt>
      <trkpt lat="62.630620546929" lon="18.000474159357">
        <ele>100.2</ele>
        <time>2018-04-03T11:30:00Z</time>
      </trkpt>
      <trkpt lat="62.630610823925" lon="18.000423784138">
        <ele>100.2</ele>
        <time>2018-04-03T11:30:01Z</time>
      </trkpt>
      <trkpt lat="62.630580313809" lon="18.000350861608">
        <ele>100.4</ele>
        <time>2018-04-03T11:30:02Z</time>
      </trkpt>
      <trkpt lat="62.630572937737" lon="18.00029453524">
        <ele>100.4</ele>
        <time>2018-04-03T11:30:03Z</time>
      </trkpt>
      <trkpt lat="62.63055173153" lon="18.000228737325">
        <ele>100.4</ele>
        <time>2018-04-03T11:30:04Z</time>
      </trkpt>
      <trkpt lat="62.630533123712" lon="18.000171069853">
        <ele>100.4</ele>
        <time>2018-04-03T11:30:05Z</time>
      </trkpt>
      <trkpt lat="62.630517617197" lon="18.000110887811">
        <ele>100.4</ele>
        <time>2018-04-03T11:30:06Z</time>
      </trkpt>
      <trkpt lat="62.63049976375" lon="18.000042323869">
        <ele>100.4</ele>
        <time>2018-04-03T11:30:07Z</time>
      </trkpt>
      <trkpt lat="62.630488280547" lon="17.999988344433">
        <ele>100.4</ele>
        <time>2018-04-03T11:30:08Z</time>
      </trkpt>
      <trkpt lat="62.630473612222" lon="17.99992321707">
        <ele>100.6</ele>
        <time>2018-04-03T11:30:09Z</time>
      </trkpt>
      <trkpt lat="62.63044695778" lon="17.999858760259">
        <ele>100.8</ele>
        <time>2018-04-03T11:30:10Z</time>
      </trkpt>
      <trkpt lat="62.630429858704" lon="17.999810229058">
        <ele>100.8</ele>
        <time>2018-04-03T11:30:11Z</time>
      </trkpt>
      <trkpt lat="62.630408736316" lon="17.999748622093">
        <ele>101.4</ele>
        <time>2018-04-03T11:30:12Z</time>
      </trkpt>
      <trkpt lat="62.630388535937" lon="17.999688356232">
        <ele>101.6</ele>
        <time>2018-04-03T11:30:13Z</time>
      </trkpt>
      <trkpt lat="62.630372275051" lon="17.999623312688">
        <ele>102</ele>
        <time>2018-04-03T11:30:14Z</time>
      </trkpt>
      <trkpt lat="62.630358528735" lon="17.999563382103">
        <ele>102</ele>
        <time>2018-04-03T11:30:15Z</time>
      </trkpt>
      <trkpt lat="62.630345117695" lon="17.999490208116">
        <ele>102.4</ele>
        <time>2018-04-03T11:30:16Z</time>
      </trkpt>
      <trkpt lat="62.630326090782" lon="17.999408987505">
        <ele>102.4</ele>
        <time>2018-04-03T11:30:17Z</time>
      </trkpt>
      <trkpt lat="62.630313015018" lon="17.999339585373">
        <ele>102.8</ele>
        <time>2018-04-03T11:30:18Z</time>
      </trkpt>
      <trkpt lat="62.630297424684" lon="17.999272194897">
        <ele>102.8</ele>
        <time>2018-04-03T11:30:19Z</time>
      </trkpt>
      <trkpt lat="62.630281499074" lon="17.999202625127">
        <ele>102.8</ele>
        <time>2018-04-03T11:30:20Z</time>
      </trkpt>
      <trkpt lat="62.630273284812" lon="17.999142443085">
        <ele>103</ele>
        <time>2018-04-03T11:30:21Z</time>
      </trkpt>
      <trkpt lat="62.630265322007" lon="17.999063988501">
        <ele>103</ele>
        <time>2018-04-03T11:30:22Z</time>
      </trkpt>
      <trkpt lat="62.630262723618" lon="17.999003135907">
        <ele>102.8</ele>
        <time>2018-04-03T11:30:23Z</time>
      </trkpt>
      <trkpt lat="62.630259287039" lon="17.998936918897">
        <ele>103</ele>
        <time>2018-04-03T11:30:24Z</time>
      </trkpt>
      <trkpt lat="62.63025333589" lon="17.998862236168">
        <ele>103</ele>
        <time>2018-04-03T11:30:25Z</time>
      </trkpt>
      <trkpt lat="62.630250905139" lon="17.99879417514">
        <ele>103</ele>
        <time>2018-04-03T11:30:26Z</time>
      </trkpt>
      <trkpt lat="62.630270351147" lon="17.998702309516">
        <ele>103.2</ele>
        <time>2018-04-03T11:30:27Z</time>
      </trkpt>
      <trkpt lat="62.630280409427" lon="17.998621675638">
        <ele>103.2</ele>
        <time>2018-04-03T11:30:28Z</time>
      </trkpt>
      <trkpt lat="62.630271608432" lon="17.998560068673">
        <ele>103.2</ele>
        <time>2018-04-03T11:30:29Z</time>
      </trkpt>
      <trkpt lat="62.630271105518" lon="17.998500054269">
        <ele>103.2</ele>
        <time>2018-04-03T11:30:30Z</time>
      </trkpt>
      <trkpt lat="62.630273955364" lon="17.998443057349">
        <ele>103.2</ele>
        <time>2018-04-03T11:30:31Z</time>
      </trkpt>
      <trkpt lat="62.630283678368" lon="17.998367787887">
        <ele>103.6</ele>
        <time>2018-04-03T11:30:32Z</time>
      </trkpt>
      <trkpt lat="62.630301867091" lon="17.9983113777">
        <ele>103.6</ele>
        <time>2018-04-03T11:30:33Z</time>
      </trkpt>
      <trkpt lat="62.630299855435" lon="17.998221104637">
        <ele>103.6</ele>
        <time>2018-04-03T11:30:34Z</time>
      </trkpt>
      <trkpt lat="62.63030949462" lon="17.9981437397">
        <ele>103.6</ele>
        <time>2018-04-03T11:30:35Z</time>
      </trkpt>
      <trkpt lat="62.630326174601" lon="17.998071320084">
        <ele>103.6</ele>
        <time>2018-04-03T11:30:36Z</time>
      </trkpt>
      <trkpt lat="62.630333131578" lon="17.998002337047">
        <ele>103.6</ele>
        <time>2018-04-03T11:30:37Z</time>
      </trkpt>
      <trkpt lat="62.63034218403" lon="17.997950033991">
        <ele>103.6</ele>
        <time>2018-04-03T11:30:38Z</time>
      </trkpt>
      <trkpt lat="62.630363054961" lon="17.997884403714">
        <ele>103.6</ele>
        <time>2018-04-03T11:30:39Z</time>
      </trkpt>
      <trkpt lat="62.630363222599" lon="17.997829669907">
        <ele>103.6</ele>
        <time>2018-04-03T11:30:40Z</time>
      </trkpt>
      <trkpt lat="62.6303614624" lon="17.997756328282">
        <ele>103.8</ele>
        <time>2018-04-03T11:30:41Z</time>
      </trkpt>
      <trkpt lat="62.630366994454" lon="17.997684830675">
        <ele>103.8</ele>
        <time>2018-04-03T11:30:42Z</time>
      </trkpt>
      <trkpt lat="62.630378729114" lon="17.997614422715">
        <ele>104.2</ele>
        <time>2018-04-03T11:30:43Z</time>
      </trkpt>
      <trkpt lat="62.630375208716" lon="17.997533369742">
        <ele>104.4</ele>
        <time>2018-04-03T11:30:44Z</time>
      </trkpt>
      <trkpt lat="62.630390379955" lon="17.997466985094">
        <ele>104.4</ele>
        <time>2018-04-03T11:30:45Z</time>
      </trkpt>
      <trkpt lat="62.630404964461" lon="17.99742205811">
        <ele>104.6</ele>
        <time>2018-04-03T11:30:46Z</time>
      </trkpt>
      <trkpt lat="62.630415609474" lon="17.997368078674">
        <ele>104.6</ele>
        <time>2018-04-03T11:30:47Z</time>
      </trkpt>
      <trkpt lat="62.630450226721" lon="17.997275458679">
        <ele>104.6</ele>
        <time>2018-04-03T11:30:48Z</time>
      </trkpt>
      <trkpt lat="62.63046455977" lon="17.99722340708">
        <ele>104.2</ele>
        <time>2018-04-03T11:30:49Z</time>
      </trkpt>
      <trkpt lat="62.630482497036" lon="17.997168337997">
        <ele>104.2</ele>
        <time>2018-04-03T11:30:50Z</time>
      </trkpt>
      <trkpt lat="62.630502110682" lon="17.997119136244">
        <ele>104.2</ele>
        <time>2018-04-03T11:30:51Z</time>
      </trkpt>
      <trkpt lat="62.630504457614" lon="17.997081250056">
        <ele>104</ele>
        <time>2018-04-03T11:30:52Z</time>
      </trkpt>
      <trkpt lat="62.630559694335" lon="17.997025845697">
        <ele>104</ele>
        <time>2018-04-03T11:30:53Z</time>
      </trkpt>
      <trkpt lat="62.630564891113" lon="17.996990138803">
        <ele>104</ele>
        <time>2018-04-03T11:30:54Z</time>
      </trkpt>
      <trkpt lat="62.630582493103" lon="17.996954767185">
        <ele>104</ele>
        <time>2018-04-03T11:30:55Z</time>
      </trkpt>
      <trkpt lat="62.630590539727" lon="17.996893746953">
        <ele>104</ele>
        <time>2018-04-03T11:30:56Z</time>
      </trkpt>
      <trkpt lat="62.630603196396" lon="17.996851502177">
        <ele>104</ele>
        <time>2018-04-03T11:30:57Z</time>
      </trkpt>
      <trkpt lat="62.630622726223" lon="17.996780926579">
        <ele>104.2</ele>
        <time>2018-04-03T11:30:58Z</time>
      </trkpt>
      <trkpt lat="62.630649045389" lon="17.996732311559">
        <ele>104.2</ele>
        <time>2018-04-03T11:30:59Z</time>
      </trkpt>
      <trkpt lat="62.630673604356" lon="17.996693335724">
        <ele>104</ele>
        <time>2018-04-03T11:31:00Z</time>
      </trkpt>
      <trkpt lat="62.630682405351" lon="17.996632902225">
        <ele>104.2</ele>
        <time>2018-04-03T11:31:01Z</time>
      </trkpt>
      <trkpt lat="62.630716687322" lon="17.996584538662">
        <ele>104.2</ele>
        <time>2018-04-03T11:31:02Z</time>
      </trkpt>
      <trkpt lat="62.630732696751" lon="17.996517232005">
        <ele>104.2</ele>
        <time>2018-04-03T11:31:03Z</time>
      </trkpt>
      <trkpt lat="62.630740659556" lon="17.996465599501">
        <ele>104.2</ele>
        <time>2018-04-03T11:31:04Z</time>
      </trkpt>
      <trkpt lat="62.630747784171" lon="17.996395862093">
        <ele>104.2</ele>
        <time>2018-04-03T11:31:05Z</time>
      </trkpt>
      <trkpt lat="62.630757004261" lon="17.996328471617">
        <ele>104.2</ele>
        <time>2018-04-03T11:31:06Z</time>
      </trkpt>
      <trkpt lat="62.630771588767" lon="17.996256303458">
        <ele>104.4</ele>
        <time>2018-04-03T11:31:07Z</time>
      </trkpt>
      <trkpt lat="62.630796818286" lon="17.996194696493">
        <ele>104.4</ele>
        <time>2018-04-03T11:31:08Z</time>
      </trkpt>
      <trkpt lat="62.630821461072" lon="17.996137867211">
        <ele>104.4</ele>
        <time>2018-04-03T11:31:09Z</time>
      </trkpt>
      <trkpt lat="62.630851552093" lon="17.996094700426">
        <ele>104.6</ele>
        <time>2018-04-03T11:31:10Z</time>
      </trkpt>
      <trkpt lat="62.63086353821" lon="17.996062262473">
        <ele>104.4</ele>
        <time>2018-04-03T11:31:11Z</time>
      </trkpt>
      <trkpt lat="62.630895976163" lon="17.996011887254">
        <ele>104.4</ele>
        <time>2018-04-03T11:31:12Z</time>
      </trkpt>
      <trkpt lat="62.630927492107" lon="17.99598456226">
        <ele>104.4</ele>
        <time>2018-04-03T11:31:13Z</time>
      </trkpt>
      <trkpt lat="62.630953811273" lon="17.995943155674">
        <ele>104.4</ele>
        <time>2018-04-03T11:31:14Z</time>
      </trkpt>
      <trkpt lat="62.630976190946" lon="17.995899234518">
        <ele>104.6</ele>
        <time>2018-04-03T11:31:15Z</time>
      </trkpt>
      <trkpt lat="62.630984405208" lon="17.995873166809">
        <ele>104.4</ele>
        <time>2018-04-03T11:31:16Z</time>
      </trkpt>
      <trkpt lat="62.63100016318" lon="17.99584961367">
        <ele>104.4</ele>
        <time>2018-04-03T11:31:17Z</time>
      </trkpt>
      <trkpt lat="62.631022961948" lon="17.995808458541">
        <ele>104.4</ele>
        <time>2018-04-03T11:31:18Z</time>
      </trkpt>
      <trkpt lat="62.631048610562" lon="17.995775769131">
        <ele>104.6</ele>
        <time>2018-04-03T11:31:19Z</time>
      </trkpt>
      <trkpt lat="62.631077947212" lon="17.995748444137">
        <ele>104.4</ele>
        <time>2018-04-03T11:31:20Z</time>
      </trkpt>
      <trkpt lat="62.631111307174" lon="17.995692536864">
        <ele>104.4</ele>
        <time>2018-04-03T11:31:21Z</time>
      </trkpt>
      <trkpt lat="62.631153468131" lon="17.995669486639">
        <ele>104.4</ele>
        <time>2018-04-03T11:31:22Z</time>
      </trkpt>
      <trkpt lat="62.631185822265" lon="17.995641407274">
        <ele>104.6</ele>
        <time>2018-04-03T11:31:23Z</time>
      </trkpt>
      <trkpt lat="62.631217924942" lon="17.995624224379">
        <ele>104.6</ele>
        <time>2018-04-03T11:31:24Z</time>
      </trkpt>
      <trkpt lat="62.631261427003" lon="17.99559312753">
        <ele>104.6</ele>
        <time>2018-04-03T11:31:25Z</time>
      </trkpt>
      <trkpt lat="62.63128766235" lon="17.995575190264">
        <ele>104.8</ele>
        <time>2018-04-03T11:31:26Z</time>
      </trkpt>
      <trkpt lat="62.631310796394" lon="17.995558007369">
        <ele>104.8</ele>
        <time>2018-04-03T11:31:27Z</time>
      </trkpt>
      <trkpt lat="62.631315993172" lon="17.995516349326">
        <ele>104.8</ele>
        <time>2018-04-03T11:31:28Z</time>
      </trkpt>
      <trkpt lat="62.631334265714" lon="17.99548500102">
        <ele>105</ele>
        <time>2018-04-03T11:31:29Z</time>
      </trkpt>
      <trkpt lat="62.631343988718" lon="17.995441079864">
        <ele>105</ele>
        <time>2018-04-03T11:31:30Z</time>
      </trkpt>
      <trkpt lat="62.631376594309" lon="17.995392883939">
        <ele>105</ele>
        <time>2018-04-03T11:31:31Z</time>
      </trkpt>
      <trkpt lat="62.631402326742" lon="17.995336473752">
        <ele>105</ele>
        <time>2018-04-03T11:31:32Z</time>
      </trkpt>
      <trkpt lat="62.631422694759" lon="17.995296492089">
        <ele>105.2</ele>
        <time>2018-04-03T11:31:33Z</time>
      </trkpt>
      <trkpt lat="62.631435351428" lon="17.995245613956">
        <ele>105.2</ele>
        <time>2018-04-03T11:31:34Z</time>
      </trkpt>
      <trkpt lat="62.631450103572" lon="17.995203704456">
        <ele>105.4</ele>
        <time>2018-04-03T11:31:35Z</time>
      </trkpt>
      <trkpt lat="62.631474746358" lon="17.995140253473">
        <ele>105.2</ele>
        <time>2018-04-03T11:31:36Z</time>
      </trkpt>
      <trkpt lat="62.631484134086" lon="17.995096164679">
        <ele>105.2</ele>
        <time>2018-04-03T11:31:37Z</time>
      </trkpt>
      <trkpt lat="62.63149720985" lon="17.995032462239">
        <ele>105.4</ele>
        <time>2018-04-03T11:31:38Z</time>
      </trkpt>
      <trkpt lat="62.631528641975" lon="17.994950990171">
        <ele>105.4</ele>
        <time>2018-04-03T11:31:39Z</time>
      </trkpt>
      <trkpt lat="62.631540125178" lon="17.994868763732">
        <ele>105.4</ele>
        <time>2018-04-03T11:31:40Z</time>
      </trkpt>
      <trkpt lat="62.631545992508" lon="17.994794751555">
        <ele>105.4</ele>
        <time>2018-04-03T11:31:41Z</time>
      </trkpt>
      <trkpt lat="62.631548171802" lon="17.994720739378">
        <ele>105.4</ele>
        <time>2018-04-03T11:31:42Z</time>
      </trkpt>
      <trkpt lat="62.63154833944" lon="17.994612948144">
        <ele>105.2</ele>
        <time>2018-04-03T11:31:43Z</time>
      </trkpt>
      <trkpt lat="62.631558984453" lon="17.994546563496">
        <ele>105.2</ele>
        <time>2018-04-03T11:31:44Z</time>
      </trkpt>
      <trkpt lat="62.631571473484" lon="17.994471377853">
        <ele>105.2</ele>
        <time>2018-04-03T11:31:45Z</time>
      </trkpt>
      <trkpt lat="62.63158689618" lon="17.994359647126">
        <ele>105.2</ele>
        <time>2018-04-03T11:31:46Z</time>
      </trkpt>
      <trkpt lat="62.631592428234" lon="17.994302566387">
        <ele>105</ele>
        <time>2018-04-03T11:31:47Z</time>
      </trkpt>
      <trkpt lat="62.63156175048" lon="17.994210868401">
        <ele>105</ele>
        <time>2018-04-03T11:31:48Z</time>
      </trkpt>
      <trkpt lat="62.631551440743" lon="17.99412545684">
        <ele>105</ele>
        <time>2018-04-03T11:31:49Z</time>
      </trkpt>
      <trkpt lat="62.631540879549" lon="17.994036441062">
        <ele>104.8</ele>
        <time>2018-04-03T11:31:50Z</time>
      </trkpt>
      <trkpt lat="62.631536185685" lon="17.99395195151">
        <ele>104.6</ele>
        <time>2018-04-03T11:31:51Z</time>
      </trkpt>
      <trkpt lat="62.631527636147" lon="17.993867042863">
        <ele>104.4</ele>
        <time>2018-04-03T11:31:52Z</time>
      </trkpt>
      <trkpt lat="62.631500394972" lon="17.993775596334">
        <ele>104.4</ele>
        <time>2018-04-03T11:31:53Z</time>
      </trkpt>
      <trkpt lat="62.631478685851" lon="17.993662608322">
        <ele>104.2</ele>
        <time>2018-04-03T11:31:54Z</time>
      </trkpt>
      <trkpt lat="62.631483379715" lon="17.9935756042">
        <ele>104.2</ele>
        <time>2018-04-03T11:31:55Z</time>
      </trkpt>
      <trkpt lat="62.631493605633" lon="17.993497820168">
        <ele>104.2</ele>
        <time>2018-04-03T11:31:56Z</time>
      </trkpt>
      <trkpt lat="62.631506262302" lon="17.993429004769">
        <ele>104</ele>
        <time>2018-04-03T11:31:57Z</time>
      </trkpt>
      <trkpt lat="62.631513806012" lon="17.99331325073">
        <ele>103.8</ele>
        <time>2018-04-03T11:31:58Z</time>
      </trkpt>
      <trkpt lat="62.631531994735" lon="17.993219960183">
        <ele>103.6</ele>
        <time>2018-04-03T11:31:59Z</time>
      </trkpt>
      <trkpt lat="62.631545741051" lon="17.993125160894">
        <ele>103.6</ele>
        <time>2018-04-03T11:32:00Z</time>
      </trkpt>
      <trkpt lat="62.631562085756" lon="17.993050310527">
        <ele>103.4</ele>
        <time>2018-04-03T11:32:01Z</time>
      </trkpt>
      <trkpt lat="62.631579101013" lon="17.992929946443">
        <ele>103</ele>
        <time>2018-04-03T11:32:02Z</time>
      </trkpt>
      <trkpt lat="62.631592931148" lon="17.992846965633">
        <ele>103.2</ele>
        <time>2018-04-03T11:32:03Z</time>
      </trkpt>
      <trkpt lat="62.631591590044" lon="17.992798099156">
        <ele>103.4</ele>
        <time>2018-04-03T11:32:04Z</time>
      </trkpt>
      <trkpt lat="62.631598127926" lon="17.992737330381">
        <ele>103.2</ele>
        <time>2018-04-03T11:32:05Z</time>
      </trkpt>
      <trkpt lat="62.631611455147" lon="17.992678992357">
        <ele>103</ele>
        <time>2018-04-03T11:32:06Z</time>
      </trkpt>
      <trkpt lat="62.631602989428" lon="17.992511438176">
        <ele>103.2</ele>
        <time>2018-04-03T11:32:08Z</time>
      </trkpt>
      <trkpt lat="62.631594188433" lon="17.992443460967">
        <ele>103.2</ele>
        <time>2018-04-03T11:32:09Z</time>
      </trkpt>
      <trkpt lat="62.631563091584" lon="17.992406915883">
        <ele>103</ele>
        <time>2018-04-03T11:32:10Z</time>
      </trkpt>
      <trkpt lat="62.631535179857" lon="17.992378333604">
        <ele>103</ele>
        <time>2018-04-03T11:32:11Z</time>
      </trkpt>
      <trkpt lat="62.631522607007" lon="17.992371376627">
        <ele>103</ele>
        <time>2018-04-03T11:32:12Z</time>
      </trkpt>
      <trkpt lat="62.631466532096" lon="17.992350589515">
        <ele>102.8</ele>
        <time>2018-04-03T11:32:13Z</time>
      </trkpt>
      <trkpt lat="62.63142764008" lon="17.992336675561">
        <ele>102.8</ele>
        <time>2018-04-03T11:32:14Z</time>
      </trkpt>
      <trkpt lat="62.631389418616" lon="17.992322342512">
        <ele>102.8</ele>
        <time>2018-04-03T11:32:15Z</time>
      </trkpt>
      <trkpt lat="62.631360920156" lon="17.992310607852">
        <ele>102.8</ele>
        <time>2018-04-03T11:32:16Z</time>
      </trkpt>
      <trkpt lat="62.631310964032" lon="17.992285797428">
        <ele>102.6</ele>
        <time>2018-04-03T11:32:17Z</time>
      </trkpt>
      <trkpt lat="62.631277184975" lon="17.99226551323">
        <ele>102.6</ele>
        <time>2018-04-03T11:32:18Z</time>
      </trkpt>
      <trkpt lat="62.631247848325" lon="17.992227375585">
        <ele>102.2</ele>
        <time>2018-04-03T11:32:19Z</time>
      </trkpt>
      <trkpt lat="62.631219014589" lon="17.992189992311">
        <ele>102</ele>
        <time>2018-04-03T11:32:20Z</time>
      </trkpt>
      <trkpt lat="62.63120049059" lon="17.992119584351">
        <ele>101.6</ele>
        <time>2018-04-03T11:32:21Z</time>
      </trkpt>
      <trkpt lat="62.631185906084" lon="17.992058815576">
        <ele>101.2</ele>
        <time>2018-04-03T11:32:22Z</time>
      </trkpt>
      <trkpt lat="62.631180709306" lon="17.991948342134">
        <ele>101</ele>
        <time>2018-04-03T11:32:23Z</time>
      </trkpt>
      <trkpt lat="62.631182134229" lon="17.991863601125">
        <ele>101</ele>
        <time>2018-04-03T11:32:24Z</time>
      </trkpt>
      <trkpt lat="62.631186995731" lon="17.991758073004">
        <ele>100.8</ele>
        <time>2018-04-03T11:32:25Z</time>
      </trkpt>
      <trkpt lat="62.631204430083" lon="17.991668470493">
        <ele>100.8</ele>
        <time>2018-04-03T11:32:26Z</time>
      </trkpt>
      <trkpt lat="62.631208788671" lon="17.99159999037">
        <ele>100.6</ele>
        <time>2018-04-03T11:32:27Z</time>
      </trkpt>
      <trkpt lat="62.63123234181" lon="17.991526900202">
        <ele>100.2</ele>
        <time>2018-04-03T11:32:28Z</time>
      </trkpt>
      <trkpt lat="62.631250865809" lon="17.991456911337">
        <ele>100</ele>
        <time>2018-04-03T11:32:29Z</time>
      </trkpt>
      <trkpt lat="62.63127341312" lon="17.99138709011">
        <ele>99.8</ele>
        <time>2018-04-03T11:32:30Z</time>
      </trkpt>
      <trkpt lat="62.631297804449" lon="17.991323303851">
        <ele>99.8</ele>
        <time>2018-04-03T11:32:31Z</time>
      </trkpt>
      <trkpt lat="62.631322531054" lon="17.991238562842">
        <ele>99.6</ele>
        <time>2018-04-03T11:32:32Z</time>
      </trkpt>
      <trkpt lat="62.631341725605" lon="17.991156252584">
        <ele>99.6</ele>
        <time>2018-04-03T11:32:33Z</time>
      </trkpt>
      <trkpt lat="62.631352035342" lon="17.991068661729">
        <ele>99.8</ele>
        <time>2018-04-03T11:32:34Z</time>
      </trkpt>
      <trkpt lat="62.631364189097" lon="17.990987022023">
        <ele>99.8</ele>
        <time>2018-04-03T11:32:35Z</time>
      </trkpt>
      <trkpt lat="62.631373660644" lon="17.990904963222">
        <ele>99.6</ele>
        <time>2018-04-03T11:32:36Z</time>
      </trkpt>
      <trkpt lat="62.631394447756" lon="17.990819886937">
        <ele>99.6</ele>
        <time>2018-04-03T11:32:37Z</time>
      </trkpt>
      <trkpt lat="62.63140836171" lon="17.990733553367">
        <ele>99.4</ele>
        <time>2018-04-03T11:32:38Z</time>
      </trkpt>
      <trkpt lat="62.631422946216" lon="17.990650740195">
        <ele>99.4</ele>
        <time>2018-04-03T11:32:39Z</time>
      </trkpt>
      <trkpt lat="62.631433926505" lon="17.990569938679">
        <ele>99.4</ele>
        <time>2018-04-03T11:32:40Z</time>
      </trkpt>
      <trkpt lat="62.631447086088" lon="17.990485449127">
        <ele>99.4</ele>
        <time>2018-04-03T11:32:41Z</time>
      </trkpt>
      <trkpt lat="62.631464101345" lon="17.990421579049">
        <ele>99.4</ele>
        <time>2018-04-03T11:32:42Z</time>
      </trkpt>
      <trkpt lat="62.631474997815" lon="17.990358044247">
        <ele>99.4</ele>
        <time>2018-04-03T11:32:43Z</time>
      </trkpt>
      <trkpt lat="62.631490252873" lon="17.990262658225">
        <ele>99.6</ele>
        <time>2018-04-03T11:32:44Z</time>
      </trkpt>
      <trkpt lat="62.631506094664" lon="17.990189903333">
        <ele>99.8</ele>
        <time>2018-04-03T11:32:45Z</time>
      </trkpt>
      <trkpt lat="62.631512800184" lon="17.990139360476">
        <ele>99.8</ele>
        <time>2018-04-03T11:32:46Z</time>
      </trkpt>
      <trkpt lat="62.631524953939" lon="17.990038190943">
        <ele>100</ele>
        <time>2018-04-03T11:32:47Z</time>
      </trkpt>
      <trkpt lat="62.631543142662" lon="17.989954204305">
        <ele>99.8</ele>
        <time>2018-04-03T11:32:48Z</time>
      </trkpt>
      <trkpt lat="62.631553536218" lon="17.989870133848">
        <ele>99.6</ele>
        <time>2018-04-03T11:32:49Z</time>
      </trkpt>
      <trkpt lat="62.631563845955" lon="17.98979201454">
        <ele>99.2</ele>
        <time>2018-04-03T11:32:50Z</time>
      </trkpt>
      <trkpt lat="62.631574490968" lon="17.989724875521">
        <ele>99.2</ele>
        <time>2018-04-03T11:32:51Z</time>
      </trkpt>
      <trkpt lat="62.631573568959" lon="17.989665615488">
        <ele>99.2</ele>
        <time>2018-04-03T11:32:52Z</time>
      </trkpt>
      <trkpt lat="62.631589326931" lon="17.989563272489">
        <ele>99</ele>
        <time>2018-04-03T11:32:53Z</time>
      </trkpt>
      <trkpt lat="62.631594523709" lon="17.989494876185">
        <ele>99</ele>
        <time>2018-04-03T11:32:54Z</time>
      </trkpt>
      <trkpt lat="62.631608856758" lon="17.989412817384">
        <ele>99</ele>
        <time>2018-04-03T11:32:55Z</time>
      </trkpt>
      <trkpt lat="62.631628554223" lon="17.989341487415">
        <ele>99.2</ele>
        <time>2018-04-03T11:32:56Z</time>
      </trkpt>
      <trkpt lat="62.631631990802" lon="17.989268061971">
        <ele>99.2</ele>
        <time>2018-04-03T11:32:57Z</time>
      </trkpt>
      <trkpt lat="62.631643474005" lon="17.989180387297">
        <ele>99</ele>
        <time>2018-04-03T11:32:58Z</time>
      </trkpt>
      <trkpt lat="62.631650766258" lon="17.989107967681">
        <ele>99.2</ele>
        <time>2018-04-03T11:32:59Z</time>
      </trkpt>
      <trkpt lat="62.631657471778" lon="17.98899489585">
        <ele>99.2</ele>
        <time>2018-04-03T11:33:00Z</time>
      </trkpt>
      <trkpt lat="62.63166317147" lon="17.988921889501">
        <ele>99</ele>
        <time>2018-04-03T11:33:01Z</time>
      </trkpt>
      <trkpt lat="62.631665937497" lon="17.988857935604">
        <ele>99</ele>
        <time>2018-04-03T11:33:02Z</time>
      </trkpt>
      <trkpt lat="62.631682114564" lon="17.988744360859">
        <ele>98.8</ele>
        <time>2018-04-03T11:33:03Z</time>
      </trkpt>
      <trkpt lat="62.631683455668" lon="17.988655261262">
        <ele>98.8</ele>
        <time>2018-04-03T11:33:04Z</time>
      </trkpt>
      <trkpt lat="62.631694100681" lon="17.988556438661">
        <ele>98.6</ele>
        <time>2018-04-03T11:33:05Z</time>
      </trkpt>
      <trkpt lat="62.631710193929" lon="17.988471446195">
        <ele>98.6</ele>
        <time>2018-04-03T11:33:06Z</time>
      </trkpt>
      <trkpt lat="62.631716396535" lon="17.988399110398">
        <ele>98.6</ele>
        <time>2018-04-03T11:33:07Z</time>
      </trkpt>
      <trkpt lat="62.631732992697" lon="17.988291822078">
        <ele>98.4</ele>
        <time>2018-04-03T11:33:08Z</time>
      </trkpt>
      <trkpt lat="62.631739949674" lon="17.988224683059">
        <ele>98.4</ele>
        <time>2018-04-03T11:33:09Z</time>
      </trkpt>
      <trkpt lat="62.631757384026" lon="17.988109683391">
        <ele>98.2</ele>
        <time>2018-04-03T11:33:10Z</time>
      </trkpt>
      <trkpt lat="62.631758808949" lon="17.988031312626">
        <ele>98</ele>
        <time>2018-04-03T11:33:11Z</time>
      </trkpt>
      <trkpt lat="62.631767609944" lon="17.987945901065">
        <ele>97.8</ele>
        <time>2018-04-03T11:33:12Z</time>
      </trkpt>
      <trkpt lat="62.631782529726" lon="17.987827883913">
        <ele>97.8</ele>
        <time>2018-04-03T11:33:13Z</time>
      </trkpt>
      <trkpt lat="62.631800802268" lon="17.987755631935">
        <ele>97.8</ele>
        <time>2018-04-03T11:33:14Z</time>
      </trkpt>
      <trkpt lat="62.631820499733" lon="17.987623197915">
        <ele>97.6</ele>
        <time>2018-04-03T11:33:15Z</time>
      </trkpt>
      <trkpt lat="62.631828630176" lon="17.987549353376">
        <ele>97.6</ele>
        <time>2018-04-03T11:33:16Z</time>
      </trkpt>
      <trkpt lat="62.631841286845" lon="17.987442987065">
        <ele>97.8</ele>
        <time>2018-04-03T11:33:17Z</time>
      </trkpt>
      <trkpt lat="62.631849082012" lon="17.987326562474">
        <ele>97.8</ele>
        <time>2018-04-03T11:33:18Z</time>
      </trkpt>
      <trkpt lat="62.63186685164" lon="17.987253723763">
        <ele>97.6</ele>
        <time>2018-04-03T11:33:19Z</time>
      </trkpt>
      <trkpt lat="62.631886716743" lon="17.987146351624">
        <ele>97.6</ele>
        <time>2018-04-03T11:33:20Z</time>
      </trkpt>
      <trkpt lat="62.631894931005" lon="17.987064711918">
        <ele>97.4</ele>
        <time>2018-04-03T11:33:21Z</time>
      </trkpt>
      <trkpt lat="62.63191043752" lon="17.986956585408">
        <ele>97.2</ele>
        <time>2018-04-03T11:33:22Z</time>
      </trkpt>
      <trkpt lat="62.63192133399" lon="17.986837310971">
        <ele>97</ele>
        <time>2018-04-03T11:33:23Z</time>
      </trkpt>
      <trkpt lat="62.631943294568" lon="17.98676614864">
        <ele>97</ele>
        <time>2018-04-03T11:33:24Z</time>
      </trkpt>
      <trkpt lat="62.631959555454" lon="17.986643018529">
        <ele>97</ele>
        <time>2018-04-03T11:33:25Z</time>
      </trkpt>
      <trkpt lat="62.631972044485" lon="17.986555092398">
        <ele>97</ele>
        <time>2018-04-03T11:33:26Z</time>
      </trkpt>
      <trkpt lat="62.631990317027" lon="17.986463813507">
        <ele>97</ele>
        <time>2018-04-03T11:33:27Z</time>
      </trkpt>
      <trkpt lat="62.632014875994" lon="17.986363482164">
        <ele>97</ele>
        <time>2018-04-03T11:33:28Z</time>
      </trkpt>
      <trkpt lat="62.632040859884" lon="17.986283099743">
        <ele>97</ele>
        <time>2018-04-03T11:33:29Z</time>
      </trkpt>
      <trkpt lat="62.632055276752" lon="17.986172961577">
        <ele>96.6</ele>
        <time>2018-04-03T11:33:30Z</time>
      </trkpt>
      <trkpt lat="62.63206885543" lon="17.986077575555">
        <ele>96.6</ele>
        <time>2018-04-03T11:33:31Z</time>
      </trkpt>
      <trkpt lat="62.63208645742" lon="17.986018818436">
        <ele>96.6</ele>
        <time>2018-04-03T11:33:32Z</time>
      </trkpt>
      <trkpt lat="62.632099365546" lon="17.985894263402">
        <ele>96.6</ele>
        <time>2018-04-03T11:33:33Z</time>
      </trkpt>
      <trkpt lat="62.632106071066" lon="17.985824106899">
        <ele>96.6</ele>
        <time>2018-04-03T11:33:34Z</time>
      </trkpt>
      <trkpt lat="62.632129288929" lon="17.985715645113">
        <ele>96.6</ele>
        <time>2018-04-03T11:33:35Z</time>
      </trkpt>
      <trkpt lat="62.63215183624" lon="17.985620007634">
        <ele>96.8</ele>
        <time>2018-04-03T11:33:36Z</time>
      </trkpt>
      <trkpt lat="62.632165666375" lon="17.98556083142">
        <ele>96.6</ele>
        <time>2018-04-03T11:33:37Z</time>
      </trkpt>
      <trkpt lat="62.632180586157" lon="17.985437114576">
        <ele>96.6</ele>
        <time>2018-04-03T11:33:38Z</time>
      </trkpt>
      <trkpt lat="62.632198691061" lon="17.985364108227">
        <ele>96.6</ele>
        <time>2018-04-03T11:33:39Z</time>
      </trkpt>
      <trkpt lat="62.632200032165" lon="17.985309122963">
        <ele>96.4</ele>
        <time>2018-04-03T11:33:40Z</time>
      </trkpt>
      <trkpt lat="62.632212018282" lon="17.985187585413">
        <ele>96.4</ele>
        <time>2018-04-03T11:33:41Z</time>
      </trkpt>
      <trkpt lat="62.632222579476" lon="17.985134611805">
        <ele>96.4</ele>
        <time>2018-04-03T11:33:42Z</time>
      </trkpt>
      <trkpt lat="62.632230374643" lon="17.985028916046">
        <ele>96.4</ele>
        <time>2018-04-03T11:33:43Z</time>
      </trkpt>
      <trkpt lat="62.632244372416" lon="17.984935709318">
        <ele>96.2</ele>
        <time>2018-04-03T11:33:44Z</time>
      </trkpt>
      <trkpt lat="62.632260298026" lon="17.984872342154">
        <ele>96.2</ele>
        <time>2018-04-03T11:33:45Z</time>
      </trkpt>
      <trkpt lat="62.632253843963" lon="17.984767819861">
        <ele>96.2</ele>
        <time>2018-04-03T11:33:46Z</time>
      </trkpt>
      <trkpt lat="62.632255101248" lon="17.984686766888">
        <ele>96.2</ele>
        <time>2018-04-03T11:33:47Z</time>
      </trkpt>
      <trkpt lat="62.632248731004" lon="17.984617364756">
        <ele>96</ele>
        <time>2018-04-03T11:33:48Z</time>
      </trkpt>
      <trkpt lat="62.632242444579" lon="17.984528851892">
        <ele>96.2</ele>
        <time>2018-04-03T11:33:49Z</time>
      </trkpt>
      <trkpt lat="62.632236325792" lon="17.98445693519">
        <ele>96</ele>
        <time>2018-04-03T11:33:50Z</time>
      </trkpt>
      <trkpt lat="62.632238672724" lon="17.984399519175">
        <ele>96.2</ele>
        <time>2018-04-03T11:33:51Z</time>
      </trkpt>
      <trkpt lat="62.63223649343" lon="17.984325842274">
        <ele>96.2</ele>
        <time>2018-04-03T11:33:52Z</time>
      </trkpt>
      <trkpt lat="62.632223752942" lon="17.984240933627">
        <ele>96.2</ele>
        <time>2018-04-03T11:33:53Z</time>
      </trkpt>
      <trkpt lat="62.632204055477" lon="17.984172453504">
        <ele>96.2</ele>
        <time>2018-04-03T11:33:54Z</time>
      </trkpt>
      <trkpt lat="62.632181005252" lon="17.984097603137">
        <ele>96.2</ele>
        <time>2018-04-03T11:33:55Z</time>
      </trkpt>
      <trkpt lat="62.632166253108" lon="17.984029877385">
        <ele>96.4</ele>
        <time>2018-04-03T11:33:56Z</time>
      </trkpt>
      <trkpt lat="62.632147729109" lon="17.98396491766">
        <ele>96.4</ele>
        <time>2018-04-03T11:33:57Z</time>
      </trkpt>
      <trkpt lat="62.632125684712" lon="17.983930719508">
        <ele>96.4</ele>
        <time>2018-04-03T11:33:58Z</time>
      </trkpt>
      <trkpt lat="62.63210070665" lon="17.983877494443">
        <ele>96.4</ele>
        <time>2018-04-03T11:33:59Z</time>
      </trkpt>
      <trkpt lat="62.632060305892" lon="17.983803314628">
        <ele>96.4</ele>
        <time>2018-04-03T11:34:00Z</time>
      </trkpt>
      <trkpt lat="62.632031220699" lon="17.98376291387">
        <ele>96.4</ele>
        <time>2018-04-03T11:34:01Z</time>
      </trkpt>
      <trkpt lat="62.632008673388" lon="17.98373022446">
        <ele>96.2</ele>
        <time>2018-04-03T11:34:02Z</time>
      </trkpt>
      <trkpt lat="62.631970703381" lon="17.98366903659">
        <ele>96.2</ele>
        <time>2018-04-03T11:34:03Z</time>
      </trkpt>
      <trkpt lat="62.631944132758" lon="17.983636514818">
        <ele>96.2</ele>
        <time>2018-04-03T11:34:04Z</time>
      </trkpt>
      <trkpt lat="62.631922507456" lon="17.983596197879">
        <ele>96.2</ele>
        <time>2018-04-03T11:34:05Z</time>
      </trkpt>
      <trkpt lat="62.631891662064" lon="17.983526460471">
        <ele>96.2</ele>
        <time>2018-04-03T11:34:06Z</time>
      </trkpt>
      <trkpt lat="62.631871461685" lon="17.983465021144">
        <ele>96.4</ele>
        <time>2018-04-03T11:34:07Z</time>
      </trkpt>
      <trkpt lat="62.631835670972" lon="17.983398552677">
        <ele>96.4</ele>
        <time>2018-04-03T11:34:08Z</time>
      </trkpt>
      <trkpt lat="62.631817482249" lon="17.983346501078">
        <ele>96.4</ele>
        <time>2018-04-03T11:34:09Z</time>
      </trkpt>
      <trkpt lat="62.631812453109" lon="17.983300652085">
        <ele>96.4</ele>
        <time>2018-04-03T11:34:10Z</time>
      </trkpt>
      <trkpt lat="62.631785295753" lon="17.983210379022">
        <ele>96.4</ele>
        <time>2018-04-03T11:34:11Z</time>
      </trkpt>
      <trkpt lat="62.631764005727" lon="17.983166625504">
        <ele>96.4</ele>
        <time>2018-04-03T11:34:12Z</time>
      </trkpt>
      <trkpt lat="62.631735339629" lon="17.983091607499">
        <ele>96</ele>
        <time>2018-04-03T11:34:13Z</time>
      </trkpt>
      <trkpt lat="62.631698710726" lon="17.983026899231">
        <ele>96</ele>
        <time>2018-04-03T11:34:14Z</time>
      </trkpt>
      <trkpt lat="62.631671972465" lon="17.982994712735">
        <ele>95.8</ele>
        <time>2018-04-03T11:34:15Z</time>
      </trkpt>
      <trkpt lat="62.631629979146" lon="17.982899745808">
        <ele>95.8</ele>
        <time>2018-04-03T11:34:16Z</time>
      </trkpt>
      <trkpt lat="62.631608605301" lon="17.982841156327">
        <ele>95.8</ele>
        <time>2018-04-03T11:34:17Z</time>
      </trkpt>
      <trkpt lat="62.631598547021" lon="17.982767647064">
        <ele>95.8</ele>
        <time>2018-04-03T11:34:18Z</time>
      </trkpt>
      <trkpt lat="62.631584130153" lon="17.982665052608">
        <ele>95.8</ele>
        <time>2018-04-03T11:34:19Z</time>
      </trkpt>
      <trkpt lat="62.631592595872" lon="17.982568157844">
        <ele>95.8</ele>
        <time>2018-04-03T11:34:20Z</time>
      </trkpt>
      <trkpt lat="62.63158941075" lon="17.98248383593">
        <ele>95.8</ele>
        <time>2018-04-03T11:34:21Z</time>
      </trkpt>
      <trkpt lat="62.631579268651" lon="17.982403788785">
        <ele>96</ele>
        <time>2018-04-03T11:34:22Z</time>
      </trkpt>
      <trkpt lat="62.631574910063" lon="17.982320137423">
        <ele>95.8</ele>
        <time>2018-04-03T11:34:23Z</time>
      </trkpt>
      <trkpt lat="62.631557475711" lon="17.982263308141">
        <ele>95.8</ele>
        <time>2018-04-03T11:34:24Z</time>
      </trkpt>
      <trkpt lat="62.631530653631" lon="17.982192229629">
        <ele>95.8</ele>
        <time>2018-04-03T11:34:25Z</time>
      </trkpt>
      <trkpt lat="62.631523529016" lon="17.982170269051">
        <ele>95.6</ele>
        <time>2018-04-03T11:34:26Z</time>
      </trkpt>
      <trkpt lat="62.631486397199" lon="17.982125342067">
        <ele>95.6</ele>
        <time>2018-04-03T11:34:27Z</time>
      </trkpt>
      <trkpt lat="62.631463514612" lon="17.98209575396">
        <ele>95.6</ele>
        <time>2018-04-03T11:34:28Z</time>
      </trkpt>
      <trkpt lat="62.631437195446" lon="17.982069853889">
        <ele>95.6</ele>
        <time>2018-04-03T11:34:29Z</time>
      </trkpt>
      <trkpt lat="62.631407020606" lon="17.982039511411">
        <ele>95.8</ele>
        <time>2018-04-03T11:34:30Z</time>
      </trkpt>
      <trkpt lat="62.631391514091" lon="17.982024843086">
        <ele>95.8</ele>
        <time>2018-04-03T11:34:31Z</time>
      </trkpt>
      <trkpt lat="62.631366619848" lon="17.981996176988">
        <ele>96</ele>
        <time>2018-04-03T11:34:32Z</time>
      </trkpt>
      <trkpt lat="62.631343737261" lon="17.981970779831">
        <ele>96</ele>
        <time>2018-04-03T11:34:33Z</time>
      </trkpt>
      <trkpt lat="62.631316747543" lon="17.981958961352">
        <ele>96</ele>
        <time>2018-04-03T11:34:34Z</time>
      </trkpt>
      <trkpt lat="62.631283555219" lon="17.981925182295">
        <ele>96</ele>
        <time>2018-04-03T11:34:35Z</time>
      </trkpt>
      <trkpt lat="62.631254218569" lon="17.981903724631">
        <ele>96.2</ele>
        <time>2018-04-03T11:34:36Z</time>
      </trkpt>
      <trkpt lat="62.631230162516" lon="17.981884362442">
        <ele>96.2</ele>
        <time>2018-04-03T11:34:37Z</time>
      </trkpt>
      <trkpt lat="62.631205687368" lon="17.981855109611">
        <ele>96.2</ele>
        <time>2018-04-03T11:34:38Z</time>
      </trkpt>
      <trkpt lat="62.631191354319" lon="17.981822420201">
        <ele>96.2</ele>
        <time>2018-04-03T11:34:39Z</time>
      </trkpt>
      <trkpt lat="62.631174674338" lon="17.981794759931">
        <ele>96.2</ele>
        <time>2018-04-03T11:34:40Z</time>
      </trkpt>
      <trkpt lat="62.631155144511" lon="17.981751676965">
        <ele>96.4</ele>
        <time>2018-04-03T11:34:41Z</time>
      </trkpt>
      <trkpt lat="62.631134776494" lon="17.981714712786">
        <ele>96.6</ele>
        <time>2018-04-03T11:34:42Z</time>
      </trkpt>
      <trkpt lat="62.631118683246" lon="17.981680095539">
        <ele>96.6</ele>
        <time>2018-04-03T11:34:43Z</time>
      </trkpt>
      <trkpt lat="62.631091861166" lon="17.98164061679">
        <ele>96.8</ele>
        <time>2018-04-03T11:34:44Z</time>
      </trkpt>
      <trkpt lat="62.631066212552" lon="17.981611866873">
        <ele>97.2</ele>
        <time>2018-04-03T11:34:45Z</time>
      </trkpt>
      <trkpt lat="62.63103620535" lon="17.981597198548">
        <ele>97.6</ele>
        <time>2018-04-03T11:34:46Z</time>
      </trkpt>
      <trkpt lat="62.630993206203" lon="17.981611615416">
        <ele>97.8</ele>
        <time>2018-04-03T11:34:47Z</time>
      </trkpt>
      <trkpt lat="62.630943669174" lon="17.981649920699">
        <ele>98</ele>
        <time>2018-04-03T11:34:48Z</time>
      </trkpt>
      <trkpt lat="62.630910644488" lon="17.981699206271">
        <ele>97.8</ele>
        <time>2018-04-03T11:34:49Z</time>
      </trkpt>
      <trkpt lat="62.630885498788" lon="17.981737427735">
        <ele>97.6</ele>
        <time>2018-04-03T11:34:50Z</time>
      </trkpt>
      <trkpt lat="62.630850797722" lon="17.981778415226">
        <ele>97.4</ele>
        <time>2018-04-03T11:34:51Z</time>
      </trkpt>
      <trkpt lat="62.630815342285" lon="17.981822084925">
        <ele>97.2</ele>
        <time>2018-04-03T11:34:52Z</time>
      </trkpt>
      <trkpt lat="62.630769074197" lon="17.981870867583">
        <ele>96.8</ele>
        <time>2018-04-03T11:34:53Z</time>
      </trkpt>
      <trkpt lat="62.630741581565" lon="17.98190967578">
        <ele>96.8</ele>
        <time>2018-04-03T11:34:54Z</time>
      </trkpt>
      <trkpt lat="62.630706964318" lon="17.981944628303">
        <ele>96.6</ele>
        <time>2018-04-03T11:34:55Z</time>
      </trkpt>
      <trkpt lat="62.630667066474" lon="17.981984526147">
        <ele>96.6</ele>
        <time>2018-04-03T11:34:56Z</time>
      </trkpt>
      <trkpt lat="62.630637729824" lon="17.982035571918">
        <ele>96.4</ele>
        <time>2018-04-03T11:34:57Z</time>
      </trkpt>
      <trkpt lat="62.630603783129" lon="17.982065076206">
        <ele>96.4</ele>
        <time>2018-04-03T11:34:58Z</time>
      </trkpt>
      <trkpt lat="62.630573356832" lon="17.982106398973">
        <ele>96.4</ele>
        <time>2018-04-03T11:34:59Z</time>
      </trkpt>
      <trkpt lat="62.630549468417" lon="17.982151828871">
        <ele>96.2</ele>
        <time>2018-04-03T11:35:00Z</time>
      </trkpt>
      <trkpt lat="62.63052239488" lon="17.98216113278">
        <ele>96.4</ele>
        <time>2018-04-03T11:35:01Z</time>
      </trkpt>
      <trkpt lat="62.630481826484" lon="17.982158282934">
        <ele>96.4</ele>
        <time>2018-04-03T11:35:02Z</time>
      </trkpt>
      <trkpt lat="62.630471600566" lon="17.982194325104">
        <ele>96.4</ele>
        <time>2018-04-03T11:35:03Z</time>
      </trkpt>
      <trkpt lat="62.630455004404" lon="17.982190972344">
        <ele>96.4</ele>
        <time>2018-04-03T11:35:04Z</time>
      </trkpt>
      <trkpt lat="62.630420219519" lon="17.982208406696">
        <ele>96.4</ele>
        <time>2018-04-03T11:35:05Z</time>
      </trkpt>
      <trkpt lat="62.630401779339" lon="17.982209915438">
        <ele>96.4</ele>
        <time>2018-04-03T11:35:06Z</time>
      </trkpt>
      <trkpt lat="62.630363222599" lon="17.982205724488">
        <ele>96.6</ele>
        <time>2018-04-03T11:35:07Z</time>
      </trkpt>
      <trkpt lat="62.630288791327" lon="17.982163228255">
        <ele>96.6</ele>
        <time>2018-04-03T11:35:08Z</time>
      </trkpt>
      <trkpt lat="62.630263813265" lon="17.982140513306">
        <ele>96.6</ele>
        <time>2018-04-03T11:35:09Z</time>
      </trkpt>
      <trkpt lat="62.630211342571" lon="17.982116876348">
        <ele>96.6</ele>
        <time>2018-04-03T11:35:10Z</time>
      </trkpt>
      <trkpt lat="62.630161805542" lon="17.982062142541">
        <ele>96.6</ele>
        <time>2018-04-03T11:35:11Z</time>
      </trkpt>
      <trkpt lat="62.630130792512" lon="17.982035571918">
        <ele>96.6</ele>
        <time>2018-04-03T11:35:12Z</time>
      </trkpt>
      <trkpt lat="62.630092906324" lon="17.982015539177">
        <ele>96.8</ele>
        <time>2018-04-03T11:35:13Z</time>
      </trkpt>
      <trkpt lat="62.630055690688" lon="17.981982933586">
        <ele>96.8</ele>
        <time>2018-04-03T11:35:14Z</time>
      </trkpt>
      <trkpt lat="62.630018977966" lon="17.981963236121">
        <ele>97</ele>
        <time>2018-04-03T11:35:15Z</time>
      </trkpt>
      <trkpt lat="62.629982684339" lon="17.981924847019">
        <ele>97</ele>
        <time>2018-04-03T11:35:16Z</time>
      </trkpt>
      <trkpt lat="62.629940271925" lon="17.981901545337">
        <ele>97</ele>
        <time>2018-04-03T11:35:17Z</time>
      </trkpt>
      <trkpt lat="62.629921831745" lon="17.981848571729">
        <ele>97.2</ele>
        <time>2018-04-03T11:35:18Z</time>
      </trkpt>
      <trkpt lat="62.629896853683" lon="17.981848990824">
        <ele>97</ele>
        <time>2018-04-03T11:35:19Z</time>
      </trkpt>
      <trkpt lat="62.629854273631" lon="17.98182753316">
        <ele>97.2</ele>
        <time>2018-04-03T11:35:20Z</time>
      </trkpt>
      <trkpt lat="62.629816219805" lon="17.981802806555">
        <ele>97.2</ele>
        <time>2018-04-03T11:35:21Z</time>
      </trkpt>
      <trkpt lat="62.629794594503" lon="17.981781600348">
        <ele>97.2</ele>
        <time>2018-04-03T11:35:22Z</time>
      </trkpt>
      <trkpt lat="62.629751008623" lon="17.981738768839">
        <ele>97.2</ele>
        <time>2018-04-03T11:35:23Z</time>
      </trkpt>
      <trkpt lat="62.62971773248" lon="17.981704403049">
        <ele>97.4</ele>
        <time>2018-04-03T11:35:24Z</time>
      </trkpt>
      <trkpt lat="62.629687306183" lon="17.981678000064">
        <ele>97.6</ele>
        <time>2018-04-03T11:35:25Z</time>
      </trkpt>
      <trkpt lat="62.629667273442" lon="17.98166157154">
        <ele>97.6</ele>
        <time>2018-04-03T11:35:26Z</time>
      </trkpt>
      <trkpt lat="62.629640954276" lon="17.98163894041">
        <ele>97.8</ele>
        <time>2018-04-03T11:35:27Z</time>
      </trkpt>
      <trkpt lat="62.62960541502" lon="17.981613207977">
        <ele>98.2</ele>
        <time>2018-04-03T11:35:28Z</time>
      </trkpt>
      <trkpt lat="62.629575491637" lon="17.981590995942">
        <ele>98.2</ele>
        <time>2018-04-03T11:35:29Z</time>
      </trkpt>
      <trkpt lat="62.62955260905" lon="17.981572891038">
        <ele>98.4</ele>
        <time>2018-04-03T11:35:30Z</time>
      </trkpt>
      <trkpt lat="62.629519752002" lon="17.981546655691">
        <ele>98.4</ele>
        <time>2018-04-03T11:35:31Z</time>
      </trkpt>
      <trkpt lat="62.629492762284" lon="17.981526958226">
        <ele>98.6</ele>
        <time>2018-04-03T11:35:32Z</time>
      </trkpt>
      <trkpt lat="62.629456887752" lon="17.981507176942">
        <ele>98.4</ele>
        <time>2018-04-03T11:35:33Z</time>
      </trkpt>
      <trkpt lat="62.629441716513" lon="17.981501058155">
        <ele>98.6</ele>
        <time>2018-04-03T11:35:34Z</time>
      </trkpt>
      <trkpt lat="62.629432328785" lon="17.981499549413">
        <ele>98.6</ele>
        <time>2018-04-03T11:35:35Z</time>
      </trkpt>
      <trkpt lat="62.629437609382" lon="17.981505165286">
        <ele>98.6</ele>
        <time>2018-04-03T11:35:36Z</time>
      </trkpt>
      <trkpt lat="62.629444650178" lon="17.981497034843">
        <ele>98.6</ele>
        <time>2018-04-03T11:35:37Z</time>
      </trkpt>
      <trkpt lat="62.629457474485" lon="17.981508098951">
        <ele>98.8</ele>
        <time>2018-04-03T11:35:38Z</time>
      </trkpt>
      <trkpt lat="62.629489912438" lon="17.981515139747">
        <ele>98.8</ele>
        <time>2018-04-03T11:35:39Z</time>
      </trkpt>
      <trkpt lat="62.629520422554" lon="17.981535423945">
        <ele>99</ele>
        <time>2018-04-03T11:35:40Z</time>
      </trkpt>
      <trkpt lat="62.629555877991" lon="17.98154925408">
        <ele>99</ele>
        <time>2018-04-03T11:35:41Z</time>
      </trkpt>
      <trkpt lat="62.629582867709" lon="17.981553193573">
        <ele>99</ele>
        <time>2018-04-03T11:35:42Z</time>
      </trkpt>
      <trkpt lat="62.629608013409" lon="17.981586050621">
        <ele>99.2</ele>
        <time>2018-04-03T11:35:43Z</time>
      </trkpt>
      <trkpt lat="62.629636176593" lon="17.981591415037">
        <ele>99</ele>
        <time>2018-04-03T11:35:44Z</time>
      </trkpt>
      <trkpt lat="62.629660400284" lon="17.981618740031">
        <ele>99</ele>
        <time>2018-04-03T11:35:45Z</time>
      </trkpt>
      <trkpt lat="62.629694514617" lon="17.981635000917">
        <ele>98.8</ele>
        <time>2018-04-03T11:35:46Z</time>
      </trkpt>
      <trkpt lat="62.629734161004" lon="17.981636090564">
        <ele>98.6</ele>
        <time>2018-04-03T11:35:47Z</time>
      </trkpt>
      <trkpt lat="62.62976802388" lon="17.981655536572">
        <ele>98.6</ele>
        <time>2018-04-03T11:35:48Z</time>
      </trkpt>
      <trkpt lat="62.629808592276" lon="17.98168839362">
        <ele>98.6</ele>
        <time>2018-04-03T11:35:49Z</time>
      </trkpt>
      <trkpt lat="62.629848406301" lon="17.981723765238">
        <ele>98.6</ele>
        <time>2018-04-03T11:35:50Z</time>
      </trkpt>
      <trkpt lat="62.629907917791" lon="17.981734996984">
        <ele>98.6</ele>
        <time>2018-04-03T11:35:51Z</time>
      </trkpt>
      <trkpt lat="62.629954521155" lon="17.981765088005">
        <ele>98.6</ele>
        <time>2018-04-03T11:35:52Z</time>
      </trkpt>
      <trkpt lat="62.630008752048" lon="17.981786042755">
        <ele>98.4</ele>
        <time>2018-04-03T11:35:53Z</time>
      </trkpt>
      <trkpt lat="62.630049823358" lon="17.981824683314">
        <ele>98.2</ele>
        <time>2018-04-03T11:35:54Z</time>
      </trkpt>
      <trkpt lat="62.630095420894" lon="17.98185100248">
        <ele>97.8</ele>
        <time>2018-04-03T11:35:55Z</time>
      </trkpt>
      <trkpt lat="62.630137833308" lon="17.981885200632">
        <ele>97.4</ele>
        <time>2018-04-03T11:35:56Z</time>
      </trkpt>
      <trkpt lat="62.630171863822" lon="17.981918225318">
        <ele>97.2</ele>
        <time>2018-04-03T11:35:57Z</time>
      </trkpt>
      <trkpt lat="62.630211677847" lon="17.981956111506">
        <ele>97.2</ele>
        <time>2018-04-03T11:35:58Z</time>
      </trkpt>
      <trkpt lat="62.630250653682" lon="17.981973210582">
        <ele>97</ele>
        <time>2018-04-03T11:35:59Z</time>
      </trkpt>
      <trkpt lat="62.630301196539" lon="17.98197840736">
        <ele>97</ele>
        <time>2018-04-03T11:36:00Z</time>
      </trkpt>
      <trkpt lat="62.630345872066" lon="17.981961559741">
        <ele>96.8</ele>
        <time>2018-04-03T11:36:01Z</time>
      </trkpt>
      <trkpt lat="62.63039666638" lon="17.981957117334">
        <ele>96.8</ele>
        <time>2018-04-03T11:36:02Z</time>
      </trkpt>
      <trkpt lat="62.630426086849" lon="17.981941778457">
        <ele>96.8</ele>
        <time>2018-04-03T11:36:03Z</time>
      </trkpt>
      <trkpt lat="62.630466068512" lon="17.981929373245">
        <ele>96.8</ele>
        <time>2018-04-03T11:36:04Z</time>
      </trkpt>
      <trkpt lat="62.630507726555" lon="17.981921997173">
        <ele>96.8</ele>
        <time>2018-04-03T11:36:05Z</time>
      </trkpt>
      <trkpt lat="62.630541337974" lon="17.981902718803">
        <ele>96.8</ele>
        <time>2018-04-03T11:36:06Z</time>
      </trkpt>
      <trkpt lat="62.630579559438" lon="17.981910597789">
        <ele>96.8</ele>
        <time>2018-04-03T11:36:07Z</time>
      </trkpt>
      <trkpt lat="62.630615601608" lon="17.981875729085">
        <ele>96.8</ele>
        <time>2018-04-03T11:36:08Z</time>
      </trkpt>
      <trkpt lat="62.630657259651" lon="17.981833149033">
        <ele>96.8</ele>
        <time>2018-04-03T11:36:09Z</time>
      </trkpt>
      <trkpt lat="62.630694391468" lon="17.981805153487">
        <ele>96.8</ele>
        <time>2018-04-03T11:36:10Z</time>
      </trkpt>
      <trkpt lat="62.630718950435" lon="17.981776319751">
        <ele>96.8</ele>
        <time>2018-04-03T11:36:11Z</time>
      </trkpt>
      <trkpt lat="62.630741413927" lon="17.981746312549">
        <ele>96.8</ele>
        <time>2018-04-03T11:36:12Z</time>
      </trkpt>
      <trkpt lat="62.630782904332" lon="17.981709767465">
        <ele>96.8</ele>
        <time>2018-04-03T11:36:13Z</time>
      </trkpt>
      <trkpt lat="62.630811654249" lon="17.981675150218">
        <ele>96.6</ele>
        <time>2018-04-03T11:36:14Z</time>
      </trkpt>
      <trkpt lat="62.630843924564" lon="17.981646232663">
        <ele>96.8</ele>
        <time>2018-04-03T11:36:15Z</time>
      </trkpt>
      <trkpt lat="62.630868148255" lon="17.981622930981">
        <ele>96.8</ele>
        <time>2018-04-03T11:36:16Z</time>
      </trkpt>
      <trkpt lat="62.630910560669" lon="17.981582530223">
        <ele>96.6</ele>
        <time>2018-04-03T11:36:17Z</time>
      </trkpt>
      <trkpt lat="62.630943920631" lon="17.981554786134">
        <ele>96.8</ele>
        <time>2018-04-03T11:36:18Z</time>
      </trkpt>
      <trkpt lat="62.630977615869" lon="17.981528466968">
        <ele>96.8</ele>
        <time>2018-04-03T11:36:19Z</time>
      </trkpt>
      <trkpt lat="62.631007203976" lon="17.981497537757">
        <ele>97</ele>
        <time>2018-04-03T11:36:20Z</time>
      </trkpt>
      <trkpt lat="62.631039139015" lon="17.98147130241">
        <ele>97</ele>
        <time>2018-04-03T11:36:21Z</time>
      </trkpt>
      <trkpt lat="62.6310739239" lon="17.981450599117">
        <ele>97</ele>
        <time>2018-04-03T11:36:22Z</time>
      </trkpt>
      <trkpt lat="62.631117593599" lon="17.981440037923">
        <ele>97</ele>
        <time>2018-04-03T11:36:23Z</time>
      </trkpt>
      <trkpt lat="62.631157994357" lon="17.98144196576">
        <ele>97.2</ele>
        <time>2018-04-03T11:36:24Z</time>
      </trkpt>
      <trkpt lat="62.631193198337" lon="17.981450431479">
        <ele>97.2</ele>
        <time>2018-04-03T11:36:25Z</time>
      </trkpt>
      <trkpt lat="62.631214823639" lon="17.981465267442">
        <ele>97.2</ele>
        <time>2018-04-03T11:36:26Z</time>
      </trkpt>
      <trkpt lat="62.631229240507" lon="17.981494855549">
        <ele>97.2</ele>
        <time>2018-04-03T11:36:27Z</time>
      </trkpt>
      <trkpt lat="62.631241980995" lon="17.981526874407">
        <ele>97.4</ele>
        <time>2018-04-03T11:36:28Z</time>
      </trkpt>
      <trkpt lat="62.631251871637" lon="17.98157439978">
        <ele>97.2</ele>
        <time>2018-04-03T11:36:29Z</time>
      </trkpt>
      <trkpt lat="62.631265534134" lon="17.981619578221">
        <ele>97.4</ele>
        <time>2018-04-03T11:36:30Z</time>
      </trkpt>
      <trkpt lat="62.631286321246" lon="17.981657715866">
        <ele>97.4</ele>
        <time>2018-04-03T11:36:31Z</time>
      </trkpt>
      <trkpt lat="62.631312975688" lon="17.981694763864">
        <ele>97.4</ele>
        <time>2018-04-03T11:36:32Z</time>
      </trkpt>
      <trkpt lat="62.631346922383" lon="17.981732650052">
        <ele>97.6</ele>
        <time>2018-04-03T11:36:33Z</time>
      </trkpt>
      <trkpt lat="62.631378689784" lon="17.981763746901">
        <ele>97.6</ele>
        <time>2018-04-03T11:36:34Z</time>
      </trkpt>
      <trkpt lat="62.631414396678" lon="17.981795430483">
        <ele>97.8</ele>
        <time>2018-04-03T11:36:35Z</time>
      </trkpt>
      <trkpt lat="62.631450019753" lon="17.981818145432">
        <ele>97.4</ele>
        <time>2018-04-03T11:36:36Z</time>
      </trkpt>
      <trkpt lat="62.631475668367" lon="17.98184262058">
        <ele>97.2</ele>
        <time>2018-04-03T11:36:37Z</time>
      </trkpt>
      <trkpt lat="62.631505088836" lon="17.981873130696">
        <ele>96.6</ele>
        <time>2018-04-03T11:36:38Z</time>
      </trkpt>
      <trkpt lat="62.631537275332" lon="17.981917051852">
        <ele>96.2</ele>
        <time>2018-04-03T11:36:39Z</time>
      </trkpt>
      <trkpt lat="62.6315600741" lon="17.981951417642">
        <ele>96</ele>
        <time>2018-04-03T11:36:40Z</time>
      </trkpt>
      <trkpt lat="62.63159192532" lon="17.981976563342">
        <ele>95.8</ele>
        <time>2018-04-03T11:36:41Z</time>
      </trkpt>
      <trkpt lat="62.631625369101" lon="17.982003050146">
        <ele>95.6</ele>
        <time>2018-04-03T11:36:42Z</time>
      </trkpt>
      <trkpt lat="62.631649928068" lon="17.98203791885">
        <ele>95.6</ele>
        <time>2018-04-03T11:36:43Z</time>
      </trkpt>
      <trkpt lat="62.631664093479" lon="17.98208653387">
        <ele>95.6</ele>
        <time>2018-04-03T11:36:44Z</time>
      </trkpt>
      <trkpt lat="62.63168328803" lon="17.982158702029">
        <ele>95.6</ele>
        <time>2018-04-03T11:36:45Z</time>
      </trkpt>
      <trkpt lat="62.631694352138" lon="17.98222399703">
        <ele>95.6</ele>
        <time>2018-04-03T11:36:46Z</time>
      </trkpt>
      <trkpt lat="62.631702734038" lon="17.982286526004">
        <ele>95.6</ele>
        <time>2018-04-03T11:36:47Z</time>
      </trkpt>
      <trkpt lat="62.631707511721" lon="17.982380151827">
        <ele>95.8</ele>
        <time>2018-04-03T11:36:48Z</time>
      </trkpt>
      <trkpt lat="62.631715474526" lon="17.98247377765">
        <ele>95.8</ele>
        <time>2018-04-03T11:36:49Z</time>
      </trkpt>
      <trkpt lat="62.631721509494" lon="17.982549550026">
        <ele>95.8</ele>
        <time>2018-04-03T11:36:50Z</time>
      </trkpt>
      <trkpt lat="62.631728885566" lon="17.982640996555">
        <ele>95.8</ele>
        <time>2018-04-03T11:36:51Z</time>
      </trkpt>
      <trkpt lat="62.631745565547" lon="17.982696652371">
        <ele>95.8</ele>
        <time>2018-04-03T11:36:52Z</time>
      </trkpt>
      <trkpt lat="62.631763670451" lon="17.982764042847">
        <ele>95.6</ele>
        <time>2018-04-03T11:36:53Z</time>
      </trkpt>
      <trkpt lat="62.631788648513" lon="17.982828583477">
        <ele>95.4</ele>
        <time>2018-04-03T11:36:54Z</time>
      </trkpt>
      <trkpt lat="62.631810022358" lon="17.982887759691">
        <ele>95.4</ele>
        <time>2018-04-03T11:36:55Z</time>
      </trkpt>
      <trkpt lat="62.631827372891" lon="17.982937129082">
        <ele>95.2</ele>
        <time>2018-04-03T11:36:56Z</time>
      </trkpt>
      <trkpt lat="62.631848746736" lon="17.982983648627">
        <ele>95.2</ele>
        <time>2018-04-03T11:36:57Z</time>
      </trkpt>
      <trkpt lat="62.631873724798" lon="17.983020696625">
        <ele>95.4</ele>
        <time>2018-04-03T11:36:58Z</time>
      </trkpt>
      <trkpt lat="62.631895601557" lon="17.98308397997">
        <ele>95.4</ele>
        <time>2018-04-03T11:36:59Z</time>
      </trkpt>
      <trkpt lat="62.631920663438" lon="17.983135444836">
        <ele>95.4</ele>
        <time>2018-04-03T11:37:00Z</time>
      </trkpt>
      <trkpt lat="62.631960058368" lon="17.983183556942">
        <ele>95.4</ele>
        <time>2018-04-03T11:37:01Z</time>
      </trkpt>
      <trkpt lat="62.631977408901" lon="17.983240134767">
        <ele>95.4</ele>
        <time>2018-04-03T11:37:02Z</time>
      </trkpt>
      <trkpt lat="62.632018899306" lon="17.983296964049">
        <ele>95.4</ele>
        <time>2018-04-03T11:37:03Z</time>
      </trkpt>
      <trkpt lat="62.63202694593" lon="17.98332621688">
        <ele>95.4</ele>
        <time>2018-04-03T11:37:04Z</time>
      </trkpt>
      <trkpt lat="62.632041027522" lon="17.983392685347">
        <ele>95.6</ele>
        <time>2018-04-03T11:37:05Z</time>
      </trkpt>
      <trkpt lat="62.632049493241" lon="17.983423530739">
        <ele>95.6</ele>
        <time>2018-04-03T11:37:06Z</time>
      </trkpt>
      <trkpt lat="62.632063323376" lon="17.983457896529">
        <ele>95.6</ele>
        <time>2018-04-03T11:37:07Z</time>
      </trkpt>
      <trkpt lat="62.632081009185" lon="17.983482539315">
        <ele>95.6</ele>
        <time>2018-04-03T11:37:08Z</time>
      </trkpt>
      <trkpt lat="62.632098611175" lon="17.983493771061">
        <ele>95.8</ele>
        <time>2018-04-03T11:37:09Z</time>
      </trkpt>
      <trkpt lat="62.632116380803" lon="17.983540625882">
        <ele>95.8</ele>
        <time>2018-04-03T11:37:10Z</time>
      </trkpt>
      <trkpt lat="62.632155859552" lon="17.983572728559">
        <ele>96</ele>
        <time>2018-04-03T11:37:11Z</time>
      </trkpt>
      <trkpt lat="62.632171282248" lon="17.983600807924">
        <ele>96</ele>
        <time>2018-04-03T11:37:12Z</time>
      </trkpt>
      <trkpt lat="62.632204893667" lon="17.98366987478">
        <ele>96</ele>
        <time>2018-04-03T11:37:13Z</time>
      </trkpt>
      <trkpt lat="62.632224172037" lon="17.983708012425">
        <ele>96.2</ele>
        <time>2018-04-03T11:37:14Z</time>
      </trkpt>
      <trkpt lat="62.632233559765" lon="17.983766015173">
        <ele>96</ele>
        <time>2018-04-03T11:37:15Z</time>
      </trkpt>
      <trkpt lat="62.632242193122" lon="17.983809181958">
        <ele>96</ele>
        <time>2018-04-03T11:37:16Z</time>
      </trkpt>
      <trkpt lat="62.632257867275" lon="17.983854528037">
        <ele>95.8</ele>
        <time>2018-04-03T11:37:17Z</time>
      </trkpt>
      <trkpt lat="62.632266165356" lon="17.983895683166">
        <ele>95.6</ele>
        <time>2018-04-03T11:37:18Z</time>
      </trkpt>
      <trkpt lat="62.632272787057" lon="17.983945555471">
        <ele>95.4</ele>
        <time>2018-04-03T11:37:19Z</time>
      </trkpt>
      <trkpt lat="62.632287706839" lon="17.98398168146">
        <ele>95.6</ele>
        <time>2018-04-03T11:37:20Z</time>
      </trkpt>
      <trkpt lat="62.632288209753" lon="17.983997858527">
        <ele>95.6</ele>
        <time>2018-04-03T11:37:21Z</time>
      </trkpt>
      <trkpt lat="62.632289383219" lon="17.98400179802">
        <ele>95.8</ele>
        <time>2018-04-03T11:37:22Z</time>
      </trkpt>
      <trkpt lat="62.632293238893" lon="17.983999031993">
        <ele>95.8</ele>
        <time>2018-04-03T11:37:23Z</time>
      </trkpt>
      <trkpt lat="62.632293406531" lon="17.983984363668">
        <ele>95.8</ele>
        <time>2018-04-03T11:37:24Z</time>
      </trkpt>
      <trkpt lat="62.632289634676" lon="17.983977155234">
        <ele>96</ele>
        <time>2018-04-03T11:37:25Z</time>
      </trkpt>
      <trkpt lat="62.63229097578" lon="17.983946896575">
        <ele>96</ele>
        <time>2018-04-03T11:37:26Z</time>
      </trkpt>
      <trkpt lat="62.63228678483" lon="17.983914793898">
        <ele>96</ele>
        <time>2018-04-03T11:37:27Z</time>
      </trkpt>
      <trkpt lat="62.632289383219" lon="17.983880092832">
        <ele>96</ele>
        <time>2018-04-03T11:37:28Z</time>
      </trkpt>
      <trkpt lat="62.632289467038" lon="17.983837345142">
        <ele>95.8</ele>
        <time>2018-04-03T11:37:29Z</time>
      </trkpt>
      <trkpt lat="62.63228343207" lon="17.983801386791">
        <ele>95.8</ele>
        <time>2018-04-03T11:37:30Z</time>
      </trkpt>
      <trkpt lat="62.632278989663" lon="17.983759393472">
        <ele>96</ele>
        <time>2018-04-03T11:37:31Z</time>
      </trkpt>
      <trkpt lat="62.632282426242" lon="17.983717819248">
        <ele>95.8</ele>
        <time>2018-04-03T11:37:32Z</time>
      </trkpt>
      <trkpt lat="62.632286533373" lon="17.983674987739">
        <ele>95.8</ele>
        <time>2018-04-03T11:37:33Z</time>
      </trkpt>
      <trkpt lat="62.632291730151" lon="17.983638191198">
        <ele>95.8</ele>
        <time>2018-04-03T11:37:34Z</time>
      </trkpt>
      <trkpt lat="62.632297765119" lon="17.983607932539">
        <ele>95.8</ele>
        <time>2018-04-03T11:37:35Z</time>
      </trkpt>
      <trkpt lat="62.632307488123" lon="17.983565184849">
        <ele>96</ele>
        <time>2018-04-03T11:37:36Z</time>
      </trkpt>
      <trkpt lat="62.632307152847" lon="17.983525370824">
        <ele>96</ele>
        <time>2018-04-03T11:37:37Z</time>
      </trkpt>
      <trkpt lat="62.632316372937" lon="17.983498213468">
        <ele>96</ele>
        <time>2018-04-03T11:37:38Z</time>
      </trkpt>
      <trkpt lat="62.632322910819" lon="17.983455717235">
        <ele>96.2</ele>
        <time>2018-04-03T11:37:39Z</time>
      </trkpt>
      <trkpt lat="62.632328107597" lon="17.983410371156">
        <ele>96</ele>
        <time>2018-04-03T11:37:40Z</time>
      </trkpt>
      <trkpt lat="62.632329281063" lon="17.983377514108">
        <ele>96.2</ele>
        <time>2018-04-03T11:37:41Z</time>
      </trkpt>
      <trkpt lat="62.632329783977" lon="17.983356810815">
        <ele>96</ele>
        <time>2018-04-03T11:37:42Z</time>
      </trkpt>
      <trkpt lat="62.632333220556" lon="17.983308866347">
        <ele>96</ele>
        <time>2018-04-03T11:37:43Z</time>
      </trkpt>
      <trkpt lat="62.632336740954" lon="17.983277518041">
        <ele>96</ele>
        <time>2018-04-03T11:37:44Z</time>
      </trkpt>
      <trkpt lat="62.632334813117" lon="17.983241978785">
        <ele>95.8</ele>
        <time>2018-04-03T11:37:45Z</time>
      </trkpt>
      <trkpt lat="62.632341434818" lon="17.983180120363">
        <ele>96</ele>
        <time>2018-04-03T11:37:46Z</time>
      </trkpt>
      <trkpt lat="62.632339339343" lon="17.98313510956">
        <ele>96</ele>
        <time>2018-04-03T11:37:47Z</time>
      </trkpt>
      <trkpt lat="62.632347302148" lon="17.983095630811">
        <ele>96</ele>
        <time>2018-04-03T11:37:48Z</time>
      </trkpt>
      <trkpt lat="62.632361216102" lon="17.983043243936">
        <ele>96</ele>
        <time>2018-04-03T11:37:49Z</time>
      </trkpt>
      <trkpt lat="62.632367083432" lon="17.982986330835">
        <ele>96</ele>
        <time>2018-04-03T11:37:50Z</time>
      </trkpt>
      <trkpt lat="62.632373705133" lon="17.982945594801">
        <ele>96</ele>
        <time>2018-04-03T11:37:51Z</time>
      </trkpt>
      <trkpt lat="62.632372196391" lon="17.982923969499">
        <ele>96</ele>
        <time>2018-04-03T11:37:52Z</time>
      </trkpt>
      <trkpt lat="62.632382087033" lon="17.982854902643">
        <ele>95.8</ele>
        <time>2018-04-03T11:37:53Z</time>
      </trkpt>
      <trkpt lat="62.632388541096" lon="17.982798324818">
        <ele>95.8</ele>
        <time>2018-04-03T11:37:54Z</time>
      </trkpt>
      <trkpt lat="62.632391307123" lon="17.982771670376">
        <ele>96</ele>
        <time>2018-04-03T11:37:55Z</time>
      </trkpt>
      <trkpt lat="62.632399689023" lon="17.982719032044">
        <ele>96</ele>
        <time>2018-04-03T11:37:56Z</time>
      </trkpt>
      <trkpt lat="62.632406897457" lon="17.982658514726">
        <ele>96</ele>
        <time>2018-04-03T11:37:57Z</time>
      </trkpt>
      <trkpt lat="62.632411591321" lon="17.982604451471">
        <ele>96.2</ele>
        <time>2018-04-03T11:37:58Z</time>
      </trkpt>
      <trkpt lat="62.632416788099" lon="17.982561536143">
        <ele>96.2</ele>
        <time>2018-04-03T11:37:59Z</time>
      </trkpt>
      <trkpt lat="62.632431875519" lon="17.98248132136">
        <ele>96.4</ele>
        <time>2018-04-03T11:38:00Z</time>
      </trkpt>
      <trkpt lat="62.632434976822" lon="17.982439495679">
        <ele>96.2</ele>
        <time>2018-04-03T11:38:01Z</time>
      </trkpt>
      <trkpt lat="62.632435815012" lon="17.982406806269">
        <ele>96</ele>
        <time>2018-04-03T11:38:02Z</time>
      </trkpt>
      <trkpt lat="62.632443023446" lon="17.982346959503">
        <ele>96</ele>
        <time>2018-04-03T11:38:03Z</time>
      </trkpt>
      <trkpt lat="62.632448639319" lon="17.982306894021">
        <ele>96</ele>
        <time>2018-04-03T11:38:04Z</time>
      </trkpt>
      <trkpt lat="62.632457524133" lon="17.982237240432">
        <ele>95.8</ele>
        <time>2018-04-03T11:38:05Z</time>
      </trkpt>
      <trkpt lat="62.632466492766" lon="17.982183177177">
        <ele>95.8</ele>
        <time>2018-04-03T11:38:06Z</time>
      </trkpt>
      <trkpt lat="62.632482669833" lon="17.982123917144">
        <ele>95.8</ele>
        <time>2018-04-03T11:38:07Z</time>
      </trkpt>
      <trkpt lat="62.632501445289" lon="17.982081588549">
        <ele>96</ele>
        <time>2018-04-03T11:38:08Z</time>
      </trkpt>
      <trkpt lat="62.632531703948" lon="17.982039427592">
        <ele>95.8</ele>
        <time>2018-04-03T11:38:09Z</time>
      </trkpt>
      <trkpt lat="62.632549557395" lon="17.982003050146">
        <ele>95.8</ele>
        <time>2018-04-03T11:38:10Z</time>
      </trkpt>
      <trkpt lat="62.632578139674" lon="17.981952004375">
        <ele>95.8</ele>
        <time>2018-04-03T11:38:11Z</time>
      </trkpt>
      <trkpt lat="62.632593478551" lon="17.981911603617">
        <ele>96</ele>
        <time>2018-04-03T11:38:12Z</time>
      </trkpt>
      <trkpt lat="62.632613595111" lon="17.981876651094">
        <ele>96.4</ele>
        <time>2018-04-03T11:38:13Z</time>
      </trkpt>
      <trkpt lat="62.632641590657" lon="17.981827281703">
        <ele>96.4</ele>
        <time>2018-04-03T11:38:14Z</time>
      </trkpt>
      <trkpt lat="62.632659947018" lon="17.981792748275">
        <ele>96.4</ele>
        <time>2018-04-03T11:38:15Z</time>
      </trkpt>
      <trkpt lat="62.632669250927" lon="17.981773218448">
        <ele>96.2</ele>
        <time>2018-04-03T11:38:16Z</time>
      </trkpt>
      <trkpt lat="62.632694480446" lon="17.981729129654">
        <ele>96.2</ele>
        <time>2018-04-03T11:38:17Z</time>
      </trkpt>
      <trkpt lat="62.632718620318" lon="17.981687303973">
        <ele>96</ele>
        <time>2018-04-03T11:38:18Z</time>
      </trkpt>
      <trkpt lat="62.632733707738" lon="17.981654530744">
        <ele>96.2</ele>
        <time>2018-04-03T11:38:19Z</time>
      </trkpt>
      <trkpt lat="62.632760194542" lon="17.981612285968">
        <ele>95.8</ele>
        <time>2018-04-03T11:38:20Z</time>
      </trkpt>
      <trkpt lat="62.632782071301" lon="17.981571549934">
        <ele>95.6</ele>
        <time>2018-04-03T11:38:21Z</time>
      </trkpt>
      <trkpt lat="62.632785424061" lon="17.981564173862">
        <ele>95.6</ele>
        <time>2018-04-03T11:38:22Z</time>
      </trkpt>
      <trkpt lat="62.63280310987" lon="17.981526706769">
        <ele>95.6</ele>
        <time>2018-04-03T11:38:23Z</time>
      </trkpt>
      <trkpt lat="62.63281149177" lon="17.981508601865">
        <ele>95.6</ele>
        <time>2018-04-03T11:38:24Z</time>
      </trkpt>
      <trkpt lat="62.632801265852" lon="17.981530981538">
        <ele>95.4</ele>
        <time>2018-04-03T11:38:25Z</time>
      </trkpt>
      <trkpt lat="62.632803193689" lon="17.981541626551">
        <ele>95.4</ele>
        <time>2018-04-03T11:38:26Z</time>
      </trkpt>
      <trkpt lat="62.6328005953" lon="17.981560402007">
        <ele>95.4</ele>
        <time>2018-04-03T11:38:27Z</time>
      </trkpt>
      <trkpt lat="62.632777628894" lon="17.981601557136">
        <ele>95.4</ele>
        <time>2018-04-03T11:38:28Z</time>
      </trkpt>
      <trkpt lat="62.632759691628" lon="17.981635336193">
        <ele>95.4</ele>
        <time>2018-04-03T11:38:29Z</time>
      </trkpt>
      <trkpt lat="62.632740999991" lon="17.981665259576">
        <ele>95.2</ele>
        <time>2018-04-03T11:38:30Z</time>
      </trkpt>
      <trkpt lat="62.632731193168" lon="17.981695853511">
        <ele>95.2</ele>
        <time>2018-04-03T11:38:31Z</time>
      </trkpt>
      <trkpt lat="62.632711076608" lon="17.981736421907">
        <ele>95</ele>
        <time>2018-04-03T11:38:32Z</time>
      </trkpt>
      <trkpt lat="62.632693390799" lon="17.981764082177">
        <ele>95</ele>
        <time>2018-04-03T11:38:33Z</time>
      </trkpt>
      <trkpt lat="62.632685595632" lon="17.981792748275">
        <ele>95</ele>
        <time>2018-04-03T11:38:34Z</time>
      </trkpt>
      <trkpt lat="62.632663299778" lon="17.98183172411">
        <ele>95</ele>
        <time>2018-04-03T11:38:35Z</time>
      </trkpt>
      <trkpt lat="62.632644189046" lon="17.981865503167">
        <ele>95</ele>
        <time>2018-04-03T11:38:36Z</time>
      </trkpt>
      <trkpt lat="62.632633460214" lon="17.981899785138">
        <ele>95.2</ele>
        <time>2018-04-03T11:38:37Z</time>
      </trkpt>
      <trkpt lat="62.632610409989" lon="17.981942700466">
        <ele>95.2</ele>
        <time>2018-04-03T11:38:38Z</time>
      </trkpt>
      <trkpt lat="62.632590544886" lon="17.981985448156">
        <ele>95.4</ele>
        <time>2018-04-03T11:38:39Z</time>
      </trkpt>
      <trkpt lat="62.632571601792" lon="17.982012437874">
        <ele>95.4</ele>
        <time>2018-04-03T11:38:40Z</time>
      </trkpt>
      <trkpt lat="62.632557687838" lon="17.98204797713">
        <ele>95.4</ele>
        <time>2018-04-03T11:38:41Z</time>
      </trkpt>
      <trkpt lat="62.632534469975" lon="17.982096508331">
        <ele>95.4</ele>
        <time>2018-04-03T11:38:42Z</time>
      </trkpt>
      <trkpt lat="62.632517203261" lon="17.982135819442">
        <ele>95.4</ele>
        <time>2018-04-03T11:38:43Z</time>
      </trkpt>
      <trkpt lat="62.632505720058" lon="17.982163479712">
        <ele>95.2</ele>
        <time>2018-04-03T11:38:44Z</time>
      </trkpt>
      <trkpt lat="62.63249297957" lon="17.982217459148">
        <ele>95.4</ele>
        <time>2018-04-03T11:38:45Z</time>
      </trkpt>
      <trkpt lat="62.632483591842" lon="17.982261631761">
        <ele>95.4</ele>
        <time>2018-04-03T11:38:46Z</time>
      </trkpt>
      <trkpt lat="62.632479987625" lon="17.98230446327">
        <ele>95.4</ele>
        <time>2018-04-03T11:38:47Z</time>
      </trkpt>
      <trkpt lat="62.632474036476" lon="17.982337571775">
        <ele>95.6</ele>
        <time>2018-04-03T11:38:48Z</time>
      </trkpt>
      <trkpt lat="62.632458781418" lon="17.982394317238">
        <ele>95.6</ele>
        <time>2018-04-03T11:38:49Z</time>
      </trkpt>
      <trkpt lat="62.632452075898" lon="17.982435556186">
        <ele>95.6</ele>
        <time>2018-04-03T11:38:50Z</time>
      </trkpt>
      <trkpt lat="62.632447884948" lon="17.982478052419">
        <ele>95.6</ele>
        <time>2018-04-03T11:38:51Z</time>
      </trkpt>
      <trkpt lat="62.632440089781" lon="17.98251736353">
        <ele>95.6</ele>
        <time>2018-04-03T11:38:52Z</time>
      </trkpt>
      <trkpt lat="62.632442017618" lon="17.982552735148">
        <ele>95.6</ele>
        <time>2018-04-03T11:38:53Z</time>
      </trkpt>
      <trkpt lat="62.632430282958" lon="17.982608893878">
        <ele>95.6</ele>
        <time>2018-04-03T11:38:54Z</time>
      </trkpt>
      <trkpt lat="62.632424415628" lon="17.982653066491">
        <ele>95.6</ele>
        <time>2018-04-03T11:38:55Z</time>
      </trkpt>
      <trkpt lat="62.632423242162" lon="17.982687767557">
        <ele>95.6</ele>
        <time>2018-04-03T11:38:56Z</time>
      </trkpt>
      <trkpt lat="62.632412848606" lon="17.982740489708">
        <ele>95.6</ele>
        <time>2018-04-03T11:38:57Z</time>
      </trkpt>
      <trkpt lat="62.632404550525" lon="17.982790781108">
        <ele>95.6</ele>
        <time>2018-04-03T11:38:58Z</time>
      </trkpt>
      <trkpt lat="62.632407316552" lon="17.982819531025">
        <ele>95.6</ele>
        <time>2018-04-03T11:38:59Z</time>
      </trkpt>
      <trkpt lat="62.632395162797" lon="17.982896895962">
        <ele>95.6</ele>
        <time>2018-04-03T11:39:00Z</time>
      </trkpt>
      <trkpt lat="62.632387619087" lon="17.982945762439">
        <ele>95.6</ele>
        <time>2018-04-03T11:39:01Z</time>
      </trkpt>
      <trkpt lat="62.632384098689" lon="17.982984319179">
        <ele>95.8</ele>
        <time>2018-04-03T11:39:02Z</time>
      </trkpt>
      <trkpt lat="62.632375046237" lon="17.983049530361">
        <ele>95.8</ele>
        <time>2018-04-03T11:39:03Z</time>
      </trkpt>
      <trkpt lat="62.632366496699" lon="17.983094624983">
        <ele>95.8</ele>
        <time>2018-04-03T11:39:04Z</time>
      </trkpt>
      <trkpt lat="62.632363814491" lon="17.98313762413">
        <ele>95.8</ele>
        <time>2018-04-03T11:39:05Z</time>
      </trkpt>
      <trkpt lat="62.632350403451" lon="17.983196213611">
        <ele>95.8</ele>
        <time>2018-04-03T11:39:06Z</time>
      </trkpt>
      <trkpt lat="62.632343949388" lon="17.983254300178">
        <ele>95.8</ele>
        <time>2018-04-03T11:39:07Z</time>
      </trkpt>
      <trkpt lat="62.63234378175" lon="17.983291264357">
        <ele>95.8</ele>
        <time>2018-04-03T11:39:08Z</time>
      </trkpt>
      <trkpt lat="62.632333891108" lon="17.983347423087">
        <ele>95.6</ele>
        <time>2018-04-03T11:39:09Z</time>
      </trkpt>
      <trkpt lat="62.632325006294" lon="17.983408946233">
        <ele>95.6</ele>
        <time>2018-04-03T11:39:10Z</time>
      </trkpt>
      <trkpt lat="62.632319390421" lon="17.983452867389">
        <ele>95.6</ele>
        <time>2018-04-03T11:39:11Z</time>
      </trkpt>
      <trkpt lat="62.632314026005" lon="17.983507601196">
        <ele>95.6</ele>
        <time>2018-04-03T11:39:12Z</time>
      </trkpt>
      <trkpt lat="62.632301285517" lon="17.983573399111">
        <ele>95.6</ele>
        <time>2018-04-03T11:39:13Z</time>
      </trkpt>
      <trkpt lat="62.632301201698" lon="17.983615476249">
        <ele>95.6</ele>
        <time>2018-04-03T11:39:14Z</time>
      </trkpt>
      <trkpt lat="62.63229181397" lon="17.983674987739">
        <ele>95.4</ele>
        <time>2018-04-03T11:39:15Z</time>
      </trkpt>
      <trkpt lat="62.632281839509" lon="17.98372519532">
        <ele>95.4</ele>
        <time>2018-04-03T11:39:16Z</time>
      </trkpt>
      <trkpt lat="62.632275553084" lon="17.983764003517">
        <ele>95.4</ele>
        <time>2018-04-03T11:39:17Z</time>
      </trkpt>
      <trkpt lat="62.632271529772" lon="17.983801302972">
        <ele>95.4</ele>
        <time>2018-04-03T11:39:18Z</time>
      </trkpt>
      <trkpt lat="62.632260298026" lon="17.983858383711">
        <ele>95.4</ele>
        <time>2018-04-03T11:39:19Z</time>
      </trkpt>
      <trkpt lat="62.632253843963" lon="17.983909764758">
        <ele>95.4</ele>
        <time>2018-04-03T11:39:20Z</time>
      </trkpt>
      <trkpt lat="62.632250155927" lon="17.983951338982">
        <ele>95.4</ele>
        <time>2018-04-03T11:39:21Z</time>
      </trkpt>
      <trkpt lat="62.632240768199" lon="17.983993919034">
        <ele>95.6</ele>
        <time>2018-04-03T11:39:22Z</time>
      </trkpt>
      <trkpt lat="62.632228530625" lon="17.984046725004">
        <ele>95.6</ele>
        <time>2018-04-03T11:39:23Z</time>
      </trkpt>
      <trkpt lat="62.632224004399" lon="17.98409148435">
        <ele>95.6</ele>
        <time>2018-04-03T11:39:24Z</time>
      </trkpt>
      <trkpt lat="62.632228446806" lon="17.984139344999">
        <ele>95.6</ele>
        <time>2018-04-03T11:39:25Z</time>
      </trkpt>
      <trkpt lat="62.632235822878" lon="17.984199275584">
        <ele>95.6</ele>
        <time>2018-04-03T11:39:26Z</time>
      </trkpt>
      <trkpt lat="62.632243701864" lon="17.98425074045">
        <ele>95.8</ele>
        <time>2018-04-03T11:39:27Z</time>
      </trkpt>
      <trkpt lat="62.632247892814" lon="17.984302540592">
        <ele>95.8</ele>
        <time>2018-04-03T11:39:28Z</time>
      </trkpt>
      <trkpt lat="62.632255604162" lon="17.984377977692">
        <ele>95.8</ele>
        <time>2018-04-03T11:39:29Z</time>
      </trkpt>
      <trkpt lat="62.632257029085" lon="17.984437070087">
        <ele>95.6</ele>
        <time>2018-04-03T11:39:30Z</time>
      </trkpt>
      <trkpt lat="62.632258621646" lon="17.984498928509">
        <ele>95.6</ele>
        <time>2018-04-03T11:39:31Z</time>
      </trkpt>
      <trkpt lat="62.63225744818" lon="17.984572270134">
        <ele>95.6</ele>
        <time>2018-04-03T11:39:32Z</time>
      </trkpt>
      <trkpt lat="62.632270440125" lon="17.984653406926">
        <ele>95.6</ele>
        <time>2018-04-03T11:39:33Z</time>
      </trkpt>
      <trkpt lat="62.632269015202" lon="17.98471677409">
        <ele>95.6</ele>
        <time>2018-04-03T11:39:34Z</time>
      </trkpt>
      <trkpt lat="62.63227672655" lon="17.984796653597">
        <ele>95.6</ele>
        <time>2018-04-03T11:39:35Z</time>
      </trkpt>
      <trkpt lat="62.632278989663" lon="17.984866474824">
        <ele>95.6</ele>
        <time>2018-04-03T11:39:36Z</time>
      </trkpt>
      <trkpt lat="62.632272787057" lon="17.984941911924">
        <ele>95.8</ele>
        <time>2018-04-03T11:39:37Z</time>
      </trkpt>
      <trkpt lat="62.632275469265" lon="17.985004776174">
        <ele>95.8</ele>
        <time>2018-04-03T11:39:38Z</time>
      </trkpt>
      <trkpt lat="62.632268009374" lon="17.985087589346">
        <ele>95.8</ele>
        <time>2018-04-03T11:39:39Z</time>
      </trkpt>
      <trkpt lat="62.632271445953" lon="17.985154812184">
        <ele>95.8</ele>
        <time>2018-04-03T11:39:40Z</time>
      </trkpt>
      <trkpt lat="62.63226666827" lon="17.985221029194">
        <ele>95.6</ele>
        <time>2018-04-03T11:39:41Z</time>
      </trkpt>
      <trkpt lat="62.632260465664" lon="17.985293029715">
        <ele>95.6</ele>
        <time>2018-04-03T11:39:42Z</time>
      </trkpt>
      <trkpt lat="62.632259878931" lon="17.985369388824">
        <ele>95.6</ele>
        <time>2018-04-03T11:39:43Z</time>
      </trkpt>
      <trkpt lat="62.632254011601" lon="17.985430660513">
        <ele>95.4</ele>
        <time>2018-04-03T11:39:44Z</time>
      </trkpt>
      <trkpt lat="62.632244791511" lon="17.985517077902">
        <ele>95.6</ele>
        <time>2018-04-03T11:39:45Z</time>
      </trkpt>
      <trkpt lat="62.632239762371" lon="17.985583378731">
        <ele>95.4</ele>
        <time>2018-04-03T11:39:46Z</time>
      </trkpt>
      <trkpt lat="62.63223649343" lon="17.985649009008">
        <ele>95.4</ele>
        <time>2018-04-03T11:39:47Z</time>
      </trkpt>
      <trkpt lat="62.632227357159" lon="17.985737354234">
        <ele>95.4</ele>
        <time>2018-04-03T11:39:48Z</time>
      </trkpt>
      <trkpt lat="62.632226016055" lon="17.985805834357">
        <ele>95.6</ele>
        <time>2018-04-03T11:39:49Z</time>
      </trkpt>
      <trkpt lat="62.632216293051" lon="17.985871464634">
        <ele>95.6</ele>
        <time>2018-04-03T11:39:50Z</time>
      </trkpt>
      <trkpt lat="62.632208162608" lon="17.985948326657">
        <ele>95.8</ele>
        <time>2018-04-03T11:39:51Z</time>
      </trkpt>
      <trkpt lat="62.632211515368" lon="17.985992415451">
        <ele>95.8</ele>
        <time>2018-04-03T11:39:52Z</time>
      </trkpt>
      <trkpt lat="62.632205228943" lon="17.986060644117">
        <ele>95.8</ele>
        <time>2018-04-03T11:39:53Z</time>
      </trkpt>
      <trkpt lat="62.632198355785" lon="17.986145468945">
        <ele>95.8</ele>
        <time>2018-04-03T11:39:54Z</time>
      </trkpt>
      <trkpt lat="62.63219793669" lon="17.986208836109">
        <ele>96</ele>
        <time>2018-04-03T11:39:55Z</time>
      </trkpt>
      <trkpt lat="62.632187710772" lon="17.986268096142">
        <ele>95.8</ele>
        <time>2018-04-03T11:39:56Z</time>
      </trkpt>
      <trkpt lat="62.632179161234" lon="17.986338252645">
        <ele>96</ele>
        <time>2018-04-03T11:39:57Z</time>
      </trkpt>
      <trkpt lat="62.63216860004" lon="17.986395501022">
        <ele>96.2</ele>
        <time>2018-04-03T11:39:58Z</time>
      </trkpt>
      <trkpt lat="62.632159212312" lon="17.986464735516">
        <ele>96</ele>
        <time>2018-04-03T11:39:59Z</time>
      </trkpt>
      <trkpt lat="62.632155608095" lon="17.986529527603">
        <ele>96</ele>
        <time>2018-04-03T11:40:00Z</time>
      </trkpt>
      <trkpt lat="62.632155189" lon="17.986585686333">
        <ele>96</ele>
        <time>2018-04-03T11:40:01Z</time>
      </trkpt>
      <trkpt lat="62.63214345434" lon="17.986664224736">
        <ele>96</ele>
        <time>2018-04-03T11:40:02Z</time>
      </trkpt>
      <trkpt lat="62.632139347209" lon="17.986742344044">
        <ele>96</ele>
        <time>2018-04-03T11:40:03Z</time>
      </trkpt>
      <trkpt lat="62.632142532331" lon="17.986783080078">
        <ele>96</ele>
        <time>2018-04-03T11:40:04Z</time>
      </trkpt>
      <trkpt lat="62.632124846522" lon="17.986869832743">
        <ele>96</ele>
        <time>2018-04-03T11:40:05Z</time>
      </trkpt>
      <trkpt lat="62.63211244131" lon="17.986940408341">
        <ele>96</ele>
        <time>2018-04-03T11:40:06Z</time>
      </trkpt>
      <trkpt lat="62.632103724134" lon="17.986992376121">
        <ele>96.2</ele>
        <time>2018-04-03T11:40:07Z</time>
      </trkpt>
      <trkpt lat="62.632093582035" lon="17.987076111302">
        <ele>96.2</ele>
        <time>2018-04-03T11:40:08Z</time>
      </trkpt>
      <trkpt lat="62.632078410796" lon="17.987147105995">
        <ele>96.2</ele>
        <time>2018-04-03T11:40:09Z</time>
      </trkpt>
      <trkpt lat="62.632073297837" lon="17.987199744327">
        <ele>96.2</ele>
        <time>2018-04-03T11:40:10Z</time>
      </trkpt>
      <trkpt lat="62.632062233729" lon="17.987278366549">
        <ele>96.2</ele>
        <time>2018-04-03T11:40:11Z</time>
      </trkpt>
      <trkpt lat="62.632050499069" lon="17.987344918835">
        <ele>96.4</ele>
        <time>2018-04-03T11:40:12Z</time>
      </trkpt>
      <trkpt lat="62.632037088029" lon="17.987425552713">
        <ele>96.2</ele>
        <time>2018-04-03T11:40:13Z</time>
      </trkpt>
      <trkpt lat="62.632024263722" lon="17.987505599858">
        <ele>96.4</ele>
        <time>2018-04-03T11:40:14Z</time>
      </trkpt>
      <trkpt lat="62.632018480211" lon="17.987559579294">
        <ele>96.4</ele>
        <time>2018-04-03T11:40:15Z</time>
      </trkpt>
      <trkpt lat="62.631994591796" lon="17.987630741625">
        <ele>96.4</ele>
        <time>2018-04-03T11:40:16Z</time>
      </trkpt>
      <trkpt lat="62.631977744177" lon="17.98771078877">
        <ele>96.4</ele>
        <time>2018-04-03T11:40:17Z</time>
      </trkpt>
      <trkpt lat="62.631965506603" lon="17.987778765979">
        <ele>96.4</ele>
        <time>2018-04-03T11:40:18Z</time>
      </trkpt>
      <trkpt lat="62.631949329536" lon="17.987858394029">
        <ele>96.4</ele>
        <time>2018-04-03T11:40:19Z</time>
      </trkpt>
      <trkpt lat="62.631947066423" lon="17.987932825301">
        <ele>96.4</ele>
        <time>2018-04-03T11:40:20Z</time>
      </trkpt>
      <trkpt lat="62.631932901012" lon="17.987997868845">
        <ele>96.4</ele>
        <time>2018-04-03T11:40:21Z</time>
      </trkpt>
      <trkpt lat="62.631923094189" lon="17.988063750579">
        <ele>96.6</ele>
        <time>2018-04-03T11:40:22Z</time>
      </trkpt>
      <trkpt lat="62.631910772796" lon="17.988135918738">
        <ele>96.6</ele>
        <time>2018-04-03T11:40:23Z</time>
      </trkpt>
      <trkpt lat="62.631902642353" lon="17.988230801846">
        <ele>96.8</ele>
        <time>2018-04-03T11:40:24Z</time>
      </trkpt>
      <trkpt lat="62.63188529182" lon="17.988305484575">
        <ele>96.8</ele>
        <time>2018-04-03T11:40:25Z</time>
      </trkpt>
      <trkpt lat="62.631874143893" lon="17.988388381566">
        <ele>97</ele>
        <time>2018-04-03T11:40:26Z</time>
      </trkpt>
      <trkpt lat="62.631856458084" lon="17.988456023499">
        <ele>97.2</ele>
        <time>2018-04-03T11:40:27Z</time>
      </trkpt>
      <trkpt lat="62.631849920202" lon="17.988545709829">
        <ele>97.4</ele>
        <time>2018-04-03T11:40:28Z</time>
      </trkpt>
      <trkpt lat="62.631847154175" lon="17.98860597569">
        <ele>97.4</ele>
        <time>2018-04-03T11:40:29Z</time>
      </trkpt>
      <trkpt lat="62.631832066755" lon="17.988681580428">
        <ele>97.2</ele>
        <time>2018-04-03T11:40:30Z</time>
      </trkpt>
      <trkpt lat="62.631835922429" lon="17.988752491302">
        <ele>97.4</ele>
        <time>2018-04-03T11:40:31Z</time>
      </trkpt>
      <trkpt lat="62.631816141145" lon="17.988818121579">
        <ele>97.4</ele>
        <time>2018-04-03T11:40:32Z</time>
      </trkpt>
      <trkpt lat="62.631813961851" lon="17.988901521484">
        <ele>97.4</ele>
        <time>2018-04-03T11:40:33Z</time>
      </trkpt>
      <trkpt lat="62.631798874431" lon="17.988951477608">
        <ele>97.6</ele>
        <time>2018-04-03T11:40:34Z</time>
      </trkpt>
      <trkpt lat="62.631793174739" lon="17.989033536409">
        <ele>97.8</ele>
        <time>2018-04-03T11:40:35Z</time>
      </trkpt>
      <trkpt lat="62.631780434251" lon="17.98908206761">
        <ele>97.8</ele>
        <time>2018-04-03T11:40:36Z</time>
      </trkpt>
      <trkpt lat="62.631770124514" lon="17.989156917977">
        <ele>97.8</ele>
        <time>2018-04-03T11:40:37Z</time>
      </trkpt>
      <trkpt lat="62.631764005727" lon="17.989221374788">
        <ele>98</ele>
        <time>2018-04-03T11:40:38Z</time>
      </trkpt>
      <trkpt lat="62.631749672678" lon="17.989303852684">
        <ele>97.8</ele>
        <time>2018-04-03T11:40:39Z</time>
      </trkpt>
      <trkpt lat="62.631747158108" lon="17.98935531755">
        <ele>97.8</ele>
        <time>2018-04-03T11:40:40Z</time>
      </trkpt>
      <trkpt lat="62.631731567774" lon="17.989440142378">
        <ele>97.8</ele>
        <time>2018-04-03T11:40:41Z</time>
      </trkpt>
      <trkpt lat="62.631725700444" lon="17.989502503714">
        <ele>97.8</ele>
        <time>2018-04-03T11:40:42Z</time>
      </trkpt>
      <trkpt lat="62.631702231124" lon="17.989567547258">
        <ele>97.8</ele>
        <time>2018-04-03T11:40:43Z</time>
      </trkpt>
      <trkpt lat="62.631698459269" lon="17.989644241643">
        <ele>97.8</ele>
        <time>2018-04-03T11:40:44Z</time>
      </trkpt>
      <trkpt lat="62.631684042401" lon="17.989697718165">
        <ele>97.8</ele>
        <time>2018-04-03T11:40:45Z</time>
      </trkpt>
      <trkpt lat="62.63167993527" lon="17.989772987627">
        <ele>98.2</ele>
        <time>2018-04-03T11:40:46Z</time>
      </trkpt>
      <trkpt lat="62.631664931669" lon="17.989824117217">
        <ele>98.2</ele>
        <time>2018-04-03T11:40:47Z</time>
      </trkpt>
      <trkpt lat="62.631655376303" lon="17.989920341429">
        <ele>98.2</ele>
        <time>2018-04-03T11:40:48Z</time>
      </trkpt>
      <trkpt lat="62.631649676611" lon="17.989975410512">
        <ele>98.2</ele>
        <time>2018-04-03T11:40:49Z</time>
      </trkpt>
      <trkpt lat="62.63163299663" lon="17.990056547304">
        <ele>98.2</ele>
        <time>2018-04-03T11:40:50Z</time>
      </trkpt>
      <trkpt lat="62.631626039653" lon="17.990118657183">
        <ele>98</ele>
        <time>2018-04-03T11:40:51Z</time>
      </trkpt>
      <trkpt lat="62.631616987201" lon="17.990176576112">
        <ele>98</ele>
        <time>2018-04-03T11:40:52Z</time>
      </trkpt>
      <trkpt lat="62.631600474858" lon="17.990247235529">
        <ele>98</ele>
        <time>2018-04-03T11:40:53Z</time>
      </trkpt>
      <trkpt lat="62.631592009139" lon="17.990306998476">
        <ele>98</ele>
        <time>2018-04-03T11:40:54Z</time>
      </trkpt>
      <trkpt lat="62.63157851428" lon="17.990376316789">
        <ele>98.2</ele>
        <time>2018-04-03T11:40:55Z</time>
      </trkpt>
      <trkpt lat="62.631568623638" lon="17.990435828279">
        <ele>98.4</ele>
        <time>2018-04-03T11:40:56Z</time>
      </trkpt>
      <trkpt lat="62.631567031077" lon="17.990504140764">
        <ele>98.6</ele>
        <time>2018-04-03T11:40:57Z</time>
      </trkpt>
      <trkpt lat="62.631554793503" lon="17.99057236943">
        <ele>98.6</ele>
        <time>2018-04-03T11:40:58Z</time>
      </trkpt>
      <trkpt lat="62.631547417431" lon="17.990651829842">
        <ele>98.6</ele>
        <time>2018-04-03T11:40:59Z</time>
      </trkpt>
      <trkpt lat="62.631541969196" lon="17.990715783739">
        <ele>98.8</ele>
        <time>2018-04-03T11:41:00Z</time>
      </trkpt>
      <trkpt lat="62.631548926173" lon="17.990789544459">
        <ele>98.8</ele>
        <time>2018-04-03T11:41:01Z</time>
      </trkpt>
      <trkpt lat="62.631535179857" lon="17.990845703189">
        <ele>99</ele>
        <time>2018-04-03T11:41:02Z</time>
      </trkpt>
      <trkpt lat="62.631525456853" lon="17.990928683999">
        <ele>99</ele>
        <time>2018-04-03T11:41:03Z</time>
      </trkpt>
      <trkpt lat="62.631523026102" lon="17.990982495797">
        <ele>99.2</ele>
        <time>2018-04-03T11:41:04Z</time>
      </trkpt>
      <trkpt lat="62.631514728021" lon="17.991045862961">
        <ele>99</ele>
        <time>2018-04-03T11:41:05Z</time>
      </trkpt>
      <trkpt lat="62.631500143515" lon="17.991130436332">
        <ele>99</ele>
        <time>2018-04-03T11:41:06Z</time>
      </trkpt>
      <trkpt lat="62.631493186538" lon="17.99118843908">
        <ele>99</ele>
        <time>2018-04-03T11:41:07Z</time>
      </trkpt>
      <trkpt lat="62.631480362231" lon="17.991261445429">
        <ele>99.2</ele>
        <time>2018-04-03T11:41:08Z</time>
      </trkpt>
      <trkpt lat="62.631472818521" lon="17.991323052394">
        <ele>99.2</ele>
        <time>2018-04-03T11:41:09Z</time>
      </trkpt>
      <trkpt lat="62.631471393598" lon="17.991372589423">
        <ele>99</ele>
        <time>2018-04-03T11:41:10Z</time>
      </trkpt>
      <trkpt lat="62.631453037237" lon="17.991447188333">
        <ele>99</ele>
        <time>2018-04-03T11:41:11Z</time>
      </trkpt>
      <trkpt lat="62.631434764695" lon="17.991517093379">
        <ele>99</ele>
        <time>2018-04-03T11:41:12Z</time>
      </trkpt>
      <trkpt lat="62.6314175818" lon="17.991567468598">
        <ele>98.8</ele>
        <time>2018-04-03T11:41:13Z</time>
      </trkpt>
      <trkpt lat="62.63139662705" lon="17.991634775255">
        <ele>99</ele>
        <time>2018-04-03T11:41:14Z</time>
      </trkpt>
      <trkpt lat="62.631375504662" lon="17.991698812971">
        <ele>99</ele>
        <time>2018-04-03T11:41:15Z</time>
      </trkpt>
      <trkpt lat="62.631361674527" lon="17.991748182362">
        <ele>99</ele>
        <time>2018-04-03T11:41:16Z</time>
      </trkpt>
      <trkpt lat="62.631335858275" lon="17.991804844006">
        <ele>99.2</ele>
        <time>2018-04-03T11:41:17Z</time>
      </trkpt>
      <trkpt lat="62.631327224918" lon="17.991829235335">
        <ele>99.2</ele>
        <time>2018-04-03T11:41:18Z</time>
      </trkpt>
      <trkpt lat="62.631329152755" lon="17.991842981651">
        <ele>99.2</ele>
        <time>2018-04-03T11:41:19Z</time>
      </trkpt>
      <trkpt lat="62.631336864103" lon="17.99183887452">
        <ele>99.2</ele>
        <time>2018-04-03T11:41:20Z</time>
      </trkpt>
      <trkpt lat="62.631341055053" lon="17.991809370232">
        <ele>99.4</ele>
        <time>2018-04-03T11:41:21Z</time>
      </trkpt>
      <trkpt lat="62.631342312338" lon="17.991781123229">
        <ele>99.4</ele>
        <time>2018-04-03T11:41:22Z</time>
      </trkpt>
      <trkpt lat="62.631352957351" lon="17.991722701386">
        <ele>99.4</ele>
        <time>2018-04-03T11:41:23Z</time>
      </trkpt>
      <trkpt lat="62.631363518545" lon="17.991659753317">
        <ele>99.4</ele>
        <time>2018-04-03T11:41:24Z</time>
      </trkpt>
      <trkpt lat="62.631375839938" lon="17.991635948721">
        <ele>99.4</ele>
        <time>2018-04-03T11:41:25Z</time>
      </trkpt>
      <trkpt lat="62.631388831883" lon="17.991556823585">
        <ele>99.4</ele>
        <time>2018-04-03T11:41:26Z</time>
      </trkpt>
      <trkpt lat="62.631385898218" lon="17.991509884945">
        <ele>99.4</ele>
        <time>2018-04-03T11:41:27Z</time>
      </trkpt>
      <trkpt lat="62.63141003809" lon="17.991456156966">
        <ele>99.2</ele>
        <time>2018-04-03T11:41:28Z</time>
      </trkpt>
      <trkpt lat="62.631423700587" lon="17.991379797857">
        <ele>99.2</ele>
        <time>2018-04-03T11:41:29Z</time>
      </trkpt>
      <trkpt lat="62.631410708642" lon="17.991308132612">
        <ele>99.2</ele>
        <time>2018-04-03T11:41:30Z</time>
      </trkpt>
      <trkpt lat="62.631428226813" lon="17.991256583927">
        <ele>99</ele>
        <time>2018-04-03T11:41:31Z</time>
      </trkpt>
      <trkpt lat="62.631424957872" lon="17.991169328348">
        <ele>99</ele>
        <time>2018-04-03T11:41:32Z</time>
      </trkpt>
      <trkpt lat="62.631414312859" lon="17.991095232352">
        <ele>99</ele>
        <time>2018-04-03T11:41:33Z</time>
      </trkpt>
      <trkpt lat="62.631428813546" lon="17.991032787197">
        <ele>98.8</ele>
        <time>2018-04-03T11:41:34Z</time>
      </trkpt>
      <trkpt lat="62.631434597057" lon="17.990922481393">
        <ele>99</ele>
        <time>2018-04-03T11:41:35Z</time>
      </trkpt>
      <trkpt lat="62.631432250125" lon="17.990852157252">
        <ele>98.8</ele>
        <time>2018-04-03T11:41:36Z</time>
      </trkpt>
      <trkpt lat="62.631434261781" lon="17.990795244151">
        <ele>98.8</ele>
        <time>2018-04-03T11:41:37Z</time>
      </trkpt>
      <trkpt lat="62.631443062776" lon="17.990712933893">
        <ele>98.6</ele>
        <time>2018-04-03T11:41:38Z</time>
      </trkpt>
      <trkpt lat="62.631452031409" lon="17.9906419392">
        <ele>98.6</ele>
        <time>2018-04-03T11:41:39Z</time>
      </trkpt>
      <trkpt lat="62.631462173508" lon="17.990594916741">
        <ele>98.4</ele>
        <time>2018-04-03T11:41:40Z</time>
      </trkpt>
      <trkpt lat="62.631478937308" lon="17.990519144365">
        <ele>98.4</ele>
        <time>2018-04-03T11:41:41Z</time>
      </trkpt>
      <trkpt lat="62.63147960786" lon="17.990455106649">
        <ele>98.4</ele>
        <time>2018-04-03T11:41:42Z</time>
      </trkpt>
      <trkpt lat="62.631490755787" lon="17.990394924607">
        <ele>98.4</ele>
        <time>2018-04-03T11:41:43Z</time>
      </trkpt>
      <trkpt lat="62.631505759388" lon="17.990346812501">
        <ele>98.4</ele>
        <time>2018-04-03T11:41:44Z</time>
      </trkpt>
      <trkpt lat="62.631505424112" lon="17.990260981845">
        <ele>98.6</ele>
        <time>2018-04-03T11:41:45Z</time>
      </trkpt>
      <trkpt lat="62.631520762989" lon="17.99021027135">
        <ele>98.8</ele>
        <time>2018-04-03T11:41:46Z</time>
      </trkpt>
      <trkpt lat="62.63153828116" lon="17.990121171753">
        <ele>98.8</ele>
        <time>2018-04-03T11:41:47Z</time>
      </trkpt>
      <trkpt lat="62.631550937829" lon="17.9900049148">
        <ele>98.8</ele>
        <time>2018-04-03T11:41:48Z</time>
      </trkpt>
      <trkpt lat="62.631575664434" lon="17.989922939818">
        <ele>98.8</ele>
        <time>2018-04-03T11:41:49Z</time>
      </trkpt>
      <trkpt lat="62.631581950859" lon="17.989827469977">
        <ele>98.8</ele>
        <time>2018-04-03T11:41:50Z</time>
      </trkpt>
      <trkpt lat="62.631594858985" lon="17.989736694">
        <ele>98.6</ele>
        <time>2018-04-03T11:41:51Z</time>
      </trkpt>
      <trkpt lat="62.63160868912" lon="17.989676260501">
        <ele>98.6</ele>
        <time>2018-04-03T11:41:52Z</time>
      </trkpt>
      <trkpt lat="62.63161707102" lon="17.989587160904">
        <ele>98.4</ele>
        <time>2018-04-03T11:41:53Z</time>
      </trkpt>
      <trkpt lat="62.631634589191" lon="17.989493870357">
        <ele>98.4</ele>
        <time>2018-04-03T11:41:54Z</time>
      </trkpt>
      <trkpt lat="62.631648586964" lon="17.989440896749">
        <ele>98.4</ele>
        <time>2018-04-03T11:41:55Z</time>
      </trkpt>
      <trkpt lat="62.631656046855" lon="17.98933771556">
        <ele>98.2</ele>
        <time>2018-04-03T11:41:56Z</time>
      </trkpt>
      <trkpt lat="62.631675241406" lon="17.989275102767">
        <ele>98.2</ele>
        <time>2018-04-03T11:41:57Z</time>
      </trkpt>
      <trkpt lat="62.631679851451" lon="17.989205197721">
        <ele>98.2</ele>
        <time>2018-04-03T11:41:58Z</time>
      </trkpt>
      <trkpt lat="62.631688484808" lon="17.989099837238">
        <ele>98.2</ele>
        <time>2018-04-03T11:41:59Z</time>
      </trkpt>
      <trkpt lat="62.631701560572" lon="17.989034877513">
        <ele>98.2</ele>
        <time>2018-04-03T11:42:00Z</time>
      </trkpt>
      <trkpt lat="62.631712373223" lon="17.988947621934">
        <ele>98</ele>
        <time>2018-04-03T11:42:01Z</time>
      </trkpt>
      <trkpt lat="62.631717905277" lon="17.988855337215">
        <ele>98.2</ele>
        <time>2018-04-03T11:42:02Z</time>
      </trkpt>
      <trkpt lat="62.631729556118" lon="17.988781492676">
        <ele>98.2</ele>
        <time>2018-04-03T11:42:03Z</time>
      </trkpt>
      <trkpt lat="62.631738943846" lon="17.988698511866">
        <ele>98</ele>
        <time>2018-04-03T11:42:04Z</time>
      </trkpt>
      <trkpt lat="62.631735758724" lon="17.988591307365">
        <ele>98</ele>
        <time>2018-04-03T11:42:05Z</time>
      </trkpt>
      <trkpt lat="62.631758222216" lon="17.988537327929">
        <ele>97.8</ele>
        <time>2018-04-03T11:42:06Z</time>
      </trkpt>
      <trkpt lat="62.631768196677" lon="17.988445378486">
        <ele>97.8</ele>
        <time>2018-04-03T11:42:07Z</time>
      </trkpt>
      <trkpt lat="62.631779428423" lon="17.988349070455">
        <ele>97.8</ele>
        <time>2018-04-03T11:42:08Z</time>
      </trkpt>
      <trkpt lat="62.631783787011" lon="17.988279416866">
        <ele>97.8</ele>
        <time>2018-04-03T11:42:09Z</time>
      </trkpt>
      <trkpt lat="62.631799964078" lon="17.988187383604">
        <ele>98</ele>
        <time>2018-04-03T11:42:10Z</time>
      </trkpt>
      <trkpt lat="62.631821673199" lon="17.988118735843">
        <ele>98</ele>
        <time>2018-04-03T11:42:11Z</time>
      </trkpt>
      <trkpt lat="62.631832318212" lon="17.988037347594">
        <ele>97.8</ele>
        <time>2018-04-03T11:42:12Z</time>
      </trkpt>
      <trkpt lat="62.631843047044" lon="17.987959144467">
        <ele>97.8</ele>
        <time>2018-04-03T11:42:13Z</time>
      </trkpt>
      <trkpt lat="62.631836928257" lon="17.987877337123">
        <ele>98</ele>
        <time>2018-04-03T11:42:14Z</time>
      </trkpt>
      <trkpt lat="62.631843969053" lon="17.987821262212">
        <ele>98.2</ele>
        <time>2018-04-03T11:42:15Z</time>
      </trkpt>
      <trkpt lat="62.631850004021" lon="17.987724786543">
        <ele>98</ele>
        <time>2018-04-03T11:42:16Z</time>
      </trkpt>
      <trkpt lat="62.631862995966" lon="17.987627053589">
        <ele>97.8</ele>
        <time>2018-04-03T11:42:17Z</time>
      </trkpt>
      <trkpt lat="62.631868360382" lon="17.987537702535">
        <ele>97.8</ele>
        <time>2018-04-03T11:42:18Z</time>
      </trkpt>
      <trkpt lat="62.631886632924" lon="17.987446842739">
        <ele>97.6</ele>
        <time>2018-04-03T11:42:19Z</time>
      </trkpt>
      <trkpt lat="62.631903648181" lon="17.987365119214">
        <ele>97.4</ele>
        <time>2018-04-03T11:42:20Z</time>
      </trkpt>
      <trkpt lat="62.63191462847" lon="17.987303512249">
        <ele>97.2</ele>
        <time>2018-04-03T11:42:21Z</time>
      </trkpt>
      <trkpt lat="62.631921417809" lon="17.987220028525">
        <ele>97.2</ele>
        <time>2018-04-03T11:42:22Z</time>
      </trkpt>
      <trkpt lat="62.631949245717" lon="17.987136209525">
        <ele>97</ele>
        <time>2018-04-03T11:42:23Z</time>
      </trkpt>
      <trkpt lat="62.631955196866" lon="17.987053731629">
        <ele>96.8</ele>
        <time>2018-04-03T11:42:24Z</time>
      </trkpt>
      <trkpt lat="62.631972295942" lon="17.986972175742">
        <ele>97</ele>
        <time>2018-04-03T11:42:25Z</time>
      </trkpt>
      <trkpt lat="62.631994005063" lon="17.986909982044">
        <ele>97</ele>
        <time>2018-04-03T11:42:26Z</time>
      </trkpt>
      <trkpt lat="62.631997274004" lon="17.986805208294">
        <ele>96.8</ele>
        <time>2018-04-03T11:42:27Z</time>
      </trkpt>
      <trkpt lat="62.632012193786" lon="17.986728513909">
        <ele>96.8</ele>
        <time>2018-04-03T11:42:28Z</time>
      </trkpt>
      <trkpt lat="62.632020910962" lon="17.986653412085">
        <ele>96.6</ele>
        <time>2018-04-03T11:42:29Z</time>
      </trkpt>
      <trkpt lat="62.632021581514" lon="17.986560959728">
        <ele>96.6</ele>
        <time>2018-04-03T11:42:30Z</time>
      </trkpt>
      <trkpt lat="62.63204287154" lon="17.986474039425">
        <ele>96.6</ele>
        <time>2018-04-03T11:42:31Z</time>
      </trkpt>
      <trkpt lat="62.632053265096" lon="17.986383598724">
        <ele>96.6</ele>
        <time>2018-04-03T11:42:32Z</time>
      </trkpt>
      <trkpt lat="62.632067933421" lon="17.986292822747">
        <ele>96.6</ele>
        <time>2018-04-03T11:42:33Z</time>
      </trkpt>
      <trkpt lat="62.632082098832" lon="17.986237753664">
        <ele>96.6</ele>
        <time>2018-04-03T11:42:34Z</time>
      </trkpt>
      <trkpt lat="62.632089139628" lon="17.986127028765">
        <ele>96.6</ele>
        <time>2018-04-03T11:42:35Z</time>
      </trkpt>
      <trkpt lat="62.63209735389" lon="17.986063158687">
        <ele>96.4</ele>
        <time>2018-04-03T11:42:36Z</time>
      </trkpt>
      <trkpt lat="62.632106657799" lon="17.985983614456">
        <ele>96.4</ele>
        <time>2018-04-03T11:42:37Z</time>
      </trkpt>
      <trkpt lat="62.632129791843" lon="17.985897113248">
        <ele>96.2</ele>
        <time>2018-04-03T11:42:38Z</time>
      </trkpt>
      <trkpt lat="62.632143873435" lon="17.985826202374">
        <ele>96</ele>
        <time>2018-04-03T11:42:39Z</time>
      </trkpt>
      <trkpt lat="62.632148064385" lon="17.985723859375">
        <ele>95.8</ele>
        <time>2018-04-03T11:42:40Z</time>
      </trkpt>
      <trkpt lat="62.632161223968" lon="17.985630652647">
        <ele>95.6</ele>
        <time>2018-04-03T11:42:41Z</time>
      </trkpt>
      <trkpt lat="62.632168264764" lon="17.985573320451">
        <ele>95.8</ele>
        <time>2018-04-03T11:42:42Z</time>
      </trkpt>
      <trkpt lat="62.63216860004" lon="17.985464523389">
        <ele>96</ele>
        <time>2018-04-03T11:42:43Z</time>
      </trkpt>
      <trkpt lat="62.632180837614" lon="17.985404508985">
        <ele>95.8</ele>
        <time>2018-04-03T11:42:44Z</time>
      </trkpt>
      <trkpt lat="62.632187626953" lon="17.985318762148">
        <ele>95.8</ele>
        <time>2018-04-03T11:42:45Z</time>
      </trkpt>
      <trkpt lat="62.632193578102" lon="17.985225723058">
        <ele>96</ele>
        <time>2018-04-03T11:42:46Z</time>
      </trkpt>
      <trkpt lat="62.632197769052" lon="17.985157075297">
        <ele>95.8</ele>
        <time>2018-04-03T11:42:47Z</time>
      </trkpt>
      <trkpt lat="62.632197349957" lon="17.98504283">
        <ele>95.8</ele>
        <time>2018-04-03T11:42:48Z</time>
      </trkpt>
      <trkpt lat="62.632207072961" lon="17.98497326023">
        <ele>95.8</ele>
        <time>2018-04-03T11:42:49Z</time>
      </trkpt>
      <trkpt lat="62.632214951947" lon="17.984908635781">
        <ele>96</ele>
        <time>2018-04-03T11:42:50Z</time>
      </trkpt>
      <trkpt lat="62.632217885612" lon="17.984802437108">
        <ele>96</ele>
        <time>2018-04-03T11:42:51Z</time>
      </trkpt>
      <trkpt lat="62.632221657467" lon="17.984750888423">
        <ele>95.8</ele>
        <time>2018-04-03T11:42:52Z</time>
      </trkpt>
      <trkpt lat="62.632230039367" lon="17.984676038056">
        <ele>95.8</ele>
        <time>2018-04-03T11:42:53Z</time>
      </trkpt>
      <trkpt lat="62.632224339675" lon="17.984585848812">
        <ele>95.8</ele>
        <time>2018-04-03T11:42:54Z</time>
      </trkpt>
      <trkpt lat="62.632224255856" lon="17.984526253503">
        <ele>95.8</ele>
        <time>2018-04-03T11:42:55Z</time>
      </trkpt>
      <trkpt lat="62.632222495657" lon="17.984466574375">
        <ele>95.8</ele>
        <time>2018-04-03T11:42:56Z</time>
      </trkpt>
      <trkpt lat="62.632216628327" lon="17.9843806599">
        <ele>95.6</ele>
        <time>2018-04-03T11:42:57Z</time>
      </trkpt>
      <trkpt lat="62.632219226716" lon="17.984329278853">
        <ele>95.6</ele>
        <time>2018-04-03T11:42:58Z</time>
      </trkpt>
      <trkpt lat="62.63219877488" lon="17.984246884776">
        <ele>95.6</ele>
        <time>2018-04-03T11:42:59Z</time>
      </trkpt>
      <trkpt lat="62.632190560618" lon="17.984175051893">
        <ele>95.8</ele>
        <time>2018-04-03T11:43:00Z</time>
      </trkpt>
      <trkpt lat="62.632180669976" lon="17.984131885108">
        <ele>95.8</ele>
        <time>2018-04-03T11:43:01Z</time>
      </trkpt>
      <trkpt lat="62.632159799045" lon="17.984053681981">
        <ele>95.6</ele>
        <time>2018-04-03T11:43:02Z</time>
      </trkpt>
      <trkpt lat="62.632131216766" lon="17.984003222943">
        <ele>95.8</ele>
        <time>2018-04-03T11:43:03Z</time>
      </trkpt>
      <trkpt lat="62.632128534558" lon="17.983959637063">
        <ele>95.8</ele>
        <time>2018-04-03T11:43:04Z</time>
      </trkpt>
      <trkpt lat="62.632109172369" lon="17.983862323204">
        <ele>95.8</ele>
        <time>2018-04-03T11:43:05Z</time>
      </trkpt>
      <trkpt lat="62.632100958107" lon="17.983792501977">
        <ele>95.8</ele>
        <time>2018-04-03T11:43:06Z</time>
      </trkpt>
      <trkpt lat="62.632081512099" lon="17.983748832278">
        <ele>95.8</ele>
        <time>2018-04-03T11:43:07Z</time>
      </trkpt>
      <trkpt lat="62.632059383883" lon="17.983686303304">
        <ele>95.8</ele>
        <time>2018-04-03T11:43:08Z</time>
      </trkpt>
      <trkpt lat="62.632048990327" lon="17.983646489279">
        <ele>95.6</ele>
        <time>2018-04-03T11:43:09Z</time>
      </trkpt>
      <trkpt lat="62.632018731668" lon="17.983613883688">
        <ele>95.6</ele>
        <time>2018-04-03T11:43:10Z</time>
      </trkpt>
      <trkpt lat="62.631968775544" lon="17.983582200106">
        <ele>95.6</ele>
        <time>2018-04-03T11:43:11Z</time>
      </trkpt>
      <trkpt lat="62.63194983245" lon="17.983555713302">
        <ele>95.6</ele>
        <time>2018-04-03T11:43:12Z</time>
      </trkpt>
      <trkpt lat="62.63192133399" lon="17.9835257061">
        <ele>95.6</ele>
        <time>2018-04-03T11:43:13Z</time>
      </trkpt>
      <trkpt lat="62.631894092815" lon="17.983460746375">
        <ele>95.6</ele>
        <time>2018-04-03T11:43:14Z</time>
      </trkpt>
      <trkpt lat="62.631871461685" lon="17.983451777742">
        <ele>95.6</ele>
        <time>2018-04-03T11:43:15Z</time>
      </trkpt>
      <trkpt lat="62.631849417288" lon="17.9833915957">
        <ele>95.6</ele>
        <time>2018-04-03T11:43:16Z</time>
      </trkpt>
      <trkpt lat="62.631833407859" lon="17.98332873145">
        <ele>95.6</ele>
        <time>2018-04-03T11:43:17Z</time>
      </trkpt>
      <trkpt lat="62.631821086466" lon="17.983299310981">
        <ele>95.8</ele>
        <time>2018-04-03T11:43:18Z</time>
      </trkpt>
      <trkpt lat="62.631810189996" lon="17.983216078714">
        <ele>95.8</ele>
        <time>2018-04-03T11:43:19Z</time>
      </trkpt>
      <trkpt lat="62.631788480875" lon="17.983158495061">
        <ele>95.8</ele>
        <time>2018-04-03T11:43:20Z</time>
      </trkpt>
      <trkpt lat="62.631764927736" lon="17.983095463173">
        <ele>95.8</ele>
        <time>2018-04-03T11:43:21Z</time>
      </trkpt>
      <trkpt lat="62.631729723756" lon="17.983029413801">
        <ele>95.8</ele>
        <time>2018-04-03T11:43:22Z</time>
      </trkpt>
      <trkpt lat="62.631705500065" lon="17.98294484043">
        <ele>95.6</ele>
        <time>2018-04-03T11:43:23Z</time>
      </trkpt>
      <trkpt lat="62.631684545315" lon="17.982881389447">
        <ele>95.6</ele>
        <time>2018-04-03T11:43:24Z</time>
      </trkpt>
      <trkpt lat="62.631664428755" lon="17.982791619298">
        <ele>95.4</ele>
        <time>2018-04-03T11:43:25Z</time>
      </trkpt>
      <trkpt lat="62.631648838421" lon="17.982738478052">
        <ele>95.4</ele>
        <time>2018-04-03T11:43:26Z</time>
      </trkpt>
      <trkpt lat="62.631639785969" lon="17.982634291035">
        <ele>95.2</ele>
        <time>2018-04-03T11:43:27Z</time>
      </trkpt>
      <trkpt lat="62.631634337734" lon="17.982540078479">
        <ele>95.4</ele>
        <time>2018-04-03T11:43:28Z</time>
      </trkpt>
      <trkpt lat="62.631628638042" lon="17.982469921976">
        <ele>95.2</ele>
        <time>2018-04-03T11:43:29Z</time>
      </trkpt>
      <trkpt lat="62.631620591418" lon="17.98236481295">
        <ele>95.2</ele>
        <time>2018-04-03T11:43:30Z</time>
      </trkpt>
      <trkpt lat="62.631604917265" lon="17.982277976466">
        <ele>95</ele>
        <time>2018-04-03T11:43:31Z</time>
      </trkpt>
      <trkpt lat="62.631595445718" lon="17.982217123872">
        <ele>95</ele>
        <time>2018-04-03T11:43:32Z</time>
      </trkpt>
      <trkpt lat="62.63157599971" lon="17.982131879949">
        <ele>95.2</ele>
        <time>2018-04-03T11:43:33Z</time>
      </trkpt>
      <trkpt lat="62.631562504851" lon="17.982105057869">
        <ele>95</ele>
        <time>2018-04-03T11:43:34Z</time>
      </trkpt>
      <trkpt lat="62.631533168201" lon="17.982059208876">
        <ele>95.2</ele>
        <time>2018-04-03T11:43:35Z</time>
      </trkpt>
      <trkpt lat="62.631503999189" lon="17.98201528772">
        <ele>95.2</ele>
        <time>2018-04-03T11:43:36Z</time>
      </trkpt>
      <trkpt lat="62.631479440222" lon="17.981990644934">
        <ele>95.2</ele>
        <time>2018-04-03T11:43:37Z</time>
      </trkpt>
      <trkpt lat="62.631438285093" lon="17.981951166185">
        <ele>95.6</ele>
        <time>2018-04-03T11:43:38Z</time>
      </trkpt>
      <trkpt lat="62.631407188244" lon="17.98193146872">
        <ele>95.6</ele>
        <time>2018-04-03T11:43:39Z</time>
      </trkpt>
      <trkpt lat="62.631380282345" lon="17.981903892269">
        <ele>95.6</ele>
        <time>2018-04-03T11:43:40Z</time>
      </trkpt>
      <trkpt lat="62.631340719777" lon="17.98188117732">
        <ele>95.6</ele>
        <time>2018-04-03T11:43:41Z</time>
      </trkpt>
      <trkpt lat="62.631310042023" lon="17.981863826787">
        <ele>95.8</ele>
        <time>2018-04-03T11:43:42Z</time>
      </trkpt>
      <trkpt lat="62.631282717029" lon="17.981831891748">
        <ele>95.6</ele>
        <time>2018-04-03T11:43:43Z</time>
      </trkpt>
      <trkpt lat="62.63126419303" lon="17.981801716908">
        <ele>95.8</ele>
        <time>2018-04-03T11:43:44Z</time>
      </trkpt>
      <trkpt lat="62.631236700398" lon="17.981771122973">
        <ele>95.8</ele>
        <time>2018-04-03T11:43:45Z</time>
      </trkpt>
      <trkpt lat="62.631215913286" lon="17.9817403614">
        <ele>96</ele>
        <time>2018-04-03T11:43:46Z</time>
      </trkpt>
      <trkpt lat="62.631199820038" lon="17.981719825745">
        <ele>96</ele>
        <time>2018-04-03T11:43:47Z</time>
      </trkpt>
      <trkpt lat="62.631177356546" lon="17.98168755543">
        <ele>96.2</ele>
        <time>2018-04-03T11:43:48Z</time>
      </trkpt>
      <trkpt lat="62.631152797579" lon="17.981664672843">
        <ele>96.6</ele>
        <time>2018-04-03T11:43:49Z</time>
      </trkpt>
      <trkpt lat="62.631135866141" lon="17.981621422239">
        <ele>96.8</ele>
        <time>2018-04-03T11:43:50Z</time>
      </trkpt>
      <trkpt lat="62.631115749581" lon="17.981577668721">
        <ele>97.2</ele>
        <time>2018-04-03T11:43:51Z</time>
      </trkpt>
      <trkpt lat="62.631096638849" lon="17.981545733682">
        <ele>97.4</ele>
        <time>2018-04-03T11:43:52Z</time>
      </trkpt>
      <trkpt lat="62.631059423213" lon="17.981521007077">
        <ele>97.8</ele>
        <time>2018-04-03T11:43:53Z</time>
      </trkpt>
      <trkpt lat="62.631018268084" lon="17.981523521647">
        <ele>98</ele>
        <time>2018-04-03T11:43:54Z</time>
      </trkpt>
      <trkpt lat="62.630977699688" lon="17.981552439202">
        <ele>98</ele>
        <time>2018-04-03T11:43:55Z</time>
      </trkpt>
      <trkpt lat="62.630939729681" lon="17.981600216032">
        <ele>98</ele>
        <time>2018-04-03T11:43:56Z</time>
      </trkpt>
      <trkpt lat="62.630903184597" lon="17.98163726403">
        <ele>97.8</ele>
        <time>2018-04-03T11:43:57Z</time>
      </trkpt>
      <trkpt lat="62.630897401086" lon="17.98164564593">
        <ele>97.8</ele>
        <time>2018-04-03T11:43:58Z</time>
      </trkpt>
      <trkpt lat="62.630839985071" lon="17.981715886252">
        <ele>97.8</ele>
        <time>2018-04-03T11:43:59Z</time>
      </trkpt>
      <trkpt lat="62.630770750577" lon="17.981783612004">
        <ele>97.6</ele>
        <time>2018-04-03T11:44:00Z</time>
      </trkpt>
      <trkpt lat="62.630724231032" lon="17.981832143205">
        <ele>97.2</ele>
        <time>2018-04-03T11:44:01Z</time>
      </trkpt>
      <trkpt lat="62.630722889928" lon="17.981873465972">
        <ele>97</ele>
        <time>2018-04-03T11:44:02Z</time>
      </trkpt>
      <trkpt lat="62.630681986256" lon="17.981911855074">
        <ele>96.6</ele>
        <time>2018-04-03T11:44:03Z</time>
      </trkpt>
      <trkpt lat="62.630659522764" lon="17.981949992719">
        <ele>96.4</ele>
        <time>2018-04-03T11:44:04Z</time>
      </trkpt>
      <trkpt lat="62.630633287417" lon="17.981986118708">
        <ele>96.2</ele>
        <time>2018-04-03T11:44:05Z</time>
      </trkpt>
      <trkpt lat="62.630600430369" lon="17.982021909421">
        <ele>96.2</ele>
        <time>2018-04-03T11:44:06Z</time>
      </trkpt>
      <trkpt lat="62.630564974932" lon="17.982057700134">
        <ele>96</ele>
        <time>2018-04-03T11:44:07Z</time>
      </trkpt>
      <trkpt lat="62.630523735984" lon="17.982085360404">
        <ele>96.2</ele>
        <time>2018-04-03T11:44:08Z</time>
      </trkpt>
      <trkpt lat="62.63048635271" lon="17.982108662086">
        <ele>96</ele>
        <time>2018-04-03T11:44:09Z</time>
      </trkpt>
      <trkpt lat="62.630455088223" lon="17.982159204943">
        <ele>96</ele>
        <time>2018-04-03T11:44:10Z</time>
      </trkpt>
      <trkpt lat="62.630424661926" lon="17.982168425033">
        <ele>96</ele>
        <time>2018-04-03T11:44:11Z</time>
      </trkpt>
      <trkpt lat="62.630393900353" lon="17.982184937376">
        <ele>96.2</ele>
        <time>2018-04-03T11:44:12Z</time>
      </trkpt>
      <trkpt lat="62.630370766309" lon="17.982219135528">
        <ele>96.2</ele>
        <time>2018-04-03T11:44:13Z</time>
      </trkpt>
      <trkpt lat="62.630342016392" lon="17.98222064427">
        <ele>96.4</ele>
        <time>2018-04-03T11:44:14Z</time>
      </trkpt>
      <trkpt lat="62.630309662258" lon="17.982229361446">
        <ele>96.4</ele>
        <time>2018-04-03T11:44:15Z</time>
      </trkpt>
      <trkpt lat="62.63028015797" lon="17.982214693121">
        <ele>96.4</ele>
        <time>2018-04-03T11:44:16Z</time>
      </trkpt>
      <trkpt lat="62.630241685049" lon="17.982181584616">
        <ele>96.4</ele>
        <time>2018-04-03T11:44:17Z</time>
      </trkpt>
      <trkpt lat="62.63020891182" lon="17.982146799731">
        <ele>96.4</ele>
        <time>2018-04-03T11:44:18Z</time>
      </trkpt>
      <trkpt lat="62.630191896563" lon="17.982142860238">
        <ele>96.4</ele>
        <time>2018-04-03T11:44:19Z</time>
      </trkpt>
      <trkpt lat="62.630161889361" lon="17.982108159172">
        <ele>96.4</ele>
        <time>2018-04-03T11:44:20Z</time>
      </trkpt>
      <trkpt lat="62.63013766567" lon="17.982084773671">
        <ele>96.4</ele>
        <time>2018-04-03T11:44:21Z</time>
      </trkpt>
      <trkpt lat="62.630116040368" lon="17.982052670994">
        <ele>96.4</ele>
        <time>2018-04-03T11:44:22Z</time>
      </trkpt>
      <trkpt lat="62.630076561619" lon="17.982001373766">
        <ele>96.4</ele>
        <time>2018-04-03T11:44:23Z</time>
      </trkpt>
      <trkpt lat="62.630057953801" lon="17.981978072084">
        <ele>96.4</ele>
        <time>2018-04-03T11:44:24Z</time>
      </trkpt>
      <trkpt lat="62.630023588011" lon="17.981946975235">
        <ele>96.4</ele>
        <time>2018-04-03T11:44:25Z</time>
      </trkpt>
      <trkpt lat="62.629985282728" lon="17.981909508142">
        <ele>96.4</ele>
        <time>2018-04-03T11:44:26Z</time>
      </trkpt>
      <trkpt lat="62.629954856431" lon="17.981879249483">
        <ele>96.6</ele>
        <time>2018-04-03T11:44:27Z</time>
      </trkpt>
      <trkpt lat="62.629941026296" lon="17.981852427403">
        <ele>96.6</ele>
        <time>2018-04-03T11:44:28Z</time>
      </trkpt>
      <trkpt lat="62.629906828144" lon="17.98183842963">
        <ele>96.6</ele>
        <time>2018-04-03T11:44:29Z</time>
      </trkpt>
      <trkpt lat="62.629887298317" lon="17.98180574022">
        <ele>96.8</ele>
        <time>2018-04-03T11:44:30Z</time>
      </trkpt>
      <trkpt lat="62.629866678843" lon="17.981785791298">
        <ele>96.8</ele>
        <time>2018-04-03T11:44:31Z</time>
      </trkpt>
      <trkpt lat="62.62984765193" lon="17.981773721362">
        <ele>96.8</ele>
        <time>2018-04-03T11:44:32Z</time>
      </trkpt>
      <trkpt lat="62.629821165126" lon="17.98174790511">
        <ele>97.2</ele>
        <time>2018-04-03T11:44:33Z</time>
      </trkpt>
      <trkpt lat="62.629789649182" lon="17.981722005039">
        <ele>97.4</ele>
        <time>2018-04-03T11:44:34Z</time>
      </trkpt>
      <trkpt lat="62.629760228713" lon="17.981700212099">
        <ele>97.4</ele>
        <time>2018-04-03T11:44:35Z</time>
      </trkpt>
      <trkpt lat="62.62973952542" lon="17.98167665896">
        <ele>97.6</ele>
        <time>2018-04-03T11:44:36Z</time>
      </trkpt>
      <trkpt lat="62.629720582326" lon="17.98166408611">
        <ele>97.8</ele>
        <time>2018-04-03T11:44:37Z</time>
      </trkpt>
      <trkpt lat="62.629683534328" lon="17.981619326764">
        <ele>97.8</ele>
        <time>2018-04-03T11:44:38Z</time>
      </trkpt>
      <trkpt lat="62.62965989737" lon="17.98160876557">
        <ele>97.8</ele>
        <time>2018-04-03T11:44:39Z</time>
      </trkpt>
      <trkpt lat="62.629638607344" lon="17.981587224087">
        <ele>97.8</ele>
        <time>2018-04-03T11:44:40Z</time>
      </trkpt>
      <trkpt lat="62.629593177446" lon="17.981545482225">
        <ele>97.8</ele>
        <time>2018-04-03T11:44:41Z</time>
      </trkpt>
      <trkpt lat="62.629569037574" lon="17.981530981538">
        <ele>98</ele>
        <time>2018-04-03T11:44:42Z</time>
      </trkpt>
      <trkpt lat="62.629555039801" lon="17.981517821955">
        <ele>98</ele>
        <time>2018-04-03T11:44:43Z</time>
      </trkpt>
      <trkpt lat="62.629552022317" lon="17.981524359837">
        <ele>98.2</ele>
        <time>2018-04-03T11:44:44Z</time>
      </trkpt>
      <trkpt lat="62.62955512362" lon="17.981518743964">
        <ele>98.2</ele>
        <time>2018-04-03T11:44:45Z</time>
      </trkpt>
      <trkpt lat="62.629586555745" lon="17.981516313213">
        <ele>98.4</ele>
        <time>2018-04-03T11:44:46Z</time>
      </trkpt>
      <trkpt lat="62.629610108884" lon="17.981517151403">
        <ele>98.6</ele>
        <time>2018-04-03T11:44:47Z</time>
      </trkpt>
      <trkpt lat="62.629632153281" lon="17.9815391958">
        <ele>98.6</ele>
        <time>2018-04-03T11:44:48Z</time>
      </trkpt>
      <trkpt lat="62.629656209334" lon="17.981561072559">
        <ele>98.6</ele>
        <time>2018-04-03T11:44:49Z</time>
      </trkpt>
      <trkpt lat="62.629680433025" lon="17.981578926006">
        <ele>98.8</ele>
        <time>2018-04-03T11:44:50Z</time>
      </trkpt>
      <trkpt lat="62.629710691684" lon="17.981592672322">
        <ele>98.6</ele>
        <time>2018-04-03T11:44:51Z</time>
      </trkpt>
      <trkpt lat="62.629734328642" lon="17.98161295652">
        <ele>98.6</ele>
        <time>2018-04-03T11:44:52Z</time>
      </trkpt>
      <trkpt lat="62.629765006396" lon="17.981634330365">
        <ele>98.6</ele>
        <time>2018-04-03T11:44:53Z</time>
      </trkpt>
      <trkpt lat="62.629787553707" lon="17.981654698382">
        <ele>98.6</ele>
        <time>2018-04-03T11:44:54Z</time>
      </trkpt>
      <trkpt lat="62.62981915347" lon="17.98168671724">
        <ele>98.4</ele>
        <time>2018-04-03T11:44:55Z</time>
      </trkpt>
      <trkpt lat="62.629855028002" lon="17.981715718614">
        <ele>98.2</ele>
        <time>2018-04-03T11:44:56Z</time>
      </trkpt>
      <trkpt lat="62.629902804832" lon="17.981727956188">
        <ele>98</ele>
        <time>2018-04-03T11:44:57Z</time>
      </trkpt>
      <trkpt lat="62.629941445391" lon="17.981746731644">
        <ele>97.8</ele>
        <time>2018-04-03T11:44:58Z</time>
      </trkpt>
      <trkpt lat="62.629990311868" lon="17.981783025271">
        <ele>97.4</ele>
        <time>2018-04-03T11:44:59Z</time>
      </trkpt>
      <trkpt lat="62.630030628807" lon="17.981806410772">
        <ele>97</ele>
        <time>2018-04-03T11:45:00Z</time>
      </trkpt>
      <trkpt lat="62.630063318217" lon="17.98185016429">
        <ele>96.6</ele>
        <time>2018-04-03T11:45:01Z</time>
      </trkpt>
      <trkpt lat="62.630103551337" lon="17.98187530999">
        <ele>96.4</ele>
        <time>2018-04-03T11:45:02Z</time>
      </trkpt>
      <trkpt lat="62.630147556312" lon="17.981904814278">
        <ele>96</ele>
        <time>2018-04-03T11:45:03Z</time>
      </trkpt>
      <trkpt lat="62.630183263206" lon="17.981931049625">
        <ele>95.8</ele>
        <time>2018-04-03T11:45:04Z</time>
      </trkpt>
      <trkpt lat="62.630228860742" lon="17.981962817026">
        <ele>95.6</ele>
        <time>2018-04-03T11:45:05Z</time>
      </trkpt>
      <trkpt lat="62.630258700306" lon="17.981998859196">
        <ele>95.8</ele>
        <time>2018-04-03T11:45:06Z</time>
      </trkpt>
      <trkpt lat="62.63028267254" lon="17.982012354055">
        <ele>96</ele>
        <time>2018-04-03T11:45:07Z</time>
      </trkpt>
      <trkpt lat="62.630318547072" lon="17.982027106199">
        <ele>96</ele>
        <time>2018-04-03T11:45:08Z</time>
      </trkpt>
      <trkpt lat="62.630348721912" lon="17.982022663792">
        <ele>96.4</ele>
        <time>2018-04-03T11:45:09Z</time>
      </trkpt>
      <trkpt lat="62.630378058562" lon="17.982037751212">
        <ele>96.4</ele>
        <time>2018-04-03T11:45:10Z</time>
      </trkpt>
      <trkpt lat="62.630414938922" lon="17.982037499755">
        <ele>97</ele>
        <time>2018-04-03T11:45:11Z</time>
      </trkpt>
      <trkpt lat="62.630445784314" lon="17.982008246924">
        <ele>97</ele>
        <time>2018-04-03T11:45:12Z</time>
      </trkpt>
      <trkpt lat="62.630481155932" lon="17.982009001295">
        <ele>97</ele>
        <time>2018-04-03T11:45:13Z</time>
      </trkpt>
      <trkpt lat="62.630520215586" lon="17.981976647161">
        <ele>97</ele>
        <time>2018-04-03T11:45:14Z</time>
      </trkpt>
      <trkpt lat="62.630548714046" lon="17.981963487578">
        <ele>97</ele>
        <time>2018-04-03T11:45:15Z</time>
      </trkpt>
      <trkpt lat="62.630575703764" lon="17.981950998547">
        <ele>96.4</ele>
        <time>2018-04-03T11:45:16Z</time>
      </trkpt>
      <trkpt lat="62.630617445626" lon="17.981921494259">
        <ele>96.4</ele>
        <time>2018-04-03T11:45:17Z</time>
      </trkpt>
      <trkpt lat="62.630656924375" lon="17.981867431004">
        <ele>96.4</ele>
        <time>2018-04-03T11:45:18Z</time>
      </trkpt>
      <trkpt lat="62.630691457803" lon="17.981834406318">
        <ele>96.6</ele>
        <time>2018-04-03T11:45:19Z</time>
      </trkpt>
      <trkpt lat="62.630728841077" lon="17.981786126574">
        <ele>96.6</ele>
        <time>2018-04-03T11:45:20Z</time>
      </trkpt>
      <trkpt lat="62.630756333709" lon="17.981747653653">
        <ele>96.6</ele>
        <time>2018-04-03T11:45:21Z</time>
      </trkpt>
      <trkpt lat="62.630784580712" lon="17.981727034179">
        <ele>96.8</ele>
        <time>2018-04-03T11:45:22Z</time>
      </trkpt>
      <trkpt lat="62.630836380854" lon="17.981689399448">
        <ele>96.8</ele>
        <time>2018-04-03T11:45:23Z</time>
      </trkpt>
      <trkpt lat="62.630862029468" lon="17.981658721694">
        <ele>96.8</ele>
        <time>2018-04-03T11:45:24Z</time>
      </trkpt>
      <trkpt lat="62.630899999475" lon="17.981633240718">
        <ele>96.6</ele>
        <time>2018-04-03T11:45:25Z</time>
      </trkpt>
      <trkpt lat="62.630933862351" lon="17.981600970403">
        <ele>96.8</ele>
        <time>2018-04-03T11:45:26Z</time>
      </trkpt>
      <trkpt lat="62.630962612268" lon="17.981573310133">
        <ele>96.8</ele>
        <time>2018-04-03T11:45:27Z</time>
      </trkpt>
      <trkpt lat="62.631000917551" lon="17.981537854696">
        <ele>96.8</ele>
        <time>2018-04-03T11:45:28Z</time>
      </trkpt>
      <trkpt lat="62.631039977205" lon="17.981536932687">
        <ele>96.8</ele>
        <time>2018-04-03T11:45:29Z</time>
      </trkpt>
      <trkpt lat="62.631064452353" lon="17.981516816127">
        <ele>96.8</ele>
        <time>2018-04-03T11:45:30Z</time>
      </trkpt>
      <trkpt lat="62.631100326885" lon="17.981513714824">
        <ele>96.6</ele>
        <time>2018-04-03T11:45:31Z</time>
      </trkpt>
      <trkpt lat="62.631132094286" lon="17.981518408688">
        <ele>96.6</ele>
        <time>2018-04-03T11:45:32Z</time>
      </trkpt>
      <trkpt lat="62.631159754556" lon="17.981531400633">
        <ele>96.6</ele>
        <time>2018-04-03T11:45:33Z</time>
      </trkpt>
      <trkpt lat="62.631178865288" lon="17.981559982912">
        <ele>96.8</ele>
        <time>2018-04-03T11:45:34Z</time>
      </trkpt>
      <trkpt lat="62.631192611604" lon="17.981595270711">
        <ele>97</ele>
        <time>2018-04-03T11:45:35Z</time>
      </trkpt>
      <trkpt lat="62.631209626861" lon="17.98162469118">
        <ele>97.4</ele>
        <time>2018-04-03T11:45:36Z</time>
      </trkpt>
      <trkpt lat="62.631225133376" lon="17.981656626219">
        <ele>97.6</ele>
        <time>2018-04-03T11:45:37Z</time>
      </trkpt>
      <trkpt lat="62.631250446714" lon="17.98170180466">
        <ele>98</ele>
        <time>2018-04-03T11:45:38Z</time>
      </trkpt>
      <trkpt lat="62.631277184975" lon="17.98174203778">
        <ele>98</ele>
        <time>2018-04-03T11:45:39Z</time>
      </trkpt>
      <trkpt lat="62.631304845245" lon="17.981774224276">
        <ele>98</ele>
        <time>2018-04-03T11:45:40Z</time>
      </trkpt>
      <trkpt lat="62.631335103904" lon="17.981801381632">
        <ele>97.8</ele>
        <time>2018-04-03T11:45:41Z</time>
      </trkpt>
      <trkpt lat="62.631361590708" lon="17.981819318898">
        <ele>97.6</ele>
        <time>2018-04-03T11:45:42Z</time>
      </trkpt>
      <trkpt lat="62.631397046145" lon="17.981842033847">
        <ele>97.2</ele>
        <time>2018-04-03T11:45:43Z</time>
      </trkpt>
      <trkpt lat="62.631421521293" lon="17.98186944266">
        <ele>96.8</ele>
        <time>2018-04-03T11:45:44Z</time>
      </trkpt>
      <trkpt lat="62.631449516839" lon="17.981891906152">
        <ele>96.6</ele>
        <time>2018-04-03T11:45:45Z</time>
      </trkpt>
      <trkpt lat="62.631475165453" lon="17.981920488431">
        <ele>96.2</ele>
        <time>2018-04-03T11:45:46Z</time>
      </trkpt>
      <trkpt lat="62.631502741904" lon="17.981950411814">
        <ele>96</ele>
        <time>2018-04-03T11:45:47Z</time>
      </trkpt>
      <trkpt lat="62.631529563984" lon="17.981978072084">
        <ele>95.8</ele>
        <time>2018-04-03T11:45:48Z</time>
      </trkpt>
      <trkpt lat="62.631557727168" lon="17.982000954671">
        <ele>95.6</ele>
        <time>2018-04-03T11:45:49Z</time>
      </trkpt>
      <trkpt lat="62.631594607528" lon="17.982018724299">
        <ele>95.4</ele>
        <time>2018-04-03T11:45:50Z</time>
      </trkpt>
      <trkpt lat="62.631612125699" lon="17.982072368459">
        <ele>95.4</ele>
        <time>2018-04-03T11:45:51Z</time>
      </trkpt>
      <trkpt lat="62.631623525083" lon="17.982133891605">
        <ele>95.4</ele>
        <time>2018-04-03T11:45:52Z</time>
      </trkpt>
      <trkpt lat="62.631642803453" lon="17.98220639504">
        <ele>95.4</ele>
        <time>2018-04-03T11:45:53Z</time>
      </trkpt>
      <trkpt lat="62.631649089878" lon="17.98226674472">
        <ele>95.6</ele>
        <time>2018-04-03T11:45:54Z</time>
      </trkpt>
      <trkpt lat="62.631655208665" lon="17.982344444933">
        <ele>95.8</ele>
        <time>2018-04-03T11:45:55Z</time>
      </trkpt>
      <trkpt lat="62.63165981871" lon="17.982413511789">
        <ele>95.8</ele>
        <time>2018-04-03T11:45:56Z</time>
      </trkpt>
      <trkpt lat="62.631656717407" lon="17.982482578645">
        <ele>95.6</ele>
        <time>2018-04-03T11:45:57Z</time>
      </trkpt>
      <trkpt lat="62.631654957208" lon="17.982498001341">
        <ele>95.6</ele>
        <time>2018-04-03T11:45:58Z</time>
      </trkpt>
      <trkpt lat="62.631664093479" lon="17.982599338512">
        <ele>95.4</ele>
        <time>2018-04-03T11:45:59Z</time>
      </trkpt>
      <trkpt lat="62.631679348537" lon="17.982694137801">
        <ele>95.4</ele>
        <time>2018-04-03T11:46:00Z</time>
      </trkpt>
      <trkpt lat="62.63169586088" lon="17.982763707571">
        <ele>95.2</ele>
        <time>2018-04-03T11:46:01Z</time>
      </trkpt>
      <trkpt lat="62.631710780662" lon="17.982810813849">
        <ele>95</ele>
        <time>2018-04-03T11:46:02Z</time>
      </trkpt>
      <trkpt lat="62.631725113711" lon="17.982867894588">
        <ele>95</ele>
        <time>2018-04-03T11:46:03Z</time>
      </trkpt>
      <trkpt lat="62.631738692389" lon="17.982910893735">
        <ele>95</ele>
        <time>2018-04-03T11:46:04Z</time>
      </trkpt>
      <trkpt lat="62.631758892768" lon="17.982942158222">
        <ele>95</ele>
        <time>2018-04-03T11:46:05Z</time>
      </trkpt>
      <trkpt lat="62.631778171138" lon="17.983010135431">
        <ele>95</ele>
        <time>2018-04-03T11:46:06Z</time>
      </trkpt>
      <trkpt lat="62.631790743988" lon="17.98305380513">
        <ele>95</ele>
        <time>2018-04-03T11:46:07Z</time>
      </trkpt>
      <trkpt lat="62.631819242448" lon="17.983061600297">
        <ele>95</ele>
        <time>2018-04-03T11:46:08Z</time>
      </trkpt>
      <trkpt lat="62.631835335696" lon="17.983132762628">
        <ele>95</ele>
        <time>2018-04-03T11:46:09Z</time>
      </trkpt>
      <trkpt lat="62.631855033161" lon="17.98319545924">
        <ele>95.2</ele>
        <time>2018-04-03T11:46:10Z</time>
      </trkpt>
      <trkpt lat="62.631873640979" lon="17.983228735383">
        <ele>95.2</ele>
        <time>2018-04-03T11:46:11Z</time>
      </trkpt>
      <trkpt lat="62.631898199946" lon="17.98328011643">
        <ele>95.2</ele>
        <time>2018-04-03T11:46:12Z</time>
      </trkpt>
      <trkpt lat="62.63192636313" lon="17.983315236591">
        <ele>95.2</ele>
        <time>2018-04-03T11:46:13Z</time>
      </trkpt>
      <trkpt lat="62.631950083907" lon="17.983354966797">
        <ele>95.4</ele>
        <time>2018-04-03T11:46:14Z</time>
      </trkpt>
      <trkpt lat="62.63197162539" lon="17.983392014795">
        <ele>95.4</ele>
        <time>2018-04-03T11:46:15Z</time>
      </trkpt>
      <trkpt lat="62.631993585968" lon="17.983419591246">
        <ele>95.4</ele>
        <time>2018-04-03T11:46:16Z</time>
      </trkpt>
      <trkpt lat="62.632016636193" lon="17.983462674212">
        <ele>95.6</ele>
        <time>2018-04-03T11:46:17Z</time>
      </trkpt>
      <trkpt lat="62.632042117169" lon="17.983502991151">
        <ele>95.8</ele>
        <time>2018-04-03T11:46:18Z</time>
      </trkpt>
      <trkpt lat="62.632067933421" lon="17.983554539836">
        <ele>95.8</ele>
        <time>2018-04-03T11:46:19Z</time>
      </trkpt>
      <trkpt lat="62.632093079121" lon="17.983604998874">
        <ele>96</ele>
        <time>2018-04-03T11:46:20Z</time>
      </trkpt>
      <trkpt lat="62.632116296984" lon="17.983655457912">
        <ele>96</ele>
        <time>2018-04-03T11:46:21Z</time>
      </trkpt>
      <trkpt lat="62.632132893146" lon="17.983728380442">
        <ele>95.6</ele>
        <time>2018-04-03T11:46:22Z</time>
      </trkpt>
      <trkpt lat="62.63215099805" lon="17.983793172529">
        <ele>95.6</ele>
        <time>2018-04-03T11:46:23Z</time>
      </trkpt>
      <trkpt lat="62.632164995823" lon="17.98385092382">
        <ele>95.4</ele>
        <time>2018-04-03T11:46:24Z</time>
      </trkpt>
      <trkpt lat="62.632178239225" lon="17.983913452794">
        <ele>95.4</ele>
        <time>2018-04-03T11:46:25Z</time>
      </trkpt>
      <trkpt lat="62.632193661921" lon="17.983975981768">
        <ele>95.4</ele>
        <time>2018-04-03T11:46:26Z</time>
      </trkpt>
      <trkpt lat="62.632204558391" lon="17.984038007828">
        <ele>95.2</ele>
        <time>2018-04-03T11:46:27Z</time>
      </trkpt>
      <trkpt lat="62.632213107929" lon="17.984106907046">
        <ele>95.4</ele>
        <time>2018-04-03T11:46:28Z</time>
      </trkpt>
      <trkpt lat="62.632221657467" lon="17.984181841232">
        <ele>95.4</ele>
        <time>2018-04-03T11:46:29Z</time>
      </trkpt>
      <trkpt lat="62.632228865901" lon="17.984246130405">
        <ele>95.2</ele>
        <time>2018-04-03T11:46:30Z</time>
      </trkpt>
      <trkpt lat="62.632237415439" lon="17.984299858384">
        <ele>95.4</ele>
        <time>2018-04-03T11:46:31Z</time>
      </trkpt>
      <trkpt lat="62.632239930009" lon="17.984387616877">
        <ele>95.2</ele>
        <time>2018-04-03T11:46:32Z</time>
      </trkpt>
      <trkpt lat="62.632244623873" lon="17.984453498611">
        <ele>95.2</ele>
        <time>2018-04-03T11:46:33Z</time>
      </trkpt>
      <trkpt lat="62.632246635529" lon="17.984520972906">
        <ele>95</ele>
        <time>2018-04-03T11:46:34Z</time>
      </trkpt>
      <trkpt lat="62.632248395728" lon="17.984595907092">
        <ele>95</ele>
        <time>2018-04-03T11:46:35Z</time>
      </trkpt>
      <trkpt lat="62.632252586678" lon="17.984667739975">
        <ele>95</ele>
        <time>2018-04-03T11:46:36Z</time>
      </trkpt>
      <trkpt lat="62.632246467891" lon="17.984744099084">
        <ele>95</ele>
        <time>2018-04-03T11:46:37Z</time>
      </trkpt>
      <trkpt lat="62.632239008" lon="17.984823475677">
        <ele>95.2</ele>
        <time>2018-04-03T11:46:38Z</time>
      </trkpt>
      <trkpt lat="62.632236074335" lon="17.984891788162">
        <ele>95.2</ele>
        <time>2018-04-03T11:46:39Z</time>
      </trkpt>
      <trkpt lat="62.632232721575" lon="17.984988850564">
        <ele>95.2</ele>
        <time>2018-04-03T11:46:40Z</time>
      </trkpt>
      <trkpt lat="62.632230123186" lon="17.985071077003">
        <ele>95.2</ele>
        <time>2018-04-03T11:46:41Z</time>
      </trkpt>
      <trkpt lat="62.632228865901" lon="17.985147436112">
        <ele>95.2</ele>
        <time>2018-04-03T11:46:42Z</time>
      </trkpt>
      <trkpt lat="62.632226016055" lon="17.985232680035">
        <ele>95.2</ele>
        <time>2018-04-03T11:46:43Z</time>
      </trkpt>
      <trkpt lat="62.632222747114" lon="17.985301663072">
        <ele>95.2</ele>
        <time>2018-04-03T11:46:44Z</time>
      </trkpt>
      <trkpt lat="62.632220986915" lon="17.985367796263">
        <ele>95.2</ele>
        <time>2018-04-03T11:46:45Z</time>
      </trkpt>
      <trkpt lat="62.632211431549" lon="17.985454548928">
        <ele>95.2</ele>
        <time>2018-04-03T11:46:46Z</time>
      </trkpt>
      <trkpt lat="62.632211431549" lon="17.985531327132">
        <ele>95.2</ele>
        <time>2018-04-03T11:46:47Z</time>
      </trkpt>
      <trkpt lat="62.632202798192" lon="17.98561112282">
        <ele>95.2</ele>
        <time>2018-04-03T11:46:48Z</time>
      </trkpt>
      <trkpt lat="62.632191482627" lon="17.985690080318">
        <ele>95.2</ele>
        <time>2018-04-03T11:46:49Z</time>
      </trkpt>
      <trkpt lat="62.632183016908" lon="17.98577289349">
        <ele>95.2</ele>
        <time>2018-04-03T11:46:50Z</time>
      </trkpt>
      <trkpt lat="62.632177568673" lon="17.985858807965">
        <ele>95.2</ele>
        <time>2018-04-03T11:46:51Z</time>
      </trkpt>
      <trkpt lat="62.63216189452" lon="17.985925024975">
        <ele>95.4</ele>
        <time>2018-04-03T11:46:52Z</time>
      </trkpt>
      <trkpt lat="62.632152003878" lon="17.986001635541">
        <ele>95.4</ele>
        <time>2018-04-03T11:46:53Z</time>
      </trkpt>
      <trkpt lat="62.632141861779" lon="17.986077910831">
        <ele>95.4</ele>
        <time>2018-04-03T11:46:54Z</time>
      </trkpt>
      <trkpt lat="62.632129540386" lon="17.986157119786">
        <ele>95.4</ele>
        <time>2018-04-03T11:46:55Z</time>
      </trkpt>
      <trkpt lat="62.632121409943" lon="17.986239094768">
        <ele>95.4</ele>
        <time>2018-04-03T11:46:56Z</time>
      </trkpt>
      <trkpt lat="62.632107160713" lon="17.986310508556">
        <ele>95.4</ele>
        <time>2018-04-03T11:46:57Z</time>
      </trkpt>
      <trkpt lat="62.632097018614" lon="17.986371109693">
        <ele>95.6</ele>
        <time>2018-04-03T11:46:58Z</time>
      </trkpt>
      <trkpt lat="62.632076566778" lon="17.986464064964">
        <ele>95.6</ele>
        <time>2018-04-03T11:46:59Z</time>
      </trkpt>
      <trkpt lat="62.632066508498" lon="17.986537490408">
        <ele>95.8</ele>
        <time>2018-04-03T11:47:00Z</time>
      </trkpt>
      <trkpt lat="62.632058378055" lon="17.986609826205">
        <ele>95.8</ele>
        <time>2018-04-03T11:47:01Z</time>
      </trkpt>
      <trkpt lat="62.63204706249" lon="17.986686772047">
        <ele>96</ele>
        <time>2018-04-03T11:47:02Z</time>
      </trkpt>
      <trkpt lat="62.632046308119" lon="17.986752402324">
        <ele>96</ele>
        <time>2018-04-03T11:47:03Z</time>
      </trkpt>
      <trkpt lat="62.632027616482" lon="17.986846782518">
        <ele>96</ele>
        <time>2018-04-03T11:47:04Z</time>
      </trkpt>
      <trkpt lat="62.632016300917" lon="17.986923812179">
        <ele>96</ele>
        <time>2018-04-03T11:47:05Z</time>
      </trkpt>
      <trkpt lat="62.632008757207" lon="17.986999752193">
        <ele>96</ele>
        <time>2018-04-03T11:47:06Z</time>
      </trkpt>
      <trkpt lat="62.632001716411" lon="17.987071501257">
        <ele>96</ele>
        <time>2018-04-03T11:47:07Z</time>
      </trkpt>
      <trkpt lat="62.631993166873" lon="17.987148698556">
        <ele>96</ele>
        <time>2018-04-03T11:47:08Z</time>
      </trkpt>
      <trkpt lat="62.631983946783" lon="17.987237462877">
        <ele>96</ele>
        <time>2018-04-03T11:47:09Z</time>
      </trkpt>
      <trkpt lat="62.631969865191" lon="17.987304098982">
        <ele>96</ele>
        <time>2018-04-03T11:47:10Z</time>
      </trkpt>
      <trkpt lat="62.631958465807" lon="17.987376183322">
        <ele>96</ele>
        <time>2018-04-03T11:47:11Z</time>
      </trkpt>
      <trkpt lat="62.63194983245" lon="17.987446088368">
        <ele>96.2</ele>
        <time>2018-04-03T11:47:12Z</time>
      </trkpt>
      <trkpt lat="62.631947234061" lon="17.987509958446">
        <ele>96.2</ele>
        <time>2018-04-03T11:47:13Z</time>
      </trkpt>
      <trkpt lat="62.631931979003" lon="17.987588915944">
        <ele>96</ele>
        <time>2018-04-03T11:47:14Z</time>
      </trkpt>
      <trkpt lat="62.631929464433" lon="17.987654378583">
        <ele>96.2</ele>
        <time>2018-04-03T11:47:15Z</time>
      </trkpt>
      <trkpt lat="62.631916807764" lon="17.987730402416">
        <ele>96.2</ele>
        <time>2018-04-03T11:47:16Z</time>
      </trkpt>
      <trkpt lat="62.631902977629" lon="17.987800139824">
        <ele>96.2</ele>
        <time>2018-04-03T11:47:17Z</time>
      </trkpt>
      <trkpt lat="62.631893841358" lon="17.987866608291">
        <ele>96.4</ele>
        <time>2018-04-03T11:47:18Z</time>
      </trkpt>
      <trkpt lat="62.631882609612" lon="17.987938441174">
        <ele>96.4</ele>
        <time>2018-04-03T11:47:19Z</time>
      </trkpt>
      <trkpt lat="62.631873724798" lon="17.988001473062">
        <ele>96.4</ele>
        <time>2018-04-03T11:47:20Z</time>
      </trkpt>
      <trkpt lat="62.631869617667" lon="17.988059308172">
        <ele>96.4</ele>
        <time>2018-04-03T11:47:21Z</time>
      </trkpt>
      <trkpt lat="62.631851680401" lon="17.988130805779">
        <ele>96.6</ele>
        <time>2018-04-03T11:47:22Z</time>
      </trkpt>
      <trkpt lat="62.631841203026" lon="17.988195094952">
        <ele>96.6</ele>
        <time>2018-04-03T11:47:23Z</time>
      </trkpt>
      <trkpt lat="62.631826702339" lon="17.988264077989">
        <ele>96.8</ele>
        <time>2018-04-03T11:47:24Z</time>
      </trkpt>
      <trkpt lat="62.63181739843" lon="17.988324176212">
        <ele>97</ele>
        <time>2018-04-03T11:47:25Z</time>
      </trkpt>
      <trkpt lat="62.631815889688" lon="17.988381424589">
        <ele>97.2</ele>
        <time>2018-04-03T11:47:26Z</time>
      </trkpt>
      <trkpt lat="62.631805915227" lon="17.988453592748">
        <ele>97.2</ele>
        <time>2018-04-03T11:47:27Z</time>
      </trkpt>
      <trkpt lat="62.631796359861" lon="17.988521402319">
        <ele>97.2</ele>
        <time>2018-04-03T11:47:28Z</time>
      </trkpt>
      <trkpt lat="62.631788732332" lon="17.988577393411">
        <ele>97.2</ele>
        <time>2018-04-03T11:47:29Z</time>
      </trkpt>
      <trkpt lat="62.631783787011" lon="17.988637491634">
        <ele>97.2</ele>
        <time>2018-04-03T11:47:30Z</time>
      </trkpt>
      <trkpt lat="62.63178135626" lon="17.98869650021">
        <ele>97</ele>
        <time>2018-04-03T11:47:31Z</time>
      </trkpt>
      <trkpt lat="62.631767861401" lon="17.988766824351">
        <ele>97.2</ele>
        <time>2018-04-03T11:47:32Z</time>
      </trkpt>
      <trkpt lat="62.631760652967" lon="17.9888398307">
        <ele>97.2</ele>
        <time>2018-04-03T11:47:33Z</time>
      </trkpt>
      <trkpt lat="62.63176040151" lon="17.988894145412">
        <ele>97.2</ele>
        <time>2018-04-03T11:47:34Z</time>
      </trkpt>
      <trkpt lat="62.631752103429" lon="17.988962541716">
        <ele>97.2</ele>
        <time>2018-04-03T11:47:35Z</time>
      </trkpt>
      <trkpt lat="62.631746403737" lon="17.9890326144">
        <ele>97.2</ele>
        <time>2018-04-03T11:47:36Z</time>
      </trkpt>
      <trkpt lat="62.631740787864" lon="17.989081480877">
        <ele>97.4</ele>
        <time>2018-04-03T11:47:37Z</time>
      </trkpt>
      <trkpt lat="62.631733244154" lon="17.989150212457">
        <ele>97.6</ele>
        <time>2018-04-03T11:47:38Z</time>
      </trkpt>
      <trkpt lat="62.631731148679" lon="17.98921785439">
        <ele>97.4</ele>
        <time>2018-04-03T11:47:39Z</time>
      </trkpt>
      <trkpt lat="62.631725784263" lon="17.989281724468">
        <ele>97.6</ele>
        <time>2018-04-03T11:47:40Z</time>
      </trkpt>
      <trkpt lat="62.631722431503" lon="17.989360262871">
        <ele>97.6</ele>
        <time>2018-04-03T11:47:41Z</time>
      </trkpt>
      <trkpt lat="62.63171597744" lon="17.989419103809">
        <ele>97.8</ele>
        <time>2018-04-03T11:47:42Z</time>
      </trkpt>
      <trkpt lat="62.631713211413" lon="17.98948607519">
        <ele>97.6</ele>
        <time>2018-04-03T11:47:43Z</time>
      </trkpt>
      <trkpt lat="62.631702314943" lon="17.989558494806">
        <ele>97.8</ele>
        <time>2018-04-03T11:47:44Z</time>
      </trkpt>
      <trkpt lat="62.631699716554" lon="17.989625130911">
        <ele>97.8</ele>
        <time>2018-04-03T11:47:45Z</time>
      </trkpt>
      <trkpt lat="62.631692172844" lon="17.989694113948">
        <ele>97.8</ele>
        <time>2018-04-03T11:47:46Z</time>
      </trkpt>
      <trkpt lat="62.631685970238" lon="17.989765108641">
        <ele>97.8</ele>
        <time>2018-04-03T11:47:47Z</time>
      </trkpt>
      <trkpt lat="62.631672810655" lon="17.989833504945">
        <ele>97.8</ele>
        <time>2018-04-03T11:47:48Z</time>
      </trkpt>
      <trkpt lat="62.631656046855" lon="17.989910031692">
        <ele>98</ele>
        <time>2018-04-03T11:47:49Z</time>
      </trkpt>
      <trkpt lat="62.631640288883" lon="17.989987564267">
        <ele>98</ele>
        <time>2018-04-03T11:47:50Z</time>
      </trkpt>
      <trkpt lat="62.63162796749" lon="17.990062833729">
        <ele>98</ele>
        <time>2018-04-03T11:47:51Z</time>
      </trkpt>
      <trkpt lat="62.631611874242" lon="17.990141623589">
        <ele>98</ele>
        <time>2018-04-03T11:47:52Z</time>
      </trkpt>
      <trkpt lat="62.631600139582" lon="17.990212366825">
        <ele>98</ele>
        <time>2018-04-03T11:47:53Z</time>
      </trkpt>
      <trkpt lat="62.631592260596" lon="17.990282690966">
        <ele>98</ele>
        <time>2018-04-03T11:47:54Z</time>
      </trkpt>
      <trkpt lat="62.631577592271" lon="17.99034102899">
        <ele>98</ele>
        <time>2018-04-03T11:47:55Z</time>
      </trkpt>
      <trkpt lat="62.631568288362" lon="17.990399618471">
        <ele>98</ele>
        <time>2018-04-03T11:47:56Z</time>
      </trkpt>
      <trkpt lat="62.631552614209" lon="17.990475307028">
        <ele>98.2</ele>
        <time>2018-04-03T11:47:57Z</time>
      </trkpt>
      <trkpt lat="62.6315433103" lon="17.990533225957">
        <ele>98</ele>
        <time>2018-04-03T11:47:58Z</time>
      </trkpt>
      <trkpt lat="62.631527217052" lon="17.990622996106">
        <ele>98.2</ele>
        <time>2018-04-03T11:47:59Z</time>
      </trkpt>
      <trkpt lat="62.631515314754" lon="17.990706060735">
        <ele>98.4</ele>
        <time>2018-04-03T11:48:00Z</time>
      </trkpt>
      <trkpt lat="62.631504921198" lon="17.990791220839">
        <ele>98.6</ele>
        <time>2018-04-03T11:48:01Z</time>
      </trkpt>
      <trkpt lat="62.63149218071" lon="17.990880404255">
        <ele>98.6</ele>
        <time>2018-04-03T11:48:02Z</time>
      </trkpt>
      <trkpt lat="62.631488325036" lon="17.99096212778">
        <ele>98.6</ele>
        <time>2018-04-03T11:48:03Z</time>
      </trkpt>
      <trkpt lat="62.631474746358" lon="17.991036978147">
        <ele>98.6</ele>
        <time>2018-04-03T11:48:04Z</time>
      </trkpt>
      <trkpt lat="62.631461251499" lon="17.99111635474">
        <ele>98.8</ele>
        <time>2018-04-03T11:48:05Z</time>
      </trkpt>
      <trkpt lat="62.631447169907" lon="17.991195228419">
        <ele>99</ele>
        <time>2018-04-03T11:48:06Z</time>
      </trkpt>
      <trkpt lat="62.631429735555" lon="17.991262702714">
        <ele>99</ele>
        <time>2018-04-03T11:48:07Z</time>
      </trkpt>
      <trkpt lat="62.631410373366" lon="17.991342246945">
        <ele>99</ele>
        <time>2018-04-03T11:48:08Z</time>
      </trkpt>
      <trkpt lat="62.631395202127" lon="17.991416342941">
        <ele>99</ele>
        <time>2018-04-03T11:48:09Z</time>
      </trkpt>
      <trkpt lat="62.63138489239" lon="17.99147258549">
        <ele>99</ele>
        <time>2018-04-03T11:48:10Z</time>
      </trkpt>
      <trkpt lat="62.631368882961" lon="17.991546513848">
        <ele>98.8</ele>
        <time>2018-04-03T11:48:11Z</time>
      </trkpt>
      <trkpt lat="62.631343988718" lon="17.991593955402">
        <ele>98.6</ele>
        <time>2018-04-03T11:48:12Z</time>
      </trkpt>
      <trkpt lat="62.631327392556" lon="17.991651622874">
        <ele>98.6</ele>
        <time>2018-04-03T11:48:13Z</time>
      </trkpt>
      <trkpt lat="62.631301827761" lon="17.991721947015">
        <ele>98.6</ele>
        <time>2018-04-03T11:48:14Z</time>
      </trkpt>
      <trkpt lat="62.63128430959" lon="17.991781123229">
        <ele>98.6</ele>
        <time>2018-04-03T11:48:15Z</time>
      </trkpt>
      <trkpt lat="62.631266456143" lon="17.991842730194">
        <ele>98.8</ele>
        <time>2018-04-03T11:48:16Z</time>
      </trkpt>
      <trkpt lat="62.631253548017" lon="17.991918921665">
        <ele>98.8</ele>
        <time>2018-04-03T11:48:17Z</time>
      </trkpt>
      <trkpt lat="62.631251871637" lon="17.991981618277">
        <ele>99</ele>
        <time>2018-04-03T11:48:18Z</time>
      </trkpt>
      <trkpt lat="62.631254721483" lon="17.99203668736">
        <ele>99</ele>
        <time>2018-04-03T11:48:19Z</time>
      </trkpt>
      <trkpt lat="62.631259080071" lon="17.992088571321">
        <ele>99</ele>
        <time>2018-04-03T11:48:20Z</time>
      </trkpt>
      <trkpt lat="62.631266288505" lon="17.992141796386">
        <ele>99.2</ele>
        <time>2018-04-03T11:48:21Z</time>
      </trkpt>
      <trkpt lat="62.631273916034" lon="17.992172809416">
        <ele>99.2</ele>
        <time>2018-04-03T11:48:22Z</time>
      </trkpt>
      <trkpt lat="62.631281627382" lon="17.99221103088">
        <ele>99.4</ele>
        <time>2018-04-03T11:48:23Z</time>
      </trkpt>
      <trkpt lat="62.631292272395" lon="17.992240535168">
        <ele>99.6</ele>
        <time>2018-04-03T11:48:24Z</time>
      </trkpt>
      <trkpt lat="62.63130777891" lon="17.992256712235">
        <ele>100.2</ele>
        <time>2018-04-03T11:48:25Z</time>
      </trkpt>
      <trkpt lat="62.631326805823" lon="17.992269285085">
        <ele>100.2</ele>
        <time>2018-04-03T11:48:26Z</time>
      </trkpt>
      <trkpt lat="62.631342479976" lon="17.992292419129">
        <ele>100.6</ele>
        <time>2018-04-03T11:48:27Z</time>
      </trkpt>
      <trkpt lat="62.631364524373" lon="17.992292167672">
        <ele>100.6</ele>
        <time>2018-04-03T11:48:28Z</time>
      </trkpt>
      <trkpt lat="62.631385479123" lon="17.992294514604">
        <ele>100.8</ele>
        <time>2018-04-03T11:48:29Z</time>
      </trkpt>
      <trkpt lat="62.631410708642" lon="17.992295855708">
        <ele>100.8</ele>
        <time>2018-04-03T11:48:30Z</time>
      </trkpt>
      <trkpt lat="62.631439877654" lon="17.992292167672">
        <ele>100.8</ele>
        <time>2018-04-03T11:48:31Z</time>
      </trkpt>
      <trkpt lat="62.631461083861" lon="17.992314882621">
        <ele>100.8</ele>
        <time>2018-04-03T11:48:32Z</time>
      </trkpt>
      <trkpt lat="62.631488576493" lon="17.992326114367">
        <ele>100.8</ele>
        <time>2018-04-03T11:48:33Z</time>
      </trkpt>
      <trkpt lat="62.631506932854" lon="17.992346482384">
        <ele>101</ele>
        <time>2018-04-03T11:48:34Z</time>
      </trkpt>
      <trkpt lat="62.631530402174" lon="17.992354193732">
        <ele>101.2</ele>
        <time>2018-04-03T11:48:35Z</time>
      </trkpt>
      <trkpt lat="62.631555631693" lon="17.992356205388">
        <ele>101.2</ele>
        <time>2018-04-03T11:48:36Z</time>
      </trkpt>
      <trkpt lat="62.6315768379" lon="17.99238453621">
        <ele>101.4</ele>
        <time>2018-04-03T11:48:37Z</time>
      </trkpt>
      <trkpt lat="62.631601899781" lon="17.992401048553">
        <ele>101.6</ele>
        <time>2018-04-03T11:48:38Z</time>
      </trkpt>
      <trkpt lat="62.631626961662" lon="17.992416638887">
        <ele>101.6</ele>
        <time>2018-04-03T11:48:39Z</time>
      </trkpt>
      <trkpt lat="62.631657052683" lon="17.992434408515">
        <ele>102</ele>
        <time>2018-04-03T11:48:40Z</time>
      </trkpt>
      <trkpt lat="62.631687730437" lon="17.992450166487">
        <ele>102</ele>
        <time>2018-04-03T11:48:41Z</time>
      </trkpt>
      <trkpt lat="62.631715223069" lon="17.992433570325">
        <ele>102</ele>
        <time>2018-04-03T11:48:42Z</time>
      </trkpt>
      <trkpt lat="62.631739111484" lon="17.992414543412">
        <ele>102.2</ele>
        <time>2018-04-03T11:48:43Z</time>
      </trkpt>
      <trkpt lat="62.63176543065" lon="17.992391157911">
        <ele>102.2</ele>
        <time>2018-04-03T11:48:44Z</time>
      </trkpt>
      <trkpt lat="62.631790073436" lon="17.992373220645">
        <ele>102.2</ele>
        <time>2018-04-03T11:48:45Z</time>
      </trkpt>
      <trkpt lat="62.631812117833" lon="17.992361485985">
        <ele>102.4</ele>
        <time>2018-04-03T11:48:46Z</time>
      </trkpt>
      <trkpt lat="62.631842795587" lon="17.992329886222">
        <ele>102.4</ele>
        <time>2018-04-03T11:48:47Z</time>
      </trkpt>
      <trkpt lat="62.631867019278" lon="17.992313541517">
        <ele>102.4</ele>
        <time>2018-04-03T11:48:48Z</time>
      </trkpt>
      <trkpt lat="62.631890572417" lon="17.992304153789">
        <ele>102.4</ele>
        <time>2018-04-03T11:48:49Z</time>
      </trkpt>
      <trkpt lat="62.631919741429" lon="17.992287809084">
        <ele>102.4</ele>
        <time>2018-04-03T11:48:50Z</time>
      </trkpt>
      <trkpt lat="62.631951844106" lon="17.992269368904">
        <ele>102.4</ele>
        <time>2018-04-03T11:48:51Z</time>
      </trkpt>
      <trkpt lat="62.631966344793" lon="17.992238439693">
        <ele>102.4</ele>
        <time>2018-04-03T11:48:52Z</time>
      </trkpt>
      <trkpt lat="62.631990568484" lon="17.992217149667">
        <ele>102.6</ele>
        <time>2018-04-03T11:48:53Z</time>
      </trkpt>
      <trkpt lat="62.632016803831" lon="17.992206588473">
        <ele>102.8</ele>
        <time>2018-04-03T11:48:54Z</time>
      </trkpt>
      <trkpt lat="62.632042787721" lon="17.992192758338">
        <ele>103</ele>
        <time>2018-04-03T11:48:55Z</time>
      </trkpt>
      <trkpt lat="62.632071202362" lon="17.992178257651">
        <ele>103</ele>
        <time>2018-04-03T11:48:56Z</time>
      </trkpt>
      <trkpt lat="62.632093582035" lon="17.992167277362">
        <ele>103.2</ele>
        <time>2018-04-03T11:48:57Z</time>
      </trkpt>
      <trkpt lat="62.63212585235" lon="17.992148669544">
        <ele>103.2</ele>
        <time>2018-04-03T11:48:58Z</time>
      </trkpt>
      <trkpt lat="62.632160553416" lon="17.992109358433">
        <ele>103.4</ele>
        <time>2018-04-03T11:48:59Z</time>
      </trkpt>
      <trkpt lat="62.632193578102" lon="17.99208781695">
        <ele>103.6</ele>
        <time>2018-04-03T11:49:00Z</time>
      </trkpt>
      <trkpt lat="62.632225429322" lon="17.992078429222">
        <ele>103.6</ele>
        <time>2018-04-03T11:49:01Z</time>
      </trkpt>
      <trkpt lat="62.632250239746" lon="17.99204758383">
        <ele>103.8</ele>
        <time>2018-04-03T11:49:02Z</time>
      </trkpt>
      <trkpt lat="62.632281671871" lon="17.992025958528">
        <ele>103.8</ele>
        <time>2018-04-03T11:49:03Z</time>
      </trkpt>
      <trkpt lat="62.632320396249" lon="17.992012212212">
        <ele>103.8</ele>
        <time>2018-04-03T11:49:04Z</time>
      </trkpt>
      <trkpt lat="62.632349900537" lon="17.991982037372">
        <ele>103.8</ele>
        <time>2018-04-03T11:49:05Z</time>
      </trkpt>
      <trkpt lat="62.632380159196" lon="17.991944821736">
        <ele>103.8</ele>
        <time>2018-04-03T11:49:06Z</time>
      </trkpt>
      <trkpt lat="62.632411004588" lon="17.991924034624">
        <ele>103.6</ele>
        <time>2018-04-03T11:49:07Z</time>
      </trkpt>
      <trkpt lat="62.632441430885" lon="17.991891848128">
        <ele>103.6</ele>
        <time>2018-04-03T11:49:08Z</time>
      </trkpt>
      <trkpt lat="62.632471689544" lon="17.991858655804">
        <ele>103.6</ele>
        <time>2018-04-03T11:49:09Z</time>
      </trkpt>
      <trkpt lat="62.632511922664" lon="17.991867875894">
        <ele>103.6</ele>
        <time>2018-04-03T11:49:10Z</time>
      </trkpt>
      <trkpt lat="62.632551066137" lon="17.991868462627">
        <ele>103.6</ele>
        <time>2018-04-03T11:49:11Z</time>
      </trkpt>
      <trkpt lat="62.632578223493" lon="17.991844238936">
        <ele>103.6</ele>
        <time>2018-04-03T11:49:12Z</time>
      </trkpt>
      <trkpt lat="62.632613008378" lon="17.991820601978">
        <ele>103.4</ele>
        <time>2018-04-03T11:49:13Z</time>
      </trkpt>
      <trkpt lat="62.632624826857" lon="17.991823870919">
        <ele>103.4</ele>
        <time>2018-04-03T11:49:14Z</time>
      </trkpt>
      <trkpt lat="62.632645613969" lon="17.99181121425">
        <ele>103.4</ele>
        <time>2018-04-03T11:49:15Z</time>
      </trkpt>
      <trkpt lat="62.632654498783" lon="17.991780787953">
        <ele>103.4</ele>
        <time>2018-04-03T11:49:16Z</time>
      </trkpt>
      <trkpt lat="62.632663299778" lon="17.991726137965">
        <ele>103.2</ele>
        <time>2018-04-03T11:49:17Z</time>
      </trkpt>
      <trkpt lat="62.632676459361" lon="17.991670230692">
        <ele>103.4</ele>
        <time>2018-04-03T11:49:18Z</time>
      </trkpt>
      <trkpt lat="62.632681823777" lon="17.991611473573">
        <ele>103.4</ele>
        <time>2018-04-03T11:49:19Z</time>
      </trkpt>
      <trkpt lat="62.632690540953" lon="17.991557075042">
        <ele>103.4</ele>
        <time>2018-04-03T11:49:20Z</time>
      </trkpt>
      <trkpt lat="62.632701940337" lon="17.991504604348">
        <ele>103.4</ele>
        <time>2018-04-03T11:49:21Z</time>
      </trkpt>
      <trkpt lat="62.632716189567" lon="17.991466131427">
        <ele>103.4</ele>
        <time>2018-04-03T11:49:22Z</time>
      </trkpt>
      <trkpt lat="62.632740748534" lon="17.991424557203">
        <ele>103.4</ele>
        <time>2018-04-03T11:49:23Z</time>
      </trkpt>
      <trkpt lat="62.632766313329" lon="17.991386838653">
        <ele>103.6</ele>
        <time>2018-04-03T11:49:24Z</time>
      </trkpt>
      <trkpt lat="62.632788273907" lon="17.991344007144">
        <ele>103.4</ele>
        <time>2018-04-03T11:49:25Z</time>
      </trkpt>
      <trkpt lat="62.632810150666" lon="17.99129991835">
        <ele>103.6</ele>
        <time>2018-04-03T11:49:26Z</time>
      </trkpt>
      <trkpt lat="62.63282155005" lon="17.991266558388">
        <ele>103.4</ele>
        <time>2018-04-03T11:49:27Z</time>
      </trkpt>
      <trkpt lat="62.632834709633" lon="17.991215177341">
        <ele>103.4</ele>
        <time>2018-04-03T11:49:28Z</time>
      </trkpt>
      <trkpt lat="62.63285591584" lon="17.991162203733">
        <ele>103.2</ele>
        <time>2018-04-03T11:49:29Z</time>
      </trkpt>
      <trkpt lat="62.632878714608" lon="17.99112892759">
        <ele>103.2</ele>
        <time>2018-04-03T11:49:30Z</time>
      </trkpt>
      <trkpt lat="62.632905201412" lon="17.991101183501">
        <ele>103.2</ele>
        <time>2018-04-03T11:49:31Z</time>
      </trkpt>
      <trkpt lat="62.63292045647" lon="17.991042510201">
        <ele>103.2</ele>
        <time>2018-04-03T11:49:32Z</time>
      </trkpt>
      <trkpt lat="62.632944177247" lon="17.990995068647">
        <ele>103.2</ele>
        <time>2018-04-03T11:49:33Z</time>
      </trkpt>
      <trkpt lat="62.632957169192" lon="17.990933377863">
        <ele>103.2</ele>
        <time>2018-04-03T11:49:34Z</time>
      </trkpt>
      <trkpt lat="62.632975022639" lon="17.990861712618">
        <ele>103.2</ele>
        <time>2018-04-03T11:49:35Z</time>
      </trkpt>
      <trkpt lat="62.632994301009" lon="17.990791723753">
        <ele>103.2</ele>
        <time>2018-04-03T11:49:36Z</time>
      </trkpt>
      <trkpt lat="62.633006538583" lon="17.990723914182">
        <ele>103</ele>
        <time>2018-04-03T11:49:37Z</time>
      </trkpt>
      <trkpt lat="62.633022212736" lon="17.990653590041">
        <ele>103</ele>
        <time>2018-04-03T11:49:38Z</time>
      </trkpt>
      <trkpt lat="62.633038473622" lon="17.990586283384">
        <ele>103</ele>
        <time>2018-04-03T11:49:39Z</time>
      </trkpt>
      <trkpt lat="62.633067810272" lon="17.990540099115">
        <ele>103</ele>
        <time>2018-04-03T11:49:40Z</time>
      </trkpt>
      <trkpt lat="62.633095302904" lon="17.990480252349">
        <ele>103</ele>
        <time>2018-04-03T11:49:41Z</time>
      </trkpt>
      <trkpt lat="62.63312246026" lon="17.990430966777">
        <ele>103</ele>
        <time>2018-04-03T11:49:42Z</time>
      </trkpt>
      <trkpt lat="62.633146516313" lon="17.990385872155">
        <ele>103</ele>
        <time>2018-04-03T11:49:43Z</time>
      </trkpt>
      <trkpt lat="62.633188174356" lon="17.990346225768">
        <ele>102.8</ele>
        <time>2018-04-03T11:49:44Z</time>
      </trkpt>
      <trkpt lat="62.633222372508" lon="17.990318314041">
        <ele>102.8</ele>
        <time>2018-04-03T11:49:45Z</time>
      </trkpt>
      <trkpt lat="62.63324735057" lon="17.990291994875">
        <ele>103</ele>
        <time>2018-04-03T11:49:46Z</time>
      </trkpt>
      <trkpt lat="62.633291020269" lon="17.990281685138">
        <ele>103</ele>
        <time>2018-04-03T11:49:47Z</time>
      </trkpt>
      <trkpt lat="62.633323458222" lon="17.990268190279">
        <ele>103.2</ele>
        <time>2018-04-03T11:49:48Z</time>
      </trkpt>
      <trkpt lat="62.633350950854" lon="17.990254276325">
        <ele>103.2</ele>
        <time>2018-04-03T11:49:49Z</time>
      </trkpt>
      <trkpt lat="62.633385400463" lon="17.990233237756">
        <ele>103.2</ele>
        <time>2018-04-03T11:49:50Z</time>
      </trkpt>
      <trkpt lat="62.633416748769" lon="17.990211444816">
        <ele>103.4</ele>
        <time>2018-04-03T11:49:51Z</time>
      </trkpt>
      <trkpt lat="62.633458406812" lon="17.990195854482">
        <ele>103.4</ele>
        <time>2018-04-03T11:49:52Z</time>
      </trkpt>
      <trkpt lat="62.633490090394" lon="17.990161321054">
        <ele>103.4</ele>
        <time>2018-04-03T11:49:53Z</time>
      </trkpt>
      <trkpt lat="62.633524037089" lon="17.990110862016">
        <ele>103.6</ele>
        <time>2018-04-03T11:49:54Z</time>
      </trkpt>
      <trkpt lat="62.633556894137" lon="17.990054032734">
        <ele>103.6</ele>
        <time>2018-04-03T11:49:55Z</time>
      </trkpt>
      <trkpt lat="62.633591176108" lon="17.989995946167">
        <ele>103.6</ele>
        <time>2018-04-03T11:49:56Z</time>
      </trkpt>
      <trkpt lat="62.633616321808" lon="17.989940793265">
        <ele>103.6</ele>
        <time>2018-04-03T11:49:57Z</time>
      </trkpt>
      <trkpt lat="62.633653369806" lon="17.989917910678">
        <ele>103.4</ele>
        <time>2018-04-03T11:49:58Z</time>
      </trkpt>
      <trkpt lat="62.633698464428" lon="17.98981296929">
        <ele>103</ele>
        <time>2018-04-03T11:49:59Z</time>
      </trkpt>
      <trkpt lat="62.633729393639" lon="17.989736610181">
        <ele>103</ele>
        <time>2018-04-03T11:50:00Z</time>
      </trkpt>
      <trkpt lat="62.63375948466" lon="17.989669052067">
        <ele>102.8</ele>
        <time>2018-04-03T11:50:01Z</time>
      </trkpt>
      <trkpt lat="62.633782451066" lon="17.989605517265">
        <ele>102.6</ele>
        <time>2018-04-03T11:50:02Z</time>
      </trkpt>
      <trkpt lat="62.633813799372" lon="17.989546592508">
        <ele>102.4</ele>
        <time>2018-04-03T11:50:03Z</time>
      </trkpt>
      <trkpt lat="62.633846991696" lon="17.989508203406">
        <ele>102.4</ele>
        <time>2018-04-03T11:50:04Z</time>
      </trkpt>
      <trkpt lat="62.633877753269" lon="17.989475430177">
        <ele>102.4</ele>
        <time>2018-04-03T11:50:05Z</time>
      </trkpt>
      <trkpt lat="62.633906922281" lon="17.989448272821">
        <ele>102.2</ele>
        <time>2018-04-03T11:50:06Z</time>
      </trkpt>
      <trkpt lat="62.633933492904" lon="17.989425054958">
        <ele>102.2</ele>
        <time>2018-04-03T11:50:07Z</time>
      </trkpt>
      <trkpt lat="62.633962829554" lon="17.989396221222">
        <ele>102.4</ele>
        <time>2018-04-03T11:50:08Z</time>
      </trkpt>
      <trkpt lat="62.63398998691" lon="17.989371410798">
        <ele>102.4</ele>
        <time>2018-04-03T11:50:09Z</time>
      </trkpt>
      <trkpt lat="62.634016641352" lon="17.989349617858">
        <ele>102.4</ele>
        <time>2018-04-03T11:50:10Z</time>
      </trkpt>
      <trkpt lat="62.634040697405" lon="17.989332351144">
        <ele>102</ele>
        <time>2018-04-03T11:50:11Z</time>
      </trkpt>
      <trkpt lat="62.634076152842" lon="17.989275605681">
        <ele>101.4</ele>
        <time>2018-04-03T11:50:12Z</time>
      </trkpt>
      <trkpt lat="62.634104986578" lon="17.989252136361">
        <ele>101</ele>
        <time>2018-04-03T11:50:13Z</time>
      </trkpt>
      <trkpt lat="62.634146225526" lon="17.989198743658">
        <ele>100.2</ele>
        <time>2018-04-03T11:50:14Z</time>
      </trkpt>
      <trkpt lat="62.63418193242" lon="17.989160606013">
        <ele>100.2</ele>
        <time>2018-04-03T11:50:15Z</time>
      </trkpt>
      <trkpt lat="62.634214789468" lon="17.989123055101">
        <ele>100.2</ele>
        <time>2018-04-03T11:50:16Z</time>
      </trkpt>
      <trkpt lat="62.634238007331" lon="17.989072931339">
        <ele>100.6</ele>
        <time>2018-04-03T11:50:17Z</time>
      </trkpt>
      <trkpt lat="62.634264410316" lon="17.989009228899">
        <ele>100.8</ele>
        <time>2018-04-03T11:50:18Z</time>
      </trkpt>
      <trkpt lat="62.634289304559" lon="17.988941922242">
        <ele>101</ele>
        <time>2018-04-03T11:50:19Z</time>
      </trkpt>
      <trkpt lat="62.634315288449" lon="17.988873777395">
        <ele>100.8</ele>
        <time>2018-04-03T11:50:20Z</time>
      </trkpt>
      <trkpt lat="62.634340015054" lon="17.988809320584">
        <ele>100.8</ele>
        <time>2018-04-03T11:50:21Z</time>
      </trkpt>
      <trkpt lat="62.634377649785" lon="17.988759867374">
        <ele>100.8</ele>
        <time>2018-04-03T11:50:22Z</time>
      </trkpt>
      <trkpt lat="62.634419307828" lon="17.988708318689">
        <ele>100.8</ele>
        <time>2018-04-03T11:50:23Z</time>
      </trkpt>
      <trkpt lat="62.634462558432" lon="17.988659871307">
        <ele>100.6</ele>
        <time>2018-04-03T11:50:24Z</time>
      </trkpt>
      <trkpt lat="62.634504970846" lon="17.988623074766">
        <ele>100.4</ele>
        <time>2018-04-03T11:50:25Z</time>
      </trkpt>
      <trkpt lat="62.634541264473" lon="17.988594743944">
        <ele>100.4</ele>
        <time>2018-04-03T11:50:26Z</time>
      </trkpt>
      <trkpt lat="62.634587867837" lon="17.988564820561">
        <ele>100</ele>
        <time>2018-04-03T11:50:27Z</time>
      </trkpt>
      <trkpt lat="62.634642350187" lon="17.988529784219">
        <ele>100</ele>
        <time>2018-04-03T11:50:28Z</time>
      </trkpt>
      <trkpt lat="62.634694485605" lon="17.98848862909">
        <ele>99.6</ele>
        <time>2018-04-03T11:50:29Z</time>
      </trkpt>
      <trkpt lat="62.634740753693" lon="17.988452838377">
        <ele>99.4</ele>
        <time>2018-04-03T11:50:30Z</time>
      </trkpt>
      <trkpt lat="62.634784926306" lon="17.988423334089">
        <ele>99.4</ele>
        <time>2018-04-03T11:50:31Z</time>
      </trkpt>
      <trkpt lat="62.634832703136" lon="17.988376982182">
        <ele>99</ele>
        <time>2018-04-03T11:50:32Z</time>
      </trkpt>
      <trkpt lat="62.634873187713" lon="17.988349321912">
        <ele>99</ele>
        <time>2018-04-03T11:50:33Z</time>
      </trkpt>
      <trkpt lat="62.634918030878" lon="17.98830003634">
        <ele>98.6</ele>
        <time>2018-04-03T11:50:34Z</time>
      </trkpt>
      <trkpt lat="62.634953737772" lon="17.988260306134">
        <ele>98.2</ele>
        <time>2018-04-03T11:50:35Z</time>
      </trkpt>
      <trkpt lat="62.634984499345" lon="17.988220575928">
        <ele>98</ele>
        <time>2018-04-03T11:50:36Z</time>
      </trkpt>
      <trkpt lat="62.635014925642" lon="17.988137511299">
        <ele>97.8</ele>
        <time>2018-04-03T11:50:37Z</time>
      </trkpt>
      <trkpt lat="62.635036131849" lon="17.98806366676">
        <ele>97.8</ele>
        <time>2018-04-03T11:50:38Z</time>
      </trkpt>
      <trkpt lat="62.635057086599" lon="17.987986469461">
        <ele>97.6</ele>
        <time>2018-04-03T11:50:39Z</time>
      </trkpt>
      <trkpt lat="62.635065887594" lon="17.987902399004">
        <ele>97.6</ele>
        <time>2018-04-03T11:50:40Z</time>
      </trkpt>
      <trkpt lat="62.635078208987" lon="17.98782813537">
        <ele>97.4</ele>
        <time>2018-04-03T11:50:41Z</time>
      </trkpt>
      <trkpt lat="62.635081561747" lon="17.98775437465">
        <ele>97.2</ele>
        <time>2018-04-03T11:50:42Z</time>
      </trkpt>
      <trkpt lat="62.635090614199" lon="17.987690504572">
        <ele>97</ele>
        <time>2018-04-03T11:50:43Z</time>
      </trkpt>
      <trkpt lat="62.635082819032" lon="17.987647002511">
        <ele>96.8</ele>
        <time>2018-04-03T11:50:44Z</time>
      </trkpt>
      <trkpt lat="62.635074353313" lon="17.987601488794">
        <ele>96.6</ele>
        <time>2018-04-03T11:50:45Z</time>
      </trkpt>
      <trkpt lat="62.635057673332" lon="17.987594447998">
        <ele>96.4</ele>
        <time>2018-04-03T11:50:46Z</time>
      </trkpt>
      <trkpt lat="62.63503520984" lon="17.987648259796">
        <ele>96.4</ele>
        <time>2018-04-03T11:50:47Z</time>
      </trkpt>
      <trkpt lat="62.635022301714" lon="17.987688828192">
        <ele>96.2</ele>
        <time>2018-04-03T11:50:48Z</time>
      </trkpt>
      <trkpt lat="62.63500252043" lon="17.987731575882">
        <ele>96.2</ele>
        <time>2018-04-03T11:50:49Z</time>
      </trkpt>
      <trkpt lat="62.634982320051" lon="17.987775161762">
        <ele>96.2</ele>
        <time>2018-04-03T11:50:50Z</time>
      </trkpt>
      <trkpt lat="62.634966645898" lon="17.987814137597">
        <ele>96.2</ele>
        <time>2018-04-03T11:50:51Z</time>
      </trkpt>
      <trkpt lat="62.634956000885" lon="17.987862417341">
        <ele>96.2</ele>
        <time>2018-04-03T11:50:52Z</time>
      </trkpt>
      <trkpt lat="62.634946277881" lon="17.987902482823">
        <ele>96.2</ele>
        <time>2018-04-03T11:50:53Z</time>
      </trkpt>
      <trkpt lat="62.634927586244" lon="17.987939195545">
        <ele>96</ele>
        <time>2018-04-03T11:50:54Z</time>
      </trkpt>
      <trkpt lat="62.634910822444" lon="17.98797230405">
        <ele>96.2</ele>
        <time>2018-04-03T11:50:55Z</time>
      </trkpt>
      <trkpt lat="62.634898752508" lon="17.987999377587">
        <ele>96.2</ele>
        <time>2018-04-03T11:50:56Z</time>
      </trkpt>
      <trkpt lat="62.634871092238" lon="17.988010944609">
        <ele>96.4</ele>
        <time>2018-04-03T11:50:57Z</time>
      </trkpt>
      <trkpt lat="62.634852149144" lon="17.988030222979">
        <ele>96.4</ele>
        <time>2018-04-03T11:50:58Z</time>
      </trkpt>
      <trkpt lat="62.634830020928" lon="17.988060397819">
        <ele>96.6</ele>
        <time>2018-04-03T11:50:59Z</time>
      </trkpt>
      <trkpt lat="62.634808479445" lon="17.988081184931">
        <ele>96.8</ele>
        <time>2018-04-03T11:51:00Z</time>
      </trkpt>
      <trkpt lat="62.634787440876" lon="17.988098619283">
        <ele>97</ele>
        <time>2018-04-03T11:51:01Z</time>
      </trkpt>
      <trkpt lat="62.634759361511" lon="17.988109934848">
        <ele>97.2</ele>
        <time>2018-04-03T11:51:02Z</time>
      </trkpt>
      <trkpt lat="62.634718541658" lon="17.988116305092">
        <ele>97.2</ele>
        <time>2018-04-03T11:51:03Z</time>
      </trkpt>
      <trkpt lat="62.634692557768" lon="17.988136086376">
        <ele>97.4</ele>
        <time>2018-04-03T11:51:04Z</time>
      </trkpt>
      <trkpt lat="62.634662969661" lon="17.988135248186">
        <ele>97.4</ele>
        <time>2018-04-03T11:51:05Z</time>
      </trkpt>
      <trkpt lat="62.634632543364" lon="17.988148826864">
        <ele>97.4</ele>
        <time>2018-04-03T11:51:06Z</time>
      </trkpt>
      <trkpt lat="62.634605721284" lon="17.988156789669">
        <ele>97.4</ele>
        <time>2018-04-03T11:51:07Z</time>
      </trkpt>
      <trkpt lat="62.634585604724" lon="17.988155616203">
        <ele>97.6</ele>
        <time>2018-04-03T11:51:08Z</time>
      </trkpt>
      <trkpt lat="62.634569427657" lon="17.988148156312">
        <ele>97.8</ele>
        <time>2018-04-03T11:51:09Z</time>
      </trkpt>
      <trkpt lat="62.634531876745" lon="17.988160812981">
        <ele>97.8</ele>
        <time>2018-04-03T11:51:10Z</time>
      </trkpt>
      <trkpt lat="62.634510167624" lon="17.988176570953">
        <ele>97.8</ele>
        <time>2018-04-03T11:51:11Z</time>
      </trkpt>
      <trkpt lat="62.634476891481" lon="17.988180007532">
        <ele>98</ele>
        <time>2018-04-03T11:51:12Z</time>
      </trkpt>
      <trkpt lat="62.634449901763" lon="17.988181432455">
        <ele>98.4</ele>
        <time>2018-04-03T11:51:13Z</time>
      </trkpt>
      <trkpt lat="62.634434311429" lon="17.988181935369">
        <ele>98.4</ele>
        <time>2018-04-03T11:51:14Z</time>
      </trkpt>
      <trkpt lat="62.634410506833" lon="17.988180761903">
        <ele>98.4</ele>
        <time>2018-04-03T11:51:15Z</time>
      </trkpt>
      <trkpt lat="62.634382762744" lon="17.988188473251">
        <ele>98.6</ele>
        <time>2018-04-03T11:51:16Z</time>
      </trkpt>
      <trkpt lat="62.63435627594" lon="17.988197358065">
        <ele>99</ele>
        <time>2018-04-03T11:51:17Z</time>
      </trkpt>
      <trkpt lat="62.634336662294" lon="17.988179923713">
        <ele>99</ele>
        <time>2018-04-03T11:51:18Z</time>
      </trkpt>
      <trkpt lat="62.63430849911" lon="17.988167937596">
        <ele>99</ele>
        <time>2018-04-03T11:51:19Z</time>
      </trkpt>
      <trkpt lat="62.634283018134" lon="17.988162992275">
        <ele>99.2</ele>
        <time>2018-04-03T11:51:20Z</time>
      </trkpt>
      <trkpt lat="62.634245551041" lon="17.988136170195">
        <ele>99.2</ele>
        <time>2018-04-03T11:51:21Z</time>
      </trkpt>
      <trkpt lat="62.634224344834" lon="17.988115215445">
        <ele>99</ele>
        <time>2018-04-03T11:51:22Z</time>
      </trkpt>
      <trkpt lat="62.634213448364" lon="17.988082023121">
        <ele>99.2</ele>
        <time>2018-04-03T11:51:23Z</time>
      </trkpt>
      <trkpt lat="62.634176568004" lon="17.988040281259">
        <ele>99.2</ele>
        <time>2018-04-03T11:51:24Z</time>
      </trkpt>
      <trkpt lat="62.634141447843" lon="17.988029384789">
        <ele>99.2</ele>
        <time>2018-04-03T11:51:25Z</time>
      </trkpt>
      <trkpt lat="62.634090821167" lon="17.988009938781">
        <ele>99.4</ele>
        <time>2018-04-03T11:51:26Z</time>
      </trkpt>
      <trkpt lat="62.634047738201" lon="17.988004742003">
        <ele>99.4</ele>
        <time>2018-04-03T11:51:27Z</time>
      </trkpt>
      <trkpt lat="62.634011360755" lon="17.988006334564">
        <ele>99.6</ele>
        <time>2018-04-03T11:51:28Z</time>
      </trkpt>
      <trkpt lat="62.633966433771" lon="17.988015554654">
        <ele>99.6</ele>
        <time>2018-04-03T11:51:29Z</time>
      </trkpt>
      <trkpt lat="62.633938773501" lon="17.988009603505">
        <ele>99.8</ele>
        <time>2018-04-03T11:51:30Z</time>
      </trkpt>
      <trkpt lat="62.633909017756" lon="17.987985295995">
        <ele>99.8</ele>
        <time>2018-04-03T11:51:31Z</time>
      </trkpt>
      <trkpt lat="62.63387515488" lon="17.987963167779">
        <ele>100</ele>
        <time>2018-04-03T11:51:32Z</time>
      </trkpt>
      <trkpt lat="62.633841962556" lon="17.98790860161">
        <ele>100.2</ele>
        <time>2018-04-03T11:51:33Z</time>
      </trkpt>
      <trkpt lat="62.6338148052" lon="17.987883623548">
        <ele>100.4</ele>
        <time>2018-04-03T11:51:34Z</time>
      </trkpt>
      <trkpt lat="62.633769710578" lon="17.987845821179">
        <ele>100.4</ele>
        <time>2018-04-03T11:51:35Z</time>
      </trkpt>
      <trkpt lat="62.633738110815" lon="17.987824028239">
        <ele>100.6</ele>
        <time>2018-04-03T11:51:36Z</time>
      </trkpt>
      <trkpt lat="62.633709612355" lon="17.987816149253">
        <ele>100.6</ele>
        <time>2018-04-03T11:51:37Z</time>
      </trkpt>
      <trkpt lat="62.633673402547" lon="17.987777927789">
        <ele>100.6</ele>
        <time>2018-04-03T11:51:38Z</time>
      </trkpt>
      <trkpt lat="62.63364465263" lon="17.987745657474">
        <ele>100.8</ele>
        <time>2018-04-03T11:51:39Z</time>
      </trkpt>
      <trkpt lat="62.633606850261" lon="17.987727636389">
        <ele>101.2</ele>
        <time>2018-04-03T11:51:40Z</time>
      </trkpt>
      <trkpt lat="62.633583129484" lon="17.987700143757">
        <ele>101.4</ele>
        <time>2018-04-03T11:51:41Z</time>
      </trkpt>
      <trkpt lat="62.633552703187" lon="17.987646751054">
        <ele>101.6</ele>
        <time>2018-04-03T11:51:42Z</time>
      </trkpt>
      <trkpt lat="62.63350635128" lon="17.987631244539">
        <ele>101.8</ele>
        <time>2018-04-03T11:51:43Z</time>
      </trkpt>
      <trkpt lat="62.633483384874" lon="17.987584389718">
        <ele>102</ele>
        <time>2018-04-03T11:51:44Z</time>
      </trkpt>
      <trkpt lat="62.63345857445" lon="17.987540049467">
        <ele>102</ele>
        <time>2018-04-03T11:51:45Z</time>
      </trkpt>
      <trkpt lat="62.633434350759" lon="17.987498056148">
        <ele>102.2</ele>
        <time>2018-04-03T11:51:46Z</time>
      </trkpt>
      <trkpt lat="62.633418173692" lon="17.9874651991">
        <ele>102.2</ele>
        <time>2018-04-03T11:51:47Z</time>
      </trkpt>
      <trkpt lat="62.633394201458" lon="17.987412309311">
        <ele>102.4</ele>
        <time>2018-04-03T11:51:48Z</time>
      </trkpt>
      <trkpt lat="62.633372157061" lon="17.987357156409">
        <ele>102.4</ele>
        <time>2018-04-03T11:51:49Z</time>
      </trkpt>
      <trkpt lat="62.633349861207" lon="17.987298064014">
        <ele>102.6</ele>
        <time>2018-04-03T11:51:50Z</time>
      </trkpt>
      <trkpt lat="62.633324883145" lon="17.987226817864">
        <ele>102.8</ele>
        <time>2018-04-03T11:51:51Z</time>
      </trkpt>
      <trkpt lat="62.633290768812" lon="17.987140232837">
        <ele>103.2</ele>
        <time>2018-04-03T11:51:52Z</time>
      </trkpt>
      <trkpt lat="62.633267215673" lon="17.987031351956">
        <ele>103.2</ele>
        <time>2018-04-03T11:51:53Z</time>
      </trkpt>
      <trkpt lat="62.633245255095" lon="17.986930266242">
        <ele>102.6</ele>
        <time>2018-04-03T11:51:54Z</time>
      </trkpt>
      <trkpt lat="62.63322639582" lon="17.986829431985">
        <ele>102</ele>
        <time>2018-04-03T11:51:55Z</time>
      </trkpt>
      <trkpt lat="62.633210386391" lon="17.986729184461">
        <ele>101.2</ele>
        <time>2018-04-03T11:51:56Z</time>
      </trkpt>
      <trkpt lat="62.633205608708" lon="17.986605551436">
        <ele>100.2</ele>
        <time>2018-04-03T11:51:57Z</time>
      </trkpt>
      <trkpt lat="62.633201166301" lon="17.98649708965">
        <ele>99.2</ele>
        <time>2018-04-03T11:51:58Z</time>
      </trkpt>
      <trkpt lat="62.633194963695" lon="17.986379994507">
        <ele>99</ele>
        <time>2018-04-03T11:51:59Z</time>
      </trkpt>
      <trkpt lat="62.633190688926" lon="17.986270359255">
        <ele>99</ele>
        <time>2018-04-03T11:52:00Z</time>
      </trkpt>
      <trkpt lat="62.633188258175" lon="17.986157203605">
        <ele>99</ele>
        <time>2018-04-03T11:52:01Z</time>
      </trkpt>
      <trkpt lat="62.633192784401" lon="17.986024853404">
        <ele>98.8</ele>
        <time>2018-04-03T11:52:02Z</time>
      </trkpt>
      <trkpt lat="62.6331945446" lon="17.985911949211">
        <ele>98.6</ele>
        <time>2018-04-03T11:52:03Z</time>
      </trkpt>
      <trkpt lat="62.633197142989" lon="17.985791249851">
        <ele>98.4</ele>
        <time>2018-04-03T11:52:04Z</time>
      </trkpt>
      <trkpt lat="62.633196556256" lon="17.985679602943">
        <ele>97.8</ele>
        <time>2018-04-03T11:52:05Z</time>
      </trkpt>
      <trkpt lat="62.633192113849" lon="17.985576924668">
        <ele>97.4</ele>
        <time>2018-04-03T11:52:06Z</time>
      </trkpt>
      <trkpt lat="62.633187755261" lon="17.985460667715">
        <ele>97</ele>
        <time>2018-04-03T11:52:07Z</time>
      </trkpt>
      <trkpt lat="62.63318951546" lon="17.985351786834">
        <ele>97</ele>
        <time>2018-04-03T11:52:08Z</time>
      </trkpt>
      <trkpt lat="62.63319203003" lon="17.985234104958">
        <ele>97.2</ele>
        <time>2018-04-03T11:52:09Z</time>
      </trkpt>
      <trkpt lat="62.633211643676" lon="17.985098653454">
        <ele>97</ele>
        <time>2018-04-03T11:52:10Z</time>
      </trkpt>
      <trkpt lat="62.633234107168" lon="17.984967560538">
        <ele>97.2</ele>
        <time>2018-04-03T11:52:11Z</time>
      </trkpt>
      <trkpt lat="62.633263192361" lon="17.984824230048">
        <ele>96.6</ele>
        <time>2018-04-03T11:52:12Z</time>
      </trkpt>
      <trkpt lat="62.633292109916" lon="17.984707805457">
        <ele>96.4</ele>
        <time>2018-04-03T11:52:13Z</time>
      </trkpt>
      <trkpt lat="62.633322368575" lon="17.984584004794">
        <ele>95.8</ele>
        <time>2018-04-03T11:52:14Z</time>
      </trkpt>
      <trkpt lat="62.633345502619" lon="17.984479817777">
        <ele>95.2</ele>
        <time>2018-04-03T11:52:15Z</time>
      </trkpt>
      <trkpt lat="62.633364529532" lon="17.984375127846">
        <ele>95</ele>
        <time>2018-04-03T11:52:16Z</time>
      </trkpt>
      <trkpt lat="62.633378778762" lon="17.984268007164">
        <ele>94</ele>
        <time>2018-04-03T11:52:17Z</time>
      </trkpt>
      <trkpt lat="62.633397554218" lon="17.984173207875">
        <ele>93.6</ele>
        <time>2018-04-03T11:52:18Z</time>
      </trkpt>
      <trkpt lat="62.63341834133" lon="17.984078995319">
        <ele>93.6</ele>
        <time>2018-04-03T11:52:19Z</time>
      </trkpt>
      <trkpt lat="62.63343007599" lon="17.983980759451">
        <ele>93.8</ele>
        <time>2018-04-03T11:52:20Z</time>
      </trkpt>
      <trkpt lat="62.633447845618" lon="17.983895096433">
        <ele>94</ele>
        <time>2018-04-03T11:52:21Z</time>
      </trkpt>
      <trkpt lat="62.633427812877" lon="17.98380901432">
        <ele>94.4</ele>
        <time>2018-04-03T11:52:22Z</time>
      </trkpt>
      <trkpt lat="62.633429321619" lon="17.983718908895">
        <ele>95</ele>
        <time>2018-04-03T11:52:23Z</time>
      </trkpt>
      <trkpt lat="62.633431333275" lon="17.983637604465">
        <ele>95.4</ele>
        <time>2018-04-03T11:52:24Z</time>
      </trkpt>
      <trkpt lat="62.633437116786" lon="17.983557138225">
        <ele>95.6</ele>
        <time>2018-04-03T11:52:25Z</time>
      </trkpt>
      <trkpt lat="62.633447594161" lon="17.983485808256">
        <ele>95.6</ele>
        <time>2018-04-03T11:52:26Z</time>
      </trkpt>
      <trkpt lat="62.633455808423" lon="17.983405342016">
        <ele>95.6</ele>
        <time>2018-04-03T11:52:27Z</time>
      </trkpt>
      <trkpt lat="62.633471566395" lon="17.983334850237">
        <ele>95.4</ele>
        <time>2018-04-03T11:52:28Z</time>
      </trkpt>
      <trkpt lat="62.633484139245" lon="17.983257401481">
        <ele>95.6</ele>
        <time>2018-04-03T11:52:29Z</time>
      </trkpt>
      <trkpt lat="62.633497885561" lon="17.98317953363">
        <ele>95.6</ele>
        <time>2018-04-03T11:52:30Z</time>
      </trkpt>
      <trkpt lat="62.633518169759" lon="17.983111807878">
        <ele>95.6</ele>
        <time>2018-04-03T11:52:31Z</time>
      </trkpt>
      <trkpt lat="62.633523450356" lon="17.983030503448">
        <ele>95.8</ele>
        <time>2018-04-03T11:52:32Z</time>
      </trkpt>
      <trkpt lat="62.633537280491" lon="17.982966214275">
        <ele>95.8</ele>
        <time>2018-04-03T11:52:33Z</time>
      </trkpt>
      <trkpt lat="62.633547254952" lon="17.982891866822">
        <ele>95.8</ele>
        <time>2018-04-03T11:52:34Z</time>
      </trkpt>
      <trkpt lat="62.633556726499" lon="17.982818189921">
        <ele>95.6</ele>
        <time>2018-04-03T11:52:35Z</time>
      </trkpt>
      <trkpt lat="62.633560582173" lon="17.982747195228">
        <ele>95.6</ele>
        <time>2018-04-03T11:52:36Z</time>
      </trkpt>
      <trkpt lat="62.633568544978" lon="17.982665220246">
        <ele>95.6</ele>
        <time>2018-04-03T11:52:37Z</time>
      </trkpt>
      <trkpt lat="62.63358178838" lon="17.982594812286">
        <ele>95.6</ele>
        <time>2018-04-03T11:52:38Z</time>
      </trkpt>
      <trkpt lat="62.633593187764" lon="17.982535468434">
        <ele>95.6</ele>
        <time>2018-04-03T11:52:39Z</time>
      </trkpt>
      <trkpt lat="62.633607604632" lon="17.982465731026">
        <ele>95.6</ele>
        <time>2018-04-03T11:52:40Z</time>
      </trkpt>
      <trkpt lat="62.633617914369" lon="17.982395239247">
        <ele>95.6</ele>
        <time>2018-04-03T11:52:41Z</time>
      </trkpt>
      <trkpt lat="62.633628056468" lon="17.982307732211">
        <ele>95.8</ele>
        <time>2018-04-03T11:52:42Z</time>
      </trkpt>
      <trkpt lat="62.633637276558" lon="17.982234390586">
        <ele>95.8</ele>
        <time>2018-04-03T11:52:43Z</time>
      </trkpt>
      <trkpt lat="62.633657979851" lon="17.982154091984">
        <ele>95.6</ele>
        <time>2018-04-03T11:52:44Z</time>
      </trkpt>
      <trkpt lat="62.633669043959" lon="17.982103465308">
        <ele>95.8</ele>
        <time>2018-04-03T11:52:45Z</time>
      </trkpt>
      <trkpt lat="62.633683879922" lon="17.982044037637">
        <ele>95.6</ele>
        <time>2018-04-03T11:52:46Z</time>
      </trkpt>
      <trkpt lat="62.633699386437" lon="17.981978072084">
        <ele>95.8</ele>
        <time>2018-04-03T11:52:47Z</time>
      </trkpt>
      <trkpt lat="62.63370751688" lon="17.981919901698">
        <ele>95.6</ele>
        <time>2018-04-03T11:52:48Z</time>
      </trkpt>
      <trkpt lat="62.633708103613" lon="17.981857205086">
        <ele>95.8</ele>
        <time>2018-04-03T11:52:49Z</time>
      </trkpt>
      <trkpt lat="62.633700895179" lon="17.981802052184">
        <ele>95.8</ele>
        <time>2018-04-03T11:52:50Z</time>
      </trkpt>
      <trkpt lat="62.633694692573" lon="17.981764082177">
        <ele>95.8</ele>
        <time>2018-04-03T11:52:51Z</time>
      </trkpt>
      <trkpt lat="62.633692932374" lon="17.981672551829">
        <ele>95.6</ele>
        <time>2018-04-03T11:52:52Z</time>
      </trkpt>
      <trkpt lat="62.633683293189" lon="17.981603820249">
        <ele>95.8</ele>
        <time>2018-04-03T11:52:53Z</time>
      </trkpt>
      <trkpt lat="62.633678766963" lon="17.981545733682">
        <ele>95.8</ele>
        <time>2018-04-03T11:52:54Z</time>
      </trkpt>
      <trkpt lat="62.633680610981" lon="17.981486725106">
        <ele>95.8</ele>
        <time>2018-04-03T11:52:55Z</time>
      </trkpt>
      <trkpt lat="62.633681449171" lon="17.981427967987">
        <ele>95.8</ele>
        <time>2018-04-03T11:52:56Z</time>
      </trkpt>
      <trkpt lat="62.633699554075" lon="17.981367953583">
        <ele>95.8</ele>
        <time>2018-04-03T11:52:57Z</time>
      </trkpt>
      <trkpt lat="62.633717323703" lon="17.981290169551">
        <ele>96</ele>
        <time>2018-04-03T11:52:58Z</time>
      </trkpt>
      <trkpt lat="62.633736434435" lon="17.981229568414">
        <ele>96</ele>
        <time>2018-04-03T11:52:59Z</time>
      </trkpt>
      <trkpt lat="62.633750851303" lon="17.981173661141">
        <ele>95.8</ele>
        <time>2018-04-03T11:53:00Z</time>
      </trkpt>
      <trkpt lat="62.633760825764" lon="17.981130913451">
        <ele>95.8</ele>
        <time>2018-04-03T11:53:01Z</time>
      </trkpt>
      <trkpt lat="62.633775326451" lon="17.981048519374">
        <ele>95.8</ele>
        <time>2018-04-03T11:53:02Z</time>
      </trkpt>
      <trkpt lat="62.633784965636" lon="17.980997892698">
        <ele>96</ele>
        <time>2018-04-03T11:53:03Z</time>
      </trkpt>
      <trkpt lat="62.633808518775" lon="17.980942739796">
        <ele>96</ele>
        <time>2018-04-03T11:53:04Z</time>
      </trkpt>
      <trkpt lat="62.633830563172" lon="17.980889095636">
        <ele>96.2</ele>
        <time>2018-04-03T11:53:05Z</time>
      </trkpt>
      <trkpt lat="62.633849422447" lon="17.980839558607">
        <ele>96.4</ele>
        <time>2018-04-03T11:53:06Z</time>
      </trkpt>
      <trkpt lat="62.63386593479" lon="17.980776359081">
        <ele>96.6</ele>
        <time>2018-04-03T11:53:07Z</time>
      </trkpt>
      <trkpt lat="62.633885716074" lon="17.980717015229">
        <ele>96.8</ele>
        <time>2018-04-03T11:53:08Z</time>
      </trkpt>
      <trkpt lat="62.633902312236" lon="17.980662281422">
        <ele>96.8</ele>
        <time>2018-04-03T11:53:09Z</time>
      </trkpt>
      <trkpt lat="62.633926200651" lon="17.980572259816">
        <ele>97</ele>
        <time>2018-04-03T11:53:10Z</time>
      </trkpt>
      <trkpt lat="62.633951597808" lon="17.980507551548">
        <ele>97.2</ele>
        <time>2018-04-03T11:53:11Z</time>
      </trkpt>
      <trkpt lat="62.633972971653" lon="17.980427085308">
        <ele>97.2</ele>
        <time>2018-04-03T11:53:12Z</time>
      </trkpt>
      <trkpt lat="62.633996021878" lon="17.980360952117">
        <ele>97.2</ele>
        <time>2018-04-03T11:53:13Z</time>
      </trkpt>
      <trkpt lat="62.634022173406" lon="17.980301524446">
        <ele>97.2</ele>
        <time>2018-04-03T11:53:14Z</time>
      </trkpt>
      <trkpt lat="62.634050001314" lon="17.980260034041">
        <ele>97.2</ele>
        <time>2018-04-03T11:53:15Z</time>
      </trkpt>
      <trkpt lat="62.634074979376" lon="17.98022575207">
        <ele>97.2</ele>
        <time>2018-04-03T11:53:16Z</time>
      </trkpt>
      <trkpt lat="62.634122337111" lon="17.980183255837">
        <ele>97.2</ele>
        <time>2018-04-03T11:53:17Z</time>
      </trkpt>
      <trkpt lat="62.634168018466" lon="17.980140675785">
        <ele>97.2</ele>
        <time>2018-04-03T11:53:18Z</time>
      </trkpt>
      <trkpt lat="62.63420959269" lon="17.980083846503">
        <ele>97.2</ele>
        <time>2018-04-03T11:53:19Z</time>
      </trkpt>
      <trkpt lat="62.634245886317" lon="17.980020646977">
        <ele>97.4</ele>
        <time>2018-04-03T11:53:20Z</time>
      </trkpt>
      <trkpt lat="62.634273211311" lon="17.979965158799">
        <ele>97.4</ele>
        <time>2018-04-03T11:53:21Z</time>
      </trkpt>
      <trkpt lat="62.634296932088" lon="17.979874466641">
        <ele>97.2</ele>
        <time>2018-04-03T11:53:22Z</time>
      </trkpt>
      <trkpt lat="62.634318808847" lon="17.979803891043">
        <ele>97</ele>
        <time>2018-04-03T11:53:23Z</time>
      </trkpt>
      <trkpt lat="62.634338590131" lon="17.979723005708">
        <ele>96.8</ele>
        <time>2018-04-03T11:53:24Z</time>
      </trkpt>
      <trkpt lat="62.634354683379" lon="17.979650334635">
        <ele>96.8</ele>
        <time>2018-04-03T11:53:25Z</time>
      </trkpt>
      <trkpt lat="62.634373626473" lon="17.979583111797">
        <ele>96.8</ele>
        <time>2018-04-03T11:53:26Z</time>
      </trkpt>
      <trkpt lat="62.634384522943" lon="17.979497616417">
        <ele>96.8</ele>
        <time>2018-04-03T11:53:27Z</time>
      </trkpt>
      <trkpt lat="62.634406064426" lon="17.979415557616">
        <ele>96.8</ele>
        <time>2018-04-03T11:53:28Z</time>
      </trkpt>
      <trkpt lat="62.634418553457" lon="17.979343640914">
        <ele>96.8</ele>
        <time>2018-04-03T11:53:29Z</time>
      </trkpt>
      <trkpt lat="62.634434059972" lon="17.979274071144">
        <ele>96.8</ele>
        <time>2018-04-03T11:53:30Z</time>
      </trkpt>
      <trkpt lat="62.634448644478" lon="17.979211374532">
        <ele>96.8</ele>
        <time>2018-04-03T11:53:31Z</time>
      </trkpt>
      <trkpt lat="62.634462474613" lon="17.97913275231">
        <ele>97</ele>
        <time>2018-04-03T11:53:32Z</time>
      </trkpt>
      <trkpt lat="62.634476891481" lon="17.979058656314">
        <ele>97</ele>
        <time>2018-04-03T11:53:33Z</time>
      </trkpt>
      <trkpt lat="62.634494744928" lon="17.978991265838">
        <ele>97</ele>
        <time>2018-04-03T11:53:34Z</time>
      </trkpt>
      <trkpt lat="62.634510251443" lon="17.978909458494">
        <ele>97</ele>
        <time>2018-04-03T11:53:35Z</time>
      </trkpt>
      <trkpt lat="62.634524333035" lon="17.978843995855">
        <ele>97.2</ele>
        <time>2018-04-03T11:53:36Z</time>
      </trkpt>
      <trkpt lat="62.63454151593" lon="17.978764200167">
        <ele>97.2</ele>
        <time>2018-04-03T11:53:37Z</time>
      </trkpt>
      <trkpt lat="62.634552077124" lon="17.97868012971">
        <ele>97.4</ele>
        <time>2018-04-03T11:53:38Z</time>
      </trkpt>
      <trkpt lat="62.6345691762" lon="17.978618271288">
        <ele>97.4</ele>
        <time>2018-04-03T11:53:39Z</time>
      </trkpt>
      <trkpt lat="62.6345691762" lon="17.978558508341">
        <ele>97.6</ele>
        <time>2018-04-03T11:53:40Z</time>
      </trkpt>
      <trkpt lat="62.634567416001" lon="17.978492039874">
        <ele>97.4</ele>
        <time>2018-04-03T11:53:41Z</time>
      </trkpt>
      <trkpt lat="62.63458929276" lon="17.978406125399">
        <ele>97.2</ele>
        <time>2018-04-03T11:53:42Z</time>
      </trkpt>
      <trkpt lat="62.634582335783" lon="17.97829875326">
        <ele>97</ele>
        <time>2018-04-03T11:53:43Z</time>
      </trkpt>
      <trkpt lat="62.634611337157" lon="17.978186687257">
        <ele>96.8</ele>
        <time>2018-04-03T11:53:44Z</time>
      </trkpt>
      <trkpt lat="62.634626340758" lon="17.978074369797">
        <ele>96.6</ele>
        <time>2018-04-03T11:53:45Z</time>
      </trkpt>
      <trkpt lat="62.634625502568" lon="17.977992897729">
        <ele>96.6</ele>
        <time>2018-04-03T11:53:46Z</time>
      </trkpt>
      <trkpt lat="62.634642266368" lon="17.977894578042">
        <ele>96.2</ele>
        <time>2018-04-03T11:53:47Z</time>
      </trkpt>
      <trkpt lat="62.634647798422" lon="17.977800449305">
        <ele>96.2</ele>
        <time>2018-04-03T11:53:48Z</time>
      </trkpt>
      <trkpt lat="62.634650312992" lon="17.97772710768">
        <ele>95.8</ele>
        <time>2018-04-03T11:53:49Z</time>
      </trkpt>
      <trkpt lat="62.634664059308" lon="17.97763825954">
        <ele>95.6</ele>
        <time>2018-04-03T11:53:50Z</time>
      </trkpt>
      <trkpt lat="62.634676548339" lon="17.977533904885">
        <ele>95.6</ele>
        <time>2018-04-03T11:53:51Z</time>
      </trkpt>
      <trkpt lat="62.634699514745" lon="17.977458132509">
        <ele>95.6</ele>
        <time>2018-04-03T11:53:52Z</time>
      </trkpt>
      <trkpt lat="62.634716194726" lon="17.97737925883">
        <ele>95.6</ele>
        <time>2018-04-03T11:53:53Z</time>
      </trkpt>
      <trkpt lat="62.634727845567" lon="17.977309186146">
        <ele>95.4</ele>
        <time>2018-04-03T11:53:54Z</time>
      </trkpt>
      <trkpt lat="62.634742346254" lon="17.977252105407">
        <ele>95.6</ele>
        <time>2018-04-03T11:53:55Z</time>
      </trkpt>
      <trkpt lat="62.634756763122" lon="17.977205166767">
        <ele>95.8</ele>
        <time>2018-04-03T11:53:56Z</time>
      </trkpt>
      <trkpt lat="62.634772353456" lon="17.977118330283">
        <ele>95.8</ele>
        <time>2018-04-03T11:53:57Z</time>
      </trkpt>
      <trkpt lat="62.634785764496" lon="17.977036020025">
        <ele>95.6</ele>
        <time>2018-04-03T11:53:58Z</time>
      </trkpt>
      <trkpt lat="62.634801438649" lon="17.976948680627">
        <ele>95.6</ele>
        <time>2018-04-03T11:53:59Z</time>
      </trkpt>
      <trkpt lat="62.634814430594" lon="17.976851869682">
        <ele>95.6</ele>
        <time>2018-04-03T11:54:00Z</time>
      </trkpt>
      <trkpt lat="62.634834714792" lon="17.976771319623">
        <ele>95.4</ele>
        <time>2018-04-03T11:54:01Z</time>
      </trkpt>
      <trkpt lat="62.634851478592" lon="17.976723626612">
        <ele>95.4</ele>
        <time>2018-04-03T11:54:02Z</time>
      </trkpt>
      <trkpt lat="62.634866817469" lon="17.976596557008">
        <ele>95.4</ele>
        <time>2018-04-03T11:54:03Z</time>
      </trkpt>
      <trkpt lat="62.634876456654" lon="17.976527993066">
        <ele>95</ele>
        <time>2018-04-03T11:54:04Z</time>
      </trkpt>
      <trkpt lat="62.634888778047" lon="17.976460518771">
        <ele>95</ele>
        <time>2018-04-03T11:54:05Z</time>
      </trkpt>
      <trkpt lat="62.634902608182" lon="17.976399163263">
        <ele>94.8</ele>
        <time>2018-04-03T11:54:06Z</time>
      </trkpt>
      <trkpt lat="62.63493043609" lon="17.976312075322">
        <ele>94.6</ele>
        <time>2018-04-03T11:54:07Z</time>
      </trkpt>
      <trkpt lat="62.634955162695" lon="17.976234375109">
        <ele>94.6</ele>
        <time>2018-04-03T11:54:08Z</time>
      </trkpt>
      <trkpt lat="62.634978129101" lon="17.97614711953">
        <ele>94.4</ele>
        <time>2018-04-03T11:54:09Z</time>
      </trkpt>
      <trkpt lat="62.635005454095" lon="17.976103701288">
        <ele>94.4</ele>
        <time>2018-04-03T11:54:10Z</time>
      </trkpt>
      <trkpt lat="62.635024229551" lon="17.976005884515">
        <ele>94.2</ele>
        <time>2018-04-03T11:54:11Z</time>
      </trkpt>
      <trkpt lat="62.635044094654" lon="17.975925753551">
        <ele>94.2</ele>
        <time>2018-04-03T11:54:12Z</time>
      </trkpt>
      <trkpt lat="62.635063456843" lon="17.975861799654">
        <ele>94</ele>
        <time>2018-04-03T11:54:13Z</time>
      </trkpt>
      <trkpt lat="62.635079969186" lon="17.975758450827">
        <ele>93.8</ele>
        <time>2018-04-03T11:54:14Z</time>
      </trkpt>
      <trkpt lat="62.635103354687" lon="17.975651078688">
        <ele>93.6</ele>
        <time>2018-04-03T11:54:15Z</time>
      </trkpt>
      <trkpt lat="62.635111233673" lon="17.975574300484">
        <ele>93.6</ele>
        <time>2018-04-03T11:54:16Z</time>
      </trkpt>
      <trkpt lat="62.635124477075" lon="17.975492157864">
        <ele>93.4</ele>
        <time>2018-04-03T11:54:17Z</time>
      </trkpt>
      <trkpt lat="62.635132356061" lon="17.975383779897">
        <ele>93.4</ele>
        <time>2018-04-03T11:54:18Z</time>
      </trkpt>
      <trkpt lat="62.635150544784" lon="17.975302559286">
        <ele>93.4</ele>
        <time>2018-04-03T11:54:19Z</time>
      </trkpt>
      <trkpt lat="62.635162279444" lon="17.97521589044">
        <ele>93</ele>
        <time>2018-04-03T11:54:20Z</time>
      </trkpt>
      <trkpt lat="62.635161525073" lon="17.975130478879">
        <ele>92.6</ele>
        <time>2018-04-03T11:54:21Z</time>
      </trkpt>
      <trkpt lat="62.63513998359" lon="17.975016987953">
        <ele>92</ele>
        <time>2018-04-03T11:54:22Z</time>
      </trkpt>
      <trkpt lat="62.635127829835" lon="17.974940377387">
        <ele>91.6</ele>
        <time>2018-04-03T11:54:23Z</time>
      </trkpt>
      <trkpt lat="62.635124141799" lon="17.97488312901">
        <ele>91</ele>
        <time>2018-04-03T11:54:24Z</time>
      </trkpt>
      <trkpt lat="62.635114921709" lon="17.974820348579">
        <ele>90.6</ele>
        <time>2018-04-03T11:54:25Z</time>
      </trkpt>
      <trkpt lat="62.635102013583" lon="17.974740888167">
        <ele>90.2</ele>
        <time>2018-04-03T11:54:26Z</time>
      </trkpt>
      <trkpt lat="62.635088518724" lon="17.974659583737">
        <ele>89.8</ele>
        <time>2018-04-03T11:54:27Z</time>
      </trkpt>
      <trkpt lat="62.635030599795" lon="17.974521450025">
        <ele>89.4</ele>
        <time>2018-04-03T11:54:28Z</time>
      </trkpt>
      <trkpt lat="62.634998413299" lon="17.974436122283">
        <ele>89.4</ele>
        <time>2018-04-03T11:54:29Z</time>
      </trkpt>
      <trkpt lat="62.634968238459" lon="17.974359679355">
        <ele>89.4</ele>
        <time>2018-04-03T11:54:30Z</time>
      </trkpt>
      <trkpt lat="62.634943763311" lon="17.974292540336">
        <ele>89.4</ele>
        <time>2018-04-03T11:54:31Z</time>
      </trkpt>
      <trkpt lat="62.634922724742" lon="17.974204781843">
        <ele>89.4</ele>
        <time>2018-04-03T11:54:32Z</time>
      </trkpt>
      <trkpt lat="62.63490948134" lon="17.974149461303">
        <ele>89.6</ele>
        <time>2018-04-03T11:54:33Z</time>
      </trkpt>
      <trkpt lat="62.634875450826" lon="17.974035802739">
        <ele>89.8</ele>
        <time>2018-04-03T11:54:34Z</time>
      </trkpt>
      <trkpt lat="62.634860950139" lon="17.973963383123">
        <ele>89.8</ele>
        <time>2018-04-03T11:54:35Z</time>
      </trkpt>
      <trkpt lat="62.634854076981" lon="17.973898339579">
        <ele>89.6</ele>
        <time>2018-04-03T11:54:36Z</time>
      </trkpt>
      <trkpt lat="62.6348122513" lon="17.973771772889">
        <ele>89.6</ele>
        <time>2018-04-03T11:54:37Z</time>
      </trkpt>
      <trkpt lat="62.634789536351" lon="17.973690300821">
        <ele>89.4</ele>
        <time>2018-04-03T11:54:38Z</time>
      </trkpt>
      <trkpt lat="62.63477369456" lon="17.973624754363">
        <ele>89.4</ele>
        <time>2018-04-03T11:54:39Z</time>
      </trkpt>
      <trkpt lat="62.634758523321" lon="17.973506904849">
        <ele>89.4</ele>
        <time>2018-04-03T11:54:40Z</time>
      </trkpt>
      <trkpt lat="62.634739580227" lon="17.973429372274">
        <ele>89.2</ele>
        <time>2018-04-03T11:54:41Z</time>
      </trkpt>
      <trkpt lat="62.634735473096" lon="17.973312612407">
        <ele>89.2</ele>
        <time>2018-04-03T11:54:42Z</time>
      </trkpt>
      <trkpt lat="62.634739664046" lon="17.973206246096">
        <ele>89.2</ele>
        <time>2018-04-03T11:54:43Z</time>
      </trkpt>
      <trkpt lat="62.634743854996" lon="17.973120331621">
        <ele>89</ele>
        <time>2018-04-03T11:54:44Z</time>
      </trkpt>
      <trkpt lat="62.634746453385" lon="17.973059395208">
        <ele>89</ele>
        <time>2018-04-03T11:54:45Z</time>
      </trkpt>
      <trkpt lat="62.634767324316" lon="17.972941461875">
        <ele>88.8</ele>
        <time>2018-04-03T11:54:46Z</time>
      </trkpt>
      <trkpt lat="62.634771682904" lon="17.972841968722">
        <ele>88.6</ele>
        <time>2018-04-03T11:54:47Z</time>
      </trkpt>
      <trkpt lat="62.634801773925" lon="17.97275915555">
        <ele>88.8</ele>
        <time>2018-04-03T11:54:48Z</time>
      </trkpt>
      <trkpt lat="62.634824069779" lon="17.972692519445">
        <ele>88.6</ele>
        <time>2018-04-03T11:54:49Z</time>
      </trkpt>
      <trkpt lat="62.634842929054" lon="17.972634432878">
        <ele>88.6</ele>
        <time>2018-04-03T11:54:50Z</time>
      </trkpt>
      <trkpt lat="62.634874025903" lon="17.972560672158">
        <ele>88.6</ele>
        <time>2018-04-03T11:54:51Z</time>
      </trkpt>
      <trkpt lat="62.634909900435" lon="17.972471404923">
        <ele>88.4</ele>
        <time>2018-04-03T11:54:52Z</time>
      </trkpt>
      <trkpt lat="62.634938734171" lon="17.97239789566">
        <ele>88</ele>
        <time>2018-04-03T11:54:53Z</time>
      </trkpt>
      <trkpt lat="62.634966645898" lon="17.972319441076">
        <ele>87.8</ele>
        <time>2018-04-03T11:54:54Z</time>
      </trkpt>
      <trkpt lat="62.634994809082" lon="17.972224055054">
        <ele>87.4</ele>
        <time>2018-04-03T11:54:55Z</time>
      </trkpt>
      <trkpt lat="62.635022134076" lon="17.972122298788">
        <ele>87</ele>
        <time>2018-04-03T11:54:56Z</time>
      </trkpt>
      <trkpt lat="62.635047112138" lon="17.97202406292">
        <ele>87</ele>
        <time>2018-04-03T11:54:57Z</time>
      </trkpt>
      <trkpt lat="62.63506957563" lon="17.971878301679">
        <ele>86.8</ele>
        <time>2018-04-03T11:54:58Z</time>
      </trkpt>
      <trkpt lat="62.635088518724" lon="17.971745280926">
        <ele>86.8</ele>
        <time>2018-04-03T11:54:59Z</time>
      </trkpt>
      <trkpt lat="62.635106372171" lon="17.97161670258">
        <ele>86.8</ele>
        <time>2018-04-03T11:55:00Z</time>
      </trkpt>
      <trkpt lat="62.635120956677" lon="17.971496170858">
        <ele>86.8</ele>
        <time>2018-04-03T11:55:01Z</time>
      </trkpt>
      <trkpt lat="62.635135122088" lon="17.971370777634">
        <ele>86.6</ele>
        <time>2018-04-03T11:55:02Z</time>
      </trkpt>
      <trkpt lat="62.635150209508" lon="17.971255694147">
        <ele>86.4</ele>
        <time>2018-04-03T11:55:03Z</time>
      </trkpt>
      <trkpt lat="62.635164710195" lon="17.97112552324">
        <ele>85.6</ele>
        <time>2018-04-03T11:55:04Z</time>
      </trkpt>
      <trkpt lat="62.635176277217" lon="17.971011948495">
        <ele>85.2</ele>
        <time>2018-04-03T11:55:05Z</time>
      </trkpt>
      <trkpt lat="62.635187928058" lon="17.970904073442">
        <ele>84.8</ele>
        <time>2018-04-03T11:55:06Z</time>
      </trkpt>
      <trkpt lat="62.635202680202" lon="17.970773734897">
        <ele>84</ele>
        <time>2018-04-03T11:55:07Z</time>
      </trkpt>
      <trkpt lat="62.635216761794" lon="17.970666698034">
        <ele>83.8</ele>
        <time>2018-04-03T11:55:08Z</time>
      </trkpt>
      <trkpt lat="62.635229586101" lon="17.970566282872">
        <ele>83.2</ele>
        <time>2018-04-03T11:55:09Z</time>
      </trkpt>
      <trkpt lat="62.635241991313" lon="17.970453127222">
        <ele>82.6</ele>
        <time>2018-04-03T11:55:10Z</time>
      </trkpt>
      <trkpt lat="62.635250792308" lon="17.970357489743">
        <ele>82.2</ele>
        <time>2018-04-03T11:55:11Z</time>
      </trkpt>
      <trkpt lat="62.635269986859" lon="17.970238969677">
        <ele>81.4</ele>
        <time>2018-04-03T11:55:12Z</time>
      </trkpt>
      <trkpt lat="62.635285241917" lon="17.970133693013">
        <ele>81</ele>
        <time>2018-04-03T11:55:13Z</time>
      </trkpt>
      <trkpt lat="62.635303514459" lon="17.97003252348">
        <ele>80.8</ele>
        <time>2018-04-03T11:55:14Z</time>
      </trkpt>
      <trkpt lat="62.63532270901" lon="17.969944681168">
        <ele>80.6</ele>
        <time>2018-04-03T11:55:15Z</time>
      </trkpt>
      <trkpt lat="62.635344837226" lon="17.969853318458">
        <ele>80.2</ele>
        <time>2018-04-03T11:55:16Z</time>
      </trkpt>
      <trkpt lat="62.63537467679" lon="17.969749382898">
        <ele>79.8</ele>
        <time>2018-04-03T11:55:17Z</time>
      </trkpt>
      <trkpt lat="62.635399990128" lon="17.969667659373">
        <ele>79.4</ele>
        <time>2018-04-03T11:55:18Z</time>
      </trkpt>
      <trkpt lat="62.635423627086" lon="17.969582918364">
        <ele>79.2</ele>
        <time>2018-04-03T11:55:19Z</time>
      </trkpt>
      <trkpt lat="62.635446677311" lon="17.969504044685">
        <ele>79</ele>
        <time>2018-04-03T11:55:20Z</time>
      </trkpt>
      <trkpt lat="62.635475846323" lon="17.969430200146">
        <ele>78.4</ele>
        <time>2018-04-03T11:55:21Z</time>
      </trkpt>
      <trkpt lat="62.635504260964" lon="17.969328862975">
        <ele>78</ele>
        <time>2018-04-03T11:55:22Z</time>
      </trkpt>
      <trkpt lat="62.635533681433" lon="17.969235488609">
        <ele>77.8</ele>
        <time>2018-04-03T11:55:23Z</time>
      </trkpt>
      <trkpt lat="62.635566789938" lon="17.969142533338">
        <ele>77.2</ele>
        <time>2018-04-03T11:55:24Z</time>
      </trkpt>
      <trkpt lat="62.635598892615" lon="17.969050835352">
        <ele>76.6</ele>
        <time>2018-04-03T11:55:25Z</time>
      </trkpt>
      <trkpt lat="62.635629738007" lon="17.968965004696">
        <ele>76.4</ele>
        <time>2018-04-03T11:55:26Z</time>
      </trkpt>
      <trkpt lat="62.635657482096" lon="17.968877749117">
        <ele>75.8</ele>
        <time>2018-04-03T11:55:27Z</time>
      </trkpt>
      <trkpt lat="62.635697547578" lon="17.968780519077">
        <ele>75</ele>
        <time>2018-04-03T11:55:28Z</time>
      </trkpt>
      <trkpt lat="62.63573509849" lon="17.968699633742">
        <ele>74.6</ele>
        <time>2018-04-03T11:55:29Z</time>
      </trkpt>
      <trkpt lat="62.63577449342" lon="17.968626627393">
        <ele>74.2</ele>
        <time>2018-04-03T11:55:30Z</time>
      </trkpt>
      <trkpt lat="62.635813636893" lon="17.968559404555">
        <ele>74</ele>
        <time>2018-04-03T11:55:31Z</time>
      </trkpt>
      <trkpt lat="62.635866861958" lon="17.968523362385">
        <ele>73.4</ele>
        <time>2018-04-03T11:55:32Z</time>
      </trkpt>
      <trkpt lat="62.635914219693" lon="17.968492600812">
        <ele>73.2</ele>
        <time>2018-04-03T11:55:33Z</time>
      </trkpt>
      <trkpt lat="62.6359605716" lon="17.968493271364">
        <ele>73</ele>
        <time>2018-04-03T11:55:34Z</time>
      </trkpt>
      <trkpt lat="62.636000637082" lon="17.968491594984">
        <ele>73</ele>
        <time>2018-04-03T11:55:35Z</time>
      </trkpt>
      <trkpt lat="62.636028381171" lon="17.968480949971">
        <ele>72.8</ele>
        <time>2018-04-03T11:55:36Z</time>
      </trkpt>
    </trkseg>
  </trk>
</gpx>